<?xml version="1.0" encoding="UTF-8" standalone="no" ?><gpx xmlns="http://www.topografix.com/GPX/1/1" xmlns:gpxx="http://www.garmin.com/xmlschemas/GpxExtensions/v3" xmlns:wptx1="http://www.garmin.com/xmlschemas/WaypointExtension/v1" xmlns:gpxtpx="http://www.garmin.com/xmlschemas/TrackPointExtension/v1" creator="GuideVTT.com" version="1.1" xmlns:xsi="http://www.w3.org/2001/XMLSchema-instance" xsi:schemaLocation="http://www.topografix.com/GPX/1/1 http://www.topografix.com/GPX/1/1/gpx.xsd http://www.garmin.com/xmlschemas/GpxExtensions/v3 http://www8.garmin.com/xmlschemas/GpxExtensionsv3.xsd http://www.garmin.com/xmlschemas/WaypointExtension/v1 http://www8.garmin.com/xmlschemas/WaypointExtensionv1.xsd http://www.garmin.com/xmlschemas/TrackPointExtension/v1 http://www.garmin.com/xmlschemas/TrackPointExtensionv1.xsd">
<metadata><link href="http://www.garmin.com"><text>Garmin International</text></link><time>2013-06-22T15:13:50Z</time></metadata>
<trk><name>bulle-saint_saturnin_etape1.gpx</name><extensions><gpxx:TrackExtension><gpxx:DisplayColor>Cyan</gpxx:DisplayColor></gpxx:TrackExtension></extensions><trkseg>
<trkpt lat="46.61478100" lon="7.05416000"><ele>770.038025</ele><time>2010-05-30T06:30:38Z</time></trkpt>
<trkpt lat="46.61499200" lon="7.05420100"><ele>770.038025</ele><time>2010-05-30T06:30:43Z</time></trkpt>
<trkpt lat="46.61532700" lon="7.05424300"><ele>769.921997</ele><time>2010-05-30T06:30:51Z</time></trkpt>
<trkpt lat="46.61542900" lon="7.05426600"><ele>769.677979</ele><time>2010-05-30T06:30:55Z</time></trkpt>
<trkpt lat="46.61545000" lon="7.05426600"><ele>769.689026</ele><time>2010-05-30T06:30:56Z</time></trkpt>
<trkpt lat="46.61552400" lon="7.05407900"><ele>769.997009</ele><time>2010-05-30T06:31:01Z</time></trkpt>
<trkpt lat="46.61553500" lon="7.05402200"><ele>770.179016</ele><time>2010-05-30T06:31:02Z</time></trkpt>
<trkpt lat="46.61566100" lon="7.05376700"><ele>770.820007</ele><time>2010-05-30T06:31:07Z</time></trkpt>
<trkpt lat="46.61567100" lon="7.05358500"><ele>770.843994</ele><time>2010-05-30T06:31:10Z</time></trkpt>
<trkpt lat="46.61558000" lon="7.05327500"><ele>771.330994</ele><time>2010-05-30T06:31:15Z</time></trkpt>
<trkpt lat="46.61545400" lon="7.05264100"><ele>772.226013</ele><time>2010-05-30T06:31:25Z</time></trkpt>
<trkpt lat="46.61535900" lon="7.05214800"><ele>773.241028</ele><time>2010-05-30T06:31:33Z</time></trkpt>
<trkpt lat="46.61525500" lon="7.05164000"><ele>774.192017</ele><time>2010-05-30T06:31:41Z</time></trkpt>
<trkpt lat="46.61512200" lon="7.05101000"><ele>775.585999</ele><time>2010-05-30T06:31:51Z</time></trkpt>
<trkpt lat="46.61499200" lon="7.05038300"><ele>776.557983</ele><time>2010-05-30T06:32:01Z</time></trkpt>
<trkpt lat="46.61485300" lon="7.04971700"><ele>777.872986</ele><time>2010-05-30T06:32:12Z</time></trkpt>
<trkpt lat="46.61470500" lon="7.04897800"><ele>779.495972</ele><time>2010-05-30T06:32:24Z</time></trkpt>
<trkpt lat="46.61459100" lon="7.04842500"><ele>780.773987</ele><time>2010-05-30T06:32:33Z</time></trkpt>
<trkpt lat="46.61447700" lon="7.04782100"><ele>782.172974</ele><time>2010-05-30T06:32:43Z</time></trkpt>
<trkpt lat="46.61439100" lon="7.04731300"><ele>783.463989</ele><time>2010-05-30T06:32:51Z</time></trkpt>
<trkpt lat="46.61423400" lon="7.04664900"><ele>785.20697</ele><time>2010-05-30T06:33:02Z</time></trkpt>
<trkpt lat="46.61410000" lon="7.04600900"><ele>786.572021</ele><time>2010-05-30T06:33:12Z</time></trkpt>
<trkpt lat="46.61394200" lon="7.04524400"><ele>788.169006</ele><time>2010-05-30T06:33:24Z</time></trkpt>
<trkpt lat="46.61380000" lon="7.04461000"><ele>789.78302</ele><time>2010-05-30T06:33:34Z</time></trkpt>
<trkpt lat="46.61367900" lon="7.04400500"><ele>791.692017</ele><time>2010-05-30T06:33:44Z</time></trkpt>
<trkpt lat="46.61357800" lon="7.04345600"><ele>792.838989</ele><time>2010-05-30T06:33:53Z</time></trkpt>
<trkpt lat="46.61350200" lon="7.04288800"><ele>794.317017</ele><time>2010-05-30T06:34:02Z</time></trkpt>
<trkpt lat="46.61345600" lon="7.04227800"><ele>795.445984</ele><time>2010-05-30T06:34:11Z</time></trkpt>
<trkpt lat="46.61344600" lon="7.04153800"><ele>797.09198</ele><time>2010-05-30T06:34:22Z</time></trkpt>
<trkpt lat="46.61339400" lon="7.04082200"><ele>798.656006</ele><time>2010-05-30T06:34:33Z</time></trkpt>
<trkpt lat="46.61335700" lon="7.04013000"><ele>800.177979</ele><time>2010-05-30T06:34:44Z</time></trkpt>
<trkpt lat="46.61337900" lon="7.03953000"><ele>801.39502</ele><time>2010-05-30T06:34:54Z</time></trkpt>
<trkpt lat="46.61345300" lon="7.03898100"><ele>802.539001</ele><time>2010-05-30T06:35:03Z</time></trkpt>
<trkpt lat="46.61356200" lon="7.03822100"><ele>803.531982</ele><time>2010-05-30T06:35:15Z</time></trkpt>
<trkpt lat="46.61362200" lon="7.03777500"><ele>804.284973</ele><time>2010-05-30T06:35:22Z</time></trkpt>
<trkpt lat="46.61367900" lon="7.03734500"><ele>804.844971</ele><time>2010-05-30T06:35:29Z</time></trkpt>
<trkpt lat="46.61377200" lon="7.03668600"><ele>805.810974</ele><time>2010-05-30T06:35:39Z</time></trkpt>
<trkpt lat="46.61388100" lon="7.03589200"><ele>807.093018</ele><time>2010-05-30T06:35:51Z</time></trkpt>
<trkpt lat="46.61395300" lon="7.03538700"><ele>807.786987</ele><time>2010-05-30T06:35:59Z</time></trkpt>
<trkpt lat="46.61402800" lon="7.03484000"><ele>809.070007</ele><time>2010-05-30T06:36:08Z</time></trkpt>
<trkpt lat="46.61412600" lon="7.03418200"><ele>810.234009</ele><time>2010-05-30T06:36:19Z</time></trkpt>
<trkpt lat="46.61422200" lon="7.03372200"><ele>810.948975</ele><time>2010-05-30T06:36:26Z</time></trkpt>
<trkpt lat="46.61437700" lon="7.03322500"><ele>810.924988</ele><time>2010-05-30T06:36:33Z</time></trkpt>
<trkpt lat="46.61461100" lon="7.03269600"><ele>810.596985</ele><time>2010-05-30T06:36:40Z</time></trkpt>
<trkpt lat="46.61492600" lon="7.03213800"><ele>809.198975</ele><time>2010-05-30T06:36:47Z</time></trkpt>
<trkpt lat="46.61536000" lon="7.03139200"><ele>807.01001</ele><time>2010-05-30T06:36:55Z</time></trkpt>
<trkpt lat="46.61557300" lon="7.03099500"><ele>805.867004</ele><time>2010-05-30T06:36:59Z</time></trkpt>
<trkpt lat="46.61585400" lon="7.03037800"><ele>804.015991</ele><time>2010-05-30T06:37:05Z</time></trkpt>
<trkpt lat="46.61599000" lon="7.03007500"><ele>803.491028</ele><time>2010-05-30T06:37:08Z</time></trkpt>
<trkpt lat="46.61626000" lon="7.02939400"><ele>802.594971</ele><time>2010-05-30T06:37:15Z</time></trkpt>
<trkpt lat="46.61655300" lon="7.02860300"><ele>802.322021</ele><time>2010-05-30T06:37:24Z</time></trkpt>
<trkpt lat="46.61686100" lon="7.02806100"><ele>802.151978</ele><time>2010-05-30T06:37:31Z</time></trkpt>
<trkpt lat="46.61726600" lon="7.02756200"><ele>801.044983</ele><time>2010-05-30T06:37:38Z</time></trkpt>
<trkpt lat="46.61769200" lon="7.02719500"><ele>799.59198</ele><time>2010-05-30T06:37:44Z</time></trkpt>
<trkpt lat="46.61790200" lon="7.02702900"><ele>799.478027</ele><time>2010-05-30T06:37:47Z</time></trkpt>
<trkpt lat="46.61809600" lon="7.02671200"><ele>799.484985</ele><time>2010-05-30T06:37:51Z</time></trkpt>
<trkpt lat="46.61812700" lon="7.02642600"><ele>800.153992</ele><time>2010-05-30T06:37:54Z</time></trkpt>
<trkpt lat="46.61810800" lon="7.02588300"><ele>801.530029</ele><time>2010-05-30T06:38:01Z</time></trkpt>
<trkpt lat="46.61808600" lon="7.02539200"><ele>803.44397</ele><time>2010-05-30T06:38:09Z</time></trkpt>
<trkpt lat="46.61806700" lon="7.02496800"><ele>805.463013</ele><time>2010-05-30T06:38:16Z</time></trkpt>
<trkpt lat="46.61801800" lon="7.02466800"><ele>806.596985</ele><time>2010-05-30T06:38:21Z</time></trkpt>
<trkpt lat="46.61791700" lon="7.02423400"><ele>807.450012</ele><time>2010-05-30T06:38:28Z</time></trkpt>
<trkpt lat="46.61775600" lon="7.02371200"><ele>807.455994</ele><time>2010-05-30T06:38:36Z</time></trkpt>
<trkpt lat="46.61770300" lon="7.02318600"><ele>807.005005</ele><time>2010-05-30T06:38:42Z</time></trkpt>
<trkpt lat="46.61763400" lon="7.02229600"><ele>806.085999</ele><time>2010-05-30T06:38:51Z</time></trkpt>
<trkpt lat="46.61765100" lon="7.02149300"><ele>805.208008</ele><time>2010-05-30T06:38:59Z</time></trkpt>
<trkpt lat="46.61772400" lon="7.02091200"><ele>804.763</ele><time>2010-05-30T06:39:05Z</time></trkpt>
<trkpt lat="46.61768800" lon="7.02032200"><ele>804.65802</ele><time>2010-05-30T06:39:11Z</time></trkpt>
<trkpt lat="46.61750400" lon="7.01970700"><ele>804.085999</ele><time>2010-05-30T06:39:18Z</time></trkpt>
<trkpt lat="46.61728400" lon="7.01913900"><ele>804.215027</ele><time>2010-05-30T06:39:25Z</time></trkpt>
<trkpt lat="46.61726600" lon="7.01877400"><ele>803.883972</ele><time>2010-05-30T06:39:29Z</time></trkpt>
<trkpt lat="46.61744800" lon="7.01860400"><ele>803.271973</ele><time>2010-05-30T06:39:32Z</time></trkpt>
<trkpt lat="46.61810100" lon="7.01818700"><ele>802.247986</ele><time>2010-05-30T06:39:42Z</time></trkpt>
<trkpt lat="46.61863100" lon="7.01768300"><ele>801.591003</ele><time>2010-05-30T06:39:51Z</time></trkpt>
<trkpt lat="46.61891500" lon="7.01728000"><ele>801.758972</ele><time>2010-05-30T06:39:57Z</time></trkpt>
<trkpt lat="46.61902600" lon="7.01684600"><ele>801.455017</ele><time>2010-05-30T06:40:02Z</time></trkpt>
<trkpt lat="46.61902000" lon="7.01665800"><ele>801.31897</ele><time>2010-05-30T06:40:04Z</time></trkpt>
<trkpt lat="46.61890200" lon="7.01563700"><ele>801.601013</ele><time>2010-05-30T06:40:15Z</time></trkpt>
<trkpt lat="46.61885400" lon="7.01482300"><ele>801.320984</ele><time>2010-05-30T06:40:24Z</time></trkpt>
<trkpt lat="46.61882300" lon="7.01430600"><ele>801.708008</ele><time>2010-05-30T06:40:30Z</time></trkpt>
<trkpt lat="46.61874500" lon="7.01359600"><ele>802.250977</ele><time>2010-05-30T06:40:39Z</time></trkpt>
<trkpt lat="46.61863400" lon="7.01279800"><ele>802.34198</ele><time>2010-05-30T06:40:49Z</time></trkpt>
<trkpt lat="46.61859600" lon="7.01247300"><ele>802.567017</ele><time>2010-05-30T06:40:53Z</time></trkpt>
<trkpt lat="46.61857100" lon="7.01173400"><ele>802.562012</ele><time>2010-05-30T06:41:02Z</time></trkpt>
<trkpt lat="46.61848400" lon="7.01117700"><ele>801.719971</ele><time>2010-05-30T06:41:08Z</time></trkpt>
<trkpt lat="46.61836400" lon="7.01064000"><ele>799.242981</ele><time>2010-05-30T06:41:13Z</time></trkpt>
<trkpt lat="46.61829500" lon="7.01028200"><ele>797.530029</ele><time>2010-05-30T06:41:16Z</time></trkpt>
<trkpt lat="46.61829000" lon="7.00991700"><ele>796.434998</ele><time>2010-05-30T06:41:19Z</time></trkpt>
<trkpt lat="46.61839000" lon="7.00956500"><ele>794.669006</ele><time>2010-05-30T06:41:22Z</time></trkpt>
<trkpt lat="46.61857200" lon="7.00926600"><ele>793.171997</ele><time>2010-05-30T06:41:25Z</time></trkpt>
<trkpt lat="46.61870600" lon="7.00908400"><ele>792.445984</ele><time>2010-05-30T06:41:27Z</time></trkpt>
<trkpt lat="46.61904700" lon="7.00855800"><ele>791.75</ele><time>2010-05-30T06:41:33Z</time></trkpt>
<trkpt lat="46.61922400" lon="7.00810700"><ele>791.713013</ele><time>2010-05-30T06:41:38Z</time></trkpt>
<trkpt lat="46.61936600" lon="7.00750200"><ele>791.828003</ele><time>2010-05-30T06:41:45Z</time></trkpt>
<trkpt lat="46.61947900" lon="7.00674600"><ele>792.593994</ele><time>2010-05-30T06:41:54Z</time></trkpt>
<trkpt lat="46.61946400" lon="7.00623600"><ele>792.260986</ele><time>2010-05-30T06:42:00Z</time></trkpt>
<trkpt lat="46.61937300" lon="7.00556800"><ele>791.968994</ele><time>2010-05-30T06:42:08Z</time></trkpt>
<trkpt lat="46.61925900" lon="7.00479200"><ele>792.364014</ele><time>2010-05-30T06:42:17Z</time></trkpt>
<trkpt lat="46.61924000" lon="7.00417900"><ele>792.466003</ele><time>2010-05-30T06:42:24Z</time></trkpt>
<trkpt lat="46.61933500" lon="7.00352600"><ele>793.070984</ele><time>2010-05-30T06:42:32Z</time></trkpt>
<trkpt lat="46.61938800" lon="7.00291500"><ele>794.059998</ele><time>2010-05-30T06:42:40Z</time></trkpt>
<trkpt lat="46.61934500" lon="7.00243200"><ele>795.11499</ele><time>2010-05-30T06:42:47Z</time></trkpt>
<trkpt lat="46.61926400" lon="7.00205400"><ele>795.474976</ele><time>2010-05-30T06:42:53Z</time></trkpt>
<trkpt lat="46.61925300" lon="7.00198900"><ele>795.611023</ele><time>2010-05-30T06:42:54Z</time></trkpt>
<trkpt lat="46.61914400" lon="7.00134000"><ele>796.424011</ele><time>2010-05-30T06:43:04Z</time></trkpt>
<trkpt lat="46.61911700" lon="7.00081800"><ele>796.45697</ele><time>2010-05-30T06:43:12Z</time></trkpt>
<trkpt lat="46.61914200" lon="7.00044100"><ele>796.28302</ele><time>2010-05-30T06:43:19Z</time></trkpt>
<trkpt lat="46.61917700" lon="7.00024200"><ele>795.890015</ele><time>2010-05-30T06:43:25Z</time></trkpt>
<trkpt lat="46.61917700" lon="7.00024100"><ele>795.666016</ele><time>2010-05-30T06:43:27Z</time></trkpt>
<trkpt lat="46.61919200" lon="7.00014800"><ele>795.732971</ele><time>2010-05-30T06:44:29Z</time></trkpt>
<trkpt lat="46.61919600" lon="7.00011900"><ele>795.870972</ele><time>2010-05-30T06:44:30Z</time></trkpt>
<trkpt lat="46.61922300" lon="6.99994800"><ele>796.348022</ele><time>2010-05-30T06:44:34Z</time></trkpt>
<trkpt lat="46.61929100" lon="6.99948300"><ele>796.999023</ele><time>2010-05-30T06:44:42Z</time></trkpt>
<trkpt lat="46.61934700" lon="6.99912500"><ele>798.093994</ele><time>2010-05-30T06:44:48Z</time></trkpt>
<trkpt lat="46.61934000" lon="6.99907400"><ele>798.255005</ele><time>2010-05-30T06:44:49Z</time></trkpt>
<trkpt lat="46.61936100" lon="6.99891600"><ele>798.796021</ele><time>2010-05-30T06:44:51Z</time></trkpt>
<trkpt lat="46.61948400" lon="6.99856300"><ele>799.275024</ele><time>2010-05-30T06:44:55Z</time></trkpt>
<trkpt lat="46.61951400" lon="6.99836400"><ele>799.807007</ele><time>2010-05-30T06:44:58Z</time></trkpt>
<trkpt lat="46.61954000" lon="6.99822700"><ele>800.153015</ele><time>2010-05-30T06:45:00Z</time></trkpt>
<trkpt lat="46.61962200" lon="6.99797600"><ele>800.778992</ele><time>2010-05-30T06:45:04Z</time></trkpt>
<trkpt lat="46.61980700" lon="6.99760800"><ele>801.997986</ele><time>2010-05-30T06:45:11Z</time></trkpt>
<trkpt lat="46.61995300" lon="6.99738200"><ele>803.401001</ele><time>2010-05-30T06:45:16Z</time></trkpt>
<trkpt lat="46.62016600" lon="6.99708600"><ele>805.075012</ele><time>2010-05-30T06:45:23Z</time></trkpt>
<trkpt lat="46.62041400" lon="6.99670800"><ele>807.789001</ele><time>2010-05-30T06:45:32Z</time></trkpt>
<trkpt lat="46.62057100" lon="6.99636200"><ele>809.809021</ele><time>2010-05-30T06:45:40Z</time></trkpt>
<trkpt lat="46.62066800" lon="6.99598100"><ele>811.635986</ele><time>2010-05-30T06:45:48Z</time></trkpt>
<trkpt lat="46.62071200" lon="6.99554600"><ele>813.677002</ele><time>2010-05-30T06:45:57Z</time></trkpt>
<trkpt lat="46.62069800" lon="6.99512700"><ele>814.823975</ele><time>2010-05-30T06:46:05Z</time></trkpt>
<trkpt lat="46.62066300" lon="6.99465500"><ele>816.616028</ele><time>2010-05-30T06:46:14Z</time></trkpt>
<trkpt lat="46.62063200" lon="6.99424000"><ele>817.653015</ele><time>2010-05-30T06:46:22Z</time></trkpt>
<trkpt lat="46.62059800" lon="6.99362400"><ele>819.166992</ele><time>2010-05-30T06:46:33Z</time></trkpt>
<trkpt lat="46.62065000" lon="6.99316900"><ele>818.825012</ele><time>2010-05-30T06:46:40Z</time></trkpt>
<trkpt lat="46.62070300" lon="6.99298100"><ele>819.414001</ele><time>2010-05-30T06:46:43Z</time></trkpt>
<trkpt lat="46.62097400" lon="6.99232300"><ele>819.583008</ele><time>2010-05-30T06:46:53Z</time></trkpt>
<trkpt lat="46.62107200" lon="6.99188400"><ele>819.859985</ele><time>2010-05-30T06:46:59Z</time></trkpt>
<trkpt lat="46.62108100" lon="6.99134700"><ele>820.661987</ele><time>2010-05-30T06:47:06Z</time></trkpt>
<trkpt lat="46.62106200" lon="6.99068400"><ele>819.630981</ele><time>2010-05-30T06:47:14Z</time></trkpt>
<trkpt lat="46.62100700" lon="6.99024900"><ele>819.315002</ele><time>2010-05-30T06:47:19Z</time></trkpt>
<trkpt lat="46.62092800" lon="6.99001800"><ele>819.015015</ele><time>2010-05-30T06:47:22Z</time></trkpt>
<trkpt lat="46.62059700" lon="6.98943000"><ele>819.013977</ele><time>2010-05-30T06:47:31Z</time></trkpt>
<trkpt lat="46.62037000" lon="6.98892000"><ele>819.875977</ele><time>2010-05-30T06:47:38Z</time></trkpt>
<trkpt lat="46.62019500" lon="6.98844900"><ele>820.723999</ele><time>2010-05-30T06:47:45Z</time></trkpt>
<trkpt lat="46.62007100" lon="6.98799500"><ele>822.310974</ele><time>2010-05-30T06:47:52Z</time></trkpt>
<trkpt lat="46.61991600" lon="6.98724300"><ele>822.780029</ele><time>2010-05-30T06:48:03Z</time></trkpt>
<trkpt lat="46.61977300" lon="6.98651100"><ele>824.036987</ele><time>2010-05-30T06:48:13Z</time></trkpt>
<trkpt lat="46.61965600" lon="6.98589900"><ele>823.843994</ele><time>2010-05-30T06:48:21Z</time></trkpt>
<trkpt lat="46.61948000" lon="6.98497700"><ele>824.590027</ele><time>2010-05-30T06:48:33Z</time></trkpt>
<trkpt lat="46.61932400" lon="6.98430200"><ele>825.557983</ele><time>2010-05-30T06:48:42Z</time></trkpt>
<trkpt lat="46.61918500" lon="6.98367300"><ele>826.15802</ele><time>2010-05-30T06:48:51Z</time></trkpt>
<trkpt lat="46.61906400" lon="6.98348500"><ele>826.388977</ele><time>2010-05-30T06:48:55Z</time></trkpt>
<trkpt lat="46.61894400" lon="6.98346600"><ele>827.252991</ele><time>2010-05-30T06:48:58Z</time></trkpt>
<trkpt lat="46.61863700" lon="6.98349900"><ele>829.34198</ele><time>2010-05-30T06:49:06Z</time></trkpt>
<trkpt lat="46.61838400" lon="6.98350100"><ele>831.66803</ele><time>2010-05-30T06:49:13Z</time></trkpt>
<trkpt lat="46.61817300" lon="6.98352000"><ele>833.012024</ele><time>2010-05-30T06:49:20Z</time></trkpt>
<trkpt lat="46.61792600" lon="6.98350600"><ele>834.637024</ele><time>2010-05-30T06:49:28Z</time></trkpt>
<trkpt lat="46.61767100" lon="6.98352000"><ele>836.702026</ele><time>2010-05-30T06:49:36Z</time></trkpt>
<trkpt lat="46.61734800" lon="6.98352600"><ele>838.633972</ele><time>2010-05-30T06:49:46Z</time></trkpt>
<trkpt lat="46.61701200" lon="6.98352700"><ele>840.786987</ele><time>2010-05-30T06:49:56Z</time></trkpt>
<trkpt lat="46.61662500" lon="6.98353500"><ele>842.335999</ele><time>2010-05-30T06:50:07Z</time></trkpt>
<trkpt lat="46.61628800" lon="6.98352800"><ele>842.502991</ele><time>2010-05-30T06:50:16Z</time></trkpt>
<trkpt lat="46.61601100" lon="6.98349100"><ele>843.669983</ele><time>2010-05-30T06:50:23Z</time></trkpt>
<trkpt lat="46.61573900" lon="6.98334800"><ele>843.387024</ele><time>2010-05-30T06:50:30Z</time></trkpt>
<trkpt lat="46.61563400" lon="6.98324800"><ele>844.049988</ele><time>2010-05-30T06:50:33Z</time></trkpt>
<trkpt lat="46.61543100" lon="6.98287500"><ele>844.903015</ele><time>2010-05-30T06:50:41Z</time></trkpt>
<trkpt lat="46.61530700" lon="6.98237600"><ele>845.885986</ele><time>2010-05-30T06:50:50Z</time></trkpt>
<trkpt lat="46.61523000" lon="6.98182500"><ele>846.366028</ele><time>2010-05-30T06:51:00Z</time></trkpt>
<trkpt lat="46.61522100" lon="6.98176800"><ele>846.387024</ele><time>2010-05-30T06:51:01Z</time></trkpt>
<trkpt lat="46.61517400" lon="6.98141600"><ele>846.572021</ele><time>2010-05-30T06:51:07Z</time></trkpt>
<trkpt lat="46.61511900" lon="6.98084800"><ele>847.35199</ele><time>2010-05-30T06:51:16Z</time></trkpt>
<trkpt lat="46.61505900" lon="6.98019100"><ele>847.843018</ele><time>2010-05-30T06:51:26Z</time></trkpt>
<trkpt lat="46.61502200" lon="6.97969100"><ele>848.718018</ele><time>2010-05-30T06:51:34Z</time></trkpt>
<trkpt lat="46.61497800" lon="6.97913400"><ele>848.718018</ele><time>2010-05-30T06:51:43Z</time></trkpt>
<trkpt lat="46.61487600" lon="6.97888200"><ele>849.76001</ele><time>2010-05-30T06:51:48Z</time></trkpt>
<trkpt lat="46.61480700" lon="6.97881800"><ele>849.744995</ele><time>2010-05-30T06:51:50Z</time></trkpt>
<trkpt lat="46.61461400" lon="6.97869400"><ele>849.466003</ele><time>2010-05-30T06:51:55Z</time></trkpt>
<trkpt lat="46.61419200" lon="6.97841600"><ele>850.34198</ele><time>2010-05-30T06:52:06Z</time></trkpt>
<trkpt lat="46.61386000" lon="6.97814400"><ele>851.356995</ele><time>2010-05-30T06:52:15Z</time></trkpt>
<trkpt lat="46.61363700" lon="6.97790400"><ele>850.955994</ele><time>2010-05-30T06:52:22Z</time></trkpt>
<trkpt lat="46.61345500" lon="6.97757800"><ele>851.414001</ele><time>2010-05-30T06:52:29Z</time></trkpt>
<trkpt lat="46.61337000" lon="6.97737200"><ele>851.995972</ele><time>2010-05-30T06:52:33Z</time></trkpt>
<trkpt lat="46.61320400" lon="6.97679400"><ele>853.031006</ele><time>2010-05-30T06:52:44Z</time></trkpt>
<trkpt lat="46.61307000" lon="6.97638900"><ele>853.807007</ele><time>2010-05-30T06:52:52Z</time></trkpt>
<trkpt lat="46.61295700" lon="6.97617000"><ele>854.465027</ele><time>2010-05-30T06:52:57Z</time></trkpt>
<trkpt lat="46.61272800" lon="6.97589300"><ele>856.232971</ele><time>2010-05-30T06:53:05Z</time></trkpt>
<trkpt lat="46.61260500" lon="6.97572100"><ele>857.114014</ele><time>2010-05-30T06:53:10Z</time></trkpt>
<trkpt lat="46.61242000" lon="6.97549500"><ele>858.515991</ele><time>2010-05-30T06:53:17Z</time></trkpt>
<trkpt lat="46.61226600" lon="6.97532100"><ele>859.835022</ele><time>2010-05-30T06:53:23Z</time></trkpt>
<trkpt lat="46.61211900" lon="6.97514100"><ele>860.718994</ele><time>2010-05-30T06:53:29Z</time></trkpt>
<trkpt lat="46.61192000" lon="6.97491500"><ele>862.312012</ele><time>2010-05-30T06:53:37Z</time></trkpt>
<trkpt lat="46.61173000" lon="6.97465600"><ele>863.632996</ele><time>2010-05-30T06:53:45Z</time></trkpt>
<trkpt lat="46.61154800" lon="6.97437900"><ele>864.776978</ele><time>2010-05-30T06:53:53Z</time></trkpt>
<trkpt lat="46.61136500" lon="6.97407700"><ele>864.784973</ele><time>2010-05-30T06:54:01Z</time></trkpt>
<trkpt lat="46.61127500" lon="6.97391500"><ele>864.22998</ele><time>2010-05-30T06:54:07Z</time></trkpt>
<trkpt lat="46.61127900" lon="6.97384800"><ele>863.789001</ele><time>2010-05-30T06:54:13Z</time></trkpt>
<trkpt lat="46.61127800" lon="6.97372600"><ele>864.406982</ele><time>2010-05-30T06:54:22Z</time></trkpt>
<trkpt lat="46.61116500" lon="6.97354400"><ele>864.987976</ele><time>2010-05-30T06:54:27Z</time></trkpt>
<trkpt lat="46.61091000" lon="6.97315600"><ele>865.255005</ele><time>2010-05-30T06:54:36Z</time></trkpt>
<trkpt lat="46.61071400" lon="6.97286300"><ele>865.932007</ele><time>2010-05-30T06:54:42Z</time></trkpt>
<trkpt lat="46.61038400" lon="6.97236400"><ele>866.603027</ele><time>2010-05-30T06:54:52Z</time></trkpt>
<trkpt lat="46.61016400" lon="6.97203700"><ele>868.849976</ele><time>2010-05-30T06:54:59Z</time></trkpt>
<trkpt lat="46.60988400" lon="6.97163300"><ele>867.460022</ele><time>2010-05-30T06:55:08Z</time></trkpt>
<trkpt lat="46.60965200" lon="6.97130400"><ele>868.257996</ele><time>2010-05-30T06:55:15Z</time></trkpt>
<trkpt lat="46.60941200" lon="6.97091100"><ele>869.015015</ele><time>2010-05-30T06:55:23Z</time></trkpt>
<trkpt lat="46.60920300" lon="6.97047300"><ele>868.666016</ele><time>2010-05-30T06:55:31Z</time></trkpt>
<trkpt lat="46.60890800" lon="6.96982400"><ele>870.23999</ele><time>2010-05-30T06:55:43Z</time></trkpt>
<trkpt lat="46.60860900" lon="6.96924800"><ele>871.153992</ele><time>2010-05-30T06:55:54Z</time></trkpt>
<trkpt lat="46.60830000" lon="6.96866800"><ele>870.573975</ele><time>2010-05-30T06:56:05Z</time></trkpt>
<trkpt lat="46.60808300" lon="6.96825900"><ele>870.531006</ele><time>2010-05-30T06:56:13Z</time></trkpt>
<trkpt lat="46.60777500" lon="6.96768100"><ele>869.763977</ele><time>2010-05-30T06:56:24Z</time></trkpt>
<trkpt lat="46.60750300" lon="6.96717900"><ele>868.791992</ele><time>2010-05-30T06:56:33Z</time></trkpt>
<trkpt lat="46.60724100" lon="6.96668200"><ele>868.51001</ele><time>2010-05-30T06:56:41Z</time></trkpt>
<trkpt lat="46.60701300" lon="6.96625800"><ele>868.429016</ele><time>2010-05-30T06:56:48Z</time></trkpt>
<trkpt lat="46.60665100" lon="6.96557800"><ele>867.104004</ele><time>2010-05-30T06:56:59Z</time></trkpt>
<trkpt lat="46.60635800" lon="6.96501800"><ele>867.192993</ele><time>2010-05-30T06:57:08Z</time></trkpt>
<trkpt lat="46.60610600" lon="6.96452700"><ele>866.932007</ele><time>2010-05-30T06:57:16Z</time></trkpt>
<trkpt lat="46.60585400" lon="6.96405400"><ele>866.711975</ele><time>2010-05-30T06:57:24Z</time></trkpt>
<trkpt lat="46.60553900" lon="6.96346600"><ele>866.812012</ele><time>2010-05-30T06:57:34Z</time></trkpt>
<trkpt lat="46.60529200" lon="6.96298800"><ele>868.028992</ele><time>2010-05-30T06:57:43Z</time></trkpt>
<trkpt lat="46.60508800" lon="6.96258700"><ele>868.05603</ele><time>2010-05-30T06:57:51Z</time></trkpt>
<trkpt lat="46.60484100" lon="6.96213000"><ele>868.002014</ele><time>2010-05-30T06:58:00Z</time></trkpt>
<trkpt lat="46.60449800" lon="6.96148100"><ele>867.234009</ele><time>2010-05-30T06:58:12Z</time></trkpt>
<trkpt lat="46.60415200" lon="6.96081300"><ele>865.140991</ele><time>2010-05-30T06:58:23Z</time></trkpt>
<trkpt lat="46.60392300" lon="6.96036400"><ele>864.822021</ele><time>2010-05-30T06:58:30Z</time></trkpt>
<trkpt lat="46.60361100" lon="6.95970000"><ele>863.288025</ele><time>2010-05-30T06:58:40Z</time></trkpt>
<trkpt lat="46.60333000" lon="6.95904900"><ele>861.52002</ele><time>2010-05-30T06:58:49Z</time></trkpt>
<trkpt lat="46.60308600" lon="6.95839000"><ele>860.96698</ele><time>2010-05-30T06:58:58Z</time></trkpt>
<trkpt lat="46.60288700" lon="6.95776500"><ele>861.14801</ele><time>2010-05-30T06:59:07Z</time></trkpt>
<trkpt lat="46.60270700" lon="6.95704800"><ele>860.754028</ele><time>2010-05-30T06:59:17Z</time></trkpt>
<trkpt lat="46.60258300" lon="6.95645800"><ele>859.978027</ele><time>2010-05-30T06:59:25Z</time></trkpt>
<trkpt lat="46.60247800" lon="6.95579100"><ele>858.973999</ele><time>2010-05-30T06:59:34Z</time></trkpt>
<trkpt lat="46.60242500" lon="6.95528000"><ele>859.616028</ele><time>2010-05-30T06:59:41Z</time></trkpt>
<trkpt lat="46.60238300" lon="6.95477100"><ele>860.091003</ele><time>2010-05-30T06:59:49Z</time></trkpt>
<trkpt lat="46.60232400" lon="6.95429900"><ele>861.085022</ele><time>2010-05-30T06:59:57Z</time></trkpt>
<trkpt lat="46.60230500" lon="6.95418600"><ele>860.817017</ele><time>2010-05-30T06:59:59Z</time></trkpt>
<trkpt lat="46.60217500" lon="6.95368400"><ele>861.999023</ele><time>2010-05-30T07:00:08Z</time></trkpt>
<trkpt lat="46.60201800" lon="6.95326000"><ele>861.655029</ele><time>2010-05-30T07:00:16Z</time></trkpt>
<trkpt lat="46.60177100" lon="6.95276900"><ele>862.260986</ele><time>2010-05-30T07:00:26Z</time></trkpt>
<trkpt lat="46.60146200" lon="6.95224800"><ele>861.713013</ele><time>2010-05-30T07:00:37Z</time></trkpt>
<trkpt lat="46.60117200" lon="6.95179900"><ele>862.129028</ele><time>2010-05-30T07:00:46Z</time></trkpt>
<trkpt lat="46.60078600" lon="6.95125600"><ele>860.275024</ele><time>2010-05-30T07:00:57Z</time></trkpt>
<trkpt lat="46.60041700" lon="6.95074100"><ele>860.638</ele><time>2010-05-30T07:01:07Z</time></trkpt>
<trkpt lat="46.60002100" lon="6.95018800"><ele>859.534973</ele><time>2010-05-30T07:01:18Z</time></trkpt>
<trkpt lat="46.59962300" lon="6.94963300"><ele>859.468994</ele><time>2010-05-30T07:01:29Z</time></trkpt>
<trkpt lat="46.59925800" lon="6.94912400"><ele>858.390015</ele><time>2010-05-30T07:01:39Z</time></trkpt>
<trkpt lat="46.59887100" lon="6.94858500"><ele>858.598999</ele><time>2010-05-30T07:01:50Z</time></trkpt>
<trkpt lat="46.59859200" lon="6.94819000"><ele>859.190002</ele><time>2010-05-30T07:01:59Z</time></trkpt>
<trkpt lat="46.59840000" lon="6.94793100"><ele>860.000977</ele><time>2010-05-30T07:02:06Z</time></trkpt>
<trkpt lat="46.59813000" lon="6.94762500"><ele>861.567017</ele><time>2010-05-30T07:02:16Z</time></trkpt>
<trkpt lat="46.59784900" lon="6.94736700"><ele>861.992004</ele><time>2010-05-30T07:02:25Z</time></trkpt>
<trkpt lat="46.59757900" lon="6.94716200"><ele>862.021973</ele><time>2010-05-30T07:02:33Z</time></trkpt>
<trkpt lat="46.59714100" lon="6.94685000"><ele>862.244995</ele><time>2010-05-30T07:02:45Z</time></trkpt>
<trkpt lat="46.59679600" lon="6.94659600"><ele>861.767029</ele><time>2010-05-30T07:02:54Z</time></trkpt>
<trkpt lat="46.59638300" lon="6.94620300"><ele>862.096985</ele><time>2010-05-30T07:03:05Z</time></trkpt>
<trkpt lat="46.59607000" lon="6.94579400"><ele>862.023987</ele><time>2010-05-30T07:03:15Z</time></trkpt>
<trkpt lat="46.59573800" lon="6.94525300"><ele>862.627991</ele><time>2010-05-30T07:03:27Z</time></trkpt>
<trkpt lat="46.59544800" lon="6.94473300"><ele>862.655029</ele><time>2010-05-30T07:03:38Z</time></trkpt>
<trkpt lat="46.59514500" lon="6.94418800"><ele>863.447998</ele><time>2010-05-30T07:03:49Z</time></trkpt>
<trkpt lat="46.59483500" lon="6.94363000"><ele>863.234009</ele><time>2010-05-30T07:04:00Z</time></trkpt>
<trkpt lat="46.59456300" lon="6.94314300"><ele>863.288025</ele><time>2010-05-30T07:04:10Z</time></trkpt>
<trkpt lat="46.59427900" lon="6.94264300"><ele>862.057983</ele><time>2010-05-30T07:04:20Z</time></trkpt>
<trkpt lat="46.59401400" lon="6.94222600"><ele>860.830017</ele><time>2010-05-30T07:04:28Z</time></trkpt>
<trkpt lat="46.59366500" lon="6.94171300"><ele>860.564026</ele><time>2010-05-30T07:04:38Z</time></trkpt>
<trkpt lat="46.59337400" lon="6.94128600"><ele>860.65802</ele><time>2010-05-30T07:04:46Z</time></trkpt>
<trkpt lat="46.59309800" lon="6.94089100"><ele>859.13501</ele><time>2010-05-30T07:04:53Z</time></trkpt>
<trkpt lat="46.59266200" lon="6.94027200"><ele>858.289978</ele><time>2010-05-30T07:05:03Z</time></trkpt>
<trkpt lat="46.59232300" lon="6.93983500"><ele>856.518982</ele><time>2010-05-30T07:05:10Z</time></trkpt>
<trkpt lat="46.59227200" lon="6.93977200"><ele>856.383972</ele><time>2010-05-30T07:05:11Z</time></trkpt>
<trkpt lat="46.59188000" lon="6.93929000"><ele>854.557007</ele><time>2010-05-30T07:05:19Z</time></trkpt>
<trkpt lat="46.59139500" lon="6.93870900"><ele>853.320007</ele><time>2010-05-30T07:05:29Z</time></trkpt>
<trkpt lat="46.59092300" lon="6.93815700"><ele>853.445984</ele><time>2010-05-30T07:05:39Z</time></trkpt>
<trkpt lat="46.59050900" lon="6.93766700"><ele>852.453003</ele><time>2010-05-30T07:05:49Z</time></trkpt>
<trkpt lat="46.59002300" lon="6.93708400"><ele>851.286011</ele><time>2010-05-30T07:06:01Z</time></trkpt>
<trkpt lat="46.58972400" lon="6.93673200"><ele>850.221985</ele><time>2010-05-30T07:06:08Z</time></trkpt>
<trkpt lat="46.58938600" lon="6.93633900"><ele>850.120972</ele><time>2010-05-30T07:06:16Z</time></trkpt>
<trkpt lat="46.58901600" lon="6.93594500"><ele>849.653015</ele><time>2010-05-30T07:06:25Z</time></trkpt>
<trkpt lat="46.58850000" lon="6.93541100"><ele>848.474976</ele><time>2010-05-30T07:06:37Z</time></trkpt>
<trkpt lat="46.58802600" lon="6.93487600"><ele>847.379028</ele><time>2010-05-30T07:06:48Z</time></trkpt>
<trkpt lat="46.58765000" lon="6.93441400"><ele>847.20697</ele><time>2010-05-30T07:06:57Z</time></trkpt>
<trkpt lat="46.58721500" lon="6.93382500"><ele>845.461975</ele><time>2010-05-30T07:07:08Z</time></trkpt>
<trkpt lat="46.58678000" lon="6.93318100"><ele>845.296021</ele><time>2010-05-30T07:07:19Z</time></trkpt>
<trkpt lat="46.58635700" lon="6.93254200"><ele>844.840027</ele><time>2010-05-30T07:07:30Z</time></trkpt>
<trkpt lat="46.58589900" lon="6.93184900"><ele>844.723022</ele><time>2010-05-30T07:07:42Z</time></trkpt>
<trkpt lat="46.58554900" lon="6.93130800"><ele>845.903992</ele><time>2010-05-30T07:07:52Z</time></trkpt>
<trkpt lat="46.58531300" lon="6.93094000"><ele>847.495972</ele><time>2010-05-30T07:08:00Z</time></trkpt>
<trkpt lat="46.58502300" lon="6.93052700"><ele>848.088013</ele><time>2010-05-30T07:08:09Z</time></trkpt>
<trkpt lat="46.58464900" lon="6.93013400"><ele>848.421021</ele><time>2010-05-30T07:08:19Z</time></trkpt>
<trkpt lat="46.58431700" lon="6.92978300"><ele>848.745972</ele><time>2010-05-30T07:08:27Z</time></trkpt>
<trkpt lat="46.58392400" lon="6.92928900"><ele>847.729004</ele><time>2010-05-30T07:08:36Z</time></trkpt>
<trkpt lat="46.58354200" lon="6.92877900"><ele>846.075012</ele><time>2010-05-30T07:08:44Z</time></trkpt>
<trkpt lat="46.58332200" lon="6.92849400"><ele>844.606018</ele><time>2010-05-30T07:08:48Z</time></trkpt>
<trkpt lat="46.58293800" lon="6.92793500"><ele>842.744019</ele><time>2010-05-30T07:08:55Z</time></trkpt>
<trkpt lat="46.58257700" lon="6.92737700"><ele>841.026978</ele><time>2010-05-30T07:09:02Z</time></trkpt>
<trkpt lat="46.58242600" lon="6.92717900"><ele>840.961975</ele><time>2010-05-30T07:09:05Z</time></trkpt>
<trkpt lat="46.58214100" lon="6.92699700"><ele>840.429016</ele><time>2010-05-30T07:09:10Z</time></trkpt>
<trkpt lat="46.58165300" lon="6.92688200"><ele>839.89502</ele><time>2010-05-30T07:09:18Z</time></trkpt>
<trkpt lat="46.58117900" lon="6.92677800"><ele>838.473999</ele><time>2010-05-30T07:09:26Z</time></trkpt>
<trkpt lat="46.58060800" lon="6.92663600"><ele>839.281982</ele><time>2010-05-30T07:09:36Z</time></trkpt>
<trkpt lat="46.58028700" lon="6.92657000"><ele>839.715027</ele><time>2010-05-30T07:09:43Z</time></trkpt>
<trkpt lat="46.57999600" lon="6.92654900"><ele>840.546021</ele><time>2010-05-30T07:09:50Z</time></trkpt>
<trkpt lat="46.57972500" lon="6.92663600"><ele>841.64801</ele><time>2010-05-30T07:09:57Z</time></trkpt>
<trkpt lat="46.57955000" lon="6.92675000"><ele>842.370972</ele><time>2010-05-30T07:10:02Z</time></trkpt>
<trkpt lat="46.57937400" lon="6.92697900"><ele>843.320007</ele><time>2010-05-30T07:10:08Z</time></trkpt>
<trkpt lat="46.57912300" lon="6.92732200"><ele>844.630981</ele><time>2010-05-30T07:10:17Z</time></trkpt>
<trkpt lat="46.57888400" lon="6.92763200"><ele>846.448975</ele><time>2010-05-30T07:10:26Z</time></trkpt>
<trkpt lat="46.57866300" lon="6.92787800"><ele>847.546021</ele><time>2010-05-30T07:10:34Z</time></trkpt>
<trkpt lat="46.57843200" lon="6.92810000"><ele>849.494019</ele><time>2010-05-30T07:10:42Z</time></trkpt>
<trkpt lat="46.57816500" lon="6.92832700"><ele>851.583008</ele><time>2010-05-30T07:10:51Z</time></trkpt>
<trkpt lat="46.57794700" lon="6.92851100"><ele>852.911011</ele><time>2010-05-30T07:10:59Z</time></trkpt>
<trkpt lat="46.57777500" lon="6.92865000"><ele>854.312988</ele><time>2010-05-30T07:11:06Z</time></trkpt>
<trkpt lat="46.57758000" lon="6.92879900"><ele>855.708008</ele><time>2010-05-30T07:11:14Z</time></trkpt>
<trkpt lat="46.57728800" lon="6.92900300"><ele>858.106995</ele><time>2010-05-30T07:11:24Z</time></trkpt>
<trkpt lat="46.57712100" lon="6.92911900"><ele>859.135986</ele><time>2010-05-30T07:11:30Z</time></trkpt>
<trkpt lat="46.57689100" lon="6.92925900"><ele>860.742004</ele><time>2010-05-30T07:11:38Z</time></trkpt>
<trkpt lat="46.57660400" lon="6.92941500"><ele>862.809998</ele><time>2010-05-30T07:11:48Z</time></trkpt>
<trkpt lat="46.57639400" lon="6.92946700"><ele>864.036987</ele><time>2010-05-30T07:11:55Z</time></trkpt>
<trkpt lat="46.57608000" lon="6.92946000"><ele>866.291016</ele><time>2010-05-30T07:12:05Z</time></trkpt>
<trkpt lat="46.57577100" lon="6.92934300"><ele>867.653992</ele><time>2010-05-30T07:12:15Z</time></trkpt>
<trkpt lat="46.57550000" lon="6.92915600"><ele>868.176025</ele><time>2010-05-30T07:12:24Z</time></trkpt>
<trkpt lat="46.57537000" lon="6.92904900"><ele>867.817993</ele><time>2010-05-30T07:12:28Z</time></trkpt>
<trkpt lat="46.57511900" lon="6.92885300"><ele>867.598999</ele><time>2010-05-30T07:12:34Z</time></trkpt>
<trkpt lat="46.57476700" lon="6.92857100"><ele>866.60199</ele><time>2010-05-30T07:12:41Z</time></trkpt>
<trkpt lat="46.57442800" lon="6.92827700"><ele>865.672974</ele><time>2010-05-30T07:12:47Z</time></trkpt>
<trkpt lat="46.57418500" lon="6.92808600"><ele>864.546021</ele><time>2010-05-30T07:12:51Z</time></trkpt>
<trkpt lat="46.57381200" lon="6.92778400"><ele>863.015991</ele><time>2010-05-30T07:12:57Z</time></trkpt>
<trkpt lat="46.57349400" lon="6.92754700"><ele>862.383972</ele><time>2010-05-30T07:13:02Z</time></trkpt>
<trkpt lat="46.57318000" lon="6.92729400"><ele>861.044006</ele><time>2010-05-30T07:13:07Z</time></trkpt>
<trkpt lat="46.57280400" lon="6.92701500"><ele>859.627014</ele><time>2010-05-30T07:13:13Z</time></trkpt>
<trkpt lat="46.57233700" lon="6.92663500"><ele>857.721008</ele><time>2010-05-30T07:13:21Z</time></trkpt>
<trkpt lat="46.57164200" lon="6.92608300"><ele>855.88501</ele><time>2010-05-30T07:13:32Z</time></trkpt>
<trkpt lat="46.57119400" lon="6.92572200"><ele>854.401978</ele><time>2010-05-30T07:13:39Z</time></trkpt>
<trkpt lat="46.57049500" lon="6.92516400"><ele>852.153992</ele><time>2010-05-30T07:13:50Z</time></trkpt>
<trkpt lat="46.56988600" lon="6.92469400"><ele>850.525024</ele><time>2010-05-30T07:13:59Z</time></trkpt>
<trkpt lat="46.56927900" lon="6.92421500"><ele>849.091003</ele><time>2010-05-30T07:14:08Z</time></trkpt>
<trkpt lat="46.56860400" lon="6.92367300"><ele>846.622986</ele><time>2010-05-30T07:14:18Z</time></trkpt>
<trkpt lat="46.56800800" lon="6.92319600"><ele>845.473022</ele><time>2010-05-30T07:14:27Z</time></trkpt>
<trkpt lat="46.56741600" lon="6.92274400"><ele>845.435974</ele><time>2010-05-30T07:14:36Z</time></trkpt>
<trkpt lat="46.56722100" lon="6.92259400"><ele>843.452026</ele><time>2010-05-30T07:14:39Z</time></trkpt>
<trkpt lat="46.56672900" lon="6.92220300"><ele>843.663025</ele><time>2010-05-30T07:14:47Z</time></trkpt>
<trkpt lat="46.56639500" lon="6.92184700"><ele>844.487976</ele><time>2010-05-30T07:14:54Z</time></trkpt>
<trkpt lat="46.56609200" lon="6.92148100"><ele>844.262024</ele><time>2010-05-30T07:15:01Z</time></trkpt>
<trkpt lat="46.56555500" lon="6.92086100"><ele>843.137024</ele><time>2010-05-30T07:15:12Z</time></trkpt>
<trkpt lat="46.56504500" lon="6.92032200"><ele>841.057983</ele><time>2010-05-30T07:15:21Z</time></trkpt>
<trkpt lat="46.56463600" lon="6.91990800"><ele>839.458984</ele><time>2010-05-30T07:15:27Z</time></trkpt>
<trkpt lat="46.56435400" lon="6.91962100"><ele>837.874023</ele><time>2010-05-30T07:15:31Z</time></trkpt>
<trkpt lat="46.56390000" lon="6.91919600"><ele>835.197998</ele><time>2010-05-30T07:15:37Z</time></trkpt>
<trkpt lat="46.56328500" lon="6.91863800"><ele>833.439026</ele><time>2010-05-30T07:15:45Z</time></trkpt>
<trkpt lat="46.56266500" lon="6.91813000"><ele>830.921021</ele><time>2010-05-30T07:15:53Z</time></trkpt>
<trkpt lat="46.56213200" lon="6.91781200"><ele>829.429993</ele><time>2010-05-30T07:16:00Z</time></trkpt>
<trkpt lat="46.56171900" lon="6.91764700"><ele>829.252014</ele><time>2010-05-30T07:16:06Z</time></trkpt>
<trkpt lat="46.56125600" lon="6.91749600"><ele>828.958984</ele><time>2010-05-30T07:16:14Z</time></trkpt>
<trkpt lat="46.56085900" lon="6.91738100"><ele>829.39801</ele><time>2010-05-30T07:16:22Z</time></trkpt>
<trkpt lat="46.56046900" lon="6.91724300"><ele>831.059998</ele><time>2010-05-30T07:16:31Z</time></trkpt>
<trkpt lat="46.56011200" lon="6.91708900"><ele>832.39502</ele><time>2010-05-30T07:16:40Z</time></trkpt>
<trkpt lat="46.55984800" lon="6.91693300"><ele>833.176025</ele><time>2010-05-30T07:16:47Z</time></trkpt>
<trkpt lat="46.55970100" lon="6.91683800"><ele>833.763</ele><time>2010-05-30T07:16:51Z</time></trkpt>
<trkpt lat="46.55931700" lon="6.91653700"><ele>835.15802</ele><time>2010-05-30T07:17:02Z</time></trkpt>
<trkpt lat="46.55899700" lon="6.91624100"><ele>835.765991</ele><time>2010-05-30T07:17:11Z</time></trkpt>
<trkpt lat="46.55867600" lon="6.91590700"><ele>836.017029</ele><time>2010-05-30T07:17:20Z</time></trkpt>
<trkpt lat="46.55833100" lon="6.91555100"><ele>836.392029</ele><time>2010-05-30T07:17:29Z</time></trkpt>
<trkpt lat="46.55784200" lon="6.91505100"><ele>835.591003</ele><time>2010-05-30T07:17:40Z</time></trkpt>
<trkpt lat="46.55734200" lon="6.91453900"><ele>834.48999</ele><time>2010-05-30T07:17:50Z</time></trkpt>
<trkpt lat="46.55687100" lon="6.91405900"><ele>832.223022</ele><time>2010-05-30T07:17:58Z</time></trkpt>
<trkpt lat="46.55649300" lon="6.91366900"><ele>830.752991</ele><time>2010-05-30T07:18:04Z</time></trkpt>
<trkpt lat="46.55595500" lon="6.91312600"><ele>829.572021</ele><time>2010-05-30T07:18:13Z</time></trkpt>
<trkpt lat="46.55541600" lon="6.91256300"><ele>829.396973</ele><time>2010-05-30T07:18:23Z</time></trkpt>
<trkpt lat="46.55493600" lon="6.91207700"><ele>828.737</ele><time>2010-05-30T07:18:32Z</time></trkpt>
<trkpt lat="46.55425800" lon="6.91139600"><ele>828.299011</ele><time>2010-05-30T07:18:45Z</time></trkpt>
<trkpt lat="46.55389300" lon="6.91103200"><ele>827.96698</ele><time>2010-05-30T07:18:52Z</time></trkpt>
<trkpt lat="46.55331800" lon="6.91057400"><ele>828.573975</ele><time>2010-05-30T07:19:02Z</time></trkpt>
<trkpt lat="46.55287800" lon="6.91028400"><ele>828.01001</ele><time>2010-05-30T07:19:10Z</time></trkpt>
<trkpt lat="46.55245100" lon="6.91006100"><ele>828.643982</ele><time>2010-05-30T07:19:18Z</time></trkpt>
<trkpt lat="46.55198500" lon="6.90988100"><ele>829.255005</ele><time>2010-05-30T07:19:27Z</time></trkpt>
<trkpt lat="46.55143300" lon="6.90973100"><ele>829.02002</ele><time>2010-05-30T07:19:38Z</time></trkpt>
<trkpt lat="46.55083100" lon="6.90964700"><ele>829.312012</ele><time>2010-05-30T07:19:50Z</time></trkpt>
<trkpt lat="46.55024500" lon="6.90961300"><ele>829.747009</ele><time>2010-05-30T07:20:02Z</time></trkpt>
<trkpt lat="46.54976200" lon="6.90960700"><ele>829.786011</ele><time>2010-05-30T07:20:12Z</time></trkpt>
<trkpt lat="46.54928600" lon="6.90960000"><ele>829.997009</ele><time>2010-05-30T07:20:22Z</time></trkpt>
<trkpt lat="46.54880400" lon="6.90959300"><ele>830.487</ele><time>2010-05-30T07:20:32Z</time></trkpt>
<trkpt lat="46.54831200" lon="6.90958200"><ele>831.020996</ele><time>2010-05-30T07:20:42Z</time></trkpt>
<trkpt lat="46.54786800" lon="6.90955300"><ele>832.200989</ele><time>2010-05-30T07:20:51Z</time></trkpt>
<trkpt lat="46.54748000" lon="6.90951300"><ele>832.976013</ele><time>2010-05-30T07:20:59Z</time></trkpt>
<trkpt lat="46.54696700" lon="6.90942200"><ele>834.219971</ele><time>2010-05-30T07:21:10Z</time></trkpt>
<trkpt lat="46.54658800" lon="6.90934600"><ele>835.710999</ele><time>2010-05-30T07:21:19Z</time></trkpt>
<trkpt lat="46.54627200" lon="6.90927500"><ele>836.898987</ele><time>2010-05-30T07:21:27Z</time></trkpt>
<trkpt lat="46.54593500" lon="6.90919700"><ele>838.23999</ele><time>2010-05-30T07:21:36Z</time></trkpt>
<trkpt lat="46.54561200" lon="6.90912400"><ele>839.919006</ele><time>2010-05-30T07:21:45Z</time></trkpt>
<trkpt lat="46.54529900" lon="6.90905300"><ele>841.374023</ele><time>2010-05-30T07:21:54Z</time></trkpt>
<trkpt lat="46.54502300" lon="6.90898400"><ele>842.310974</ele><time>2010-05-30T07:22:02Z</time></trkpt>
<trkpt lat="46.54464100" lon="6.90890100"><ele>844.335999</ele><time>2010-05-30T07:22:13Z</time></trkpt>
<trkpt lat="46.54417900" lon="6.90878600"><ele>846.372009</ele><time>2010-05-30T07:22:26Z</time></trkpt>
<trkpt lat="46.54377500" lon="6.90870000"><ele>848.096008</ele><time>2010-05-30T07:22:37Z</time></trkpt>
<trkpt lat="46.54343800" lon="6.90862200"><ele>849.536987</ele><time>2010-05-30T07:22:46Z</time></trkpt>
<trkpt lat="46.54308500" lon="6.90853500"><ele>850.171997</ele><time>2010-05-30T07:22:55Z</time></trkpt>
<trkpt lat="46.54276800" lon="6.90841600"><ele>851.04303</ele><time>2010-05-30T07:23:04Z</time></trkpt>
<trkpt lat="46.54262300" lon="6.90834700"><ele>851.276978</ele><time>2010-05-30T07:23:10Z</time></trkpt>
<trkpt lat="46.54254400" lon="6.90831100"><ele>851.393005</ele><time>2010-05-30T07:23:14Z</time></trkpt>
<trkpt lat="46.54248700" lon="6.90830100"><ele>851.411011</ele><time>2010-05-30T07:23:19Z</time></trkpt>
<trkpt lat="46.54245200" lon="6.90830700"><ele>851.749023</ele><time>2010-05-30T07:24:10Z</time></trkpt>
<trkpt lat="46.54235200" lon="6.90829300"><ele>852.140991</ele><time>2010-05-30T07:24:15Z</time></trkpt>
<trkpt lat="46.54211600" lon="6.90821700"><ele>852.570984</ele><time>2010-05-30T07:24:22Z</time></trkpt>
<trkpt lat="46.54177600" lon="6.90804600"><ele>853.098022</ele><time>2010-05-30T07:24:31Z</time></trkpt>
<trkpt lat="46.54137200" lon="6.90784200"><ele>853.460022</ele><time>2010-05-30T07:24:41Z</time></trkpt>
<trkpt lat="46.54095800" lon="6.90764500"><ele>853.83197</ele><time>2010-05-30T07:24:50Z</time></trkpt>
<trkpt lat="46.54052100" lon="6.90744500"><ele>853.192017</ele><time>2010-05-30T07:24:59Z</time></trkpt>
<trkpt lat="46.54009300" lon="6.90728600"><ele>852.593994</ele><time>2010-05-30T07:25:07Z</time></trkpt>
<trkpt lat="46.53953400" lon="6.90715800"><ele>851.870972</ele><time>2010-05-30T07:25:16Z</time></trkpt>
<trkpt lat="46.53897600" lon="6.90708900"><ele>850.33197</ele><time>2010-05-30T07:25:24Z</time></trkpt>
<trkpt lat="46.53844000" lon="6.90704600"><ele>847.723022</ele><time>2010-05-30T07:25:31Z</time></trkpt>
<trkpt lat="46.53770400" lon="6.90698500"><ele>844.086975</ele><time>2010-05-30T07:25:40Z</time></trkpt>
<trkpt lat="46.53726200" lon="6.90695200"><ele>841.702026</ele><time>2010-05-30T07:25:45Z</time></trkpt>
<trkpt lat="46.53650900" lon="6.90688600"><ele>836.828003</ele><time>2010-05-30T07:25:53Z</time></trkpt>
<trkpt lat="46.53621500" lon="6.90686500"><ele>834.942993</ele><time>2010-05-30T07:25:56Z</time></trkpt>
<trkpt lat="46.53511300" lon="6.90677100"><ele>827.585999</ele><time>2010-05-30T07:26:07Z</time></trkpt>
<trkpt lat="46.53501300" lon="6.90676200"><ele>827.370972</ele><time>2010-05-30T07:26:08Z</time></trkpt>
<trkpt lat="46.53424900" lon="6.90669800"><ele>824.833008</ele><time>2010-05-30T07:26:16Z</time></trkpt>
<trkpt lat="46.53372400" lon="6.90669000"><ele>823.119019</ele><time>2010-05-30T07:26:22Z</time></trkpt>
<trkpt lat="46.53309300" lon="6.90672400"><ele>822.661011</ele><time>2010-05-30T07:26:30Z</time></trkpt>
<trkpt lat="46.53280000" lon="6.90674300"><ele>822.184998</ele><time>2010-05-30T07:26:34Z</time></trkpt>
<trkpt lat="46.53220100" lon="6.90679200"><ele>821.955994</ele><time>2010-05-30T07:26:43Z</time></trkpt>
<trkpt lat="46.53163700" lon="6.90680300"><ele>821.765015</ele><time>2010-05-30T07:26:52Z</time></trkpt>
<trkpt lat="46.53157600" lon="6.90679800"><ele>821.776978</ele><time>2010-05-30T07:26:53Z</time></trkpt>
<trkpt lat="46.53121400" lon="6.90661600"><ele>821.349976</ele><time>2010-05-30T07:26:59Z</time></trkpt>
<trkpt lat="46.53092100" lon="6.90632700"><ele>821.434021</ele><time>2010-05-30T07:27:05Z</time></trkpt>
<trkpt lat="46.53087800" lon="6.90627800"><ele>821.317017</ele><time>2010-05-30T07:27:06Z</time></trkpt>
<trkpt lat="46.53070400" lon="6.90622300"><ele>821.39502</ele><time>2010-05-30T07:27:10Z</time></trkpt>
<trkpt lat="46.53063500" lon="6.90629500"><ele>821.333984</ele><time>2010-05-30T07:27:12Z</time></trkpt>
<trkpt lat="46.53047900" lon="6.90655000"><ele>822.143005</ele><time>2010-05-30T07:27:18Z</time></trkpt>
<trkpt lat="46.53043200" lon="6.90677700"><ele>822.559998</ele><time>2010-05-30T07:27:22Z</time></trkpt>
<trkpt lat="46.53038300" lon="6.90741400"><ele>822.491028</ele><time>2010-05-30T07:27:31Z</time></trkpt>
<trkpt lat="46.53033700" lon="6.90769700"><ele>822.609009</ele><time>2010-05-30T07:27:35Z</time></trkpt>
<trkpt lat="46.53021100" lon="6.90786300"><ele>822.711975</ele><time>2010-05-30T07:27:39Z</time></trkpt>
<trkpt lat="46.53014700" lon="6.90786500"><ele>822.692993</ele><time>2010-05-30T07:27:40Z</time></trkpt>
<trkpt lat="46.52995500" lon="6.90785800"><ele>822.140991</ele><time>2010-05-30T07:27:43Z</time></trkpt>
<trkpt lat="46.52948300" lon="6.90788800"><ele>820.278015</ele><time>2010-05-30T07:27:50Z</time></trkpt>
<trkpt lat="46.52921500" lon="6.90790000"><ele>820.166992</ele><time>2010-05-30T07:27:54Z</time></trkpt>
<trkpt lat="46.52915400" lon="6.90789900"><ele>820.093018</ele><time>2010-05-30T07:27:55Z</time></trkpt>
<trkpt lat="46.52897600" lon="6.90770100"><ele>819.551025</ele><time>2010-05-30T07:27:59Z</time></trkpt>
<trkpt lat="46.52895000" lon="6.90761900"><ele>819.450012</ele><time>2010-05-30T07:28:00Z</time></trkpt>
<trkpt lat="46.52874800" lon="6.90696100"><ele>817.807983</ele><time>2010-05-30T07:28:07Z</time></trkpt>
<trkpt lat="46.52846400" lon="6.90629600"><ele>815.992004</ele><time>2010-05-30T07:28:14Z</time></trkpt>
<trkpt lat="46.52818400" lon="6.90562500"><ele>814.330017</ele><time>2010-05-30T07:28:21Z</time></trkpt>
<trkpt lat="46.52788700" lon="6.90496100"><ele>812.872009</ele><time>2010-05-30T07:28:28Z</time></trkpt>
<trkpt lat="46.52756100" lon="6.90438100"><ele>811.546997</ele><time>2010-05-30T07:28:35Z</time></trkpt>
<trkpt lat="46.52747300" lon="6.90400900"><ele>810.327026</ele><time>2010-05-30T07:28:39Z</time></trkpt>
<trkpt lat="46.52729200" lon="6.90343200"><ele>808.549988</ele><time>2010-05-30T07:28:45Z</time></trkpt>
<trkpt lat="46.52715100" lon="6.90321200"><ele>808.338013</ele><time>2010-05-30T07:28:48Z</time></trkpt>
<trkpt lat="46.52707900" lon="6.90294800"><ele>807.19397</ele><time>2010-05-30T07:28:52Z</time></trkpt>
<trkpt lat="46.52700900" lon="6.90286700"><ele>807.265015</ele><time>2010-05-30T07:28:54Z</time></trkpt>
<trkpt lat="46.52681100" lon="6.90269200"><ele>807.393982</ele><time>2010-05-30T07:28:59Z</time></trkpt>
<trkpt lat="46.52668600" lon="6.90240200"><ele>808.44397</ele><time>2010-05-30T07:29:05Z</time></trkpt>
<trkpt lat="46.52665000" lon="6.90222700"><ele>809.218994</ele><time>2010-05-30T07:29:10Z</time></trkpt>
<trkpt lat="46.52657100" lon="6.90216100"><ele>809.351013</ele><time>2010-05-30T07:29:13Z</time></trkpt>
<trkpt lat="46.52632500" lon="6.90214200"><ele>808.494019</ele><time>2010-05-30T07:29:18Z</time></trkpt>
<trkpt lat="46.52611800" lon="6.90233700"><ele>808.026001</ele><time>2010-05-30T07:29:22Z</time></trkpt>
<trkpt lat="46.52609200" lon="6.90241600"><ele>807.950989</ele><time>2010-05-30T07:29:23Z</time></trkpt>
<trkpt lat="46.52593400" lon="6.90271700"><ele>807.973022</ele><time>2010-05-30T07:29:27Z</time></trkpt>
<trkpt lat="46.52572100" lon="6.90294800"><ele>808.357971</ele><time>2010-05-30T07:29:32Z</time></trkpt>
<trkpt lat="46.52546500" lon="6.90306900"><ele>808.914001</ele><time>2010-05-30T07:29:37Z</time></trkpt>
<trkpt lat="46.52529100" lon="6.90322600"><ele>809.299988</ele><time>2010-05-30T07:29:41Z</time></trkpt>
<trkpt lat="46.52501200" lon="6.90359500"><ele>809.789001</ele><time>2010-05-30T07:29:48Z</time></trkpt>
<trkpt lat="46.52476200" lon="6.90407700"><ele>809.935974</ele><time>2010-05-30T07:29:55Z</time></trkpt>
<trkpt lat="46.52451700" lon="6.90456600"><ele>809.982971</ele><time>2010-05-30T07:30:02Z</time></trkpt>
<trkpt lat="46.52439000" lon="6.90489500"><ele>809.973999</ele><time>2010-05-30T07:30:06Z</time></trkpt>
<trkpt lat="46.52427000" lon="6.90532900"><ele>811.130981</ele><time>2010-05-30T07:30:12Z</time></trkpt>
<trkpt lat="46.52413900" lon="6.90546100"><ele>811.137024</ele><time>2010-05-30T07:30:15Z</time></trkpt>
<trkpt lat="46.52378100" lon="6.90562300"><ele>811.846985</ele><time>2010-05-30T07:30:22Z</time></trkpt>
<trkpt lat="46.52339700" lon="6.90576200"><ele>812.929993</ele><time>2010-05-30T07:30:29Z</time></trkpt>
<trkpt lat="46.52311500" lon="6.90584700"><ele>813.835999</ele><time>2010-05-30T07:30:34Z</time></trkpt>
<trkpt lat="46.52306000" lon="6.90585200"><ele>813.874023</ele><time>2010-05-30T07:30:35Z</time></trkpt>
<trkpt lat="46.52277500" lon="6.90577400"><ele>813.762024</ele><time>2010-05-30T07:30:40Z</time></trkpt>
<trkpt lat="46.52218400" lon="6.90537900"><ele>812.370972</ele><time>2010-05-30T07:30:50Z</time></trkpt>
<trkpt lat="46.52164500" lon="6.90506500"><ele>811.767029</ele><time>2010-05-30T07:30:59Z</time></trkpt>
<trkpt lat="46.52128800" lon="6.90496900"><ele>811.859009</ele><time>2010-05-30T07:31:05Z</time></trkpt>
<trkpt lat="46.52087600" lon="6.90501800"><ele>811.531006</ele><time>2010-05-30T07:31:12Z</time></trkpt>
<trkpt lat="46.52042300" lon="6.90521000"><ele>812.237976</ele><time>2010-05-30T07:31:20Z</time></trkpt>
<trkpt lat="46.52004900" lon="6.90541000"><ele>812.627014</ele><time>2010-05-30T07:31:27Z</time></trkpt>
<trkpt lat="46.51963700" lon="6.90562200"><ele>813.937012</ele><time>2010-05-30T07:31:35Z</time></trkpt>
<trkpt lat="46.51953400" lon="6.90566400"><ele>814.111023</ele><time>2010-05-30T07:31:37Z</time></trkpt>
<trkpt lat="46.51915700" lon="6.90583100"><ele>814.882019</ele><time>2010-05-30T07:31:45Z</time></trkpt>
<trkpt lat="46.51868200" lon="6.90594000"><ele>815.427002</ele><time>2010-05-30T07:31:55Z</time></trkpt>
<trkpt lat="46.51824900" lon="6.90597100"><ele>815.781982</ele><time>2010-05-30T07:32:04Z</time></trkpt>
<trkpt lat="46.51804800" lon="6.90596000"><ele>815.513977</ele><time>2010-05-30T07:32:08Z</time></trkpt>
<trkpt lat="46.51786700" lon="6.90587900"><ele>815.570984</ele><time>2010-05-30T07:32:12Z</time></trkpt>
<trkpt lat="46.51761600" lon="6.90583400"><ele>815.565002</ele><time>2010-05-30T07:32:17Z</time></trkpt>
<trkpt lat="46.51751500" lon="6.90586100"><ele>815.757996</ele><time>2010-05-30T07:32:19Z</time></trkpt>
<trkpt lat="46.51711600" lon="6.90579600"><ele>816.700989</ele><time>2010-05-30T07:32:27Z</time></trkpt>
<trkpt lat="46.51658700" lon="6.90565300"><ele>818.075012</ele><time>2010-05-30T07:32:38Z</time></trkpt>
<trkpt lat="46.51616100" lon="6.90553000"><ele>818.327026</ele><time>2010-05-30T07:32:47Z</time></trkpt>
<trkpt lat="46.51570000" lon="6.90540300"><ele>818.416992</ele><time>2010-05-30T07:32:56Z</time></trkpt>
<trkpt lat="46.51527800" lon="6.90528600"><ele>817.869019</ele><time>2010-05-30T07:33:03Z</time></trkpt>
<trkpt lat="46.51521600" lon="6.90527000"><ele>817.775024</ele><time>2010-05-30T07:33:04Z</time></trkpt>
<trkpt lat="46.51496600" lon="6.90532000"><ele>817.41803</ele><time>2010-05-30T07:33:08Z</time></trkpt>
<trkpt lat="46.51474900" lon="6.90558500"><ele>815.801025</ele><time>2010-05-30T07:33:12Z</time></trkpt>
<trkpt lat="46.51462900" lon="6.90589900"><ele>813.906982</ele><time>2010-05-30T07:33:15Z</time></trkpt>
<trkpt lat="46.51449700" lon="6.90647400"><ele>809.856995</ele><time>2010-05-30T07:33:20Z</time></trkpt>
<trkpt lat="46.51432700" lon="6.90721900"><ele>804.661987</ele><time>2010-05-30T07:33:27Z</time></trkpt>
<trkpt lat="46.51429800" lon="6.90731800"><ele>803.109985</ele><time>2010-05-30T07:33:28Z</time></trkpt>
<trkpt lat="46.51410000" lon="6.90765200"><ele>799.79303</ele><time>2010-05-30T07:33:32Z</time></trkpt>
<trkpt lat="46.51376600" lon="6.90799700"><ele>797.585022</ele><time>2010-05-30T07:33:37Z</time></trkpt>
<trkpt lat="46.51369900" lon="6.90838100"><ele>795.086975</ele><time>2010-05-30T07:33:41Z</time></trkpt>
<trkpt lat="46.51372900" lon="6.90861500"><ele>794.260986</ele><time>2010-05-30T07:33:43Z</time></trkpt>
<trkpt lat="46.51379300" lon="6.90940800"><ele>791.328003</ele><time>2010-05-30T07:33:49Z</time></trkpt>
<trkpt lat="46.51383300" lon="6.91011500"><ele>786.093018</ele><time>2010-05-30T07:33:55Z</time></trkpt>
<trkpt lat="46.51378100" lon="6.91073500"><ele>782.47699</ele><time>2010-05-30T07:34:00Z</time></trkpt>
<trkpt lat="46.51363200" lon="6.91159800"><ele>778.179993</ele><time>2010-05-30T07:34:07Z</time></trkpt>
<trkpt lat="46.51359900" lon="6.91170800"><ele>777.424011</ele><time>2010-05-30T07:34:08Z</time></trkpt>
<trkpt lat="46.51338200" lon="6.91205500"><ele>774.096008</ele><time>2010-05-30T07:34:12Z</time></trkpt>
<trkpt lat="46.51314100" lon="6.91209900"><ele>772.143982</ele><time>2010-05-30T07:34:15Z</time></trkpt>
<trkpt lat="46.51293300" lon="6.91193200"><ele>770.987</ele><time>2010-05-30T07:34:18Z</time></trkpt>
<trkpt lat="46.51288400" lon="6.91184500"><ele>771.101013</ele><time>2010-05-30T07:34:19Z</time></trkpt>
<trkpt lat="46.51279500" lon="6.91167000"><ele>771.403992</ele><time>2010-05-30T07:34:21Z</time></trkpt>
<trkpt lat="46.51251500" lon="6.91132500"><ele>772.672974</ele><time>2010-05-30T07:34:26Z</time></trkpt>
<trkpt lat="46.51241400" lon="6.91119400"><ele>773.125</ele><time>2010-05-30T07:34:28Z</time></trkpt>
<trkpt lat="46.51216800" lon="6.91073900"><ele>774.656006</ele><time>2010-05-30T07:34:35Z</time></trkpt>
<trkpt lat="46.51205600" lon="6.91052600"><ele>775.752014</ele><time>2010-05-30T07:34:39Z</time></trkpt>
<trkpt lat="46.51199900" lon="6.91009000"><ele>777.528015</ele><time>2010-05-30T07:34:46Z</time></trkpt>
<trkpt lat="46.51204100" lon="6.90977000"><ele>778.747986</ele><time>2010-05-30T07:34:52Z</time></trkpt>
<trkpt lat="46.51203300" lon="6.90944700"><ele>780.103027</ele><time>2010-05-30T07:34:58Z</time></trkpt>
<trkpt lat="46.51193100" lon="6.90914100"><ele>781.278992</ele><time>2010-05-30T07:35:04Z</time></trkpt>
<trkpt lat="46.51185700" lon="6.90895600"><ele>782.028015</ele><time>2010-05-30T07:35:08Z</time></trkpt>
<trkpt lat="46.51172000" lon="6.90839800"><ele>783.926025</ele><time>2010-05-30T07:35:18Z</time></trkpt>
<trkpt lat="46.51169900" lon="6.90814000"><ele>785.226013</ele><time>2010-05-30T07:35:23Z</time></trkpt>
<trkpt lat="46.51175400" lon="6.90781000"><ele>787.091003</ele><time>2010-05-30T07:35:30Z</time></trkpt>
<trkpt lat="46.51175200" lon="6.90750100"><ele>788.39801</ele><time>2010-05-30T07:35:36Z</time></trkpt>
<trkpt lat="46.51176800" lon="6.90730600"><ele>789.192993</ele><time>2010-05-30T07:35:40Z</time></trkpt>
<trkpt lat="46.51182300" lon="6.90705400"><ele>790.387024</ele><time>2010-05-30T07:35:45Z</time></trkpt>
<trkpt lat="46.51187100" lon="6.90676600"><ele>791.229004</ele><time>2010-05-30T07:35:50Z</time></trkpt>
<trkpt lat="46.51184100" lon="6.90649300"><ele>792.416016</ele><time>2010-05-30T07:35:55Z</time></trkpt>
<trkpt lat="46.51170100" lon="6.90621600"><ele>793.301025</ele><time>2010-05-30T07:36:01Z</time></trkpt>
<trkpt lat="46.51159000" lon="6.90582100"><ele>795.036011</ele><time>2010-05-30T07:36:09Z</time></trkpt>
<trkpt lat="46.51152700" lon="6.90545300"><ele>796.45697</ele><time>2010-05-30T07:36:16Z</time></trkpt>
<trkpt lat="46.51143800" lon="6.90525500"><ele>797.715027</ele><time>2010-05-30T07:36:21Z</time></trkpt>
<trkpt lat="46.51124200" lon="6.90515300"><ele>798.578003</ele><time>2010-05-30T07:36:27Z</time></trkpt>
<trkpt lat="46.51100600" lon="6.90503400"><ele>800.073975</ele><time>2010-05-30T07:36:34Z</time></trkpt>
<trkpt lat="46.51081600" lon="6.90481500"><ele>801.330017</ele><time>2010-05-30T07:36:41Z</time></trkpt>
<trkpt lat="46.51061800" lon="6.90464300"><ele>802.773987</ele><time>2010-05-30T07:36:47Z</time></trkpt>
<trkpt lat="46.51036000" lon="6.90444400"><ele>803.997009</ele><time>2010-05-30T07:36:55Z</time></trkpt>
<trkpt lat="46.51015300" lon="6.90435200"><ele>805.315002</ele><time>2010-05-30T07:37:01Z</time></trkpt>
<trkpt lat="46.50993100" lon="6.90417500"><ele>806.989014</ele><time>2010-05-30T07:37:08Z</time></trkpt>
<trkpt lat="46.50975000" lon="6.90395300"><ele>808.213013</ele><time>2010-05-30T07:37:15Z</time></trkpt>
<trkpt lat="46.50959700" lon="6.90379300"><ele>809.411987</ele><time>2010-05-30T07:37:20Z</time></trkpt>
<trkpt lat="46.50939200" lon="6.90362300"><ele>810.56897</ele><time>2010-05-30T07:37:26Z</time></trkpt>
<trkpt lat="46.50913200" lon="6.90340400"><ele>812.086975</ele><time>2010-05-30T07:37:34Z</time></trkpt>
<trkpt lat="46.50893500" lon="6.90323800"><ele>813.202026</ele><time>2010-05-30T07:37:40Z</time></trkpt>
<trkpt lat="46.50869500" lon="6.90307500"><ele>814.648987</ele><time>2010-05-30T07:37:47Z</time></trkpt>
<trkpt lat="46.50840200" lon="6.90297700"><ele>816.16803</ele><time>2010-05-30T07:37:55Z</time></trkpt>
<trkpt lat="46.50819600" lon="6.90291400"><ele>817.153015</ele><time>2010-05-30T07:38:01Z</time></trkpt>
<trkpt lat="46.50802100" lon="6.90278700"><ele>818.059021</ele><time>2010-05-30T07:38:07Z</time></trkpt>
<trkpt lat="46.50785900" lon="6.90255300"><ele>819.471985</ele><time>2010-05-30T07:38:14Z</time></trkpt>
<trkpt lat="46.50771800" lon="6.90226800"><ele>820.505981</ele><time>2010-05-30T07:38:21Z</time></trkpt>
<trkpt lat="46.50753700" lon="6.90195800"><ele>822.080017</ele><time>2010-05-30T07:38:29Z</time></trkpt>
<trkpt lat="46.50739700" lon="6.90179400"><ele>822.968018</ele><time>2010-05-30T07:38:34Z</time></trkpt>
<trkpt lat="46.50718300" lon="6.90162900"><ele>824.452026</ele><time>2010-05-30T07:38:41Z</time></trkpt>
<trkpt lat="46.50693600" lon="6.90146400"><ele>825.85498</ele><time>2010-05-30T07:38:49Z</time></trkpt>
<trkpt lat="46.50661400" lon="6.90123600"><ele>827.893982</ele><time>2010-05-30T07:38:59Z</time></trkpt>
<trkpt lat="46.50632100" lon="6.90102500"><ele>829.286987</ele><time>2010-05-30T07:39:08Z</time></trkpt>
<trkpt lat="46.50606800" lon="6.90084900"><ele>830.682007</ele><time>2010-05-30T07:39:16Z</time></trkpt>
<trkpt lat="46.50581400" lon="6.90066000"><ele>832.242004</ele><time>2010-05-30T07:39:24Z</time></trkpt>
<trkpt lat="46.50548100" lon="6.90039800"><ele>833.192017</ele><time>2010-05-30T07:39:34Z</time></trkpt>
<trkpt lat="46.50514300" lon="6.90009200"><ele>833.786011</ele><time>2010-05-30T07:39:44Z</time></trkpt>
<trkpt lat="46.50485700" lon="6.89995400"><ele>834.083008</ele><time>2010-05-30T07:39:51Z</time></trkpt>
<trkpt lat="46.50468800" lon="6.89990600"><ele>834.445007</ele><time>2010-05-30T07:39:55Z</time></trkpt>
<trkpt lat="46.50433700" lon="6.89993200"><ele>834.687988</ele><time>2010-05-30T07:40:03Z</time></trkpt>
<trkpt lat="46.50393400" lon="6.90002900"><ele>834.869019</ele><time>2010-05-30T07:40:12Z</time></trkpt>
<trkpt lat="46.50389000" lon="6.90004200"><ele>834.945984</ele><time>2010-05-30T07:40:13Z</time></trkpt>
<trkpt lat="46.50352200" lon="6.90004700"><ele>835.049988</ele><time>2010-05-30T07:40:21Z</time></trkpt>
<trkpt lat="46.50321900" lon="6.89995100"><ele>834.427002</ele><time>2010-05-30T07:40:27Z</time></trkpt>
<trkpt lat="46.50284600" lon="6.89970100"><ele>833.643982</ele><time>2010-05-30T07:40:34Z</time></trkpt>
<trkpt lat="46.50258200" lon="6.89943100"><ele>832.643005</ele><time>2010-05-30T07:40:39Z</time></trkpt>
<trkpt lat="46.50211000" lon="6.89890600"><ele>831.848999</ele><time>2010-05-30T07:40:48Z</time></trkpt>
<trkpt lat="46.50155700" lon="6.89826900"><ele>831.265015</ele><time>2010-05-30T07:40:58Z</time></trkpt>
<trkpt lat="46.50110700" lon="6.89777600"><ele>830.562988</ele><time>2010-05-30T07:41:06Z</time></trkpt>
<trkpt lat="46.50072000" lon="6.89766800"><ele>829.890991</ele><time>2010-05-30T07:41:12Z</time></trkpt>
<trkpt lat="46.50065600" lon="6.89768900"><ele>829.812012</ele><time>2010-05-30T07:41:13Z</time></trkpt>
<trkpt lat="46.50021000" lon="6.89797300"><ele>829.333984</ele><time>2010-05-30T07:41:20Z</time></trkpt>
<trkpt lat="46.49988100" lon="6.89819000"><ele>829.054016</ele><time>2010-05-30T07:41:25Z</time></trkpt>
<trkpt lat="46.49953000" lon="6.89833700"><ele>830.218994</ele><time>2010-05-30T07:41:31Z</time></trkpt>
<trkpt lat="46.49924800" lon="6.89836600"><ele>830.491028</ele><time>2010-05-30T07:41:36Z</time></trkpt>
<trkpt lat="46.49880100" lon="6.89835400"><ele>829.909973</ele><time>2010-05-30T07:41:43Z</time></trkpt>
<trkpt lat="46.49834100" lon="6.89829900"><ele>829.026978</ele><time>2010-05-30T07:41:50Z</time></trkpt>
<trkpt lat="46.49789600" lon="6.89824800"><ele>827.776978</ele><time>2010-05-30T07:41:57Z</time></trkpt>
<trkpt lat="46.49782500" lon="6.89823400"><ele>827.380005</ele><time>2010-05-30T07:41:58Z</time></trkpt>
<trkpt lat="46.49750200" lon="6.89804400"><ele>826.518005</ele><time>2010-05-30T07:42:03Z</time></trkpt>
<trkpt lat="46.49723500" lon="6.89773200"><ele>825.687988</ele><time>2010-05-30T07:42:08Z</time></trkpt>
<trkpt lat="46.49689100" lon="6.89732200"><ele>823.757019</ele><time>2010-05-30T07:42:14Z</time></trkpt>
<trkpt lat="46.49650600" lon="6.89688300"><ele>821.882996</ele><time>2010-05-30T07:42:20Z</time></trkpt>
<trkpt lat="46.49613000" lon="6.89634400"><ele>818.640015</ele><time>2010-05-30T07:42:26Z</time></trkpt>
<trkpt lat="46.49598000" lon="6.89615300"><ele>817.051025</ele><time>2010-05-30T07:42:28Z</time></trkpt>
<trkpt lat="46.49551000" lon="6.89583800"><ele>813.780029</ele><time>2010-05-30T07:42:33Z</time></trkpt>
<trkpt lat="46.49493600" lon="6.89567800"><ele>811.541992</ele><time>2010-05-30T07:42:39Z</time></trkpt>
<trkpt lat="46.49448400" lon="6.89555400"><ele>809.47699</ele><time>2010-05-30T07:42:44Z</time></trkpt>
<trkpt lat="46.49382200" lon="6.89552400"><ele>805.612</ele><time>2010-05-30T07:42:51Z</time></trkpt>
<trkpt lat="46.49326000" lon="6.89543800"><ele>803.382019</ele><time>2010-05-30T07:42:57Z</time></trkpt>
<trkpt lat="46.49277500" lon="6.89531600"><ele>802.294983</ele><time>2010-05-30T07:43:03Z</time></trkpt>
<trkpt lat="46.49246500" lon="6.89523700"><ele>803.020996</ele><time>2010-05-30T07:43:08Z</time></trkpt>
<trkpt lat="46.49218000" lon="6.89517100"><ele>803.828979</ele><time>2010-05-30T07:43:13Z</time></trkpt>
<trkpt lat="46.49206700" lon="6.89515600"><ele>803.968994</ele><time>2010-05-30T07:43:15Z</time></trkpt>
<trkpt lat="46.49184100" lon="6.89514700"><ele>803.809021</ele><time>2010-05-30T07:43:19Z</time></trkpt>
<trkpt lat="46.49144700" lon="6.89520500"><ele>802.47998</ele><time>2010-05-30T07:43:25Z</time></trkpt>
<trkpt lat="46.49137000" lon="6.89521400"><ele>802.017029</ele><time>2010-05-30T07:43:26Z</time></trkpt>
<trkpt lat="46.49099700" lon="6.89505400"><ele>799.166016</ele><time>2010-05-30T07:43:31Z</time></trkpt>
<trkpt lat="46.49086100" lon="6.89487100"><ele>798.322998</ele><time>2010-05-30T07:43:33Z</time></trkpt>
<trkpt lat="46.49072500" lon="6.89456400"><ele>796.020996</ele><time>2010-05-30T07:43:36Z</time></trkpt>
<trkpt lat="46.49069400" lon="6.89445900"><ele>794.96698</ele><time>2010-05-30T07:43:37Z</time></trkpt>
<trkpt lat="46.49062800" lon="6.89424400"><ele>793.625977</ele><time>2010-05-30T07:43:39Z</time></trkpt>
<trkpt lat="46.49054100" lon="6.89403200"><ele>792.247009</ele><time>2010-05-30T07:43:41Z</time></trkpt>
<trkpt lat="46.49029400" lon="6.89365900"><ele>789.094971</ele><time>2010-05-30T07:43:45Z</time></trkpt>
<trkpt lat="46.48971000" lon="6.89309900"><ele>783.091003</ele><time>2010-05-30T07:43:52Z</time></trkpt>
<trkpt lat="46.48925100" lon="6.89280000"><ele>779.838989</ele><time>2010-05-30T07:43:57Z</time></trkpt>
<trkpt lat="46.48839600" lon="6.89247100"><ele>776.03302</ele><time>2010-05-30T07:44:06Z</time></trkpt>
<trkpt lat="46.48777300" lon="6.89230700"><ele>774.120972</ele><time>2010-05-30T07:44:13Z</time></trkpt>
<trkpt lat="46.48727300" lon="6.89220200"><ele>773.534973</ele><time>2010-05-30T07:44:19Z</time></trkpt>
<trkpt lat="46.48650200" lon="6.89210800"><ele>773.226013</ele><time>2010-05-30T07:44:29Z</time></trkpt>
<trkpt lat="46.48608600" lon="6.89204600"><ele>773.38501</ele><time>2010-05-30T07:44:35Z</time></trkpt>
<trkpt lat="46.48583600" lon="6.89201300"><ele>773.434998</ele><time>2010-05-30T07:44:39Z</time></trkpt>
<trkpt lat="46.48540300" lon="6.89191200"><ele>774.229004</ele><time>2010-05-30T07:44:47Z</time></trkpt>
<trkpt lat="46.48516300" lon="6.89183200"><ele>773.961975</ele><time>2010-05-30T07:44:52Z</time></trkpt>
<trkpt lat="46.48476900" lon="6.89160500"><ele>771.617004</ele><time>2010-05-30T07:44:59Z</time></trkpt>
<trkpt lat="46.48458300" lon="6.89149100"><ele>770.002014</ele><time>2010-05-30T07:45:02Z</time></trkpt>
<trkpt lat="46.48423600" lon="6.89133000"><ele>767.536987</ele><time>2010-05-30T07:45:07Z</time></trkpt>
<trkpt lat="46.48390000" lon="6.89123900"><ele>764.69397</ele><time>2010-05-30T07:45:11Z</time></trkpt>
<trkpt lat="46.48380700" lon="6.89122200"><ele>764.427002</ele><time>2010-05-30T07:45:12Z</time></trkpt>
<trkpt lat="46.48352200" lon="6.89117100"><ele>762.867004</ele><time>2010-05-30T07:45:15Z</time></trkpt>
<trkpt lat="46.48342900" lon="6.89115500"><ele>762.61499</ele><time>2010-05-30T07:45:16Z</time></trkpt>
<trkpt lat="46.48279600" lon="6.89109800"><ele>760.773987</ele><time>2010-05-30T07:45:23Z</time></trkpt>
<trkpt lat="46.48229900" lon="6.89120700"><ele>759.84198</ele><time>2010-05-30T07:45:29Z</time></trkpt>
<trkpt lat="46.48177700" lon="6.89138400"><ele>758.705994</ele><time>2010-05-30T07:45:36Z</time></trkpt>
<trkpt lat="46.48137400" lon="6.89154300"><ele>759.223999</ele><time>2010-05-30T07:45:42Z</time></trkpt>
<trkpt lat="46.48092000" lon="6.89173400"><ele>759.474976</ele><time>2010-05-30T07:45:50Z</time></trkpt>
<trkpt lat="46.48052800" lon="6.89193400"><ele>759.697021</ele><time>2010-05-30T07:45:57Z</time></trkpt>
<trkpt lat="46.48010400" lon="6.89225500"><ele>759.09198</ele><time>2010-05-30T07:46:05Z</time></trkpt>
<trkpt lat="46.47979500" lon="6.89251400"><ele>758.377014</ele><time>2010-05-30T07:46:11Z</time></trkpt>
<trkpt lat="46.47924300" lon="6.89289100"><ele>756.838013</ele><time>2010-05-30T07:46:21Z</time></trkpt>
<trkpt lat="46.47876600" lon="6.89308000"><ele>755.031006</ele><time>2010-05-30T07:46:28Z</time></trkpt>
<trkpt lat="46.47853600" lon="6.89313900"><ele>753.965027</ele><time>2010-05-30T07:46:31Z</time></trkpt>
<trkpt lat="46.47786900" lon="6.89329700"><ele>750.437988</ele><time>2010-05-30T07:46:39Z</time></trkpt>
<trkpt lat="46.47778100" lon="6.89331600"><ele>750.171997</ele><time>2010-05-30T07:46:40Z</time></trkpt>
<trkpt lat="46.47727700" lon="6.89343600"><ele>747.265015</ele><time>2010-05-30T07:46:46Z</time></trkpt>
<trkpt lat="46.47657700" lon="6.89360700"><ele>743.14801</ele><time>2010-05-30T07:46:54Z</time></trkpt>
<trkpt lat="46.47576100" lon="6.89380800"><ele>736.671021</ele><time>2010-05-30T07:47:03Z</time></trkpt>
<trkpt lat="46.47567700" lon="6.89384300"><ele>736.383972</ele><time>2010-05-30T07:47:04Z</time></trkpt>
<trkpt lat="46.47559600" lon="6.89388400"><ele>735.599976</ele><time>2010-05-30T07:47:05Z</time></trkpt>
<trkpt lat="46.47529900" lon="6.89418300"><ele>732.815002</ele><time>2010-05-30T07:47:09Z</time></trkpt>
<trkpt lat="46.47517700" lon="6.89440200"><ele>731.445984</ele><time>2010-05-30T07:47:11Z</time></trkpt>
<trkpt lat="46.47500800" lon="6.89480700"><ele>727.55603</ele><time>2010-05-30T07:47:15Z</time></trkpt>
<trkpt lat="46.47485100" lon="6.89500800"><ele>724.231995</ele><time>2010-05-30T07:47:19Z</time></trkpt>
<trkpt lat="46.47478200" lon="6.89500700"><ele>723.479004</ele><time>2010-05-30T07:47:21Z</time></trkpt>
<trkpt lat="46.47465600" lon="6.89506500"><ele>722.234985</ele><time>2010-05-30T07:47:25Z</time></trkpt>
<trkpt lat="46.47457900" lon="6.89512700"><ele>722.221008</ele><time>2010-05-30T07:47:28Z</time></trkpt>
<trkpt lat="46.47429000" lon="6.89519600"><ele>721.52301</ele><time>2010-05-30T07:47:34Z</time></trkpt>
<trkpt lat="46.47388600" lon="6.89528400"><ele>719.875</ele><time>2010-05-30T07:47:40Z</time></trkpt>
<trkpt lat="46.47359700" lon="6.89534400"><ele>718.698975</ele><time>2010-05-30T07:47:44Z</time></trkpt>
<trkpt lat="46.47320500" lon="6.89538500"><ele>717.330017</ele><time>2010-05-30T07:47:49Z</time></trkpt>
<trkpt lat="46.47287300" lon="6.89563500"><ele>715.609009</ele><time>2010-05-30T07:47:54Z</time></trkpt>
<trkpt lat="46.47269600" lon="6.89598700"><ele>714.513</ele><time>2010-05-30T07:47:58Z</time></trkpt>
<trkpt lat="46.47265700" lon="6.89619400"><ele>713.817993</ele><time>2010-05-30T07:48:00Z</time></trkpt>
<trkpt lat="46.47258200" lon="6.89663300"><ele>711.687988</ele><time>2010-05-30T07:48:05Z</time></trkpt>
<trkpt lat="46.47253600" lon="6.89685600"><ele>710.807007</ele><time>2010-05-30T07:48:09Z</time></trkpt>
<trkpt lat="46.47246600" lon="6.89701500"><ele>710.78302</ele><time>2010-05-30T07:48:13Z</time></trkpt>
<trkpt lat="46.47237900" lon="6.89701300"><ele>710.278015</ele><time>2010-05-30T07:48:15Z</time></trkpt>
<trkpt lat="46.47200800" lon="6.89694400"><ele>707.520996</ele><time>2010-05-30T07:48:21Z</time></trkpt>
<trkpt lat="46.47180000" lon="6.89690600"><ele>706.22699</ele><time>2010-05-30T07:48:24Z</time></trkpt>
<trkpt lat="46.47141700" lon="6.89690800"><ele>702.934998</ele><time>2010-05-30T07:48:29Z</time></trkpt>
<trkpt lat="46.47093100" lon="6.89701500"><ele>698.846985</ele><time>2010-05-30T07:48:35Z</time></trkpt>
<trkpt lat="46.47062700" lon="6.89718900"><ele>695.989014</ele><time>2010-05-30T07:48:39Z</time></trkpt>
<trkpt lat="46.47009400" lon="6.89771000"><ele>689.721008</ele><time>2010-05-30T07:48:46Z</time></trkpt>
<trkpt lat="46.47002000" lon="6.89778200"><ele>689.190002</ele><time>2010-05-30T07:48:47Z</time></trkpt>
<trkpt lat="46.46960500" lon="6.89797000"><ele>684.914001</ele><time>2010-05-30T07:48:52Z</time></trkpt>
<trkpt lat="46.46894600" lon="6.89805700"><ele>678.526978</ele><time>2010-05-30T07:48:59Z</time></trkpt>
<trkpt lat="46.46842400" lon="6.89811600"><ele>673.499023</ele><time>2010-05-30T07:49:05Z</time></trkpt>
<trkpt lat="46.46796200" lon="6.89807100"><ele>669.612</ele><time>2010-05-30T07:49:10Z</time></trkpt>
<trkpt lat="46.46730900" lon="6.89798500"><ele>663.280029</ele><time>2010-05-30T07:49:17Z</time></trkpt>
<trkpt lat="46.46692700" lon="6.89794400"><ele>659.184021</ele><time>2010-05-30T07:49:22Z</time></trkpt>
<trkpt lat="46.46685300" lon="6.89793700"><ele>658.588013</ele><time>2010-05-30T07:49:23Z</time></trkpt>
<trkpt lat="46.46643300" lon="6.89805600"><ele>655.101013</ele><time>2010-05-30T07:49:28Z</time></trkpt>
<trkpt lat="46.46577500" lon="6.89835500"><ele>648.72699</ele><time>2010-05-30T07:49:35Z</time></trkpt>
<trkpt lat="46.46528600" lon="6.89857700"><ele>643.080017</ele><time>2010-05-30T07:49:41Z</time></trkpt>
<trkpt lat="46.46513300" lon="6.89863100"><ele>641.765991</ele><time>2010-05-30T07:49:43Z</time></trkpt>
<trkpt lat="46.46480800" lon="6.89858500"><ele>639.080017</ele><time>2010-05-30T07:49:47Z</time></trkpt>
<trkpt lat="46.46473400" lon="6.89854900"><ele>638.554993</ele><time>2010-05-30T07:49:48Z</time></trkpt>
<trkpt lat="46.46426300" lon="6.89833300"><ele>633.218994</ele><time>2010-05-30T07:49:55Z</time></trkpt>
<trkpt lat="46.46409800" lon="6.89819700"><ele>631.999023</ele><time>2010-05-30T07:49:58Z</time></trkpt>
<trkpt lat="46.46402000" lon="6.89806900"><ele>631.065979</ele><time>2010-05-30T07:50:00Z</time></trkpt>
<trkpt lat="46.46394800" lon="6.89791300"><ele>630.158997</ele><time>2010-05-30T07:50:02Z</time></trkpt>
<trkpt lat="46.46386100" lon="6.89768100"><ele>627.926025</ele><time>2010-05-30T07:50:06Z</time></trkpt>
<trkpt lat="46.46385900" lon="6.89764000"><ele>627.742004</ele><time>2010-05-30T07:50:07Z</time></trkpt>
<trkpt lat="46.46390000" lon="6.89748600"><ele>626.960022</ele><time>2010-05-30T07:50:11Z</time></trkpt>
<trkpt lat="46.46393000" lon="6.89744900"><ele>626.804993</ele><time>2010-05-30T07:50:12Z</time></trkpt>
<trkpt lat="46.46410000" lon="6.89731500"><ele>625.994019</ele><time>2010-05-30T07:50:17Z</time></trkpt>
<trkpt lat="46.46406500" lon="6.89726000"><ele>625.848999</ele><time>2010-05-30T07:50:20Z</time></trkpt>
<trkpt lat="46.46400300" lon="6.89734300"><ele>626.19397</ele><time>2010-05-30T07:50:24Z</time></trkpt>
<trkpt lat="46.46392400" lon="6.89743500"><ele>626.538025</ele><time>2010-05-30T07:50:28Z</time></trkpt>
<trkpt lat="46.46380100" lon="6.89737800"><ele>626.664001</ele><time>2010-05-30T07:50:33Z</time></trkpt>
<trkpt lat="46.46378100" lon="6.89732800"><ele>626.403015</ele><time>2010-05-30T07:50:34Z</time></trkpt>
<trkpt lat="46.46367600" lon="6.89699800"><ele>625.719971</ele><time>2010-05-30T07:50:39Z</time></trkpt>
<trkpt lat="46.46360300" lon="6.89662700"><ele>625.075012</ele><time>2010-05-30T07:50:44Z</time></trkpt>
<trkpt lat="46.46359700" lon="6.89655900"><ele>625.067017</ele><time>2010-05-30T07:50:45Z</time></trkpt>
<trkpt lat="46.46359600" lon="6.89635800"><ele>625.107971</ele><time>2010-05-30T07:50:48Z</time></trkpt>
<trkpt lat="46.46365000" lon="6.89616800"><ele>625.094971</ele><time>2010-05-30T07:50:51Z</time></trkpt>
<trkpt lat="46.46377600" lon="6.89596600"><ele>624.960022</ele><time>2010-05-30T07:50:55Z</time></trkpt>
<trkpt lat="46.46407100" lon="6.89559200"><ele>624.742004</ele><time>2010-05-30T07:51:04Z</time></trkpt>
<trkpt lat="46.46413700" lon="6.89550600"><ele>624.671021</ele><time>2010-05-30T07:51:06Z</time></trkpt>
<trkpt lat="46.46436100" lon="6.89520000"><ele>624.130005</ele><time>2010-05-30T07:51:13Z</time></trkpt>
<trkpt lat="46.46456700" lon="6.89491600"><ele>622.815979</ele><time>2010-05-30T07:51:20Z</time></trkpt>
<trkpt lat="46.46468300" lon="6.89481600"><ele>621.802002</ele><time>2010-05-30T07:51:23Z</time></trkpt>
<trkpt lat="46.46463300" lon="6.89460200"><ele>621.268982</ele><time>2010-05-30T07:51:27Z</time></trkpt>
<trkpt lat="46.46433800" lon="6.89421200"><ele>619.338989</ele><time>2010-05-30T07:51:33Z</time></trkpt>
<trkpt lat="46.46385300" lon="6.89353200"><ele>617.616028</ele><time>2010-05-30T07:51:42Z</time></trkpt>
<trkpt lat="46.46347400" lon="6.89318700"><ele>616.549011</ele><time>2010-05-30T07:51:48Z</time></trkpt>
<trkpt lat="46.46311500" lon="6.89290200"><ele>614.77301</ele><time>2010-05-30T07:51:53Z</time></trkpt>
<trkpt lat="46.46265700" lon="6.89267200"><ele>612.210022</ele><time>2010-05-30T07:51:59Z</time></trkpt>
<trkpt lat="46.46216100" lon="6.89260000"><ele>610.054016</ele><time>2010-05-30T07:52:05Z</time></trkpt>
<trkpt lat="46.46192600" lon="6.89258900"><ele>608.429016</ele><time>2010-05-30T07:52:08Z</time></trkpt>
<trkpt lat="46.46142700" lon="6.89263100"><ele>605.226013</ele><time>2010-05-30T07:52:15Z</time></trkpt>
<trkpt lat="46.46114700" lon="6.89269300"><ele>604.182007</ele><time>2010-05-30T07:52:19Z</time></trkpt>
<trkpt lat="46.46080600" lon="6.89299500"><ele>602.080017</ele><time>2010-05-30T07:52:24Z</time></trkpt>
<trkpt lat="46.46062500" lon="6.89326800"><ele>600.645996</ele><time>2010-05-30T07:52:27Z</time></trkpt>
<trkpt lat="46.46037500" lon="6.89389100"><ele>598.211975</ele><time>2010-05-30T07:52:32Z</time></trkpt>
<trkpt lat="46.46018300" lon="6.89477800"><ele>594.927002</ele><time>2010-05-30T07:52:38Z</time></trkpt>
<trkpt lat="46.46001700" lon="6.89577100"><ele>591.252014</ele><time>2010-05-30T07:52:44Z</time></trkpt>
<trkpt lat="46.45986100" lon="6.89664900"><ele>587.474976</ele><time>2010-05-30T07:52:49Z</time></trkpt>
<trkpt lat="46.45977300" lon="6.89716700"><ele>584.768005</ele><time>2010-05-30T07:52:52Z</time></trkpt>
<trkpt lat="46.45966700" lon="6.89805600"><ele>580.799988</ele><time>2010-05-30T07:52:57Z</time></trkpt>
<trkpt lat="46.45969300" lon="6.89894200"><ele>576.403015</ele><time>2010-05-30T07:53:02Z</time></trkpt>
<trkpt lat="46.45972100" lon="6.89926400"><ele>574.112976</ele><time>2010-05-30T07:53:04Z</time></trkpt>
<trkpt lat="46.45965100" lon="6.89972100"><ele>571.348022</ele><time>2010-05-30T07:53:08Z</time></trkpt>
<trkpt lat="46.45960700" lon="6.89980900"><ele>571.142029</ele><time>2010-05-30T07:53:09Z</time></trkpt>
<trkpt lat="46.45926800" lon="6.90041700"><ele>570.935974</ele><time>2010-05-30T07:53:17Z</time></trkpt>
<trkpt lat="46.45910100" lon="6.90071200"><ele>570.796997</ele><time>2010-05-30T07:53:21Z</time></trkpt>
<trkpt lat="46.45887400" lon="6.90089500"><ele>570.659973</ele><time>2010-05-30T07:53:25Z</time></trkpt>
<trkpt lat="46.45838000" lon="6.90107100"><ele>570.192017</ele><time>2010-05-30T07:53:33Z</time></trkpt>
<trkpt lat="46.45803000" lon="6.90119900"><ele>569.843018</ele><time>2010-05-30T07:53:39Z</time></trkpt>
<trkpt lat="46.45774600" lon="6.90118600"><ele>569.450012</ele><time>2010-05-30T07:53:43Z</time></trkpt>
<trkpt lat="46.45757300" lon="6.90106900"><ele>568.809998</ele><time>2010-05-30T07:53:46Z</time></trkpt>
<trkpt lat="46.45732700" lon="6.90110600"><ele>567.827026</ele><time>2010-05-30T07:53:50Z</time></trkpt>
<trkpt lat="46.45688300" lon="6.90129800"><ele>565.929016</ele><time>2010-05-30T07:53:56Z</time></trkpt>
<trkpt lat="46.45634700" lon="6.90139100"><ele>562.520996</ele><time>2010-05-30T07:54:02Z</time></trkpt>
<trkpt lat="46.45605300" lon="6.90141000"><ele>560.974976</ele><time>2010-05-30T07:54:05Z</time></trkpt>
<trkpt lat="46.45545100" lon="6.90141000"><ele>557.445007</ele><time>2010-05-30T07:54:11Z</time></trkpt>
<trkpt lat="46.45507200" lon="6.90150500"><ele>555.158997</ele><time>2010-05-30T07:54:15Z</time></trkpt>
<trkpt lat="46.45465400" lon="6.90165000"><ele>551.796021</ele><time>2010-05-30T07:54:20Z</time></trkpt>
<trkpt lat="46.45458500" lon="6.90166600"><ele>551.036011</ele><time>2010-05-30T07:54:21Z</time></trkpt>
<trkpt lat="46.45435300" lon="6.90166600"><ele>549.671021</ele><time>2010-05-30T07:54:25Z</time></trkpt>
<trkpt lat="46.45412900" lon="6.90171600"><ele>550.155029</ele><time>2010-05-30T07:54:30Z</time></trkpt>
<trkpt lat="46.45388100" lon="6.90176800"><ele>551.156982</ele><time>2010-05-30T07:54:36Z</time></trkpt>
<trkpt lat="46.45377100" lon="6.90179000"><ele>552.06897</ele><time>2010-05-30T07:54:39Z</time></trkpt>
<trkpt lat="46.45365800" lon="6.90180600"><ele>553.075989</ele><time>2010-05-30T07:54:42Z</time></trkpt>
<trkpt lat="46.45354500" lon="6.90180700"><ele>553.53302</ele><time>2010-05-30T07:54:45Z</time></trkpt>
<trkpt lat="46.45346800" lon="6.90182100"><ele>553.952026</ele><time>2010-05-30T07:54:47Z</time></trkpt>
<trkpt lat="46.45320500" lon="6.90187100"><ele>555.327026</ele><time>2010-05-30T07:54:54Z</time></trkpt>
<trkpt lat="46.45302000" lon="6.90190000"><ele>556.507996</ele><time>2010-05-30T07:54:59Z</time></trkpt>
<trkpt lat="46.45275800" lon="6.90200500"><ele>557.393982</ele><time>2010-05-30T07:55:06Z</time></trkpt>
<trkpt lat="46.45253300" lon="6.90214000"><ele>558.179993</ele><time>2010-05-30T07:55:12Z</time></trkpt>
<trkpt lat="46.45220500" lon="6.90233700"><ele>558.791016</ele><time>2010-05-30T07:55:20Z</time></trkpt>
<trkpt lat="46.45186600" lon="6.90255800"><ele>559.481018</ele><time>2010-05-30T07:55:28Z</time></trkpt>
<trkpt lat="46.45146300" lon="6.90282300"><ele>560.33197</ele><time>2010-05-30T07:55:38Z</time></trkpt>
<trkpt lat="46.45114600" lon="6.90305000"><ele>561.088989</ele><time>2010-05-30T07:55:46Z</time></trkpt>
<trkpt lat="46.45078200" lon="6.90331300"><ele>562.142029</ele><time>2010-05-30T07:55:55Z</time></trkpt>
<trkpt lat="46.45043400" lon="6.90363700"><ele>562.817017</ele><time>2010-05-30T07:56:04Z</time></trkpt>
<trkpt lat="46.45007700" lon="6.90403200"><ele>563.502991</ele><time>2010-05-30T07:56:14Z</time></trkpt>
<trkpt lat="46.44974800" lon="6.90438000"><ele>564.500977</ele><time>2010-05-30T07:56:23Z</time></trkpt>
<trkpt lat="46.44940500" lon="6.90471400"><ele>565.159973</ele><time>2010-05-30T07:56:32Z</time></trkpt>
<trkpt lat="46.44911000" lon="6.90488900"><ele>565.638</ele><time>2010-05-30T07:56:39Z</time></trkpt>
<trkpt lat="46.44869000" lon="6.90497800"><ele>566.494019</ele><time>2010-05-30T07:56:48Z</time></trkpt>
<trkpt lat="46.44825400" lon="6.90498900"><ele>567.275024</ele><time>2010-05-30T07:56:57Z</time></trkpt>
<trkpt lat="46.44815600" lon="6.90501000"><ele>567.234009</ele><time>2010-05-30T07:56:59Z</time></trkpt>
<trkpt lat="46.44776600" lon="6.90517600"><ele>568.017029</ele><time>2010-05-30T07:57:07Z</time></trkpt>
<trkpt lat="46.44741600" lon="6.90545900"><ele>568.612976</ele><time>2010-05-30T07:57:14Z</time></trkpt>
<trkpt lat="46.44709100" lon="6.90579700"><ele>568.913025</ele><time>2010-05-30T07:57:21Z</time></trkpt>
<trkpt lat="46.44660300" lon="6.90633700"><ele>569.629028</ele><time>2010-05-30T07:57:32Z</time></trkpt>
<trkpt lat="46.44633600" lon="6.90671300"><ele>569.770996</ele><time>2010-05-30T07:57:39Z</time></trkpt>
<trkpt lat="46.44604400" lon="6.90711000"><ele>570.05603</ele><time>2010-05-30T07:57:46Z</time></trkpt>
<trkpt lat="46.44554700" lon="6.90761100"><ele>570.875</ele><time>2010-05-30T07:57:56Z</time></trkpt>
<trkpt lat="46.44511800" lon="6.90804300"><ele>571.336975</ele><time>2010-05-30T07:58:05Z</time></trkpt>
<trkpt lat="46.44454400" lon="6.90863500"><ele>572.143982</ele><time>2010-05-30T07:58:17Z</time></trkpt>
<trkpt lat="46.44416700" lon="6.90902200"><ele>572.747009</ele><time>2010-05-30T07:58:25Z</time></trkpt>
<trkpt lat="46.44378900" lon="6.90938400"><ele>573.380981</ele><time>2010-05-30T07:58:33Z</time></trkpt>
<trkpt lat="46.44345400" lon="6.90968300"><ele>573.754028</ele><time>2010-05-30T07:58:40Z</time></trkpt>
<trkpt lat="46.44336500" lon="6.90977000"><ele>574.065979</ele><time>2010-05-30T07:58:42Z</time></trkpt>
<trkpt lat="46.44327400" lon="6.91001200"><ele>574.432983</ele><time>2010-05-30T07:58:46Z</time></trkpt>
<trkpt lat="46.44332900" lon="6.91019200"><ele>574.854004</ele><time>2010-05-30T07:58:49Z</time></trkpt>
<trkpt lat="46.44350000" lon="6.91028800"><ele>575.325012</ele><time>2010-05-30T07:58:53Z</time></trkpt>
<trkpt lat="46.44373300" lon="6.91035600"><ele>576.357971</ele><time>2010-05-30T07:58:58Z</time></trkpt>
<trkpt lat="46.44387200" lon="6.91056400"><ele>577.513</ele><time>2010-05-30T07:59:03Z</time></trkpt>
<trkpt lat="46.44386200" lon="6.91077300"><ele>578.025024</ele><time>2010-05-30T07:59:07Z</time></trkpt>
<trkpt lat="46.44383600" lon="6.91082900"><ele>578.038025</ele><time>2010-05-30T07:59:08Z</time></trkpt>
<trkpt lat="46.44370200" lon="6.91111300"><ele>578.012024</ele><time>2010-05-30T07:59:13Z</time></trkpt>
<trkpt lat="46.44359000" lon="6.91145400"><ele>578.263977</ele><time>2010-05-30T07:59:18Z</time></trkpt>
<trkpt lat="46.44351400" lon="6.91188000"><ele>578.752014</ele><time>2010-05-30T07:59:24Z</time></trkpt>
<trkpt lat="46.44347700" lon="6.91192600"><ele>578.674011</ele><time>2010-05-30T07:59:25Z</time></trkpt>
<trkpt lat="46.44332000" lon="6.91191700"><ele>577.646973</ele><time>2010-05-30T07:59:29Z</time></trkpt>
<trkpt lat="46.44318400" lon="6.91201600"><ele>576.757019</ele><time>2010-05-30T07:59:32Z</time></trkpt>
<trkpt lat="46.44314200" lon="6.91208600"><ele>576.60498</ele><time>2010-05-30T07:59:33Z</time></trkpt>
<trkpt lat="46.44288600" lon="6.91262700"><ele>573.526978</ele><time>2010-05-30T07:59:39Z</time></trkpt>
<trkpt lat="46.44260800" lon="6.91322400"><ele>568.708008</ele><time>2010-05-30T07:59:45Z</time></trkpt>
<trkpt lat="46.44232500" lon="6.91366400"><ele>565.049988</ele><time>2010-05-30T07:59:50Z</time></trkpt>
<trkpt lat="46.44200600" lon="6.91399100"><ele>560.630005</ele><time>2010-05-30T07:59:55Z</time></trkpt>
<trkpt lat="46.44150700" lon="6.91448700"><ele>554.02002</ele><time>2010-05-30T08:00:02Z</time></trkpt>
<trkpt lat="46.44118300" lon="6.91472800"><ele>550.541992</ele><time>2010-05-30T08:00:06Z</time></trkpt>
<trkpt lat="46.44091200" lon="6.91486800"><ele>546.953003</ele><time>2010-05-30T08:00:09Z</time></trkpt>
<trkpt lat="46.44081900" lon="6.91492100"><ele>546.414001</ele><time>2010-05-30T08:00:10Z</time></trkpt>
<trkpt lat="46.44042800" lon="6.91530500"><ele>541.341003</ele><time>2010-05-30T08:00:15Z</time></trkpt>
<trkpt lat="46.44036100" lon="6.91537500"><ele>539.911987</ele><time>2010-05-30T08:00:16Z</time></trkpt>
<trkpt lat="46.44003700" lon="6.91553900"><ele>535.304016</ele><time>2010-05-30T08:00:20Z</time></trkpt>
<trkpt lat="46.43992100" lon="6.91554400"><ele>534.028015</ele><time>2010-05-30T08:00:21Z</time></trkpt>
<trkpt lat="46.43951000" lon="6.91520400"><ele>530.408997</ele><time>2010-05-30T08:00:25Z</time></trkpt>
<trkpt lat="46.43945700" lon="6.91507900"><ele>529.307007</ele><time>2010-05-30T08:00:26Z</time></trkpt>
<trkpt lat="46.43933000" lon="6.91487300"><ele>527.111023</ele><time>2010-05-30T08:00:28Z</time></trkpt>
<trkpt lat="46.43910700" lon="6.91469100"><ele>522.671997</ele><time>2010-05-30T08:00:32Z</time></trkpt>
<trkpt lat="46.43900700" lon="6.91469000"><ele>521.682007</ele><time>2010-05-30T08:00:34Z</time></trkpt>
<trkpt lat="46.43882100" lon="6.91485200"><ele>520.130981</ele><time>2010-05-30T08:00:38Z</time></trkpt>
<trkpt lat="46.43869100" lon="6.91495300"><ele>518.013</ele><time>2010-05-30T08:00:41Z</time></trkpt>
<trkpt lat="46.43856400" lon="6.91485900"><ele>516.263</ele><time>2010-05-30T08:00:44Z</time></trkpt>
<trkpt lat="46.43852800" lon="6.91479500"><ele>515.591003</ele><time>2010-05-30T08:00:45Z</time></trkpt>
<trkpt lat="46.43845000" lon="6.91465300"><ele>514.182007</ele><time>2010-05-30T08:00:47Z</time></trkpt>
<trkpt lat="46.43819000" lon="6.91443000"><ele>511.003998</ele><time>2010-05-30T08:00:52Z</time></trkpt>
<trkpt lat="46.43798700" lon="6.91444400"><ele>509.412994</ele><time>2010-05-30T08:00:55Z</time></trkpt>
<trkpt lat="46.43791300" lon="6.91447200"><ele>508.798004</ele><time>2010-05-30T08:00:56Z</time></trkpt>
<trkpt lat="46.43743600" lon="6.91467900"><ele>503.674011</ele><time>2010-05-30T08:01:03Z</time></trkpt>
<trkpt lat="46.43699600" lon="6.91490800"><ele>499.216003</ele><time>2010-05-30T08:01:09Z</time></trkpt>
<trkpt lat="46.43668700" lon="6.91512600"><ele>495.859009</ele><time>2010-05-30T08:01:13Z</time></trkpt>
<trkpt lat="46.43632100" lon="6.91524100"><ele>490.766998</ele><time>2010-05-30T08:01:18Z</time></trkpt>
<trkpt lat="46.43610200" lon="6.91526100"><ele>487.325012</ele><time>2010-05-30T08:01:22Z</time></trkpt>
<trkpt lat="46.43599300" lon="6.91522700"><ele>485.602997</ele><time>2010-05-30T08:01:25Z</time></trkpt>
<trkpt lat="46.43589800" lon="6.91516100"><ele>484.283997</ele><time>2010-05-30T08:01:29Z</time></trkpt>
<trkpt lat="46.43573800" lon="6.91515000"><ele>483.803986</ele><time>2010-05-30T08:01:34Z</time></trkpt>
<trkpt lat="46.43567200" lon="6.91516400"><ele>483.385986</ele><time>2010-05-30T08:01:37Z</time></trkpt>
<trkpt lat="46.43560200" lon="6.91518600"><ele>482.493988</ele><time>2010-05-30T08:01:41Z</time></trkpt>
<trkpt lat="46.43554200" lon="6.91518500"><ele>481.286011</ele><time>2010-05-30T08:01:47Z</time></trkpt>
<trkpt lat="46.43550300" lon="6.91516300"><ele>481.059998</ele><time>2010-05-30T08:02:11Z</time></trkpt>
<trkpt lat="46.43547700" lon="6.91515900"><ele>480.536011</ele><time>2010-05-30T08:02:15Z</time></trkpt>
<trkpt lat="46.43545600" lon="6.91514000"><ele>480.165985</ele><time>2010-05-30T08:02:18Z</time></trkpt>
<trkpt lat="46.43543400" lon="6.91513900"><ele>479.824005</ele><time>2010-05-30T08:02:23Z</time></trkpt>
<trkpt lat="46.43536500" lon="6.91520800"><ele>478.319</ele><time>2010-05-30T08:02:39Z</time></trkpt>
<trkpt lat="46.43525800" lon="6.91530200"><ele>475.252014</ele><time>2010-05-30T08:02:46Z</time></trkpt>
<trkpt lat="46.43519100" lon="6.91538400"><ele>473.252991</ele><time>2010-05-30T08:02:51Z</time></trkpt>
<trkpt lat="46.43506700" lon="6.91552000"><ele>469.73999</ele><time>2010-05-30T08:02:59Z</time></trkpt>
<trkpt lat="46.43500900" lon="6.91559200"><ele>467.766998</ele><time>2010-05-30T08:03:03Z</time></trkpt>
<trkpt lat="46.43493900" lon="6.91569100"><ele>465.114014</ele><time>2010-05-30T08:03:08Z</time></trkpt>
<trkpt lat="46.43483300" lon="6.91584800"><ele>461.161011</ele><time>2010-05-30T08:03:16Z</time></trkpt>
<trkpt lat="46.43482300" lon="6.91586100"><ele>460.967987</ele><time>2010-05-30T08:03:17Z</time></trkpt>
<trkpt lat="46.43474000" lon="6.91594700"><ele>458.005005</ele><time>2010-05-30T08:03:25Z</time></trkpt>
<trkpt lat="46.43465300" lon="6.91598900"><ele>455.819</ele><time>2010-05-30T08:03:33Z</time></trkpt>
<trkpt lat="46.43453400" lon="6.91599600"><ele>453.278992</ele><time>2010-05-30T08:03:41Z</time></trkpt>
<trkpt lat="46.43444400" lon="6.91599300"><ele>451.523987</ele><time>2010-05-30T08:03:45Z</time></trkpt>
<trkpt lat="46.43427300" lon="6.91600400"><ele>449.170013</ele><time>2010-05-30T08:03:52Z</time></trkpt>
<trkpt lat="46.43420000" lon="6.91604200"><ele>447.70401</ele><time>2010-05-30T08:03:56Z</time></trkpt>
<trkpt lat="46.43409600" lon="6.91618100"><ele>445.028992</ele><time>2010-05-30T08:04:03Z</time></trkpt>
<trkpt lat="46.43398100" lon="6.91628300"><ele>442.582001</ele><time>2010-05-30T08:04:10Z</time></trkpt>
<trkpt lat="46.43392300" lon="6.91635600"><ele>441.298004</ele><time>2010-05-30T08:04:13Z</time></trkpt>
<trkpt lat="46.43381600" lon="6.91650700"><ele>441.113007</ele><time>2010-05-30T08:04:17Z</time></trkpt>
<trkpt lat="46.43361100" lon="6.91662700"><ele>440.817993</ele><time>2010-05-30T08:04:23Z</time></trkpt>
<trkpt lat="46.43338100" lon="6.91658800"><ele>441.105011</ele><time>2010-05-30T08:04:29Z</time></trkpt>
<trkpt lat="46.43329100" lon="6.91654600"><ele>441.247009</ele><time>2010-05-30T08:04:31Z</time></trkpt>
<trkpt lat="46.43314400" lon="6.91649800"><ele>441.274994</ele><time>2010-05-30T08:04:34Z</time></trkpt>
<trkpt lat="46.43305200" lon="6.91651300"><ele>441.240997</ele><time>2010-05-30T08:04:36Z</time></trkpt>
<trkpt lat="46.43298500" lon="6.91662700"><ele>441.583008</ele><time>2010-05-30T08:04:40Z</time></trkpt>
<trkpt lat="46.43289100" lon="6.91677400"><ele>441.118988</ele><time>2010-05-30T08:04:45Z</time></trkpt>
<trkpt lat="46.43281900" lon="6.91694500"><ele>440.341003</ele><time>2010-05-30T08:04:48Z</time></trkpt>
<trkpt lat="46.43259100" lon="6.91718000"><ele>439.787994</ele><time>2010-05-30T08:04:52Z</time></trkpt>
<trkpt lat="46.43235800" lon="6.91730500"><ele>438.522003</ele><time>2010-05-30T08:04:55Z</time></trkpt>
<trkpt lat="46.43208700" lon="6.91745800"><ele>436.622009</ele><time>2010-05-30T08:04:59Z</time></trkpt>
<trkpt lat="46.43175600" lon="6.91770100"><ele>433.975006</ele><time>2010-05-30T08:05:04Z</time></trkpt>
<trkpt lat="46.43138800" lon="6.91804200"><ele>430.501007</ele><time>2010-05-30T08:05:10Z</time></trkpt>
<trkpt lat="46.43121900" lon="6.91818600"><ele>428.790009</ele><time>2010-05-30T08:05:13Z</time></trkpt>
<trkpt lat="46.43103000" lon="6.91841700"><ele>426.209015</ele><time>2010-05-30T08:05:17Z</time></trkpt>
<trkpt lat="46.43095900" lon="6.91851800"><ele>425.277008</ele><time>2010-05-30T08:05:19Z</time></trkpt>
<trkpt lat="46.43072000" lon="6.91883000"><ele>423.747009</ele><time>2010-05-30T08:05:24Z</time></trkpt>
<trkpt lat="46.43043600" lon="6.91922100"><ele>422.01001</ele><time>2010-05-30T08:05:29Z</time></trkpt>
<trkpt lat="46.43019000" lon="6.91956300"><ele>419.924011</ele><time>2010-05-30T08:05:33Z</time></trkpt>
<trkpt lat="46.42986400" lon="6.91999200"><ele>416.571014</ele><time>2010-05-30T08:05:38Z</time></trkpt>
<trkpt lat="46.42940100" lon="6.92055200"><ele>411.772003</ele><time>2010-05-30T08:05:45Z</time></trkpt>
<trkpt lat="46.42897800" lon="6.92108200"><ele>407.639008</ele><time>2010-05-30T08:05:51Z</time></trkpt>
<trkpt lat="46.42876500" lon="6.92137000"><ele>403.587006</ele><time>2010-05-30T08:05:55Z</time></trkpt>
<trkpt lat="46.42862500" lon="6.92146500"><ele>400.992004</ele><time>2010-05-30T08:05:59Z</time></trkpt>
<trkpt lat="46.42860900" lon="6.92146600"><ele>400.735992</ele><time>2010-05-30T08:06:00Z</time></trkpt>
<trkpt lat="46.42858300" lon="6.92147600"><ele>400.312012</ele><time>2010-05-30T08:06:02Z</time></trkpt>
<trkpt lat="46.42851600" lon="6.92147200"><ele>399.825012</ele><time>2010-05-30T08:06:05Z</time></trkpt>
<trkpt lat="46.42827000" lon="6.92161600"><ele>399.197998</ele><time>2010-05-30T08:06:10Z</time></trkpt>
<trkpt lat="46.42803400" lon="6.92182100"><ele>397.846985</ele><time>2010-05-30T08:06:14Z</time></trkpt>
<trkpt lat="46.42761200" lon="6.92220800"><ele>396.867004</ele><time>2010-05-30T08:06:20Z</time></trkpt>
<trkpt lat="46.42723000" lon="6.92253400"><ele>395.596008</ele><time>2010-05-30T08:06:25Z</time></trkpt>
<trkpt lat="46.42665100" lon="6.92292800"><ele>392.912994</ele><time>2010-05-30T08:06:32Z</time></trkpt>
<trkpt lat="46.42605500" lon="6.92323100"><ele>392.118988</ele><time>2010-05-30T08:06:39Z</time></trkpt>
<trkpt lat="46.42569000" lon="6.92344900"><ele>393.446991</ele><time>2010-05-30T08:06:44Z</time></trkpt>
<trkpt lat="46.42533500" lon="6.92370600"><ele>394.876007</ele><time>2010-05-30T08:06:50Z</time></trkpt>
<trkpt lat="46.42509600" lon="6.92392500"><ele>396.109009</ele><time>2010-05-30T08:06:55Z</time></trkpt>
<trkpt lat="46.42494700" lon="6.92406500"><ele>397.062012</ele><time>2010-05-30T08:06:59Z</time></trkpt>
<trkpt lat="46.42465900" lon="6.92450700"><ele>398.03299</ele><time>2010-05-30T08:07:08Z</time></trkpt>
<trkpt lat="46.42437100" lon="6.92499800"><ele>398.984985</ele><time>2010-05-30T08:07:18Z</time></trkpt>
<trkpt lat="46.42419100" lon="6.92535200"><ele>399.722992</ele><time>2010-05-30T08:07:25Z</time></trkpt>
<trkpt lat="46.42412400" lon="6.92543600"><ele>399.977997</ele><time>2010-05-30T08:07:27Z</time></trkpt>
<trkpt lat="46.42381000" lon="6.92556200"><ele>400.113007</ele><time>2010-05-30T08:07:33Z</time></trkpt>
<trkpt lat="46.42365300" lon="6.92560100"><ele>400.471985</ele><time>2010-05-30T08:07:36Z</time></trkpt>
<trkpt lat="46.42345300" lon="6.92560900"><ele>400.946014</ele><time>2010-05-30T08:07:40Z</time></trkpt>
<trkpt lat="46.42315600" lon="6.92555300"><ele>402.169006</ele><time>2010-05-30T08:07:47Z</time></trkpt>
<trkpt lat="46.42287100" lon="6.92549700"><ele>402.621002</ele><time>2010-05-30T08:07:53Z</time></trkpt>
<trkpt lat="46.42266700" lon="6.92549300"><ele>402.964996</ele><time>2010-05-30T08:07:57Z</time></trkpt>
<trkpt lat="46.42224500" lon="6.92543900"><ele>403.901001</ele><time>2010-05-30T08:08:05Z</time></trkpt>
<trkpt lat="46.42193500" lon="6.92549300"><ele>404.205994</ele><time>2010-05-30T08:08:11Z</time></trkpt>
<trkpt lat="46.42163000" lon="6.92559600"><ele>404.571014</ele><time>2010-05-30T08:08:17Z</time></trkpt>
<trkpt lat="46.42116400" lon="6.92573500"><ele>404.485992</ele><time>2010-05-30T08:08:26Z</time></trkpt>
<trkpt lat="46.42072700" lon="6.92586000"><ele>403.838989</ele><time>2010-05-30T08:08:33Z</time></trkpt>
<trkpt lat="46.42008800" lon="6.92609400"><ele>402.778992</ele><time>2010-05-30T08:08:42Z</time></trkpt>
<trkpt lat="46.42001800" lon="6.92614200"><ele>402.588013</ele><time>2010-05-30T08:08:43Z</time></trkpt>
<trkpt lat="46.41976600" lon="6.92643100"><ele>402.225006</ele><time>2010-05-30T08:08:47Z</time></trkpt>
<trkpt lat="46.41934100" lon="6.92722200"><ele>400.324005</ele><time>2010-05-30T08:08:55Z</time></trkpt>
<trkpt lat="46.41904600" lon="6.92790300"><ele>399.225006</ele><time>2010-05-30T08:09:01Z</time></trkpt>
<trkpt lat="46.41891600" lon="6.92810000"><ele>398.492004</ele><time>2010-05-30T08:09:03Z</time></trkpt>
<trkpt lat="46.41867200" lon="6.92829900"><ele>398.069</ele><time>2010-05-30T08:09:06Z</time></trkpt>
<trkpt lat="46.41829900" lon="6.92842900"><ele>396.855988</ele><time>2010-05-30T08:09:10Z</time></trkpt>
<trkpt lat="46.41796700" lon="6.92837700"><ele>396.376007</ele><time>2010-05-30T08:09:14Z</time></trkpt>
<trkpt lat="46.41789300" lon="6.92831500"><ele>395.946014</ele><time>2010-05-30T08:09:15Z</time></trkpt>
<trkpt lat="46.41746000" lon="6.92806800"><ele>394.402008</ele><time>2010-05-30T08:09:20Z</time></trkpt>
<trkpt lat="46.41700000" lon="6.92805200"><ele>393.420013</ele><time>2010-05-30T08:09:25Z</time></trkpt>
<trkpt lat="46.41604200" lon="6.92811000"><ele>391.438995</ele><time>2010-05-30T08:09:35Z</time></trkpt>
<trkpt lat="46.41530800" lon="6.92816300"><ele>389.436005</ele><time>2010-05-30T08:09:43Z</time></trkpt>
<trkpt lat="46.41488400" lon="6.92828400"><ele>389.049011</ele><time>2010-05-30T08:09:48Z</time></trkpt>
<trkpt lat="46.41447900" lon="6.92845700"><ele>387.752991</ele><time>2010-05-30T08:09:53Z</time></trkpt>
<trkpt lat="46.41412100" lon="6.92873500"><ele>386.955994</ele><time>2010-05-30T08:09:58Z</time></trkpt>
<trkpt lat="46.41353300" lon="6.92930400"><ele>385.514008</ele><time>2010-05-30T08:10:06Z</time></trkpt>
<trkpt lat="46.41280800" lon="6.92998600"><ele>385.237</ele><time>2010-05-30T08:10:16Z</time></trkpt>
<trkpt lat="46.41221200" lon="6.93052000"><ele>385.90799</ele><time>2010-05-30T08:10:25Z</time></trkpt>
<trkpt lat="46.41178700" lon="6.93074900"><ele>386.355988</ele><time>2010-05-30T08:10:31Z</time></trkpt>
<trkpt lat="46.41105600" lon="6.93097400"><ele>386.803986</ele><time>2010-05-30T08:10:41Z</time></trkpt>
<trkpt lat="46.41037000" lon="6.93117700"><ele>386.938995</ele><time>2010-05-30T08:10:50Z</time></trkpt>
<trkpt lat="46.40969000" lon="6.93132000"><ele>387.13501</ele><time>2010-05-30T08:10:59Z</time></trkpt>
<trkpt lat="46.40897300" lon="6.93143200"><ele>387.122009</ele><time>2010-05-30T08:11:09Z</time></trkpt>
<trkpt lat="46.40835700" lon="6.93146000"><ele>387.108002</ele><time>2010-05-30T08:11:17Z</time></trkpt>
<trkpt lat="46.40782100" lon="6.93130900"><ele>386.515991</ele><time>2010-05-30T08:11:24Z</time></trkpt>
<trkpt lat="46.40705900" lon="6.93100400"><ele>385.687988</ele><time>2010-05-30T08:11:34Z</time></trkpt>
<trkpt lat="46.40647500" lon="6.93070400"><ele>385.67099</ele><time>2010-05-30T08:11:42Z</time></trkpt>
<trkpt lat="46.40602000" lon="6.93035700"><ele>385.774994</ele><time>2010-05-30T08:11:49Z</time></trkpt>
<trkpt lat="46.40542300" lon="6.92980500"><ele>386.074005</ele><time>2010-05-30T08:11:59Z</time></trkpt>
<trkpt lat="46.40503900" lon="6.92945800"><ele>386.631989</ele><time>2010-05-30T08:12:06Z</time></trkpt>
<trkpt lat="46.40469500" lon="6.92917300"><ele>387.270996</ele><time>2010-05-30T08:12:12Z</time></trkpt>
<trkpt lat="46.40408700" lon="6.92874500"><ele>387.811005</ele><time>2010-05-30T08:12:22Z</time></trkpt>
<trkpt lat="46.40356800" lon="6.92843300"><ele>388.097992</ele><time>2010-05-30T08:12:30Z</time></trkpt>
<trkpt lat="46.40298900" lon="6.92807900"><ele>388.54599</ele><time>2010-05-30T08:12:39Z</time></trkpt>
<trkpt lat="46.40250500" lon="6.92775600"><ele>388.737</ele><time>2010-05-30T08:12:47Z</time></trkpt>
<trkpt lat="46.40239700" lon="6.92764200"><ele>388.665009</ele><time>2010-05-30T08:12:49Z</time></trkpt>
<trkpt lat="46.40197100" lon="6.92696600"><ele>389.01001</ele><time>2010-05-30T08:12:59Z</time></trkpt>
<trkpt lat="46.40167500" lon="6.92644500"><ele>388.391998</ele><time>2010-05-30T08:13:06Z</time></trkpt>
<trkpt lat="46.40142700" lon="6.92604100"><ele>387.187012</ele><time>2010-05-30T08:13:11Z</time></trkpt>
<trkpt lat="46.40131000" lon="6.92587900"><ele>386.412994</ele><time>2010-05-30T08:13:13Z</time></trkpt>
<trkpt lat="46.40124500" lon="6.92580300"><ele>386.020996</ele><time>2010-05-30T08:13:14Z</time></trkpt>
<trkpt lat="46.40102200" lon="6.92561100"><ele>385.136993</ele><time>2010-05-30T08:13:17Z</time></trkpt>
<trkpt lat="46.40057500" lon="6.92549000"><ele>383.109985</ele><time>2010-05-30T08:13:22Z</time></trkpt>
<trkpt lat="46.40001200" lon="6.92548500"><ele>380.878998</ele><time>2010-05-30T08:13:28Z</time></trkpt>
<trkpt lat="46.39942900" lon="6.92537500"><ele>380.613007</ele><time>2010-05-30T08:13:35Z</time></trkpt>
<trkpt lat="46.39910400" lon="6.92525600"><ele>380.783997</ele><time>2010-05-30T08:13:39Z</time></trkpt>
<trkpt lat="46.39861500" lon="6.92500200"><ele>380.944</ele><time>2010-05-30T08:13:45Z</time></trkpt>
<trkpt lat="46.39831600" lon="6.92479900"><ele>380.915985</ele><time>2010-05-30T08:13:49Z</time></trkpt>
<trkpt lat="46.39769600" lon="6.92427500"><ele>380.738007</ele><time>2010-05-30T08:13:58Z</time></trkpt>
<trkpt lat="46.39710400" lon="6.92375400"><ele>380.453003</ele><time>2010-05-30T08:14:07Z</time></trkpt>
<trkpt lat="46.39669000" lon="6.92326200"><ele>380.122009</ele><time>2010-05-30T08:14:14Z</time></trkpt>
<trkpt lat="46.39630900" lon="6.92274600"><ele>380.169006</ele><time>2010-05-30T08:14:21Z</time></trkpt>
<trkpt lat="46.39592500" lon="6.92229300"><ele>380.540985</ele><time>2010-05-30T08:14:28Z</time></trkpt>
<trkpt lat="46.39555000" lon="6.92206500"><ele>380.773987</ele><time>2010-05-30T08:14:34Z</time></trkpt>
<trkpt lat="46.39517600" lon="6.92195000"><ele>380.546997</ele><time>2010-05-30T08:14:40Z</time></trkpt>
<trkpt lat="46.39460300" lon="6.92187100"><ele>380.127991</ele><time>2010-05-30T08:14:49Z</time></trkpt>
<trkpt lat="46.39421100" lon="6.92180600"><ele>380.053986</ele><time>2010-05-30T08:14:56Z</time></trkpt>
<trkpt lat="46.39405800" lon="6.92178400"><ele>379.802002</ele><time>2010-05-30T08:15:00Z</time></trkpt>
<trkpt lat="46.39396500" lon="6.92176500"><ele>379.721985</ele><time>2010-05-30T08:15:03Z</time></trkpt>
<trkpt lat="46.39393200" lon="6.92174900"><ele>379.481995</ele><time>2010-05-30T08:15:06Z</time></trkpt>
<trkpt lat="46.39392300" lon="6.92174300"><ele>379.234985</ele><time>2010-05-30T08:15:38Z</time></trkpt>
<trkpt lat="46.39393700" lon="6.92168600"><ele>379.20401</ele><time>2010-05-30T08:15:40Z</time></trkpt>
<trkpt lat="46.39406600" lon="6.92147100"><ele>378.721008</ele><time>2010-05-30T08:15:46Z</time></trkpt>
<trkpt lat="46.39411600" lon="6.92137400"><ele>378.609985</ele><time>2010-05-30T08:15:48Z</time></trkpt>
<trkpt lat="46.39428000" lon="6.92108600"><ele>378.687988</ele><time>2010-05-30T08:15:54Z</time></trkpt>
<trkpt lat="46.39436000" lon="6.92078900"><ele>378.463013</ele><time>2010-05-30T08:16:00Z</time></trkpt>
<trkpt lat="46.39430300" lon="6.92064500"><ele>378.55899</ele><time>2010-05-30T08:16:03Z</time></trkpt>
<trkpt lat="46.39418200" lon="6.92030600"><ele>378.851013</ele><time>2010-05-30T08:16:09Z</time></trkpt>
<trkpt lat="46.39398300" lon="6.91976100"><ele>378.765015</ele><time>2010-05-30T08:16:18Z</time></trkpt>
<trkpt lat="46.39388400" lon="6.91950500"><ele>378.483002</ele><time>2010-05-30T08:16:22Z</time></trkpt>
<trkpt lat="46.39382400" lon="6.91917800"><ele>378.127991</ele><time>2010-05-30T08:16:28Z</time></trkpt>
<trkpt lat="46.39383100" lon="6.91890800"><ele>377.787994</ele><time>2010-05-30T08:16:36Z</time></trkpt>
<trkpt lat="46.39383200" lon="6.91876600"><ele>375.544006</ele><time>2010-05-30T08:16:39Z</time></trkpt>
<trkpt lat="46.39381700" lon="6.91860000"><ele>373.359009</ele><time>2010-05-30T08:16:42Z</time></trkpt>
<trkpt lat="46.39374200" lon="6.91832600"><ele>378.526001</ele><time>2010-05-30T08:16:46Z</time></trkpt>
<trkpt lat="46.39355200" lon="6.91791600"><ele>378.408997</ele><time>2010-05-30T08:16:52Z</time></trkpt>
<trkpt lat="46.39349100" lon="6.91759700"><ele>378.480011</ele><time>2010-05-30T08:16:56Z</time></trkpt>
<trkpt lat="46.39349100" lon="6.91726800"><ele>378.493011</ele><time>2010-05-30T08:17:00Z</time></trkpt>
<trkpt lat="46.39348400" lon="6.91676000"><ele>378.506012</ele><time>2010-05-30T08:17:06Z</time></trkpt>
<trkpt lat="46.39348900" lon="6.91659100"><ele>378.531006</ele><time>2010-05-30T08:17:08Z</time></trkpt>
<trkpt lat="46.39353000" lon="6.91634500"><ele>378.442993</ele><time>2010-05-30T08:17:11Z</time></trkpt>
<trkpt lat="46.39369800" lon="6.91590400"><ele>378.433014</ele><time>2010-05-30T08:17:17Z</time></trkpt>
<trkpt lat="46.39390300" lon="6.91537100"><ele>378.53299</ele><time>2010-05-30T08:17:24Z</time></trkpt>
<trkpt lat="46.39401700" lon="6.91494900"><ele>378.667999</ele><time>2010-05-30T08:17:29Z</time></trkpt>
<trkpt lat="46.39423200" lon="6.91456600"><ele>378.61499</ele><time>2010-05-30T08:17:34Z</time></trkpt>
<trkpt lat="46.39459800" lon="6.91401300"><ele>378.348999</ele><time>2010-05-30T08:17:42Z</time></trkpt>
<trkpt lat="46.39463200" lon="6.91393900"><ele>378.372009</ele><time>2010-05-30T08:17:43Z</time></trkpt>
<trkpt lat="46.39469100" lon="6.91378600"><ele>378.493988</ele><time>2010-05-30T08:17:45Z</time></trkpt>
<trkpt lat="46.39472100" lon="6.91341000"><ele>378.414001</ele><time>2010-05-30T08:17:49Z</time></trkpt>
<trkpt lat="46.39469200" lon="6.91311500"><ele>378.414001</ele><time>2010-05-30T08:17:52Z</time></trkpt>
<trkpt lat="46.39460700" lon="6.91275100"><ele>378.334991</ele><time>2010-05-30T08:17:56Z</time></trkpt>
<trkpt lat="46.39442100" lon="6.91193400"><ele>378.220001</ele><time>2010-05-30T08:18:05Z</time></trkpt>
<trkpt lat="46.39440400" lon="6.91183900"><ele>378.177002</ele><time>2010-05-30T08:18:06Z</time></trkpt>
<trkpt lat="46.39422400" lon="6.91121600"><ele>377.97699</ele><time>2010-05-30T08:18:13Z</time></trkpt>
<trkpt lat="46.39409600" lon="6.91079200"><ele>378.112</ele><time>2010-05-30T08:18:18Z</time></trkpt>
<trkpt lat="46.39400400" lon="6.91045400"><ele>377.891998</ele><time>2010-05-30T08:18:22Z</time></trkpt>
<trkpt lat="46.39372300" lon="6.90983400"><ele>377.824005</ele><time>2010-05-30T08:18:30Z</time></trkpt>
<trkpt lat="46.39342200" lon="6.90935800"><ele>377.654999</ele><time>2010-05-30T08:18:37Z</time></trkpt>
<trkpt lat="46.39315200" lon="6.90887000"><ele>377.906006</ele><time>2010-05-30T08:18:44Z</time></trkpt>
<trkpt lat="46.39290500" lon="6.90836500"><ele>377.776001</ele><time>2010-05-30T08:18:51Z</time></trkpt>
<trkpt lat="46.39268800" lon="6.90792000"><ele>377.592987</ele><time>2010-05-30T08:18:57Z</time></trkpt>
<trkpt lat="46.39247400" lon="6.90759100"><ele>377.597992</ele><time>2010-05-30T08:19:02Z</time></trkpt>
<trkpt lat="46.39225600" lon="6.90730200"><ele>377.692993</ele><time>2010-05-30T08:19:07Z</time></trkpt>
<trkpt lat="46.39206500" lon="6.90706500"><ele>377.675995</ele><time>2010-05-30T08:19:11Z</time></trkpt>
<trkpt lat="46.39187800" lon="6.90679500"><ele>377.829987</ele><time>2010-05-30T08:19:15Z</time></trkpt>
<trkpt lat="46.39147600" lon="6.90632800"><ele>378.056</ele><time>2010-05-30T08:19:23Z</time></trkpt>
<trkpt lat="46.39110800" lon="6.90589600"><ele>377.865997</ele><time>2010-05-30T08:19:31Z</time></trkpt>
<trkpt lat="46.39102300" lon="6.90566300"><ele>377.565002</ele><time>2010-05-30T08:19:35Z</time></trkpt>
<trkpt lat="46.39105500" lon="6.90554100"><ele>377.287994</ele><time>2010-05-30T08:19:37Z</time></trkpt>
<trkpt lat="46.39123500" lon="6.90506600"><ele>377.501007</ele><time>2010-05-30T08:19:44Z</time></trkpt>
<trkpt lat="46.39142400" lon="6.90455200"><ele>377.559998</ele><time>2010-05-30T08:19:51Z</time></trkpt>
<trkpt lat="46.39152500" lon="6.90426100"><ele>377.541992</ele><time>2010-05-30T08:19:55Z</time></trkpt>
<trkpt lat="46.39159000" lon="6.90393600"><ele>377.434998</ele><time>2010-05-30T08:19:59Z</time></trkpt>
<trkpt lat="46.39159400" lon="6.90368500"><ele>377.550995</ele><time>2010-05-30T08:20:02Z</time></trkpt>
<trkpt lat="46.39149300" lon="6.90304600"><ele>377.681</ele><time>2010-05-30T08:20:09Z</time></trkpt>
<trkpt lat="46.39132700" lon="6.90216500"><ele>377.980011</ele><time>2010-05-30T08:20:19Z</time></trkpt>
<trkpt lat="46.39119700" lon="6.90147700"><ele>378.403015</ele><time>2010-05-30T08:20:27Z</time></trkpt>
<trkpt lat="46.39108300" lon="6.90087200"><ele>378.415985</ele><time>2010-05-30T08:20:34Z</time></trkpt>
<trkpt lat="46.39086300" lon="6.89973400"><ele>378.562988</ele><time>2010-05-30T08:20:47Z</time></trkpt>
<trkpt lat="46.39074400" lon="6.89921100"><ele>378.537994</ele><time>2010-05-30T08:20:53Z</time></trkpt>
<trkpt lat="46.39045900" lon="6.89825500"><ele>378.225006</ele><time>2010-05-30T08:21:04Z</time></trkpt>
<trkpt lat="46.39028800" lon="6.89767900"><ele>378.390991</ele><time>2010-05-30T08:21:11Z</time></trkpt>
<trkpt lat="46.39008700" lon="6.89700100"><ele>378.079987</ele><time>2010-05-30T08:21:19Z</time></trkpt>
<trkpt lat="46.38994700" lon="6.89651400"><ele>377.996002</ele><time>2010-05-30T08:21:25Z</time></trkpt>
<trkpt lat="46.38992700" lon="6.89643900"><ele>377.950012</ele><time>2010-05-30T08:21:26Z</time></trkpt>
<trkpt lat="46.38983900" lon="6.89581500"><ele>377.473999</ele><time>2010-05-30T08:21:33Z</time></trkpt>
<trkpt lat="46.38974700" lon="6.89486200"><ele>377.235992</ele><time>2010-05-30T08:21:43Z</time></trkpt>
<trkpt lat="46.38968000" lon="6.89439800"><ele>377.100006</ele><time>2010-05-30T08:21:48Z</time></trkpt>
<trkpt lat="46.38940600" lon="6.89362900"><ele>376.769012</ele><time>2010-05-30T08:21:57Z</time></trkpt>
<trkpt lat="46.38913000" lon="6.89288200"><ele>376.480011</ele><time>2010-05-30T08:22:06Z</time></trkpt>
<trkpt lat="46.38891600" lon="6.89226400"><ele>376.613007</ele><time>2010-05-30T08:22:14Z</time></trkpt>
<trkpt lat="46.38885100" lon="6.89208900"><ele>376.44101</ele><time>2010-05-30T08:22:18Z</time></trkpt>
<trkpt lat="46.38883800" lon="6.89206100"><ele>376.53299</ele><time>2010-05-30T08:22:22Z</time></trkpt>
<trkpt lat="46.38882900" lon="6.89203200"><ele>376.641998</ele><time>2010-05-30T08:22:34Z</time></trkpt>
<trkpt lat="46.38882100" lon="6.89199600"><ele>377.337006</ele><time>2010-05-30T08:22:40Z</time></trkpt>
<trkpt lat="46.38880200" lon="6.89190300"><ele>377.929993</ele><time>2010-05-30T08:22:49Z</time></trkpt>
<trkpt lat="46.38877400" lon="6.89178300"><ele>377.812012</ele><time>2010-05-30T08:23:00Z</time></trkpt>
<trkpt lat="46.38875700" lon="6.89174500"><ele>377.296997</ele><time>2010-05-30T08:23:05Z</time></trkpt>
<trkpt lat="46.38875500" lon="6.89173200"><ele>377.016998</ele><time>2010-05-30T08:23:08Z</time></trkpt>
<trkpt lat="46.38871600" lon="6.89156100"><ele>377.243011</ele><time>2010-05-30T08:23:33Z</time></trkpt>
<trkpt lat="46.38863700" lon="6.89123300"><ele>377.325012</ele><time>2010-05-30T08:23:39Z</time></trkpt>
<trkpt lat="46.38858300" lon="6.89104900"><ele>377.407013</ele><time>2010-05-30T08:23:42Z</time></trkpt>
<trkpt lat="46.38846400" lon="6.89055100"><ele>377.596985</ele><time>2010-05-30T08:23:49Z</time></trkpt>
<trkpt lat="46.38843600" lon="6.89024200"><ele>377.855988</ele><time>2010-05-30T08:23:53Z</time></trkpt>
<trkpt lat="46.38848900" lon="6.88967900"><ele>377.815002</ele><time>2010-05-30T08:24:01Z</time></trkpt>
<trkpt lat="46.38852300" lon="6.88948000"><ele>377.643005</ele><time>2010-05-30T08:24:06Z</time></trkpt>
<trkpt lat="46.38858100" lon="6.88918700"><ele>377.799988</ele><time>2010-05-30T08:24:11Z</time></trkpt>
<trkpt lat="46.38864500" lon="6.88878500"><ele>377.92099</ele><time>2010-05-30T08:24:16Z</time></trkpt>
<trkpt lat="46.38868900" lon="6.88824800"><ele>378.239014</ele><time>2010-05-30T08:24:22Z</time></trkpt>
<trkpt lat="46.38877500" lon="6.88753700"><ele>378.214996</ele><time>2010-05-30T08:24:30Z</time></trkpt>
<trkpt lat="46.38885000" lon="6.88672000"><ele>377.869995</ele><time>2010-05-30T08:24:39Z</time></trkpt>
<trkpt lat="46.38898200" lon="6.88584000"><ele>377.878998</ele><time>2010-05-30T08:24:49Z</time></trkpt>
<trkpt lat="46.38904400" lon="6.88502100"><ele>377.34201</ele><time>2010-05-30T08:24:58Z</time></trkpt>
<trkpt lat="46.38913300" lon="6.88450600"><ele>377.170013</ele><time>2010-05-30T08:25:04Z</time></trkpt>
<trkpt lat="46.38911800" lon="6.88412300"><ele>377.203003</ele><time>2010-05-30T08:25:08Z</time></trkpt>
<trkpt lat="46.38898600" lon="6.88327000"><ele>376.761993</ele><time>2010-05-30T08:25:18Z</time></trkpt>
<trkpt lat="46.38897800" lon="6.88250400"><ele>376.575989</ele><time>2010-05-30T08:25:27Z</time></trkpt>
<trkpt lat="46.38902600" lon="6.88164500"><ele>376.32901</ele><time>2010-05-30T08:25:37Z</time></trkpt>
<trkpt lat="46.38903900" lon="6.88149700"><ele>376.247009</ele><time>2010-05-30T08:25:39Z</time></trkpt>
<trkpt lat="46.38895400" lon="6.88121400"><ele>375.717987</ele><time>2010-05-30T08:25:44Z</time></trkpt>
<trkpt lat="46.38891300" lon="6.88119600"><ele>375.580994</ele><time>2010-05-30T08:25:45Z</time></trkpt>
<trkpt lat="46.38882700" lon="6.88115500"><ele>375.576996</ele><time>2010-05-30T08:25:47Z</time></trkpt>
<trkpt lat="46.38873700" lon="6.88109200"><ele>375.885986</ele><time>2010-05-30T08:25:49Z</time></trkpt>
<trkpt lat="46.38855100" lon="6.88080800"><ele>375.933014</ele><time>2010-05-30T08:25:54Z</time></trkpt>
<trkpt lat="46.38830700" lon="6.88037000"><ele>375.79599</ele><time>2010-05-30T08:26:01Z</time></trkpt>
<trkpt lat="46.38798600" lon="6.87989400"><ele>375.937988</ele><time>2010-05-30T08:26:09Z</time></trkpt>
<trkpt lat="46.38795100" lon="6.87982700"><ele>375.959991</ele><time>2010-05-30T08:26:10Z</time></trkpt>
<trkpt lat="46.38785100" lon="6.87950200"><ele>375.645996</ele><time>2010-05-30T08:26:15Z</time></trkpt>
<trkpt lat="46.38786700" lon="6.87936100"><ele>375.490997</ele><time>2010-05-30T08:26:20Z</time></trkpt>
<trkpt lat="46.38785900" lon="6.87909600"><ele>375.707001</ele><time>2010-05-30T08:26:26Z</time></trkpt>
<trkpt lat="46.38783100" lon="6.87868200"><ele>375.584015</ele><time>2010-05-30T08:26:33Z</time></trkpt>
<trkpt lat="46.38784300" lon="6.87854400"><ele>375.484985</ele><time>2010-05-30T08:26:37Z</time></trkpt>
<trkpt lat="46.38784400" lon="6.87852100"><ele>375.356995</ele><time>2010-05-30T08:26:38Z</time></trkpt>
<trkpt lat="46.38785500" lon="6.87844400"><ele>375.428986</ele><time>2010-05-30T08:26:43Z</time></trkpt>
<trkpt lat="46.38784100" lon="6.87854300"><ele>375.408997</ele><time>2010-05-30T08:26:47Z</time></trkpt>
<trkpt lat="46.38775500" lon="6.87852300"><ele>375.36499</ele><time>2010-05-30T08:26:51Z</time></trkpt>
<trkpt lat="46.38759900" lon="6.87850300"><ele>375.118988</ele><time>2010-05-30T08:26:56Z</time></trkpt>
<trkpt lat="46.38739100" lon="6.87843900"><ele>374.807007</ele><time>2010-05-30T08:27:01Z</time></trkpt>
<trkpt lat="46.38723900" lon="6.87838400"><ele>374.704987</ele><time>2010-05-30T08:27:06Z</time></trkpt>
<trkpt lat="46.38722400" lon="6.87835300"><ele>374.815002</ele><time>2010-05-30T08:27:07Z</time></trkpt>
<trkpt lat="46.38725000" lon="6.87821100"><ele>374.657013</ele><time>2010-05-30T08:27:11Z</time></trkpt>
<trkpt lat="46.38731000" lon="6.87799600"><ele>374.682007</ele><time>2010-05-30T08:27:17Z</time></trkpt>
<trkpt lat="46.38732700" lon="6.87778000"><ele>374.704987</ele><time>2010-05-30T08:27:22Z</time></trkpt>
<trkpt lat="46.38734600" lon="6.87750800"><ele>374.804993</ele><time>2010-05-30T08:27:28Z</time></trkpt>
<trkpt lat="46.38740000" lon="6.87726900"><ele>374.760986</ele><time>2010-05-30T08:27:33Z</time></trkpt>
<trkpt lat="46.38753200" lon="6.87708300"><ele>374.790009</ele><time>2010-05-30T08:27:38Z</time></trkpt>
<trkpt lat="46.38765700" lon="6.87682100"><ele>375.126007</ele><time>2010-05-30T08:27:44Z</time></trkpt>
<trkpt lat="46.38765500" lon="6.87660700"><ele>375.039001</ele><time>2010-05-30T08:27:48Z</time></trkpt>
<trkpt lat="46.38765300" lon="6.87632200"><ele>374.816986</ele><time>2010-05-30T08:27:53Z</time></trkpt>
<trkpt lat="46.38764000" lon="6.87582000"><ele>374.808014</ele><time>2010-05-30T08:28:00Z</time></trkpt>
<trkpt lat="46.38762500" lon="6.87536400"><ele>374.717987</ele><time>2010-05-30T08:28:06Z</time></trkpt>
<trkpt lat="46.38755900" lon="6.87512000"><ele>374.691986</ele><time>2010-05-30T08:28:10Z</time></trkpt>
<trkpt lat="46.38729500" lon="6.87470700"><ele>374.786987</ele><time>2010-05-30T08:28:18Z</time></trkpt>
<trkpt lat="46.38693700" lon="6.87416900"><ele>375.075012</ele><time>2010-05-30T08:28:28Z</time></trkpt>
<trkpt lat="46.38668600" lon="6.87378500"><ele>375.209015</ele><time>2010-05-30T08:28:34Z</time></trkpt>
<trkpt lat="46.38646500" lon="6.87345200"><ele>375.186005</ele><time>2010-05-30T08:28:39Z</time></trkpt>
<trkpt lat="46.38615900" lon="6.87298200"><ele>375.394989</ele><time>2010-05-30T08:28:46Z</time></trkpt>
<trkpt lat="46.38585100" lon="6.87250900"><ele>375.700989</ele><time>2010-05-30T08:28:53Z</time></trkpt>
<trkpt lat="46.38547100" lon="6.87193500"><ele>375.847992</ele><time>2010-05-30T08:29:02Z</time></trkpt>
<trkpt lat="46.38536500" lon="6.87176900"><ele>376.503998</ele><time>2010-05-30T08:29:05Z</time></trkpt>
<trkpt lat="46.38521000" lon="6.87169000"><ele>376.897003</ele><time>2010-05-30T08:29:09Z</time></trkpt>
<trkpt lat="46.38510100" lon="6.87178600"><ele>377.148987</ele><time>2010-05-30T08:29:12Z</time></trkpt>
<trkpt lat="46.38479400" lon="6.87212300"><ele>377.60199</ele><time>2010-05-30T08:29:20Z</time></trkpt>
<trkpt lat="46.38474800" lon="6.87217500"><ele>377.436005</ele><time>2010-05-30T08:29:22Z</time></trkpt>
<trkpt lat="46.38472100" lon="6.87214300"><ele>377.221985</ele><time>2010-05-30T08:29:26Z</time></trkpt>
<trkpt lat="46.38477600" lon="6.87209700"><ele>377.604004</ele><time>2010-05-30T08:29:29Z</time></trkpt>
<trkpt lat="46.38481400" lon="6.87205400"><ele>377.963989</ele><time>2010-05-30T08:29:34Z</time></trkpt>
<trkpt lat="46.38480200" lon="6.87206300"><ele>377.884003</ele><time>2010-05-30T08:29:39Z</time></trkpt>
<trkpt lat="46.38468200" lon="6.87216000"><ele>378.713989</ele><time>2010-05-30T08:29:50Z</time></trkpt>
<trkpt lat="46.38462700" lon="6.87204800"><ele>378.980988</ele><time>2010-05-30T08:29:55Z</time></trkpt>
<trkpt lat="46.38461200" lon="6.87201800"><ele>379.007996</ele><time>2010-05-30T08:29:56Z</time></trkpt>
<trkpt lat="46.38443500" lon="6.87167200"><ele>379.502991</ele><time>2010-05-30T08:30:05Z</time></trkpt>
<trkpt lat="46.38425200" lon="6.87131400"><ele>379.531006</ele><time>2010-05-30T08:30:14Z</time></trkpt>
<trkpt lat="46.38421500" lon="6.87123700"><ele>379.213013</ele><time>2010-05-30T08:30:17Z</time></trkpt>
<trkpt lat="46.38427700" lon="6.87115700"><ele>378.907013</ele><time>2010-05-30T08:30:22Z</time></trkpt>
<trkpt lat="46.38435700" lon="6.87109400"><ele>378.21701</ele><time>2010-05-30T08:30:26Z</time></trkpt>
<trkpt lat="46.38436200" lon="6.87106700"><ele>377.989014</ele><time>2010-05-30T08:30:30Z</time></trkpt>
<trkpt lat="46.38424600" lon="6.87117000"><ele>377.481995</ele><time>2010-05-30T08:30:37Z</time></trkpt>
<trkpt lat="46.38422300" lon="6.87112800"><ele>376.834015</ele><time>2010-05-30T08:30:41Z</time></trkpt>
<trkpt lat="46.38422700" lon="6.87112300"><ele>376.734985</ele><time>2010-05-30T08:30:43Z</time></trkpt>
<trkpt lat="46.38424600" lon="6.87108000"><ele>376.628998</ele><time>2010-05-30T08:30:48Z</time></trkpt>
<trkpt lat="46.38423900" lon="6.87091000"><ele>376.347992</ele><time>2010-05-30T08:30:53Z</time></trkpt>
<trkpt lat="46.38422300" lon="6.87062100"><ele>376.05899</ele><time>2010-05-30T08:30:58Z</time></trkpt>
<trkpt lat="46.38421300" lon="6.87008400"><ele>375.911987</ele><time>2010-05-30T08:31:05Z</time></trkpt>
<trkpt lat="46.38419500" lon="6.86945900"><ele>376.230011</ele><time>2010-05-30T08:31:12Z</time></trkpt>
<trkpt lat="46.38416200" lon="6.86879600"><ele>376.463013</ele><time>2010-05-30T08:31:19Z</time></trkpt>
<trkpt lat="46.38413800" lon="6.86801800"><ele>376.299988</ele><time>2010-05-30T08:31:27Z</time></trkpt>
<trkpt lat="46.38412100" lon="6.86722700"><ele>376.393005</ele><time>2010-05-30T08:31:35Z</time></trkpt>
<trkpt lat="46.38409800" lon="6.86615200"><ele>376.401001</ele><time>2010-05-30T08:31:46Z</time></trkpt>
<trkpt lat="46.38408500" lon="6.86546600"><ele>376.446991</ele><time>2010-05-30T08:31:53Z</time></trkpt>
<trkpt lat="46.38412000" lon="6.86488600"><ele>376.505005</ele><time>2010-05-30T08:31:59Z</time></trkpt>
<trkpt lat="46.38413200" lon="6.86431800"><ele>376.511993</ele><time>2010-05-30T08:32:05Z</time></trkpt>
<trkpt lat="46.38412100" lon="6.86413000"><ele>376.615997</ele><time>2010-05-30T08:32:07Z</time></trkpt>
<trkpt lat="46.38403000" lon="6.86377800"><ele>376.679993</ele><time>2010-05-30T08:32:11Z</time></trkpt>
<trkpt lat="46.38382300" lon="6.86317800"><ele>376.71701</ele><time>2010-05-30T08:32:18Z</time></trkpt>
<trkpt lat="46.38356700" lon="6.86239900"><ele>376.752991</ele><time>2010-05-30T08:32:27Z</time></trkpt>
<trkpt lat="46.38353200" lon="6.86231800"><ele>376.734009</ele><time>2010-05-30T08:32:28Z</time></trkpt>
<trkpt lat="46.38329700" lon="6.86164000"><ele>376.848999</ele><time>2010-05-30T08:32:36Z</time></trkpt>
<trkpt lat="46.38317700" lon="6.86130800"><ele>376.90799</ele><time>2010-05-30T08:32:40Z</time></trkpt>
<trkpt lat="46.38310000" lon="6.86099800"><ele>377.135986</ele><time>2010-05-30T08:32:44Z</time></trkpt>
<trkpt lat="46.38300500" lon="6.86077500"><ele>377.35199</ele><time>2010-05-30T08:32:48Z</time></trkpt>
<trkpt lat="46.38283800" lon="6.86036200"><ele>377.519012</ele><time>2010-05-30T08:32:56Z</time></trkpt>
<trkpt lat="46.38266300" lon="6.85986000"><ele>377.794006</ele><time>2010-05-30T08:33:04Z</time></trkpt>
<trkpt lat="46.38245600" lon="6.85926700"><ele>377.855988</ele><time>2010-05-30T08:33:13Z</time></trkpt>
<trkpt lat="46.38237900" lon="6.85906400"><ele>377.743011</ele><time>2010-05-30T08:33:16Z</time></trkpt>
<trkpt lat="46.38237500" lon="6.85875800"><ele>377.658997</ele><time>2010-05-30T08:33:20Z</time></trkpt>
<trkpt lat="46.38240700" lon="6.85868800"><ele>377.677002</ele><time>2010-05-30T08:33:21Z</time></trkpt>
<trkpt lat="46.38269400" lon="6.85818300"><ele>377.877991</ele><time>2010-05-30T08:33:29Z</time></trkpt>
<trkpt lat="46.38293000" lon="6.85777100"><ele>377.859009</ele><time>2010-05-30T08:33:35Z</time></trkpt>
<trkpt lat="46.38335200" lon="6.85703700"><ele>377.717987</ele><time>2010-05-30T08:33:46Z</time></trkpt>
<trkpt lat="46.38368000" lon="6.85648800"><ele>377.516998</ele><time>2010-05-30T08:33:55Z</time></trkpt>
<trkpt lat="46.38374400" lon="6.85637700"><ele>377.640991</ele><time>2010-05-30T08:33:57Z</time></trkpt>
<trkpt lat="46.38387900" lon="6.85630300"><ele>377.246002</ele><time>2010-05-30T08:34:01Z</time></trkpt>
<trkpt lat="46.38391000" lon="6.85632800"><ele>377.404999</ele><time>2010-05-30T08:34:02Z</time></trkpt>
<trkpt lat="46.38400700" lon="6.85640500"><ele>377.678009</ele><time>2010-05-30T08:34:05Z</time></trkpt>
<trkpt lat="46.38416600" lon="6.85632700"><ele>377.598999</ele><time>2010-05-30T08:34:09Z</time></trkpt>
<trkpt lat="46.38425600" lon="6.85616100"><ele>377.619995</ele><time>2010-05-30T08:34:12Z</time></trkpt>
<trkpt lat="46.38460100" lon="6.85557700"><ele>377.730988</ele><time>2010-05-30T08:34:22Z</time></trkpt>
<trkpt lat="46.38500600" lon="6.85484100"><ele>377.566986</ele><time>2010-05-30T08:34:34Z</time></trkpt>
<trkpt lat="46.38535100" lon="6.85419700"><ele>377.346008</ele><time>2010-05-30T08:34:45Z</time></trkpt>
<trkpt lat="46.38552700" lon="6.85382100"><ele>377.098999</ele><time>2010-05-30T08:34:52Z</time></trkpt>
<trkpt lat="46.38546500" lon="6.85357800"><ele>377.048004</ele><time>2010-05-30T08:34:58Z</time></trkpt>
<trkpt lat="46.38539600" lon="6.85336700"><ele>377.127991</ele><time>2010-05-30T08:35:05Z</time></trkpt>
<trkpt lat="46.38544700" lon="6.85324800"><ele>377.217987</ele><time>2010-05-30T08:35:09Z</time></trkpt>
<trkpt lat="46.38549400" lon="6.85318700"><ele>377.247009</ele><time>2010-05-30T08:35:12Z</time></trkpt>
<trkpt lat="46.38550900" lon="6.85318100"><ele>376.868011</ele><time>2010-05-30T08:35:17Z</time></trkpt>
<trkpt lat="46.38542000" lon="6.85327700"><ele>377.053986</ele><time>2010-05-30T08:35:22Z</time></trkpt>
<trkpt lat="46.38534700" lon="6.85335700"><ele>377.117004</ele><time>2010-05-30T08:35:27Z</time></trkpt>
<trkpt lat="46.38534500" lon="6.85335800"><ele>377.178986</ele><time>2010-05-30T08:35:28Z</time></trkpt>
<trkpt lat="46.38530300" lon="6.85329500"><ele>379.190002</ele><time>2010-05-30T08:35:58Z</time></trkpt>
<trkpt lat="46.38531100" lon="6.85326300"><ele>381.187012</ele><time>2010-05-30T08:36:03Z</time></trkpt>
<trkpt lat="46.38528200" lon="6.85325900"><ele>382.044006</ele><time>2010-05-30T08:36:07Z</time></trkpt>
<trkpt lat="46.38525600" lon="6.85324400"><ele>383.415985</ele><time>2010-05-30T08:36:11Z</time></trkpt>
<trkpt lat="46.38517900" lon="6.85328700"><ele>385.140991</ele><time>2010-05-30T08:36:19Z</time></trkpt>
<trkpt lat="46.38518400" lon="6.85328500"><ele>385.622986</ele><time>2010-05-30T08:36:22Z</time></trkpt>
<trkpt lat="46.38518100" lon="6.85326500"><ele>385.966003</ele><time>2010-05-30T08:36:24Z</time></trkpt>
<trkpt lat="46.38517400" lon="6.85323200"><ele>387.28299</ele><time>2010-05-30T08:36:29Z</time></trkpt>
<trkpt lat="46.38518500" lon="6.85318300"><ele>388.002014</ele><time>2010-05-30T08:36:33Z</time></trkpt>
<trkpt lat="46.38522800" lon="6.85310900"><ele>387.781006</ele><time>2010-05-30T08:36:40Z</time></trkpt>
<trkpt lat="46.38511600" lon="6.85277600"><ele>387.923004</ele><time>2010-05-30T08:37:19Z</time></trkpt>
<trkpt lat="46.38511900" lon="6.85274500"><ele>387.911987</ele><time>2010-05-30T08:37:23Z</time></trkpt>
<trkpt lat="46.38521700" lon="6.85277600"><ele>387.674011</ele><time>2010-05-30T08:37:34Z</time></trkpt>
<trkpt lat="46.38531400" lon="6.85266700"><ele>387.778992</ele><time>2010-05-30T08:37:39Z</time></trkpt>
<trkpt lat="46.38548100" lon="6.85239900"><ele>387.980011</ele><time>2010-05-30T08:37:46Z</time></trkpt>
<trkpt lat="46.38557200" lon="6.85224300"><ele>388.372009</ele><time>2010-05-30T08:37:49Z</time></trkpt>
<trkpt lat="46.38595200" lon="6.85184000"><ele>388.609985</ele><time>2010-05-30T08:37:58Z</time></trkpt>
<trkpt lat="46.38626900" lon="6.85144200"><ele>389.207001</ele><time>2010-05-30T08:38:05Z</time></trkpt>
<trkpt lat="46.38659600" lon="6.85117500"><ele>389.609009</ele><time>2010-05-30T08:38:11Z</time></trkpt>
<trkpt lat="46.38670300" lon="6.85105700"><ele>389.463989</ele><time>2010-05-30T08:38:13Z</time></trkpt>
<trkpt lat="46.38685000" lon="6.85076600"><ele>389.791992</ele><time>2010-05-30T08:38:17Z</time></trkpt>
<trkpt lat="46.38697200" lon="6.85022800"><ele>389.794006</ele><time>2010-05-30T08:38:23Z</time></trkpt>
<trkpt lat="46.38713900" lon="6.84972800"><ele>389.98999</ele><time>2010-05-30T08:38:29Z</time></trkpt>
<trkpt lat="46.38742600" lon="6.84923000"><ele>390.065002</ele><time>2010-05-30T08:38:36Z</time></trkpt>
<trkpt lat="46.38757500" lon="6.84879300"><ele>389.968994</ele><time>2010-05-30T08:38:41Z</time></trkpt>
<trkpt lat="46.38765100" lon="6.84821100"><ele>390.138</ele><time>2010-05-30T08:38:47Z</time></trkpt>
<trkpt lat="46.38762500" lon="6.84742200"><ele>390.170013</ele><time>2010-05-30T08:38:55Z</time></trkpt>
<trkpt lat="46.38761700" lon="6.84683300"><ele>389.994995</ele><time>2010-05-30T08:39:01Z</time></trkpt>
<trkpt lat="46.38760300" lon="6.84597200"><ele>390.402008</ele><time>2010-05-30T08:39:10Z</time></trkpt>
<trkpt lat="46.38753900" lon="6.84493500"><ele>391.102997</ele><time>2010-05-30T08:39:21Z</time></trkpt>
<trkpt lat="46.38741100" lon="6.84406000"><ele>391.230988</ele><time>2010-05-30T08:39:30Z</time></trkpt>
<trkpt lat="46.38723300" lon="6.84292400"><ele>391.244995</ele><time>2010-05-30T08:39:41Z</time></trkpt>
<trkpt lat="46.38706800" lon="6.84185500"><ele>390.944</ele><time>2010-05-30T08:39:51Z</time></trkpt>
<trkpt lat="46.38688700" lon="6.84070000"><ele>390.937988</ele><time>2010-05-30T08:40:02Z</time></trkpt>
<trkpt lat="46.38673100" lon="6.83968100"><ele>390.722992</ele><time>2010-05-30T08:40:12Z</time></trkpt>
<trkpt lat="46.38656600" lon="6.83865500"><ele>390.492004</ele><time>2010-05-30T08:40:22Z</time></trkpt>
<trkpt lat="46.38638900" lon="6.83749900"><ele>390.118011</ele><time>2010-05-30T08:40:33Z</time></trkpt>
<trkpt lat="46.38622800" lon="6.83643100"><ele>389.957001</ele><time>2010-05-30T08:40:43Z</time></trkpt>
<trkpt lat="46.38605900" lon="6.83530000"><ele>390.075989</ele><time>2010-05-30T08:40:54Z</time></trkpt>
<trkpt lat="46.38590600" lon="6.83428700"><ele>390.395996</ele><time>2010-05-30T08:41:04Z</time></trkpt>
<trkpt lat="46.38575600" lon="6.83326100"><ele>390.846985</ele><time>2010-05-30T08:41:14Z</time></trkpt>
<trkpt lat="46.38561800" lon="6.83232700"><ele>390.869995</ele><time>2010-05-30T08:41:23Z</time></trkpt>
<trkpt lat="46.38547000" lon="6.83125200"><ele>390.704987</ele><time>2010-05-30T08:41:33Z</time></trkpt>
<trkpt lat="46.38539800" lon="6.83025600"><ele>390.494995</ele><time>2010-05-30T08:41:42Z</time></trkpt>
<trkpt lat="46.38544200" lon="6.82947700"><ele>390.22699</ele><time>2010-05-30T08:41:49Z</time></trkpt>
<trkpt lat="46.38557600" lon="6.82872700"><ele>390.127991</ele><time>2010-05-30T08:41:56Z</time></trkpt>
<trkpt lat="46.38576500" lon="6.82803500"><ele>390.058014</ele><time>2010-05-30T08:42:03Z</time></trkpt>
<trkpt lat="46.38606200" lon="6.82709500"><ele>390.281006</ele><time>2010-05-30T08:42:13Z</time></trkpt>
<trkpt lat="46.38629200" lon="6.82631500"><ele>390.407013</ele><time>2010-05-30T08:42:21Z</time></trkpt>
<trkpt lat="46.38639100" lon="6.82570100"><ele>390.196014</ele><time>2010-05-30T08:42:27Z</time></trkpt>
<trkpt lat="46.38652900" lon="6.82466400"><ele>389.71701</ele><time>2010-05-30T08:42:37Z</time></trkpt>
<trkpt lat="46.38669000" lon="6.82377200"><ele>389.924988</ele><time>2010-05-30T08:42:46Z</time></trkpt>
<trkpt lat="46.38685000" lon="6.82323600"><ele>390.208008</ele><time>2010-05-30T08:42:52Z</time></trkpt>
<trkpt lat="46.38703500" lon="6.82283500"><ele>390.298004</ele><time>2010-05-30T08:42:57Z</time></trkpt>
<trkpt lat="46.38712300" lon="6.82270300"><ele>390.360992</ele><time>2010-05-30T08:42:59Z</time></trkpt>
<trkpt lat="46.38745000" lon="6.82212700"><ele>390.737</ele><time>2010-05-30T08:43:07Z</time></trkpt>
<trkpt lat="46.38748700" lon="6.82204300"><ele>390.774994</ele><time>2010-05-30T08:43:08Z</time></trkpt>
<trkpt lat="46.38763500" lon="6.82145700"><ele>391.069</ele><time>2010-05-30T08:43:14Z</time></trkpt>
<trkpt lat="46.38789800" lon="6.82042900"><ele>390.68399</ele><time>2010-05-30T08:43:24Z</time></trkpt>
<trkpt lat="46.38821600" lon="6.81930300"><ele>390.501007</ele><time>2010-05-30T08:43:35Z</time></trkpt>
<trkpt lat="46.38847500" lon="6.81837100"><ele>390.390015</ele><time>2010-05-30T08:43:44Z</time></trkpt>
<trkpt lat="46.38883100" lon="6.81717500"><ele>390.579987</ele><time>2010-05-30T08:43:56Z</time></trkpt>
<trkpt lat="46.38909600" lon="6.81668600"><ele>390.640015</ele><time>2010-05-30T08:44:02Z</time></trkpt>
<trkpt lat="46.38969100" lon="6.81614400"><ele>390.484009</ele><time>2010-05-30T08:44:12Z</time></trkpt>
<trkpt lat="46.38986200" lon="6.81598600"><ele>390.544006</ele><time>2010-05-30T08:44:15Z</time></trkpt>
<trkpt lat="46.39007200" lon="6.81561400"><ele>390.671997</ele><time>2010-05-30T08:44:20Z</time></trkpt>
<trkpt lat="46.39012600" lon="6.81523100"><ele>390.794006</ele><time>2010-05-30T08:44:24Z</time></trkpt>
<trkpt lat="46.39012200" lon="6.81513100"><ele>390.662994</ele><time>2010-05-30T08:44:25Z</time></trkpt>
<trkpt lat="46.39007200" lon="6.81413100"><ele>390.705994</ele><time>2010-05-30T08:44:35Z</time></trkpt>
<trkpt lat="46.39012200" lon="6.81322400"><ele>390.682007</ele><time>2010-05-30T08:44:44Z</time></trkpt>
<trkpt lat="46.39025100" lon="6.81235600"><ele>390.442993</ele><time>2010-05-30T08:44:53Z</time></trkpt>
<trkpt lat="46.39043600" lon="6.81130700"><ele>390.427002</ele><time>2010-05-30T08:45:04Z</time></trkpt>
<trkpt lat="46.39059900" lon="6.81048400"><ele>390.463989</ele><time>2010-05-30T08:45:13Z</time></trkpt>
<trkpt lat="46.39078500" lon="6.80981100"><ele>390.42099</ele><time>2010-05-30T08:45:21Z</time></trkpt>
<trkpt lat="46.39090300" lon="6.80951100"><ele>390.308014</ele><time>2010-05-30T08:45:25Z</time></trkpt>
<trkpt lat="46.39097800" lon="6.80938000"><ele>390.341003</ele><time>2010-05-30T08:45:27Z</time></trkpt>
<trkpt lat="46.39128100" lon="6.80897100"><ele>390.373993</ele><time>2010-05-30T08:45:34Z</time></trkpt>
<trkpt lat="46.39136900" lon="6.80885300"><ele>390.122986</ele><time>2010-05-30T08:45:36Z</time></trkpt>
<trkpt lat="46.39176300" lon="6.80818700"><ele>390.313995</ele><time>2010-05-30T08:45:46Z</time></trkpt>
<trkpt lat="46.39202800" lon="6.80758400"><ele>390.247009</ele><time>2010-05-30T08:45:54Z</time></trkpt>
<trkpt lat="46.39214600" lon="6.80715400"><ele>389.936005</ele><time>2010-05-30T08:45:59Z</time></trkpt>
<trkpt lat="46.39233200" lon="6.80643900"><ele>389.954987</ele><time>2010-05-30T08:46:07Z</time></trkpt>
<trkpt lat="46.39253100" lon="6.80595900"><ele>389.552002</ele><time>2010-05-30T08:46:13Z</time></trkpt>
<trkpt lat="46.39289400" lon="6.80533400"><ele>389.697998</ele><time>2010-05-30T08:46:22Z</time></trkpt>
<trkpt lat="46.39310800" lon="6.80493400"><ele>389.78299</ele><time>2010-05-30T08:46:29Z</time></trkpt>
<trkpt lat="46.39317700" lon="6.80480000"><ele>389.958008</ele><time>2010-05-30T08:46:32Z</time></trkpt>
<trkpt lat="46.39343400" lon="6.80437800"><ele>389.725006</ele><time>2010-05-30T08:46:40Z</time></trkpt>
<trkpt lat="46.39351800" lon="6.80419200"><ele>389.740997</ele><time>2010-05-30T08:46:43Z</time></trkpt>
<trkpt lat="46.39367800" lon="6.80386300"><ele>389.382996</ele><time>2010-05-30T08:46:49Z</time></trkpt>
<trkpt lat="46.39377100" lon="6.80356300"><ele>389.484985</ele><time>2010-05-30T08:46:55Z</time></trkpt>
<trkpt lat="46.39379000" lon="6.80342600"><ele>389.415009</ele><time>2010-05-30T08:46:59Z</time></trkpt>
<trkpt lat="46.39379000" lon="6.80342000"><ele>389.306</ele><time>2010-05-30T08:47:00Z</time></trkpt>
<trkpt lat="46.39371200" lon="6.80323300"><ele>390.088989</ele><time>2010-05-30T08:49:07Z</time></trkpt>
<trkpt lat="46.39368900" lon="6.80292500"><ele>390.269012</ele><time>2010-05-30T08:49:12Z</time></trkpt>
<trkpt lat="46.39363100" lon="6.80253400"><ele>390.447998</ele><time>2010-05-30T08:49:18Z</time></trkpt>
<trkpt lat="46.39357200" lon="6.80209000"><ele>390.497009</ele><time>2010-05-30T08:49:24Z</time></trkpt>
<trkpt lat="46.39348400" lon="6.80147700"><ele>390.18399</ele><time>2010-05-30T08:49:32Z</time></trkpt>
<trkpt lat="46.39346100" lon="6.80122900"><ele>390.100006</ele><time>2010-05-30T08:49:35Z</time></trkpt>
<trkpt lat="46.39338900" lon="6.80047400"><ele>390.09201</ele><time>2010-05-30T08:49:44Z</time></trkpt>
<trkpt lat="46.39331500" lon="6.79976200"><ele>390.253998</ele><time>2010-05-30T08:49:52Z</time></trkpt>
<trkpt lat="46.39324800" lon="6.79900900"><ele>390.532013</ele><time>2010-05-30T08:50:00Z</time></trkpt>
<trkpt lat="46.39317500" lon="6.79833500"><ele>390.600006</ele><time>2010-05-30T08:50:07Z</time></trkpt>
<trkpt lat="46.39310600" lon="6.79763200"><ele>390.278015</ele><time>2010-05-30T08:50:14Z</time></trkpt>
<trkpt lat="46.39299300" lon="6.79702300"><ele>390.526001</ele><time>2010-05-30T08:50:20Z</time></trkpt>
<trkpt lat="46.39275200" lon="6.79634900"><ele>390.515991</ele><time>2010-05-30T08:50:27Z</time></trkpt>
<trkpt lat="46.39249500" lon="6.79555600"><ele>390.467987</ele><time>2010-05-30T08:50:35Z</time></trkpt>
<trkpt lat="46.39234600" lon="6.79494600"><ele>390.373993</ele><time>2010-05-30T08:50:41Z</time></trkpt>
<trkpt lat="46.39235500" lon="6.79442100"><ele>390.408997</ele><time>2010-05-30T08:50:46Z</time></trkpt>
<trkpt lat="46.39241100" lon="6.79389500"><ele>390.61499</ele><time>2010-05-30T08:50:52Z</time></trkpt>
<trkpt lat="46.39247000" lon="6.79344900"><ele>390.346985</ele><time>2010-05-30T08:50:58Z</time></trkpt>
<trkpt lat="46.39250200" lon="6.79315500"><ele>390.071991</ele><time>2010-05-30T08:51:03Z</time></trkpt>
<trkpt lat="46.39251800" lon="6.79300900"><ele>389.964996</ele><time>2010-05-30T08:51:06Z</time></trkpt>
<trkpt lat="46.39255000" lon="6.79271900"><ele>389.701996</ele><time>2010-05-30T08:51:14Z</time></trkpt>
<trkpt lat="46.39255200" lon="6.79269800"><ele>389.437988</ele><time>2010-05-30T08:51:17Z</time></trkpt>
<trkpt lat="46.39255800" lon="6.79266400"><ele>389.580994</ele><time>2010-05-30T08:51:23Z</time></trkpt>
<trkpt lat="46.39257000" lon="6.79258900"><ele>389.496002</ele><time>2010-05-30T08:51:27Z</time></trkpt>
<trkpt lat="46.39258000" lon="6.79239300"><ele>389.653992</ele><time>2010-05-30T08:51:33Z</time></trkpt>
<trkpt lat="46.39258000" lon="6.79220700"><ele>389.664001</ele><time>2010-05-30T08:51:39Z</time></trkpt>
<trkpt lat="46.39258000" lon="6.79220400"><ele>389.572998</ele><time>2010-05-30T08:51:40Z</time></trkpt>
<trkpt lat="46.39257100" lon="6.79207800"><ele>389.464996</ele><time>2010-05-30T08:51:56Z</time></trkpt>
<trkpt lat="46.39255900" lon="6.79186600"><ele>389.807007</ele><time>2010-05-30T08:52:00Z</time></trkpt>
<trkpt lat="46.39253800" lon="6.79148200"><ele>390.360992</ele><time>2010-05-30T08:52:04Z</time></trkpt>
<trkpt lat="46.39254000" lon="6.79099700"><ele>390.873993</ele><time>2010-05-30T08:52:08Z</time></trkpt>
<trkpt lat="46.39256700" lon="6.79074300"><ele>390.958008</ele><time>2010-05-30T08:52:10Z</time></trkpt>
<trkpt lat="46.39264700" lon="6.79036100"><ele>391.084015</ele><time>2010-05-30T08:52:13Z</time></trkpt>
<trkpt lat="46.39272400" lon="6.79012000"><ele>390.932007</ele><time>2010-05-30T08:52:15Z</time></trkpt>
<trkpt lat="46.39276600" lon="6.79000200"><ele>390.846008</ele><time>2010-05-30T08:52:16Z</time></trkpt>
<trkpt lat="46.39281200" lon="6.78988800"><ele>390.799011</ele><time>2010-05-30T08:52:17Z</time></trkpt>
<trkpt lat="46.39311400" lon="6.78926800"><ele>390.730011</ele><time>2010-05-30T08:52:23Z</time></trkpt>
<trkpt lat="46.39363300" lon="6.78820800"><ele>390.610992</ele><time>2010-05-30T08:52:34Z</time></trkpt>
<trkpt lat="46.39378500" lon="6.78782100"><ele>390.661987</ele><time>2010-05-30T08:52:38Z</time></trkpt>
<trkpt lat="46.39384500" lon="6.78738500"><ele>390.707001</ele><time>2010-05-30T08:52:42Z</time></trkpt>
<trkpt lat="46.39387200" lon="6.78669500"><ele>390.234985</ele><time>2010-05-30T08:52:48Z</time></trkpt>
<trkpt lat="46.39412300" lon="6.78570200"><ele>390.213989</ele><time>2010-05-30T08:52:57Z</time></trkpt>
<trkpt lat="46.39430200" lon="6.78480000"><ele>390.048004</ele><time>2010-05-30T08:53:05Z</time></trkpt>
<trkpt lat="46.39435400" lon="6.78408300"><ele>389.945007</ele><time>2010-05-30T08:53:11Z</time></trkpt>
<trkpt lat="46.39444700" lon="6.78323800"><ele>389.85199</ele><time>2010-05-30T08:53:18Z</time></trkpt>
<trkpt lat="46.39464500" lon="6.78256600"><ele>389.76001</ele><time>2010-05-30T08:53:24Z</time></trkpt>
<trkpt lat="46.39496700" lon="6.78155300"><ele>389.570007</ele><time>2010-05-30T08:53:33Z</time></trkpt>
<trkpt lat="46.39542500" lon="6.78019900"><ele>389.230988</ele><time>2010-05-30T08:53:45Z</time></trkpt>
<trkpt lat="46.39573500" lon="6.77929000"><ele>389.46701</ele><time>2010-05-30T08:53:53Z</time></trkpt>
<trkpt lat="46.39602400" lon="6.77854200"><ele>389.635986</ele><time>2010-05-30T08:54:00Z</time></trkpt>
<trkpt lat="46.39631800" lon="6.77800300"><ele>389.915009</ele><time>2010-05-30T08:54:06Z</time></trkpt>
<trkpt lat="46.39660000" lon="6.77720100"><ele>389.309998</ele><time>2010-05-30T08:54:14Z</time></trkpt>
<trkpt lat="46.39693100" lon="6.77628000"><ele>388.839996</ele><time>2010-05-30T08:54:23Z</time></trkpt>
<trkpt lat="46.39710600" lon="6.77554600"><ele>388.700012</ele><time>2010-05-30T08:54:30Z</time></trkpt>
<trkpt lat="46.39712500" lon="6.77533200"><ele>388.720001</ele><time>2010-05-30T08:54:32Z</time></trkpt>
<trkpt lat="46.39708300" lon="6.77458900"><ele>388.519012</ele><time>2010-05-30T08:54:38Z</time></trkpt>
<trkpt lat="46.39704700" lon="6.77337200"><ele>388.345001</ele><time>2010-05-30T08:54:48Z</time></trkpt>
<trkpt lat="46.39702600" lon="6.77240300"><ele>388.424011</ele><time>2010-05-30T08:54:56Z</time></trkpt>
<trkpt lat="46.39715800" lon="6.77174800"><ele>388.454987</ele><time>2010-05-30T08:55:02Z</time></trkpt>
<trkpt lat="46.39734800" lon="6.77116100"><ele>388.35199</ele><time>2010-05-30T08:55:08Z</time></trkpt>
<trkpt lat="46.39759800" lon="6.77049800"><ele>388.273987</ele><time>2010-05-30T08:55:15Z</time></trkpt>
<trkpt lat="46.39787100" lon="6.76999700"><ele>388.652008</ele><time>2010-05-30T08:55:21Z</time></trkpt>
<trkpt lat="46.39803700" lon="6.76953900"><ele>388.888</ele><time>2010-05-30T08:55:26Z</time></trkpt>
<trkpt lat="46.39852300" lon="6.76822000"><ele>388.57901</ele><time>2010-05-30T08:55:40Z</time></trkpt>
<trkpt lat="46.39882400" lon="6.76718000"><ele>388.682007</ele><time>2010-05-30T08:55:51Z</time></trkpt>
<trkpt lat="46.39893600" lon="6.76639100"><ele>388.777008</ele><time>2010-05-30T08:55:59Z</time></trkpt>
<trkpt lat="46.39905900" lon="6.76582200"><ele>388.828003</ele><time>2010-05-30T08:56:05Z</time></trkpt>
<trkpt lat="46.39940700" lon="6.76488600"><ele>389.240997</ele><time>2010-05-30T08:56:16Z</time></trkpt>
<trkpt lat="46.39957000" lon="6.76433500"><ele>389.377014</ele><time>2010-05-30T08:56:22Z</time></trkpt>
<trkpt lat="46.39962200" lon="6.76415200"><ele>389.380005</ele><time>2010-05-30T08:56:24Z</time></trkpt>
<trkpt lat="46.39979000" lon="6.76339000"><ele>389.835999</ele><time>2010-05-30T08:56:32Z</time></trkpt>
<trkpt lat="46.39989400" lon="6.76269600"><ele>389.829987</ele><time>2010-05-30T08:56:39Z</time></trkpt>
<trkpt lat="46.39993400" lon="6.76217300"><ele>389.790009</ele><time>2010-05-30T08:56:44Z</time></trkpt>
<trkpt lat="46.39999200" lon="6.76135700"><ele>389.994995</ele><time>2010-05-30T08:56:52Z</time></trkpt>
<trkpt lat="46.40008000" lon="6.76053500"><ele>390.049988</ele><time>2010-05-30T08:57:00Z</time></trkpt>
<trkpt lat="46.40022900" lon="6.75963300"><ele>390.335999</ele><time>2010-05-30T08:57:09Z</time></trkpt>
<trkpt lat="46.40042000" lon="6.75908400"><ele>390.093994</ele><time>2010-05-30T08:57:15Z</time></trkpt>
<trkpt lat="46.40065000" lon="6.75868800"><ele>389.89801</ele><time>2010-05-30T08:57:20Z</time></trkpt>
<trkpt lat="46.40095200" lon="6.75841000"><ele>390.114014</ele><time>2010-05-30T08:57:25Z</time></trkpt>
<trkpt lat="46.40148200" lon="6.75804500"><ele>389.899994</ele><time>2010-05-30T08:57:33Z</time></trkpt>
<trkpt lat="46.40175700" lon="6.75769000"><ele>389.764008</ele><time>2010-05-30T08:57:38Z</time></trkpt>
<trkpt lat="46.40195900" lon="6.75724800"><ele>389.799988</ele><time>2010-05-30T08:57:43Z</time></trkpt>
<trkpt lat="46.40224200" lon="6.75648900"><ele>389.625</ele><time>2010-05-30T08:57:51Z</time></trkpt>
<trkpt lat="46.40259900" lon="6.75554400"><ele>389.191986</ele><time>2010-05-30T08:58:01Z</time></trkpt>
<trkpt lat="46.40273400" lon="6.75517500"><ele>389.072998</ele><time>2010-05-30T08:58:05Z</time></trkpt>
<trkpt lat="46.40273000" lon="6.75475100"><ele>389.217987</ele><time>2010-05-30T08:58:09Z</time></trkpt>
<trkpt lat="46.40258400" lon="6.75395700"><ele>389.231995</ele><time>2010-05-30T08:58:17Z</time></trkpt>
<trkpt lat="46.40263000" lon="6.75344900"><ele>389.306</ele><time>2010-05-30T08:58:22Z</time></trkpt>
<trkpt lat="46.40291600" lon="6.75236000"><ele>389.421997</ele><time>2010-05-30T08:58:33Z</time></trkpt>
<trkpt lat="46.40309500" lon="6.75169100"><ele>389.298004</ele><time>2010-05-30T08:58:40Z</time></trkpt>
<trkpt lat="46.40332600" lon="6.75081000"><ele>389.165985</ele><time>2010-05-30T08:58:49Z</time></trkpt>
<trkpt lat="46.40357300" lon="6.74984600"><ele>389.016998</ele><time>2010-05-30T08:58:59Z</time></trkpt>
<trkpt lat="46.40379500" lon="6.74875500"><ele>388.714996</ele><time>2010-05-30T08:59:10Z</time></trkpt>
<trkpt lat="46.40383900" lon="6.74801600"><ele>388.592987</ele><time>2010-05-30T08:59:17Z</time></trkpt>
<trkpt lat="46.40382600" lon="6.74680900"><ele>388.487</ele><time>2010-05-30T08:59:28Z</time></trkpt>
<trkpt lat="46.40380800" lon="6.74570400"><ele>388.287994</ele><time>2010-05-30T08:59:38Z</time></trkpt>
<trkpt lat="46.40380800" lon="6.74536700"><ele>388.204987</ele><time>2010-05-30T08:59:41Z</time></trkpt>
<trkpt lat="46.40392600" lon="6.74460700"><ele>387.92099</ele><time>2010-05-30T08:59:48Z</time></trkpt>
<trkpt lat="46.40394800" lon="6.74450400"><ele>388.13501</ele><time>2010-05-30T08:59:49Z</time></trkpt>
<trkpt lat="46.40395300" lon="6.74398800"><ele>388.355011</ele><time>2010-05-30T08:59:54Z</time></trkpt>
<trkpt lat="46.40386300" lon="6.74337100"><ele>388.609985</ele><time>2010-05-30T09:00:00Z</time></trkpt>
<trkpt lat="46.40391000" lon="6.74295900"><ele>388.243988</ele><time>2010-05-30T09:00:04Z</time></trkpt>
<trkpt lat="46.40403700" lon="6.74235700"><ele>388.264008</ele><time>2010-05-30T09:00:10Z</time></trkpt>
<trkpt lat="46.40423300" lon="6.74142700"><ele>388.027008</ele><time>2010-05-30T09:00:19Z</time></trkpt>
<trkpt lat="46.40441200" lon="6.74036200"><ele>387.843994</ele><time>2010-05-30T09:00:29Z</time></trkpt>
<trkpt lat="46.40455700" lon="6.73941400"><ele>387.851013</ele><time>2010-05-30T09:00:38Z</time></trkpt>
<trkpt lat="46.40459900" lon="6.73883800"><ele>388.946014</ele><time>2010-05-30T09:00:44Z</time></trkpt>
<trkpt lat="46.40461500" lon="6.73822900"><ele>389.869995</ele><time>2010-05-30T09:00:51Z</time></trkpt>
<trkpt lat="46.40463100" lon="6.73764600"><ele>391.760986</ele><time>2010-05-30T09:00:58Z</time></trkpt>
<trkpt lat="46.40465200" lon="6.73713800"><ele>392.647003</ele><time>2010-05-30T09:01:04Z</time></trkpt>
<trkpt lat="46.40465200" lon="6.73649400"><ele>393.708008</ele><time>2010-05-30T09:01:12Z</time></trkpt>
<trkpt lat="46.40466000" lon="6.73581800"><ele>395.247986</ele><time>2010-05-30T09:01:21Z</time></trkpt>
<trkpt lat="46.40473200" lon="6.73537700"><ele>395.756989</ele><time>2010-05-30T09:01:27Z</time></trkpt>
<trkpt lat="46.40487700" lon="6.73487600"><ele>395.240997</ele><time>2010-05-30T09:01:33Z</time></trkpt>
<trkpt lat="46.40501700" lon="6.73422900"><ele>393.856995</ele><time>2010-05-30T09:01:39Z</time></trkpt>
<trkpt lat="46.40514100" lon="6.73347500"><ele>392.127991</ele><time>2010-05-30T09:01:45Z</time></trkpt>
<trkpt lat="46.40549400" lon="6.73272300"><ele>390.476013</ele><time>2010-05-30T09:01:51Z</time></trkpt>
<trkpt lat="46.40568500" lon="6.73206400"><ele>390.377014</ele><time>2010-05-30T09:01:56Z</time></trkpt>
<trkpt lat="46.40583900" lon="6.73126700"><ele>388.376007</ele><time>2010-05-30T09:02:02Z</time></trkpt>
<trkpt lat="46.40598400" lon="6.73051200"><ele>387.735992</ele><time>2010-05-30T09:02:08Z</time></trkpt>
<trkpt lat="46.40618900" lon="6.72945200"><ele>387.579987</ele><time>2010-05-30T09:02:17Z</time></trkpt>
<trkpt lat="46.40634800" lon="6.72857500"><ele>387.802002</ele><time>2010-05-30T09:02:25Z</time></trkpt>
<trkpt lat="46.40639400" lon="6.72793000"><ele>388.23999</ele><time>2010-05-30T09:02:31Z</time></trkpt>
<trkpt lat="46.40637600" lon="6.72709400"><ele>388.826996</ele><time>2010-05-30T09:02:39Z</time></trkpt>
<trkpt lat="46.40641300" lon="6.72678500"><ele>388.895996</ele><time>2010-05-30T09:02:42Z</time></trkpt>
<trkpt lat="46.40663800" lon="6.72613300"><ele>389.016998</ele><time>2010-05-30T09:02:49Z</time></trkpt>
<trkpt lat="46.40690600" lon="6.72561200"><ele>389.192993</ele><time>2010-05-30T09:02:55Z</time></trkpt>
<trkpt lat="46.40715400" lon="6.72508400"><ele>389.104004</ele><time>2010-05-30T09:03:01Z</time></trkpt>
<trkpt lat="46.40733700" lon="6.72450600"><ele>389.354004</ele><time>2010-05-30T09:03:07Z</time></trkpt>
<trkpt lat="46.40746400" lon="6.72381100"><ele>389.282013</ele><time>2010-05-30T09:03:14Z</time></trkpt>
<trkpt lat="46.40746400" lon="6.72329900"><ele>389.240997</ele><time>2010-05-30T09:03:19Z</time></trkpt>
<trkpt lat="46.40730000" lon="6.72250000"><ele>389.089996</ele><time>2010-05-30T09:03:27Z</time></trkpt>
<trkpt lat="46.40714700" lon="6.72182200"><ele>389.242004</ele><time>2010-05-30T09:03:34Z</time></trkpt>
<trkpt lat="46.40712800" lon="6.72172600"><ele>389.123993</ele><time>2010-05-30T09:03:35Z</time></trkpt>
<trkpt lat="46.40708100" lon="6.72096300"><ele>389.434998</ele><time>2010-05-30T09:03:43Z</time></trkpt>
<trkpt lat="46.40712900" lon="6.72022400"><ele>389.106995</ele><time>2010-05-30T09:03:51Z</time></trkpt>
<trkpt lat="46.40721700" lon="6.71969600"><ele>389.010986</ele><time>2010-05-30T09:03:57Z</time></trkpt>
<trkpt lat="46.40734300" lon="6.71917200"><ele>388.871002</ele><time>2010-05-30T09:04:03Z</time></trkpt>
<trkpt lat="46.40740300" lon="6.71889800"><ele>388.549011</ele><time>2010-05-30T09:04:06Z</time></trkpt>
<trkpt lat="46.40749900" lon="6.71834600"><ele>389.125</ele><time>2010-05-30T09:04:12Z</time></trkpt>
<trkpt lat="46.40746300" lon="6.71765900"><ele>389.024994</ele><time>2010-05-30T09:04:19Z</time></trkpt>
<trkpt lat="46.40745000" lon="6.71664300"><ele>388.442993</ele><time>2010-05-30T09:04:29Z</time></trkpt>
<trkpt lat="46.40734800" lon="6.71580600"><ele>388.415009</ele><time>2010-05-30T09:04:37Z</time></trkpt>
<trkpt lat="46.40730800" lon="6.71515200"><ele>388.403992</ele><time>2010-05-30T09:04:43Z</time></trkpt>
<trkpt lat="46.40738800" lon="6.71463800"><ele>388.425995</ele><time>2010-05-30T09:04:48Z</time></trkpt>
<trkpt lat="46.40755400" lon="6.71397000"><ele>388.153015</ele><time>2010-05-30T09:04:55Z</time></trkpt>
<trkpt lat="46.40759600" lon="6.71354900"><ele>388.372009</ele><time>2010-05-30T09:05:00Z</time></trkpt>
<trkpt lat="46.40760300" lon="6.71337100"><ele>387.812012</ele><time>2010-05-30T09:05:04Z</time></trkpt>
<trkpt lat="46.40760700" lon="6.71320200"><ele>387.64801</ele><time>2010-05-30T09:05:10Z</time></trkpt>
<trkpt lat="46.40759800" lon="6.71310800"><ele>387.704987</ele><time>2010-05-30T09:05:12Z</time></trkpt>
<trkpt lat="46.40758600" lon="6.71277500"><ele>388.041992</ele><time>2010-05-30T09:05:17Z</time></trkpt>
<trkpt lat="46.40752900" lon="6.71239500"><ele>388.359985</ele><time>2010-05-30T09:05:21Z</time></trkpt>
<trkpt lat="46.40744400" lon="6.71198300"><ele>388.540985</ele><time>2010-05-30T09:05:25Z</time></trkpt>
<trkpt lat="46.40740400" lon="6.71145700"><ele>388.651001</ele><time>2010-05-30T09:05:30Z</time></trkpt>
<trkpt lat="46.40746300" lon="6.71082600"><ele>388.437988</ele><time>2010-05-30T09:05:36Z</time></trkpt>
<trkpt lat="46.40763400" lon="6.71007200"><ele>388.528992</ele><time>2010-05-30T09:05:43Z</time></trkpt>
<trkpt lat="46.40780400" lon="6.70897900"><ele>388.601013</ele><time>2010-05-30T09:05:53Z</time></trkpt>
<trkpt lat="46.40780600" lon="6.70842300"><ele>388.880005</ele><time>2010-05-30T09:05:58Z</time></trkpt>
<trkpt lat="46.40776600" lon="6.70773400"><ele>388.72699</ele><time>2010-05-30T09:06:04Z</time></trkpt>
<trkpt lat="46.40778900" lon="6.70693500"><ele>389.089996</ele><time>2010-05-30T09:06:11Z</time></trkpt>
<trkpt lat="46.40778200" lon="6.70628700"><ele>389.389008</ele><time>2010-05-30T09:06:17Z</time></trkpt>
<trkpt lat="46.40765600" lon="6.70550800"><ele>388.783997</ele><time>2010-05-30T09:06:24Z</time></trkpt>
<trkpt lat="46.40757400" lon="6.70471800"><ele>388.917999</ele><time>2010-05-30T09:06:31Z</time></trkpt>
<trkpt lat="46.40757100" lon="6.70379000"><ele>388.110992</ele><time>2010-05-30T09:06:39Z</time></trkpt>
<trkpt lat="46.40758600" lon="6.70307600"><ele>388.21701</ele><time>2010-05-30T09:06:45Z</time></trkpt>
<trkpt lat="46.40765200" lon="6.70173300"><ele>388.924011</ele><time>2010-05-30T09:06:56Z</time></trkpt>
<trkpt lat="46.40772100" lon="6.70027100"><ele>388.987</ele><time>2010-05-30T09:07:08Z</time></trkpt>
<trkpt lat="46.40778500" lon="6.69913800"><ele>389.299011</ele><time>2010-05-30T09:07:18Z</time></trkpt>
<trkpt lat="46.40787900" lon="6.69833000"><ele>388.687012</ele><time>2010-05-30T09:07:26Z</time></trkpt>
<trkpt lat="46.40797700" lon="6.69762800"><ele>388.401001</ele><time>2010-05-30T09:07:33Z</time></trkpt>
<trkpt lat="46.40801900" lon="6.69689900"><ele>388.28299</ele><time>2010-05-30T09:07:40Z</time></trkpt>
<trkpt lat="46.40797600" lon="6.69612000"><ele>388.556</ele><time>2010-05-30T09:07:47Z</time></trkpt>
<trkpt lat="46.40790700" lon="6.69508100"><ele>389.695007</ele><time>2010-05-30T09:07:56Z</time></trkpt>
<trkpt lat="46.40783800" lon="6.69396200"><ele>389.924988</ele><time>2010-05-30T09:08:06Z</time></trkpt>
<trkpt lat="46.40778000" lon="6.69296600"><ele>390.527008</ele><time>2010-05-30T09:08:15Z</time></trkpt>
<trkpt lat="46.40773200" lon="6.69210100"><ele>391.141998</ele><time>2010-05-30T09:08:23Z</time></trkpt>
<trkpt lat="46.40768100" lon="6.69103500"><ele>391.329987</ele><time>2010-05-30T09:08:33Z</time></trkpt>
<trkpt lat="46.40763700" lon="6.69021700"><ele>390.154999</ele><time>2010-05-30T09:08:41Z</time></trkpt>
<trkpt lat="46.40756700" lon="6.68916400"><ele>389.888</ele><time>2010-05-30T09:08:51Z</time></trkpt>
<trkpt lat="46.40752800" lon="6.68837400"><ele>389.761993</ele><time>2010-05-30T09:08:59Z</time></trkpt>
<trkpt lat="46.40748500" lon="6.68786400"><ele>389.920013</ele><time>2010-05-30T09:09:05Z</time></trkpt>
<trkpt lat="46.40741600" lon="6.68747400"><ele>389.821991</ele><time>2010-05-30T09:09:10Z</time></trkpt>
<trkpt lat="46.40736100" lon="6.68726800"><ele>389.600006</ele><time>2010-05-30T09:09:13Z</time></trkpt>
<trkpt lat="46.40727600" lon="6.68700400"><ele>389.255005</ele><time>2010-05-30T09:09:18Z</time></trkpt>
<trkpt lat="46.40726600" lon="6.68695700"><ele>389.157013</ele><time>2010-05-30T09:09:22Z</time></trkpt>
<trkpt lat="46.40730300" lon="6.68705200"><ele>388.997986</ele><time>2010-05-30T09:10:30Z</time></trkpt>
<trkpt lat="46.40733300" lon="6.68712100"><ele>389.339996</ele><time>2010-05-30T09:10:37Z</time></trkpt>
<trkpt lat="46.40732400" lon="6.68709300"><ele>390.25</ele><time>2010-05-30T09:12:15Z</time></trkpt>
<trkpt lat="46.40732200" lon="6.68708400"><ele>389.966003</ele><time>2010-05-30T09:12:17Z</time></trkpt>
<trkpt lat="46.40722400" lon="6.68682700"><ele>389.890991</ele><time>2010-05-30T09:12:29Z</time></trkpt>
<trkpt lat="46.40711100" lon="6.68648300"><ele>389.855011</ele><time>2010-05-30T09:12:34Z</time></trkpt>
<trkpt lat="46.40694200" lon="6.68597200"><ele>390.173004</ele><time>2010-05-30T09:12:40Z</time></trkpt>
<trkpt lat="46.40672700" lon="6.68520200"><ele>390.815002</ele><time>2010-05-30T09:12:48Z</time></trkpt>
<trkpt lat="46.40658600" lon="6.68424900"><ele>390.621002</ele><time>2010-05-30T09:12:57Z</time></trkpt>
<trkpt lat="46.40659900" lon="6.68350800"><ele>390.760986</ele><time>2010-05-30T09:13:04Z</time></trkpt>
<trkpt lat="46.40666200" lon="6.68265300"><ele>391.065002</ele><time>2010-05-30T09:13:12Z</time></trkpt>
<trkpt lat="46.40673800" lon="6.68181700"><ele>389.871002</ele><time>2010-05-30T09:13:20Z</time></trkpt>
<trkpt lat="46.40682600" lon="6.68091200"><ele>390.631012</ele><time>2010-05-30T09:13:29Z</time></trkpt>
<trkpt lat="46.40691500" lon="6.68002000"><ele>389.855011</ele><time>2010-05-30T09:13:38Z</time></trkpt>
<trkpt lat="46.40699600" lon="6.67901600"><ele>389.859009</ele><time>2010-05-30T09:13:48Z</time></trkpt>
<trkpt lat="46.40700700" lon="6.67830800"><ele>389.77301</ele><time>2010-05-30T09:13:55Z</time></trkpt>
<trkpt lat="46.40693500" lon="6.67760800"><ele>389.437988</ele><time>2010-05-30T09:14:02Z</time></trkpt>
<trkpt lat="46.40677300" lon="6.67700600"><ele>389.15799</ele><time>2010-05-30T09:14:08Z</time></trkpt>
<trkpt lat="46.40652100" lon="6.67617700"><ele>389.143005</ele><time>2010-05-30T09:14:16Z</time></trkpt>
<trkpt lat="46.40626300" lon="6.67535300"><ele>389.217987</ele><time>2010-05-30T09:14:24Z</time></trkpt>
<trkpt lat="46.40601000" lon="6.67452900"><ele>388.35199</ele><time>2010-05-30T09:14:32Z</time></trkpt>
<trkpt lat="46.40567600" lon="6.67343900"><ele>387.511993</ele><time>2010-05-30T09:14:43Z</time></trkpt>
<trkpt lat="46.40541600" lon="6.67259300"><ele>386.721008</ele><time>2010-05-30T09:14:52Z</time></trkpt>
<trkpt lat="46.40516400" lon="6.67174800"><ele>387.049988</ele><time>2010-05-30T09:15:01Z</time></trkpt>
<trkpt lat="46.40491900" lon="6.67086400"><ele>386.572998</ele><time>2010-05-30T09:15:10Z</time></trkpt>
<trkpt lat="46.40476400" lon="6.67007100"><ele>386.464996</ele><time>2010-05-30T09:15:18Z</time></trkpt>
<trkpt lat="46.40460500" lon="6.66915300"><ele>386.260986</ele><time>2010-05-30T09:15:27Z</time></trkpt>
<trkpt lat="46.40443900" lon="6.66813600"><ele>385.515991</ele><time>2010-05-30T09:15:37Z</time></trkpt>
<trkpt lat="46.40429100" lon="6.66720900"><ele>384.746002</ele><time>2010-05-30T09:15:46Z</time></trkpt>
<trkpt lat="46.40427300" lon="6.66655500"><ele>384.32901</ele><time>2010-05-30T09:15:52Z</time></trkpt>
<trkpt lat="46.40431300" lon="6.66594700"><ele>384.119995</ele><time>2010-05-30T09:15:58Z</time></trkpt>
<trkpt lat="46.40434900" lon="6.66552800"><ele>383.729004</ele><time>2010-05-30T09:16:02Z</time></trkpt>
<trkpt lat="46.40439800" lon="6.66467000"><ele>383.796997</ele><time>2010-05-30T09:16:10Z</time></trkpt>
<trkpt lat="46.40441300" lon="6.66389100"><ele>383.832001</ele><time>2010-05-30T09:16:18Z</time></trkpt>
<trkpt lat="46.40439800" lon="6.66301300"><ele>382.752991</ele><time>2010-05-30T09:16:27Z</time></trkpt>
<trkpt lat="46.40440400" lon="6.66202900"><ele>381.475006</ele><time>2010-05-30T09:16:37Z</time></trkpt>
<trkpt lat="46.40444800" lon="6.66120500"><ele>380.484009</ele><time>2010-05-30T09:16:45Z</time></trkpt>
<trkpt lat="46.40450400" lon="6.66018100"><ele>380.431</ele><time>2010-05-30T09:16:55Z</time></trkpt>
<trkpt lat="46.40454300" lon="6.65944100"><ele>380.404999</ele><time>2010-05-30T09:17:02Z</time></trkpt>
<trkpt lat="46.40458200" lon="6.65857100"><ele>380.963989</ele><time>2010-05-30T09:17:10Z</time></trkpt>
<trkpt lat="46.40463300" lon="6.65770600"><ele>380.315002</ele><time>2010-05-30T09:17:18Z</time></trkpt>
<trkpt lat="46.40466700" lon="6.65719900"><ele>380.203003</ele><time>2010-05-30T09:17:23Z</time></trkpt>
<trkpt lat="46.40472000" lon="6.65656300"><ele>380.846008</ele><time>2010-05-30T09:17:29Z</time></trkpt>
<trkpt lat="46.40480000" lon="6.65600700"><ele>379.95401</ele><time>2010-05-30T09:17:35Z</time></trkpt>
<trkpt lat="46.40488300" lon="6.65511600"><ele>380.024994</ele><time>2010-05-30T09:17:44Z</time></trkpt>
<trkpt lat="46.40496700" lon="6.65415000"><ele>380.641998</ele><time>2010-05-30T09:17:54Z</time></trkpt>
<trkpt lat="46.40505300" lon="6.65321200"><ele>379.496002</ele><time>2010-05-30T09:18:04Z</time></trkpt>
<trkpt lat="46.40518400" lon="6.65239600"><ele>379.660004</ele><time>2010-05-30T09:18:13Z</time></trkpt>
<trkpt lat="46.40533200" lon="6.65167800"><ele>379.859009</ele><time>2010-05-30T09:18:21Z</time></trkpt>
<trkpt lat="46.40548400" lon="6.65092100"><ele>380.417999</ele><time>2010-05-30T09:18:29Z</time></trkpt>
<trkpt lat="46.40563800" lon="6.65015600"><ele>380.264008</ele><time>2010-05-30T09:18:37Z</time></trkpt>
<trkpt lat="46.40578200" lon="6.64929200"><ele>380.266998</ele><time>2010-05-30T09:18:46Z</time></trkpt>
<trkpt lat="46.40581800" lon="6.64872100"><ele>380.609985</ele><time>2010-05-30T09:18:52Z</time></trkpt>
<trkpt lat="46.40580100" lon="6.64812400"><ele>380.806</ele><time>2010-05-30T09:18:58Z</time></trkpt>
<trkpt lat="46.40577200" lon="6.64713400"><ele>380.980988</ele><time>2010-05-30T09:19:08Z</time></trkpt>
<trkpt lat="46.40574900" lon="6.64645800"><ele>380.960999</ele><time>2010-05-30T09:19:15Z</time></trkpt>
<trkpt lat="46.40571800" lon="6.64567400"><ele>381.091003</ele><time>2010-05-30T09:19:23Z</time></trkpt>
<trkpt lat="46.40569400" lon="6.64483000"><ele>381.776001</ele><time>2010-05-30T09:19:32Z</time></trkpt>
<trkpt lat="46.40561500" lon="6.64403500"><ele>382.039001</ele><time>2010-05-30T09:19:41Z</time></trkpt>
<trkpt lat="46.40547300" lon="6.64327600"><ele>381.914001</ele><time>2010-05-30T09:19:50Z</time></trkpt>
<trkpt lat="46.40534800" lon="6.64248100"><ele>382.014008</ele><time>2010-05-30T09:19:59Z</time></trkpt>
<trkpt lat="46.40528200" lon="6.64174100"><ele>382.080994</ele><time>2010-05-30T09:20:07Z</time></trkpt>
<trkpt lat="46.40523300" lon="6.64100500"><ele>382.143005</ele><time>2010-05-30T09:20:15Z</time></trkpt>
<trkpt lat="46.40518300" lon="6.64025900"><ele>381.674988</ele><time>2010-05-30T09:20:23Z</time></trkpt>
<trkpt lat="46.40513000" lon="6.63949600"><ele>382.242004</ele><time>2010-05-30T09:20:31Z</time></trkpt>
<trkpt lat="46.40512400" lon="6.63874700"><ele>382.60199</ele><time>2010-05-30T09:20:39Z</time></trkpt>
<trkpt lat="46.40523700" lon="6.63802900"><ele>382.614014</ele><time>2010-05-30T09:20:47Z</time></trkpt>
<trkpt lat="46.40537600" lon="6.63729100"><ele>382.807007</ele><time>2010-05-30T09:20:55Z</time></trkpt>
<trkpt lat="46.40548400" lon="6.63662100"><ele>383.450012</ele><time>2010-05-30T09:21:03Z</time></trkpt>
<trkpt lat="46.40548600" lon="6.63616100"><ele>383.204987</ele><time>2010-05-30T09:21:08Z</time></trkpt>
<trkpt lat="46.40539600" lon="6.63544800"><ele>382.812012</ele><time>2010-05-30T09:21:15Z</time></trkpt>
<trkpt lat="46.40525500" lon="6.63454100"><ele>382.645996</ele><time>2010-05-30T09:21:24Z</time></trkpt>
<trkpt lat="46.40512200" lon="6.63368300"><ele>382.191986</ele><time>2010-05-30T09:21:33Z</time></trkpt>
<trkpt lat="46.40497100" lon="6.63270500"><ele>382.859009</ele><time>2010-05-30T09:21:44Z</time></trkpt>
<trkpt lat="46.40486300" lon="6.63198400"><ele>382.835999</ele><time>2010-05-30T09:21:52Z</time></trkpt>
<trkpt lat="46.40473600" lon="6.63117700"><ele>382.94101</ele><time>2010-05-30T09:22:01Z</time></trkpt>
<trkpt lat="46.40462100" lon="6.63039500"><ele>382.835999</ele><time>2010-05-30T09:22:10Z</time></trkpt>
<trkpt lat="46.40448300" lon="6.62948800"><ele>382.832001</ele><time>2010-05-30T09:22:21Z</time></trkpt>
<trkpt lat="46.40436200" lon="6.62873700"><ele>382.380005</ele><time>2010-05-30T09:22:30Z</time></trkpt>
<trkpt lat="46.40425200" lon="6.62802200"><ele>382.286987</ele><time>2010-05-30T09:22:38Z</time></trkpt>
<trkpt lat="46.40421000" lon="6.62741600"><ele>382.406006</ele><time>2010-05-30T09:22:44Z</time></trkpt>
<trkpt lat="46.40417800" lon="6.62669600"><ele>382.609009</ele><time>2010-05-30T09:22:51Z</time></trkpt>
<trkpt lat="46.40413400" lon="6.62575700"><ele>382.540009</ele><time>2010-05-30T09:23:00Z</time></trkpt>
<trkpt lat="46.40409400" lon="6.62478600"><ele>382.473999</ele><time>2010-05-30T09:23:10Z</time></trkpt>
<trkpt lat="46.40406200" lon="6.62416200"><ele>382.855011</ele><time>2010-05-30T09:23:16Z</time></trkpt>
<trkpt lat="46.40400800" lon="6.62313500"><ele>383.394012</ele><time>2010-05-30T09:23:26Z</time></trkpt>
<trkpt lat="46.40394300" lon="6.62241500"><ele>382.855011</ele><time>2010-05-30T09:23:33Z</time></trkpt>
<trkpt lat="46.40378600" lon="6.62152800"><ele>383.416992</ele><time>2010-05-30T09:23:41Z</time></trkpt>
<trkpt lat="46.40358200" lon="6.62043000"><ele>383.17099</ele><time>2010-05-30T09:23:51Z</time></trkpt>
<trkpt lat="46.40341500" lon="6.61956000"><ele>384.156006</ele><time>2010-05-30T09:23:59Z</time></trkpt>
<trkpt lat="46.40334600" lon="6.61891900"><ele>383.479004</ele><time>2010-05-30T09:24:05Z</time></trkpt>
<trkpt lat="46.40332000" lon="6.61806200"><ele>383.276001</ele><time>2010-05-30T09:24:13Z</time></trkpt>
<trkpt lat="46.40330000" lon="6.61704500"><ele>383.376007</ele><time>2010-05-30T09:24:23Z</time></trkpt>
<trkpt lat="46.40326000" lon="6.61604800"><ele>383.687988</ele><time>2010-05-30T09:24:33Z</time></trkpt>
<trkpt lat="46.40317700" lon="6.61537700"><ele>383.582001</ele><time>2010-05-30T09:24:40Z</time></trkpt>
<trkpt lat="46.40307300" lon="6.61454700"><ele>383.451996</ele><time>2010-05-30T09:24:49Z</time></trkpt>
<trkpt lat="46.40298400" lon="6.61383000"><ele>383.687988</ele><time>2010-05-30T09:24:57Z</time></trkpt>
<trkpt lat="46.40294600" lon="6.61319400"><ele>383.631012</ele><time>2010-05-30T09:25:04Z</time></trkpt>
<trkpt lat="46.40294700" lon="6.61255500"><ele>383.752014</ele><time>2010-05-30T09:25:11Z</time></trkpt>
<trkpt lat="46.40295800" lon="6.61184400"><ele>383.464996</ele><time>2010-05-30T09:25:19Z</time></trkpt>
<trkpt lat="46.40293500" lon="6.61140300"><ele>384.179993</ele><time>2010-05-30T09:25:24Z</time></trkpt>
<trkpt lat="46.40284600" lon="6.61085400"><ele>384.131989</ele><time>2010-05-30T09:25:30Z</time></trkpt>
<trkpt lat="46.40265500" lon="6.60995000"><ele>383.910004</ele><time>2010-05-30T09:25:40Z</time></trkpt>
<trkpt lat="46.40254300" lon="6.60942800"><ele>383.317993</ele><time>2010-05-30T09:25:46Z</time></trkpt>
<trkpt lat="46.40241700" lon="6.60883000"><ele>382.437988</ele><time>2010-05-30T09:25:53Z</time></trkpt>
<trkpt lat="46.40224500" lon="6.60798500"><ele>382.865997</ele><time>2010-05-30T09:26:03Z</time></trkpt>
<trkpt lat="46.40210500" lon="6.60730400"><ele>382.980988</ele><time>2010-05-30T09:26:11Z</time></trkpt>
<trkpt lat="46.40198600" lon="6.60653800"><ele>383.445007</ele><time>2010-05-30T09:26:20Z</time></trkpt>
<trkpt lat="46.40192100" lon="6.60591900"><ele>383.697998</ele><time>2010-05-30T09:26:27Z</time></trkpt>
<trkpt lat="46.40187200" lon="6.60527900"><ele>383.937988</ele><time>2010-05-30T09:26:34Z</time></trkpt>
<trkpt lat="46.40182700" lon="6.60467100"><ele>383.363007</ele><time>2010-05-30T09:26:41Z</time></trkpt>
<trkpt lat="46.40178000" lon="6.60401100"><ele>383.184998</ele><time>2010-05-30T09:26:49Z</time></trkpt>
<trkpt lat="46.40172300" lon="6.60328100"><ele>383.25</ele><time>2010-05-30T09:26:58Z</time></trkpt>
<trkpt lat="46.40168300" lon="6.60269000"><ele>383.171997</ele><time>2010-05-30T09:27:05Z</time></trkpt>
<trkpt lat="46.40165400" lon="6.60216200"><ele>383.35199</ele><time>2010-05-30T09:27:11Z</time></trkpt>
<trkpt lat="46.40160800" lon="6.60163200"><ele>383.723999</ele><time>2010-05-30T09:27:17Z</time></trkpt>
<trkpt lat="46.40156100" lon="6.60105000"><ele>383.776001</ele><time>2010-05-30T09:27:24Z</time></trkpt>
<trkpt lat="46.40152200" lon="6.60045900"><ele>383.5</ele><time>2010-05-30T09:27:31Z</time></trkpt>
<trkpt lat="46.40149400" lon="6.60003100"><ele>383.631989</ele><time>2010-05-30T09:27:36Z</time></trkpt>
<trkpt lat="46.40146200" lon="6.59952100"><ele>384.222992</ele><time>2010-05-30T09:27:42Z</time></trkpt>
<trkpt lat="46.40145400" lon="6.59897700"><ele>384.401001</ele><time>2010-05-30T09:27:49Z</time></trkpt>
<trkpt lat="46.40145900" lon="6.59879700"><ele>383.545013</ele><time>2010-05-30T09:27:53Z</time></trkpt>
<trkpt lat="46.40146500" lon="6.59861700"><ele>383.285004</ele><time>2010-05-30T09:27:59Z</time></trkpt>
<trkpt lat="46.40147400" lon="6.59837000"><ele>383.372986</ele><time>2010-05-30T09:28:04Z</time></trkpt>
<trkpt lat="46.40149600" lon="6.59785700"><ele>383.498993</ele><time>2010-05-30T09:28:11Z</time></trkpt>
<trkpt lat="46.40151300" lon="6.59738100"><ele>383.911987</ele><time>2010-05-30T09:28:17Z</time></trkpt>
<trkpt lat="46.40152400" lon="6.59724400"><ele>383.739014</ele><time>2010-05-30T09:28:19Z</time></trkpt>
<trkpt lat="46.40154700" lon="6.59677900"><ele>383.914001</ele><time>2010-05-30T09:28:25Z</time></trkpt>
<trkpt lat="46.40158300" lon="6.59657100"><ele>383.807007</ele><time>2010-05-30T09:28:30Z</time></trkpt>
<trkpt lat="46.40161800" lon="6.59648500"><ele>384.156006</ele><time>2010-05-30T09:28:32Z</time></trkpt>
<trkpt lat="46.40164100" lon="6.59611300"><ele>384.756989</ele><time>2010-05-30T09:28:37Z</time></trkpt>
<trkpt lat="46.40163600" lon="6.59602200"><ele>384.740997</ele><time>2010-05-30T09:28:38Z</time></trkpt>
<trkpt lat="46.40153100" lon="6.59547900"><ele>385.141998</ele><time>2010-05-30T09:28:44Z</time></trkpt>
<trkpt lat="46.40147900" lon="6.59502900"><ele>385.019989</ele><time>2010-05-30T09:28:49Z</time></trkpt>
<trkpt lat="46.40140900" lon="6.59432300"><ele>384.664001</ele><time>2010-05-30T09:28:57Z</time></trkpt>
<trkpt lat="46.40144300" lon="6.59379200"><ele>384.39801</ele><time>2010-05-30T09:29:03Z</time></trkpt>
<trkpt lat="46.40157400" lon="6.59300200"><ele>383.714996</ele><time>2010-05-30T09:29:12Z</time></trkpt>
<trkpt lat="46.40174500" lon="6.59235600"><ele>383.298004</ele><time>2010-05-30T09:29:20Z</time></trkpt>
<trkpt lat="46.40190900" lon="6.59172000"><ele>382.937012</ele><time>2010-05-30T09:29:28Z</time></trkpt>
<trkpt lat="46.40201700" lon="6.59124500"><ele>383.59201</ele><time>2010-05-30T09:29:34Z</time></trkpt>
<trkpt lat="46.40208600" lon="6.59058400"><ele>383.247009</ele><time>2010-05-30T09:29:42Z</time></trkpt>
<trkpt lat="46.40214700" lon="6.58999800"><ele>383.149994</ele><time>2010-05-30T09:29:49Z</time></trkpt>
<trkpt lat="46.40217200" lon="6.58929800"><ele>383.029999</ele><time>2010-05-30T09:29:57Z</time></trkpt>
<trkpt lat="46.40213700" lon="6.58852000"><ele>383.584991</ele><time>2010-05-30T09:30:06Z</time></trkpt>
<trkpt lat="46.40205200" lon="6.58784800"><ele>382.248993</ele><time>2010-05-30T09:30:14Z</time></trkpt>
<trkpt lat="46.40197100" lon="6.58741300"><ele>382.821014</ele><time>2010-05-30T09:30:20Z</time></trkpt>
<trkpt lat="46.40196400" lon="6.58731400"><ele>382.252991</ele><time>2010-05-30T09:30:22Z</time></trkpt>
<trkpt lat="46.40194400" lon="6.58705100"><ele>382.127991</ele><time>2010-05-30T09:30:26Z</time></trkpt>
<trkpt lat="46.40189100" lon="6.58691200"><ele>382.31601</ele><time>2010-05-30T09:30:28Z</time></trkpt>
<trkpt lat="46.40177300" lon="6.58637800"><ele>383.898987</ele><time>2010-05-30T09:30:35Z</time></trkpt>
<trkpt lat="46.40161400" lon="6.58580100"><ele>383.742004</ele><time>2010-05-30T09:30:43Z</time></trkpt>
<trkpt lat="46.40137200" lon="6.58523000"><ele>383.079987</ele><time>2010-05-30T09:30:51Z</time></trkpt>
<trkpt lat="46.40116200" lon="6.58478300"><ele>384.721008</ele><time>2010-05-30T09:30:58Z</time></trkpt>
<trkpt lat="46.40092600" lon="6.58430600"><ele>385.652008</ele><time>2010-05-30T09:31:07Z</time></trkpt>
<trkpt lat="46.40089900" lon="6.58426200"><ele>385.751007</ele><time>2010-05-30T09:31:08Z</time></trkpt>
<trkpt lat="46.40082200" lon="6.58412200"><ele>385.64801</ele><time>2010-05-30T09:31:11Z</time></trkpt>
<trkpt lat="46.40062400" lon="6.58368200"><ele>387.248993</ele><time>2010-05-30T09:31:20Z</time></trkpt>
<trkpt lat="46.40045500" lon="6.58335200"><ele>388.548004</ele><time>2010-05-30T09:31:27Z</time></trkpt>
<trkpt lat="46.40024900" lon="6.58294100"><ele>389.015991</ele><time>2010-05-30T09:31:35Z</time></trkpt>
<trkpt lat="46.40003600" lon="6.58248200"><ele>391.92099</ele><time>2010-05-30T09:31:44Z</time></trkpt>
<trkpt lat="46.39982100" lon="6.58203900"><ele>392.286011</ele><time>2010-05-30T09:31:53Z</time></trkpt>
<trkpt lat="46.39964100" lon="6.58163200"><ele>393.542999</ele><time>2010-05-30T09:32:01Z</time></trkpt>
<trkpt lat="46.39953600" lon="6.58138700"><ele>394.720001</ele><time>2010-05-30T09:32:07Z</time></trkpt>
<trkpt lat="46.39944200" lon="6.58107800"><ele>395.868011</ele><time>2010-05-30T09:32:13Z</time></trkpt>
<trkpt lat="46.39940700" lon="6.58097200"><ele>396.191986</ele><time>2010-05-30T09:32:15Z</time></trkpt>
<trkpt lat="46.39929500" lon="6.58036400"><ele>397.363007</ele><time>2010-05-30T09:32:25Z</time></trkpt>
<trkpt lat="46.39921500" lon="6.57979900"><ele>398.779999</ele><time>2010-05-30T09:32:34Z</time></trkpt>
<trkpt lat="46.39913700" lon="6.57924500"><ele>398.949005</ele><time>2010-05-30T09:32:43Z</time></trkpt>
<trkpt lat="46.39904000" lon="6.57857600"><ele>400.234009</ele><time>2010-05-30T09:32:53Z</time></trkpt>
<trkpt lat="46.39896300" lon="6.57800900"><ele>400.651001</ele><time>2010-05-30T09:33:02Z</time></trkpt>
<trkpt lat="46.39888400" lon="6.57739600"><ele>401.677002</ele><time>2010-05-30T09:33:12Z</time></trkpt>
<trkpt lat="46.39893600" lon="6.57707500"><ele>401.471985</ele><time>2010-05-30T09:33:17Z</time></trkpt>
<trkpt lat="46.39894100" lon="6.57700700"><ele>401.304993</ele><time>2010-05-30T09:33:18Z</time></trkpt>
<trkpt lat="46.39893700" lon="6.57679700"><ele>401.22699</ele><time>2010-05-30T09:33:21Z</time></trkpt>
<trkpt lat="46.39880800" lon="6.57639500"><ele>402.265015</ele><time>2010-05-30T09:33:27Z</time></trkpt>
<trkpt lat="46.39867000" lon="6.57589100"><ele>401.80899</ele><time>2010-05-30T09:33:34Z</time></trkpt>
<trkpt lat="46.39857600" lon="6.57524700"><ele>401.490997</ele><time>2010-05-30T09:33:42Z</time></trkpt>
<trkpt lat="46.39847400" lon="6.57450600"><ele>400.53299</ele><time>2010-05-30T09:33:51Z</time></trkpt>
<trkpt lat="46.39841200" lon="6.57402800"><ele>400.058014</ele><time>2010-05-30T09:33:57Z</time></trkpt>
<trkpt lat="46.39831000" lon="6.57341500"><ele>399.640991</ele><time>2010-05-30T09:34:05Z</time></trkpt>
<trkpt lat="46.39824600" lon="6.57291500"><ele>399.196014</ele><time>2010-05-30T09:34:12Z</time></trkpt>
<trkpt lat="46.39812700" lon="6.57235500"><ele>399.221008</ele><time>2010-05-30T09:34:20Z</time></trkpt>
<trkpt lat="46.39800300" lon="6.57145300"><ele>400.253998</ele><time>2010-05-30T09:34:32Z</time></trkpt>
<trkpt lat="46.39790200" lon="6.57073500"><ele>399.804993</ele><time>2010-05-30T09:34:41Z</time></trkpt>
<trkpt lat="46.39779000" lon="6.57000500"><ele>400.419006</ele><time>2010-05-30T09:34:50Z</time></trkpt>
<trkpt lat="46.39768200" lon="6.56922500"><ele>400.994995</ele><time>2010-05-30T09:35:00Z</time></trkpt>
<trkpt lat="46.39758200" lon="6.56852200"><ele>399.820007</ele><time>2010-05-30T09:35:09Z</time></trkpt>
<trkpt lat="46.39748900" lon="6.56790100"><ele>399.75</ele><time>2010-05-30T09:35:17Z</time></trkpt>
<trkpt lat="46.39742000" lon="6.56738400"><ele>400.350006</ele><time>2010-05-30T09:35:24Z</time></trkpt>
<trkpt lat="46.39738100" lon="6.56710200"><ele>400.739014</ele><time>2010-05-30T09:35:28Z</time></trkpt>
<trkpt lat="46.39729500" lon="6.56657400"><ele>400.627014</ele><time>2010-05-30T09:35:35Z</time></trkpt>
<trkpt lat="46.39719900" lon="6.56581600"><ele>400.768005</ele><time>2010-05-30T09:35:45Z</time></trkpt>
<trkpt lat="46.39707700" lon="6.56497100"><ele>400.352997</ele><time>2010-05-30T09:35:55Z</time></trkpt>
<trkpt lat="46.39691600" lon="6.56386100"><ele>399.90799</ele><time>2010-05-30T09:36:07Z</time></trkpt>
<trkpt lat="46.39690500" lon="6.56377100"><ele>400.024994</ele><time>2010-05-30T09:36:08Z</time></trkpt>
<trkpt lat="46.39681500" lon="6.56312700"><ele>400.138</ele><time>2010-05-30T09:36:15Z</time></trkpt>
<trkpt lat="46.39670300" lon="6.56244400"><ele>400.544006</ele><time>2010-05-30T09:36:22Z</time></trkpt>
<trkpt lat="46.39657500" lon="6.56164900"><ele>400.917999</ele><time>2010-05-30T09:36:30Z</time></trkpt>
<trkpt lat="46.39655500" lon="6.56140000"><ele>401</ele><time>2010-05-30T09:36:33Z</time></trkpt>
<trkpt lat="46.39647500" lon="6.56078600"><ele>399.776001</ele><time>2010-05-30T09:36:40Z</time></trkpt>
<trkpt lat="46.39637300" lon="6.56010400"><ele>399.386993</ele><time>2010-05-30T09:36:47Z</time></trkpt>
<trkpt lat="46.39624700" lon="6.55931800"><ele>398.886993</ele><time>2010-05-30T09:36:55Z</time></trkpt>
<trkpt lat="46.39615200" lon="6.55872400"><ele>396.67099</ele><time>2010-05-30T09:37:00Z</time></trkpt>
<trkpt lat="46.39613300" lon="6.55859900"><ele>396.446991</ele><time>2010-05-30T09:37:01Z</time></trkpt>
<trkpt lat="46.39597500" lon="6.55747500"><ele>395.020996</ele><time>2010-05-30T09:37:10Z</time></trkpt>
<trkpt lat="46.39582000" lon="6.55642100"><ele>393.546997</ele><time>2010-05-30T09:37:18Z</time></trkpt>
<trkpt lat="46.39570900" lon="6.55579700"><ele>392.751007</ele><time>2010-05-30T09:37:23Z</time></trkpt>
<trkpt lat="46.39558600" lon="6.55513300"><ele>392.540985</ele><time>2010-05-30T09:37:28Z</time></trkpt>
<trkpt lat="46.39549500" lon="6.55468400"><ele>392.511993</ele><time>2010-05-30T09:37:32Z</time></trkpt>
<trkpt lat="46.39540300" lon="6.55406100"><ele>392.470001</ele><time>2010-05-30T09:37:37Z</time></trkpt>
<trkpt lat="46.39527900" lon="6.55334000"><ele>391.53299</ele><time>2010-05-30T09:37:43Z</time></trkpt>
<trkpt lat="46.39515300" lon="6.55258400"><ele>391.312988</ele><time>2010-05-30T09:37:50Z</time></trkpt>
<trkpt lat="46.39506300" lon="6.55182300"><ele>390.397003</ele><time>2010-05-30T09:37:57Z</time></trkpt>
<trkpt lat="46.39500500" lon="6.55104200"><ele>389.158997</ele><time>2010-05-30T09:38:04Z</time></trkpt>
<trkpt lat="46.39490700" lon="6.54982600"><ele>386.679993</ele><time>2010-05-30T09:38:15Z</time></trkpt>
<trkpt lat="46.39486000" lon="6.54913700"><ele>385.524994</ele><time>2010-05-30T09:38:21Z</time></trkpt>
<trkpt lat="46.39479700" lon="6.54808000"><ele>384.419006</ele><time>2010-05-30T09:38:30Z</time></trkpt>
<trkpt lat="46.39473500" lon="6.54705300"><ele>383.608002</ele><time>2010-05-30T09:38:39Z</time></trkpt>
<trkpt lat="46.39467100" lon="6.54598900"><ele>383.156006</ele><time>2010-05-30T09:38:49Z</time></trkpt>
<trkpt lat="46.39463800" lon="6.54532100"><ele>382.894989</ele><time>2010-05-30T09:38:56Z</time></trkpt>
<trkpt lat="46.39467500" lon="6.54458800"><ele>381.592987</ele><time>2010-05-30T09:39:04Z</time></trkpt>
<trkpt lat="46.39481100" lon="6.54380800"><ele>381.234985</ele><time>2010-05-30T09:39:13Z</time></trkpt>
<trkpt lat="46.39494700" lon="6.54305700"><ele>381.205994</ele><time>2010-05-30T09:39:22Z</time></trkpt>
<trkpt lat="46.39504000" lon="6.54257000"><ele>381.096985</ele><time>2010-05-30T09:39:28Z</time></trkpt>
<trkpt lat="46.39506100" lon="6.54210200"><ele>381.475006</ele><time>2010-05-30T09:39:34Z</time></trkpt>
<trkpt lat="46.39506300" lon="6.54189900"><ele>381.264008</ele><time>2010-05-30T09:39:37Z</time></trkpt>
<trkpt lat="46.39507500" lon="6.54161600"><ele>381.131012</ele><time>2010-05-30T09:39:43Z</time></trkpt>
<trkpt lat="46.39507500" lon="6.54156800"><ele>381.339996</ele><time>2010-05-30T09:39:47Z</time></trkpt>
<trkpt lat="46.39507400" lon="6.54149900"><ele>381.458008</ele><time>2010-05-30T09:39:53Z</time></trkpt>
<trkpt lat="46.39506700" lon="6.54124900"><ele>381.582001</ele><time>2010-05-30T09:39:58Z</time></trkpt>
<trkpt lat="46.39506500" lon="6.54082700"><ele>382.703003</ele><time>2010-05-30T09:40:04Z</time></trkpt>
<trkpt lat="46.39503200" lon="6.54049800"><ele>382.653992</ele><time>2010-05-30T09:40:08Z</time></trkpt>
<trkpt lat="46.39497200" lon="6.54019500"><ele>382.803009</ele><time>2010-05-30T09:40:12Z</time></trkpt>
<trkpt lat="46.39490700" lon="6.53999100"><ele>383.108002</ele><time>2010-05-30T09:40:15Z</time></trkpt>
<trkpt lat="46.39465800" lon="6.53954800"><ele>382.291992</ele><time>2010-05-30T09:40:23Z</time></trkpt>
<trkpt lat="46.39440700" lon="6.53917400"><ele>383.007996</ele><time>2010-05-30T09:40:30Z</time></trkpt>
<trkpt lat="46.39418800" lon="6.53874500"><ele>383.518005</ele><time>2010-05-30T09:40:37Z</time></trkpt>
<trkpt lat="46.39399700" lon="6.53827200"><ele>383.854004</ele><time>2010-05-30T09:40:44Z</time></trkpt>
<trkpt lat="46.39376100" lon="6.53762200"><ele>384.519989</ele><time>2010-05-30T09:40:53Z</time></trkpt>
<trkpt lat="46.39351900" lon="6.53695400"><ele>384.393005</ele><time>2010-05-30T09:41:02Z</time></trkpt>
<trkpt lat="46.39327000" lon="6.53627500"><ele>385.126007</ele><time>2010-05-30T09:41:11Z</time></trkpt>
<trkpt lat="46.39306900" lon="6.53570900"><ele>385.121002</ele><time>2010-05-30T09:41:19Z</time></trkpt>
<trkpt lat="46.39302800" lon="6.53557400"><ele>385.061005</ele><time>2010-05-30T09:41:21Z</time></trkpt>
<trkpt lat="46.39302100" lon="6.53532300"><ele>384.704987</ele><time>2010-05-30T09:41:25Z</time></trkpt>
<trkpt lat="46.39296700" lon="6.53504800"><ele>385.38501</ele><time>2010-05-30T09:41:29Z</time></trkpt>
<trkpt lat="46.39281100" lon="6.53482000"><ele>385.595001</ele><time>2010-05-30T09:41:33Z</time></trkpt>
<trkpt lat="46.39256800" lon="6.53414900"><ele>386.699005</ele><time>2010-05-30T09:41:43Z</time></trkpt>
<trkpt lat="46.39231500" lon="6.53361000"><ele>386.22699</ele><time>2010-05-30T09:41:52Z</time></trkpt>
<trkpt lat="46.39212900" lon="6.53321300"><ele>386.466003</ele><time>2010-05-30T09:41:59Z</time></trkpt>
<trkpt lat="46.39192200" lon="6.53277700"><ele>387.869995</ele><time>2010-05-30T09:42:07Z</time></trkpt>
<trkpt lat="46.39173800" lon="6.53238600"><ele>389.128998</ele><time>2010-05-30T09:42:15Z</time></trkpt>
<trkpt lat="46.39151900" lon="6.53193100"><ele>389.928009</ele><time>2010-05-30T09:42:25Z</time></trkpt>
<trkpt lat="46.39132500" lon="6.53146500"><ele>389.273987</ele><time>2010-05-30T09:42:33Z</time></trkpt>
<trkpt lat="46.39120000" lon="6.53103700"><ele>389.040009</ele><time>2010-05-30T09:42:39Z</time></trkpt>
<trkpt lat="46.39108100" lon="6.53044500"><ele>388.76001</ele><time>2010-05-30T09:42:46Z</time></trkpt>
<trkpt lat="46.39097800" lon="6.52980500"><ele>388.725006</ele><time>2010-05-30T09:42:54Z</time></trkpt>
<trkpt lat="46.39090500" lon="6.52919500"><ele>388.888</ele><time>2010-05-30T09:43:02Z</time></trkpt>
<trkpt lat="46.39081700" lon="6.52862000"><ele>389.312988</ele><time>2010-05-30T09:43:10Z</time></trkpt>
<trkpt lat="46.39067200" lon="6.52793700"><ele>389.665009</ele><time>2010-05-30T09:43:20Z</time></trkpt>
<trkpt lat="46.39050500" lon="6.52734500"><ele>390.368988</ele><time>2010-05-30T09:43:29Z</time></trkpt>
<trkpt lat="46.39030200" lon="6.52669200"><ele>390.438995</ele><time>2010-05-30T09:43:39Z</time></trkpt>
<trkpt lat="46.39013800" lon="6.52621500"><ele>391.31601</ele><time>2010-05-30T09:43:47Z</time></trkpt>
<trkpt lat="46.38999500" lon="6.52587200"><ele>391.669006</ele><time>2010-05-30T09:43:54Z</time></trkpt>
<trkpt lat="46.38974400" lon="6.52537100"><ele>393.235992</ele><time>2010-05-30T09:44:05Z</time></trkpt>
<trkpt lat="46.38951800" lon="6.52498400"><ele>394.77301</ele><time>2010-05-30T09:44:14Z</time></trkpt>
<trkpt lat="46.38931100" lon="6.52467500"><ele>395.588989</ele><time>2010-05-30T09:44:22Z</time></trkpt>
<trkpt lat="46.38903700" lon="6.52432100"><ele>397.863007</ele><time>2010-05-30T09:44:32Z</time></trkpt>
<trkpt lat="46.38871800" lon="6.52396400"><ele>399.112</ele><time>2010-05-30T09:44:43Z</time></trkpt>
<trkpt lat="46.38843500" lon="6.52366700"><ele>401.178009</ele><time>2010-05-30T09:44:53Z</time></trkpt>
<trkpt lat="46.38824100" lon="6.52347400"><ele>401.498993</ele><time>2010-05-30T09:45:00Z</time></trkpt>
<trkpt lat="46.38804000" lon="6.52327500"><ele>403.43399</ele><time>2010-05-30T09:45:07Z</time></trkpt>
<trkpt lat="46.38769700" lon="6.52294000"><ele>402.589996</ele><time>2010-05-30T09:45:18Z</time></trkpt>
<trkpt lat="46.38742100" lon="6.52262100"><ele>402.233002</ele><time>2010-05-30T09:45:26Z</time></trkpt>
<trkpt lat="46.38716500" lon="6.52222600"><ele>401.997009</ele><time>2010-05-30T09:45:33Z</time></trkpt>
<trkpt lat="46.38688400" lon="6.52160200"><ele>401.747009</ele><time>2010-05-30T09:45:42Z</time></trkpt>
<trkpt lat="46.38672500" lon="6.52100500"><ele>401.097992</ele><time>2010-05-30T09:45:49Z</time></trkpt>
<trkpt lat="46.38663100" lon="6.52021300"><ele>400.036987</ele><time>2010-05-30T09:45:57Z</time></trkpt>
<trkpt lat="46.38659800" lon="6.51979000"><ele>398.847992</ele><time>2010-05-30T09:46:01Z</time></trkpt>
<trkpt lat="46.38647500" lon="6.51894600"><ele>397.701996</ele><time>2010-05-30T09:46:09Z</time></trkpt>
<trkpt lat="46.38627500" lon="6.51824700"><ele>397.015015</ele><time>2010-05-30T09:46:16Z</time></trkpt>
<trkpt lat="46.38616600" lon="6.51795300"><ele>395.713989</ele><time>2010-05-30T09:46:19Z</time></trkpt>
<trkpt lat="46.38588200" lon="6.51721800"><ele>395.143005</ele><time>2010-05-30T09:46:27Z</time></trkpt>
<trkpt lat="46.38561300" lon="6.51656800"><ele>395.075989</ele><time>2010-05-30T09:46:35Z</time></trkpt>
<trkpt lat="46.38528800" lon="6.51582400"><ele>396.112</ele><time>2010-05-30T09:46:45Z</time></trkpt>
<trkpt lat="46.38500400" lon="6.51520800"><ele>396.470001</ele><time>2010-05-30T09:46:54Z</time></trkpt>
<trkpt lat="46.38471500" lon="6.51462600"><ele>396.649994</ele><time>2010-05-30T09:47:03Z</time></trkpt>
<trkpt lat="46.38447300" lon="6.51414700"><ele>397.72699</ele><time>2010-05-30T09:47:11Z</time></trkpt>
<trkpt lat="46.38424500" lon="6.51372500"><ele>397.785004</ele><time>2010-05-30T09:47:19Z</time></trkpt>
<trkpt lat="46.38407800" lon="6.51334300"><ele>397.325012</ele><time>2010-05-30T09:47:27Z</time></trkpt>
<trkpt lat="46.38406300" lon="6.51329100"><ele>396.539001</ele><time>2010-05-30T09:47:31Z</time></trkpt>
<trkpt lat="46.38406100" lon="6.51328500"><ele>396.552002</ele><time>2010-05-30T09:47:34Z</time></trkpt>
<trkpt lat="46.38402600" lon="6.51321700"><ele>396.790009</ele><time>2010-05-30T09:47:38Z</time></trkpt>
<trkpt lat="46.38393400" lon="6.51307800"><ele>397.183014</ele><time>2010-05-30T09:47:43Z</time></trkpt>
<trkpt lat="46.38377800" lon="6.51281100"><ele>396.856995</ele><time>2010-05-30T09:47:50Z</time></trkpt>
<trkpt lat="46.38359900" lon="6.51249000"><ele>398.059998</ele><time>2010-05-30T09:47:58Z</time></trkpt>
<trkpt lat="46.38339600" lon="6.51210900"><ele>397.830994</ele><time>2010-05-30T09:48:07Z</time></trkpt>
<trkpt lat="46.38321300" lon="6.51173400"><ele>397.882996</ele><time>2010-05-30T09:48:15Z</time></trkpt>
<trkpt lat="46.38307300" lon="6.51136200"><ele>399.019989</ele><time>2010-05-30T09:48:23Z</time></trkpt>
<trkpt lat="46.38294900" lon="6.51089900"><ele>398.428009</ele><time>2010-05-30T09:48:32Z</time></trkpt>
<trkpt lat="46.38291900" lon="6.51073600"><ele>398.661011</ele><time>2010-05-30T09:48:35Z</time></trkpt>
<trkpt lat="46.38286900" lon="6.51020800"><ele>399.352997</ele><time>2010-05-30T09:48:44Z</time></trkpt>
<trkpt lat="46.38286200" lon="6.50953800"><ele>399.729004</ele><time>2010-05-30T09:48:55Z</time></trkpt>
<trkpt lat="46.38289500" lon="6.50901800"><ele>400.519989</ele><time>2010-05-30T09:49:03Z</time></trkpt>
<trkpt lat="46.38290800" lon="6.50851600"><ele>400.776001</ele><time>2010-05-30T09:49:11Z</time></trkpt>
<trkpt lat="46.38292500" lon="6.50800900"><ele>401.252014</ele><time>2010-05-30T09:49:19Z</time></trkpt>
<trkpt lat="46.38295200" lon="6.50723400"><ele>402.309998</ele><time>2010-05-30T09:49:31Z</time></trkpt>
<trkpt lat="46.38296800" lon="6.50677300"><ele>402.200012</ele><time>2010-05-30T09:49:38Z</time></trkpt>
<trkpt lat="46.38298400" lon="6.50634000"><ele>401.955994</ele><time>2010-05-30T09:49:45Z</time></trkpt>
<trkpt lat="46.38299100" lon="6.50624900"><ele>401.334015</ele><time>2010-05-30T09:49:49Z</time></trkpt>
<trkpt lat="46.38299100" lon="6.50624800"><ele>401.326996</ele><time>2010-05-30T09:49:50Z</time></trkpt>
<trkpt lat="46.38298300" lon="6.50615700"><ele>401.779999</ele><time>2010-05-30T09:50:23Z</time></trkpt>
<trkpt lat="46.38298500" lon="6.50611500"><ele>401.81601</ele><time>2010-05-30T09:50:24Z</time></trkpt>
<trkpt lat="46.38298500" lon="6.50583200"><ele>402.251007</ele><time>2010-05-30T09:50:29Z</time></trkpt>
<trkpt lat="46.38292100" lon="6.50526800"><ele>401.674011</ele><time>2010-05-30T09:50:39Z</time></trkpt>
<trkpt lat="46.38287900" lon="6.50502500"><ele>401.817993</ele><time>2010-05-30T09:50:45Z</time></trkpt>
<trkpt lat="46.38281600" lon="6.50471700"><ele>401.863007</ele><time>2010-05-30T09:50:54Z</time></trkpt>
<trkpt lat="46.38278300" lon="6.50450300"><ele>401.484009</ele><time>2010-05-30T09:50:58Z</time></trkpt>
<trkpt lat="46.38271500" lon="6.50420200"><ele>401.311005</ele><time>2010-05-30T09:51:03Z</time></trkpt>
<trkpt lat="46.38258700" lon="6.50356200"><ele>402.390015</ele><time>2010-05-30T09:51:13Z</time></trkpt>
<trkpt lat="46.38246200" lon="6.50295600"><ele>401.459015</ele><time>2010-05-30T09:51:22Z</time></trkpt>
<trkpt lat="46.38234700" lon="6.50242400"><ele>402.342987</ele><time>2010-05-30T09:51:29Z</time></trkpt>
<trkpt lat="46.38225600" lon="6.50215600"><ele>403.834015</ele><time>2010-05-30T09:51:33Z</time></trkpt>
<trkpt lat="46.38216700" lon="6.50185400"><ele>404.531006</ele><time>2010-05-30T09:51:38Z</time></trkpt>
<trkpt lat="46.38207500" lon="6.50155600"><ele>404.083008</ele><time>2010-05-30T09:51:43Z</time></trkpt>
<trkpt lat="46.38192300" lon="6.50108100"><ele>405.121002</ele><time>2010-05-30T09:51:51Z</time></trkpt>
<trkpt lat="46.38177300" lon="6.50061500"><ele>406.174011</ele><time>2010-05-30T09:51:59Z</time></trkpt>
<trkpt lat="46.38161400" lon="6.50015000"><ele>407.269012</ele><time>2010-05-30T09:52:07Z</time></trkpt>
<trkpt lat="46.38150000" lon="6.49979900"><ele>407.630005</ele><time>2010-05-30T09:52:13Z</time></trkpt>
<trkpt lat="46.38144200" lon="6.49962900"><ele>408.984009</ele><time>2010-05-30T09:52:16Z</time></trkpt>
<trkpt lat="46.38131500" lon="6.49912400"><ele>411.036987</ele><time>2010-05-30T09:52:25Z</time></trkpt>
<trkpt lat="46.38125200" lon="6.49872100"><ele>411.600006</ele><time>2010-05-30T09:52:33Z</time></trkpt>
<trkpt lat="46.38122100" lon="6.49836700"><ele>412.812012</ele><time>2010-05-30T09:52:41Z</time></trkpt>
<trkpt lat="46.38121200" lon="6.49805800"><ele>413.647003</ele><time>2010-05-30T09:52:49Z</time></trkpt>
<trkpt lat="46.38120100" lon="6.49772400"><ele>414.799011</ele><time>2010-05-30T09:52:56Z</time></trkpt>
<trkpt lat="46.38114100" lon="6.49741200"><ele>415.045013</ele><time>2010-05-30T09:53:03Z</time></trkpt>
<trkpt lat="46.38116300" lon="6.49719200"><ele>415.290985</ele><time>2010-05-30T09:53:08Z</time></trkpt>
<trkpt lat="46.38111500" lon="6.49693500"><ele>416.095001</ele><time>2010-05-30T09:53:14Z</time></trkpt>
<trkpt lat="46.38112600" lon="6.49660000"><ele>416.812988</ele><time>2010-05-30T09:53:20Z</time></trkpt>
<trkpt lat="46.38112900" lon="6.49621300"><ele>417.459991</ele><time>2010-05-30T09:53:27Z</time></trkpt>
<trkpt lat="46.38110500" lon="6.49585600"><ele>418.290985</ele><time>2010-05-30T09:53:34Z</time></trkpt>
<trkpt lat="46.38104100" lon="6.49559700"><ele>418.356995</ele><time>2010-05-30T09:53:40Z</time></trkpt>
<trkpt lat="46.38091400" lon="6.49527100"><ele>419.028015</ele><time>2010-05-30T09:53:45Z</time></trkpt>
<trkpt lat="46.38081900" lon="6.49506100"><ele>420.058014</ele><time>2010-05-30T09:53:48Z</time></trkpt>
<trkpt lat="46.38052000" lon="6.49454100"><ele>420.268005</ele><time>2010-05-30T09:53:57Z</time></trkpt>
<trkpt lat="46.38020100" lon="6.49390400"><ele>420.51001</ele><time>2010-05-30T09:54:08Z</time></trkpt>
<trkpt lat="46.37984700" lon="6.49321200"><ele>421.127014</ele><time>2010-05-30T09:54:20Z</time></trkpt>
<trkpt lat="46.37957400" lon="6.49277600"><ele>421.450989</ele><time>2010-05-30T09:54:28Z</time></trkpt>
<trkpt lat="46.37926500" lon="6.49236100"><ele>421.407013</ele><time>2010-05-30T09:54:36Z</time></trkpt>
<trkpt lat="46.37890400" lon="6.49195000"><ele>421.437988</ele><time>2010-05-30T09:54:45Z</time></trkpt>
<trkpt lat="46.37848000" lon="6.49157200"><ele>421.209015</ele><time>2010-05-30T09:54:55Z</time></trkpt>
<trkpt lat="46.37813300" lon="6.49128100"><ele>420.722992</ele><time>2010-05-30T09:55:03Z</time></trkpt>
<trkpt lat="46.37766200" lon="6.49089700"><ele>422.342987</ele><time>2010-05-30T09:55:14Z</time></trkpt>
<trkpt lat="46.37723100" lon="6.49053300"><ele>421.315002</ele><time>2010-05-30T09:55:24Z</time></trkpt>
<trkpt lat="46.37683100" lon="6.49022700"><ele>421.419006</ele><time>2010-05-30T09:55:33Z</time></trkpt>
<trkpt lat="46.37647500" lon="6.48997600"><ele>422.371002</ele><time>2010-05-30T09:55:41Z</time></trkpt>
<trkpt lat="46.37615100" lon="6.48974100"><ele>422.579987</ele><time>2010-05-30T09:55:49Z</time></trkpt>
<trkpt lat="46.37579000" lon="6.48947800"><ele>423.035004</ele><time>2010-05-30T09:55:58Z</time></trkpt>
<trkpt lat="46.37535300" lon="6.48914200"><ele>424.654999</ele><time>2010-05-30T09:56:09Z</time></trkpt>
<trkpt lat="46.37499400" lon="6.48884800"><ele>425.256012</ele><time>2010-05-30T09:56:19Z</time></trkpt>
<trkpt lat="46.37464100" lon="6.48855000"><ele>425.850006</ele><time>2010-05-30T09:56:29Z</time></trkpt>
<trkpt lat="46.37427700" lon="6.48821100"><ele>426.425995</ele><time>2010-05-30T09:56:39Z</time></trkpt>
<trkpt lat="46.37393700" lon="6.48788600"><ele>427.971985</ele><time>2010-05-30T09:56:48Z</time></trkpt>
<trkpt lat="46.37364500" lon="6.48761100"><ele>427.783997</ele><time>2010-05-30T09:56:56Z</time></trkpt>
<trkpt lat="46.37328800" lon="6.48726800"><ele>428.066986</ele><time>2010-05-30T09:57:06Z</time></trkpt>
<trkpt lat="46.37285400" lon="6.48685500"><ele>429.544006</ele><time>2010-05-30T09:57:18Z</time></trkpt>
<trkpt lat="46.37249900" lon="6.48653100"><ele>430.183014</ele><time>2010-05-30T09:57:28Z</time></trkpt>
<trkpt lat="46.37236000" lon="6.48640500"><ele>430.372986</ele><time>2010-05-30T09:57:34Z</time></trkpt>
<trkpt lat="46.37224800" lon="6.48628500"><ele>430.631989</ele><time>2010-05-30T09:57:40Z</time></trkpt>
<trkpt lat="46.37221900" lon="6.48624900"><ele>430.88501</ele><time>2010-05-30T09:57:41Z</time></trkpt>
<trkpt lat="46.37190400" lon="6.48594700"><ele>430.904999</ele><time>2010-05-30T09:57:49Z</time></trkpt>
<trkpt lat="46.37178700" lon="6.48583200"><ele>432.348999</ele><time>2010-05-30T09:57:52Z</time></trkpt>
<trkpt lat="46.37150800" lon="6.48556700"><ele>431.656006</ele><time>2010-05-30T09:58:00Z</time></trkpt>
<trkpt lat="46.37119100" lon="6.48528000"><ele>431.95401</ele><time>2010-05-30T09:58:09Z</time></trkpt>
<trkpt lat="46.37093400" lon="6.48506400"><ele>433.822998</ele><time>2010-05-30T09:58:17Z</time></trkpt>
<trkpt lat="46.37075700" lon="6.48492100"><ele>433.424988</ele><time>2010-05-30T09:58:24Z</time></trkpt>
<trkpt lat="46.37061500" lon="6.48485600"><ele>432.890015</ele><time>2010-05-30T09:58:29Z</time></trkpt>
<trkpt lat="46.37033700" lon="6.48473100"><ele>433.615997</ele><time>2010-05-30T09:58:36Z</time></trkpt>
<trkpt lat="46.36995300" lon="6.48449900"><ele>434.075012</ele><time>2010-05-30T09:58:45Z</time></trkpt>
<trkpt lat="46.36973900" lon="6.48434500"><ele>435.699005</ele><time>2010-05-30T09:58:50Z</time></trkpt>
<trkpt lat="46.36940100" lon="6.48408400"><ele>437.540009</ele><time>2010-05-30T09:58:58Z</time></trkpt>
<trkpt lat="46.36929300" lon="6.48397200"><ele>438.51001</ele><time>2010-05-30T09:59:01Z</time></trkpt>
<trkpt lat="46.36902800" lon="6.48361900"><ele>440.158997</ele><time>2010-05-30T09:59:10Z</time></trkpt>
<trkpt lat="46.36879600" lon="6.48327900"><ele>441.708008</ele><time>2010-05-30T09:59:19Z</time></trkpt>
<trkpt lat="46.36860600" lon="6.48300700"><ele>442.723999</ele><time>2010-05-30T09:59:25Z</time></trkpt>
<trkpt lat="46.36843200" lon="6.48270100"><ele>443.572998</ele><time>2010-05-30T09:59:32Z</time></trkpt>
<trkpt lat="46.36835600" lon="6.48246500"><ele>444.011993</ele><time>2010-05-30T09:59:37Z</time></trkpt>
<trkpt lat="46.36824700" lon="6.48215600"><ele>443.575989</ele><time>2010-05-30T09:59:43Z</time></trkpt>
<trkpt lat="46.36807300" lon="6.48168900"><ele>442.497009</ele><time>2010-05-30T09:59:50Z</time></trkpt>
<trkpt lat="46.36786100" lon="6.48109000"><ele>441.014008</ele><time>2010-05-30T09:59:57Z</time></trkpt>
<trkpt lat="46.36768200" lon="6.48057900"><ele>439.313995</ele><time>2010-05-30T10:00:02Z</time></trkpt>
<trkpt lat="46.36754200" lon="6.48015000"><ele>438.425995</ele><time>2010-05-30T10:00:06Z</time></trkpt>
<trkpt lat="46.36741400" lon="6.47973000"><ele>437.705994</ele><time>2010-05-30T10:00:10Z</time></trkpt>
<trkpt lat="46.36726900" lon="6.47927400"><ele>437.580994</ele><time>2010-05-30T10:00:15Z</time></trkpt>
<trkpt lat="46.36714900" lon="6.47892700"><ele>437.94101</ele><time>2010-05-30T10:00:20Z</time></trkpt>
<trkpt lat="46.36708600" lon="6.47870500"><ele>437.286987</ele><time>2010-05-30T10:00:25Z</time></trkpt>
<trkpt lat="46.36705400" lon="6.47860800"><ele>437.536011</ele><time>2010-05-30T10:00:27Z</time></trkpt>
<trkpt lat="46.36688200" lon="6.47840100"><ele>437.925995</ele><time>2010-05-30T10:00:32Z</time></trkpt>
<trkpt lat="46.36679400" lon="6.47837700"><ele>438.425995</ele><time>2010-05-30T10:00:34Z</time></trkpt>
<trkpt lat="46.36657300" lon="6.47835900"><ele>439.210999</ele><time>2010-05-30T10:00:39Z</time></trkpt>
<trkpt lat="46.36640000" lon="6.47834000"><ele>440.092987</ele><time>2010-05-30T10:00:43Z</time></trkpt>
<trkpt lat="46.36607800" lon="6.47830400"><ele>441.605988</ele><time>2010-05-30T10:00:51Z</time></trkpt>
<trkpt lat="46.36576900" lon="6.47830400"><ele>443.549988</ele><time>2010-05-30T10:00:59Z</time></trkpt>
<trkpt lat="46.36549100" lon="6.47830800"><ele>444.385986</ele><time>2010-05-30T10:01:06Z</time></trkpt>
<trkpt lat="46.36514500" lon="6.47830200"><ele>444.746002</ele><time>2010-05-30T10:01:14Z</time></trkpt>
<trkpt lat="46.36491800" lon="6.47829100"><ele>445.477997</ele><time>2010-05-30T10:01:20Z</time></trkpt>
<trkpt lat="46.36458800" lon="6.47828400"><ele>445.972992</ele><time>2010-05-30T10:01:28Z</time></trkpt>
<trkpt lat="46.36445000" lon="6.47828800"><ele>445.330994</ele><time>2010-05-30T10:01:31Z</time></trkpt>
<trkpt lat="46.36423500" lon="6.47829400"><ele>446.299011</ele><time>2010-05-30T10:01:36Z</time></trkpt>
<trkpt lat="46.36383600" lon="6.47827300"><ele>445.752991</ele><time>2010-05-30T10:01:46Z</time></trkpt>
<trkpt lat="46.36362700" lon="6.47825900"><ele>445.549988</ele><time>2010-05-30T10:01:51Z</time></trkpt>
<trkpt lat="46.36318400" lon="6.47821900"><ele>445.888</ele><time>2010-05-30T10:02:01Z</time></trkpt>
<trkpt lat="46.36274700" lon="6.47820600"><ele>446.007996</ele><time>2010-05-30T10:02:10Z</time></trkpt>
<trkpt lat="46.36240700" lon="6.47817900"><ele>446.160004</ele><time>2010-05-30T10:02:17Z</time></trkpt>
<trkpt lat="46.36202700" lon="6.47815500"><ele>446.473999</ele><time>2010-05-30T10:02:25Z</time></trkpt>
<trkpt lat="46.36156300" lon="6.47806200"><ele>446.875</ele><time>2010-05-30T10:02:35Z</time></trkpt>
<trkpt lat="46.36147400" lon="6.47803200"><ele>447.054993</ele><time>2010-05-30T10:02:37Z</time></trkpt>
<trkpt lat="46.36135900" lon="6.47792600"><ele>447.079987</ele><time>2010-05-30T10:02:40Z</time></trkpt>
<trkpt lat="46.36123100" lon="6.47786900"><ele>447.722992</ele><time>2010-05-30T10:02:43Z</time></trkpt>
<trkpt lat="46.36097300" lon="6.47769300"><ele>449.53299</ele><time>2010-05-30T10:02:50Z</time></trkpt>
<trkpt lat="46.36078700" lon="6.47751200"><ele>450.510986</ele><time>2010-05-30T10:02:56Z</time></trkpt>
<trkpt lat="46.36054500" lon="6.47723600"><ele>452.464996</ele><time>2010-05-30T10:03:05Z</time></trkpt>
<trkpt lat="46.36036400" lon="6.47699000"><ele>454.134003</ele><time>2010-05-30T10:03:12Z</time></trkpt>
<trkpt lat="46.36017900" lon="6.47673700"><ele>454.117004</ele><time>2010-05-30T10:03:19Z</time></trkpt>
<trkpt lat="46.35996000" lon="6.47642600"><ele>454.428009</ele><time>2010-05-30T10:03:27Z</time></trkpt>
<trkpt lat="46.35970200" lon="6.47611000"><ele>454.459991</ele><time>2010-05-30T10:03:36Z</time></trkpt>
<trkpt lat="46.35956300" lon="6.47594600"><ele>455.179993</ele><time>2010-05-30T10:03:42Z</time></trkpt>
<trkpt lat="46.35944200" lon="6.47582200"><ele>455.21701</ele><time>2010-05-30T10:03:48Z</time></trkpt>
<trkpt lat="46.35938900" lon="6.47575500"><ele>455.076996</ele><time>2010-05-30T10:03:53Z</time></trkpt>
<trkpt lat="46.35938700" lon="6.47576000"><ele>455.32901</ele><time>2010-05-30T10:03:54Z</time></trkpt>
<trkpt lat="46.35926500" lon="6.47586500"><ele>454.658997</ele><time>2010-05-30T10:04:50Z</time></trkpt>
<trkpt lat="46.35925800" lon="6.47583800"><ele>454.931</ele><time>2010-05-30T10:04:51Z</time></trkpt>
<trkpt lat="46.35916600" lon="6.47561500"><ele>455.645996</ele><time>2010-05-30T10:04:57Z</time></trkpt>
<trkpt lat="46.35903800" lon="6.47535700"><ele>455.824005</ele><time>2010-05-30T10:05:02Z</time></trkpt>
<trkpt lat="46.35900900" lon="6.47530300"><ele>455.869995</ele><time>2010-05-30T10:05:03Z</time></trkpt>
<trkpt lat="46.35880500" lon="6.47484900"><ele>454.721985</ele><time>2010-05-30T10:05:11Z</time></trkpt>
<trkpt lat="46.35860200" lon="6.47439100"><ele>455.79599</ele><time>2010-05-30T10:05:19Z</time></trkpt>
<trkpt lat="46.35845700" lon="6.47407400"><ele>456.962006</ele><time>2010-05-30T10:05:25Z</time></trkpt>
<trkpt lat="46.35831900" lon="6.47377400"><ele>458.080994</ele><time>2010-05-30T10:05:31Z</time></trkpt>
<trkpt lat="46.35814400" lon="6.47342300"><ele>458.559998</ele><time>2010-05-30T10:05:38Z</time></trkpt>
<trkpt lat="46.35800900" lon="6.47311600"><ele>458.643005</ele><time>2010-05-30T10:05:43Z</time></trkpt>
<trkpt lat="46.35790200" lon="6.47289200"><ele>459.177002</ele><time>2010-05-30T10:05:47Z</time></trkpt>
<trkpt lat="46.35767900" lon="6.47254100"><ele>459.294006</ele><time>2010-05-30T10:05:54Z</time></trkpt>
<trkpt lat="46.35747900" lon="6.47225400"><ele>459.23999</ele><time>2010-05-30T10:06:00Z</time></trkpt>
<trkpt lat="46.35716900" lon="6.47191100"><ele>459.688995</ele><time>2010-05-30T10:06:08Z</time></trkpt>
<trkpt lat="46.35687000" lon="6.47156200"><ele>460.071014</ele><time>2010-05-30T10:06:16Z</time></trkpt>
<trkpt lat="46.35659700" lon="6.47124700"><ele>460.046997</ele><time>2010-05-30T10:06:23Z</time></trkpt>
<trkpt lat="46.35619100" lon="6.47078800"><ele>459.306</ele><time>2010-05-30T10:06:33Z</time></trkpt>
<trkpt lat="46.35577500" lon="6.47039300"><ele>457.416992</ele><time>2010-05-30T10:06:42Z</time></trkpt>
<trkpt lat="46.35545600" lon="6.47015600"><ele>458.756012</ele><time>2010-05-30T10:06:49Z</time></trkpt>
<trkpt lat="46.35503300" lon="6.46986400"><ele>458.411987</ele><time>2010-05-30T10:06:59Z</time></trkpt>
<trkpt lat="46.35486000" lon="6.46973800"><ele>458.890015</ele><time>2010-05-30T10:07:04Z</time></trkpt>
<trkpt lat="46.35459900" lon="6.46958200"><ele>459.367004</ele><time>2010-05-30T10:07:12Z</time></trkpt>
<trkpt lat="46.35432100" lon="6.46940000"><ele>459.17099</ele><time>2010-05-30T10:07:20Z</time></trkpt>
<trkpt lat="46.35412000" lon="6.46924700"><ele>458.467987</ele><time>2010-05-30T10:07:26Z</time></trkpt>
<trkpt lat="46.35384600" lon="6.46906100"><ele>458.582001</ele><time>2010-05-30T10:07:33Z</time></trkpt>
<trkpt lat="46.35348500" lon="6.46883000"><ele>458.300995</ele><time>2010-05-30T10:07:41Z</time></trkpt>
<trkpt lat="46.35334100" lon="6.46875200"><ele>456.84201</ele><time>2010-05-30T10:07:44Z</time></trkpt>
<trkpt lat="46.35305000" lon="6.46855900"><ele>456.813995</ele><time>2010-05-30T10:07:50Z</time></trkpt>
<trkpt lat="46.35268300" lon="6.46833600"><ele>457.011993</ele><time>2010-05-30T10:07:58Z</time></trkpt>
<trkpt lat="46.35233100" lon="6.46813200"><ele>456.360992</ele><time>2010-05-30T10:08:06Z</time></trkpt>
<trkpt lat="46.35207800" lon="6.46797500"><ele>456.723999</ele><time>2010-05-30T10:08:12Z</time></trkpt>
<trkpt lat="46.35200000" lon="6.46791300"><ele>457.001007</ele><time>2010-05-30T10:08:14Z</time></trkpt>
<trkpt lat="46.35190000" lon="6.46780300"><ele>458.307007</ele><time>2010-05-30T10:08:17Z</time></trkpt>
<trkpt lat="46.35176700" lon="6.46760100"><ele>458.222992</ele><time>2010-05-30T10:08:22Z</time></trkpt>
<trkpt lat="46.35164900" lon="6.46732000"><ele>459.537994</ele><time>2010-05-30T10:08:27Z</time></trkpt>
<trkpt lat="46.35150700" lon="6.46726300"><ele>459.648987</ele><time>2010-05-30T10:08:30Z</time></trkpt>
<trkpt lat="46.35145500" lon="6.46727400"><ele>459.425995</ele><time>2010-05-30T10:08:31Z</time></trkpt>
<trkpt lat="46.35108000" lon="6.46728400"><ele>459.941986</ele><time>2010-05-30T10:08:38Z</time></trkpt>
<trkpt lat="46.35082800" lon="6.46722400"><ele>461.757996</ele><time>2010-05-30T10:08:44Z</time></trkpt>
<trkpt lat="46.35057600" lon="6.46716700"><ele>462.601013</ele><time>2010-05-30T10:08:51Z</time></trkpt>
<trkpt lat="46.35032600" lon="6.46711000"><ele>463.544006</ele><time>2010-05-30T10:08:58Z</time></trkpt>
<trkpt lat="46.34996000" lon="6.46698600"><ele>464.229004</ele><time>2010-05-30T10:09:08Z</time></trkpt>
<trkpt lat="46.34956400" lon="6.46678700"><ele>465.438995</ele><time>2010-05-30T10:09:18Z</time></trkpt>
<trkpt lat="46.34920000" lon="6.46659800"><ele>465.962006</ele><time>2010-05-30T10:09:27Z</time></trkpt>
<trkpt lat="46.34912100" lon="6.46655400"><ele>466.431</ele><time>2010-05-30T10:09:29Z</time></trkpt>
<trkpt lat="46.34877200" lon="6.46634300"><ele>466.502014</ele><time>2010-05-30T10:09:38Z</time></trkpt>
<trkpt lat="46.34869500" lon="6.46629300"><ele>466.51001</ele><time>2010-05-30T10:09:40Z</time></trkpt>
<trkpt lat="46.34833100" lon="6.46602600"><ele>468.105988</ele><time>2010-05-30T10:09:50Z</time></trkpt>
<trkpt lat="46.34805300" lon="6.46581700"><ele>468.332001</ele><time>2010-05-30T10:09:58Z</time></trkpt>
<trkpt lat="46.34763700" lon="6.46549000"><ele>469.139008</ele><time>2010-05-30T10:10:09Z</time></trkpt>
<trkpt lat="46.34734900" lon="6.46527000"><ele>469.187988</ele><time>2010-05-30T10:10:17Z</time></trkpt>
<trkpt lat="46.34700400" lon="6.46504000"><ele>469.934998</ele><time>2010-05-30T10:10:26Z</time></trkpt>
<trkpt lat="46.34663300" lon="6.46486700"><ele>470.437012</ele><time>2010-05-30T10:10:35Z</time></trkpt>
<trkpt lat="46.34620000" lon="6.46471800"><ele>471.078003</ele><time>2010-05-30T10:10:45Z</time></trkpt>
<trkpt lat="46.34574300" lon="6.46464100"><ele>470.960999</ele><time>2010-05-30T10:10:54Z</time></trkpt>
<trkpt lat="46.34523600" lon="6.46461500"><ele>471.07901</ele><time>2010-05-30T10:11:03Z</time></trkpt>
<trkpt lat="46.34469300" lon="6.46459700"><ele>472.575989</ele><time>2010-05-30T10:11:13Z</time></trkpt>
<trkpt lat="46.34428000" lon="6.46455500"><ele>471.582001</ele><time>2010-05-30T10:11:21Z</time></trkpt>
<trkpt lat="46.34375100" lon="6.46445200"><ele>471.710999</ele><time>2010-05-30T10:11:31Z</time></trkpt>
<trkpt lat="46.34326300" lon="6.46426800"><ele>472.506989</ele><time>2010-05-30T10:11:41Z</time></trkpt>
<trkpt lat="46.34285000" lon="6.46402700"><ele>474.384003</ele><time>2010-05-30T10:11:50Z</time></trkpt>
<trkpt lat="46.34244600" lon="6.46371700"><ele>476.037994</ele><time>2010-05-30T10:12:00Z</time></trkpt>
<trkpt lat="46.34233500" lon="6.46361700"><ele>475.878998</ele><time>2010-05-30T10:12:03Z</time></trkpt>
<trkpt lat="46.34197500" lon="6.46323000"><ele>477.924988</ele><time>2010-05-30T10:12:14Z</time></trkpt>
<trkpt lat="46.34165100" lon="6.46280700"><ele>479.889008</ele><time>2010-05-30T10:12:26Z</time></trkpt>
<trkpt lat="46.34145100" lon="6.46249600"><ele>481.265991</ele><time>2010-05-30T10:12:34Z</time></trkpt>
<trkpt lat="46.34123500" lon="6.46209000"><ele>482.920013</ele><time>2010-05-30T10:12:44Z</time></trkpt>
<trkpt lat="46.34110400" lon="6.46181000"><ele>484.416992</ele><time>2010-05-30T10:12:51Z</time></trkpt>
<trkpt lat="46.34094400" lon="6.46139400"><ele>486.397003</ele><time>2010-05-30T10:13:01Z</time></trkpt>
<trkpt lat="46.34081600" lon="6.46102600"><ele>488.153992</ele><time>2010-05-30T10:13:10Z</time></trkpt>
<trkpt lat="46.34066600" lon="6.46059200"><ele>490.278992</ele><time>2010-05-30T10:13:21Z</time></trkpt>
<trkpt lat="46.34053000" lon="6.46019300"><ele>492.559998</ele><time>2010-05-30T10:13:31Z</time></trkpt>
<trkpt lat="46.34040200" lon="6.45984800"><ele>493.416992</ele><time>2010-05-30T10:13:40Z</time></trkpt>
<trkpt lat="46.34021500" lon="6.45942500"><ele>494.790009</ele><time>2010-05-30T10:13:51Z</time></trkpt>
<trkpt lat="46.34012300" lon="6.45922500"><ele>495.747986</ele><time>2010-05-30T10:13:58Z</time></trkpt>
<trkpt lat="46.34012000" lon="6.45921900"><ele>495.73999</ele><time>2010-05-30T10:14:00Z</time></trkpt>
<trkpt lat="46.34009100" lon="6.45917500"><ele>494.92099</ele><time>2010-05-30T10:15:43Z</time></trkpt>
<trkpt lat="46.34007800" lon="6.45914900"><ele>494.84201</ele><time>2010-05-30T10:15:44Z</time></trkpt>
<trkpt lat="46.33995900" lon="6.45892900"><ele>495.597992</ele><time>2010-05-30T10:15:50Z</time></trkpt>
<trkpt lat="46.33972200" lon="6.45854700"><ele>497.334991</ele><time>2010-05-30T10:16:00Z</time></trkpt>
<trkpt lat="46.33951100" lon="6.45825800"><ele>498.381989</ele><time>2010-05-30T10:16:08Z</time></trkpt>
<trkpt lat="46.33923200" lon="6.45791600"><ele>499.688995</ele><time>2010-05-30T10:16:18Z</time></trkpt>
<trkpt lat="46.33902900" lon="6.45770000"><ele>500.364014</ele><time>2010-05-30T10:16:25Z</time></trkpt>
<trkpt lat="46.33871700" lon="6.45740000"><ele>501.476013</ele><time>2010-05-30T10:16:35Z</time></trkpt>
<trkpt lat="46.33833500" lon="6.45707500"><ele>502.631012</ele><time>2010-05-30T10:16:47Z</time></trkpt>
<trkpt lat="46.33800800" lon="6.45678700"><ele>504.878998</ele><time>2010-05-30T10:16:57Z</time></trkpt>
<trkpt lat="46.33767100" lon="6.45645500"><ele>505.996002</ele><time>2010-05-30T10:17:08Z</time></trkpt>
<trkpt lat="46.33741500" lon="6.45615400"><ele>507.246002</ele><time>2010-05-30T10:17:17Z</time></trkpt>
<trkpt lat="46.33721000" lon="6.45588000"><ele>507.94101</ele><time>2010-05-30T10:17:25Z</time></trkpt>
<trkpt lat="46.33696600" lon="6.45554300"><ele>510.44101</ele><time>2010-05-30T10:17:35Z</time></trkpt>
<trkpt lat="46.33676100" lon="6.45525000"><ele>512.517029</ele><time>2010-05-30T10:17:44Z</time></trkpt>
<trkpt lat="46.33653200" lon="6.45492900"><ele>514.304993</ele><time>2010-05-30T10:17:55Z</time></trkpt>
<trkpt lat="46.33631400" lon="6.45462400"><ele>516.237976</ele><time>2010-05-30T10:18:06Z</time></trkpt>
<trkpt lat="46.33612500" lon="6.45435300"><ele>518.643982</ele><time>2010-05-30T10:18:16Z</time></trkpt>
<trkpt lat="46.33598900" lon="6.45415400"><ele>519.552979</ele><time>2010-05-30T10:18:23Z</time></trkpt>
<trkpt lat="46.33582400" lon="6.45393000"><ele>520.197021</ele><time>2010-05-30T10:18:31Z</time></trkpt>
<trkpt lat="46.33568500" lon="6.45373100"><ele>521.265015</ele><time>2010-05-30T10:18:38Z</time></trkpt>
<trkpt lat="46.33549500" lon="6.45346100"><ele>523.281006</ele><time>2010-05-30T10:18:48Z</time></trkpt>
<trkpt lat="46.33533600" lon="6.45324000"><ele>524.788025</ele><time>2010-05-30T10:18:57Z</time></trkpt>
<trkpt lat="46.33519100" lon="6.45303800"><ele>525.494995</ele><time>2010-05-30T10:19:05Z</time></trkpt>
<trkpt lat="46.33502700" lon="6.45279700"><ele>526.703979</ele><time>2010-05-30T10:19:14Z</time></trkpt>
<trkpt lat="46.33483300" lon="6.45252700"><ele>527.971008</ele><time>2010-05-30T10:19:24Z</time></trkpt>
<trkpt lat="46.33458700" lon="6.45218300"><ele>529.726013</ele><time>2010-05-30T10:19:36Z</time></trkpt>
<trkpt lat="46.33439000" lon="6.45190800"><ele>530.432983</ele><time>2010-05-30T10:19:45Z</time></trkpt>
<trkpt lat="46.33417400" lon="6.45160300"><ele>530.817017</ele><time>2010-05-30T10:19:55Z</time></trkpt>
<trkpt lat="46.33399000" lon="6.45134100"><ele>531.721008</ele><time>2010-05-30T10:20:03Z</time></trkpt>
<trkpt lat="46.33379600" lon="6.45108600"><ele>531.947021</ele><time>2010-05-30T10:20:11Z</time></trkpt>
<trkpt lat="46.33352300" lon="6.45075200"><ele>533.364014</ele><time>2010-05-30T10:20:21Z</time></trkpt>
<trkpt lat="46.33319500" lon="6.45040800"><ele>532.825989</ele><time>2010-05-30T10:20:31Z</time></trkpt>
<trkpt lat="46.33283300" lon="6.45010500"><ele>531.942017</ele><time>2010-05-30T10:20:41Z</time></trkpt>
<trkpt lat="46.33252500" lon="6.44990600"><ele>531.085022</ele><time>2010-05-30T10:20:48Z</time></trkpt>
<trkpt lat="46.33204300" lon="6.44959200"><ele>529.690979</ele><time>2010-05-30T10:20:57Z</time></trkpt>
<trkpt lat="46.33162500" lon="6.44928800"><ele>527.366028</ele><time>2010-05-30T10:21:04Z</time></trkpt>
<trkpt lat="46.33133400" lon="6.44903200"><ele>526.705017</ele><time>2010-05-30T10:21:09Z</time></trkpt>
<trkpt lat="46.33097000" lon="6.44863700"><ele>524.18103</ele><time>2010-05-30T10:21:16Z</time></trkpt>
<trkpt lat="46.33059700" lon="6.44815700"><ele>522.072998</ele><time>2010-05-30T10:21:24Z</time></trkpt>
<trkpt lat="46.33036800" lon="6.44784900"><ele>520.474976</ele><time>2010-05-30T10:21:29Z</time></trkpt>
<trkpt lat="46.32988900" lon="6.44721600"><ele>517.262024</ele><time>2010-05-30T10:21:39Z</time></trkpt>
<trkpt lat="46.32956500" lon="6.44683500"><ele>514.419983</ele><time>2010-05-30T10:21:45Z</time></trkpt>
<trkpt lat="46.32940500" lon="6.44652400"><ele>513.135986</ele><time>2010-05-30T10:21:49Z</time></trkpt>
<trkpt lat="46.32919000" lon="6.44620000"><ele>512.065002</ele><time>2010-05-30T10:21:54Z</time></trkpt>
<trkpt lat="46.32898500" lon="6.44623800"><ele>510.674988</ele><time>2010-05-30T10:21:57Z</time></trkpt>
<trkpt lat="46.32884000" lon="6.44622900"><ele>510.359009</ele><time>2010-05-30T10:21:59Z</time></trkpt>
<trkpt lat="46.32827900" lon="6.44599900"><ele>508.307007</ele><time>2010-05-30T10:22:06Z</time></trkpt>
<trkpt lat="46.32785800" lon="6.44579700"><ele>506.063995</ele><time>2010-05-30T10:22:11Z</time></trkpt>
<trkpt lat="46.32700600" lon="6.44539800"><ele>503.580994</ele><time>2010-05-30T10:22:21Z</time></trkpt>
<trkpt lat="46.32620500" lon="6.44497800"><ele>501.963013</ele><time>2010-05-30T10:22:31Z</time></trkpt>
<trkpt lat="46.32571600" lon="6.44463400"><ele>500.81601</ele><time>2010-05-30T10:22:38Z</time></trkpt>
<trkpt lat="46.32509900" lon="6.44412000"><ele>499.018005</ele><time>2010-05-30T10:22:47Z</time></trkpt>
<trkpt lat="46.32455300" lon="6.44366700"><ele>497.040009</ele><time>2010-05-30T10:22:55Z</time></trkpt>
<trkpt lat="46.32414800" lon="6.44338600"><ele>494.039001</ele><time>2010-05-30T10:23:01Z</time></trkpt>
<trkpt lat="46.32407800" lon="6.44334000"><ele>493.842987</ele><time>2010-05-30T10:23:02Z</time></trkpt>
<trkpt lat="46.32355600" lon="6.44300700"><ele>491.311005</ele><time>2010-05-30T10:23:09Z</time></trkpt>
<trkpt lat="46.32340000" lon="6.44291200"><ele>490.359009</ele><time>2010-05-30T10:23:11Z</time></trkpt>
<trkpt lat="46.32279100" lon="6.44253700"><ele>488.514008</ele><time>2010-05-30T10:23:19Z</time></trkpt>
<trkpt lat="46.32235900" lon="6.44234400"><ele>488.040985</ele><time>2010-05-30T10:23:25Z</time></trkpt>
<trkpt lat="46.32184500" lon="6.44218800"><ele>488.054993</ele><time>2010-05-30T10:23:33Z</time></trkpt>
<trkpt lat="46.32161800" lon="6.44214000"><ele>488.510986</ele><time>2010-05-30T10:23:37Z</time></trkpt>
<trkpt lat="46.32125600" lon="6.44207000"><ele>489.115997</ele><time>2010-05-30T10:23:44Z</time></trkpt>
<trkpt lat="46.32100800" lon="6.44202700"><ele>489.444</ele><time>2010-05-30T10:23:49Z</time></trkpt>
<trkpt lat="46.32081000" lon="6.44199000"><ele>489.934998</ele><time>2010-05-30T10:23:53Z</time></trkpt>
<trkpt lat="46.32061400" lon="6.44195200"><ele>490.761993</ele><time>2010-05-30T10:23:57Z</time></trkpt>
<trkpt lat="46.32033900" lon="6.44190200"><ele>491.105011</ele><time>2010-05-30T10:24:03Z</time></trkpt>
<trkpt lat="46.32002200" lon="6.44184200"><ele>492.234009</ele><time>2010-05-30T10:24:10Z</time></trkpt>
<trkpt lat="46.31953200" lon="6.44175500"><ele>493.609009</ele><time>2010-05-30T10:24:21Z</time></trkpt>
<trkpt lat="46.31914600" lon="6.44168600"><ele>494.765991</ele><time>2010-05-30T10:24:30Z</time></trkpt>
<trkpt lat="46.31881600" lon="6.44162500"><ele>495.631012</ele><time>2010-05-30T10:24:38Z</time></trkpt>
<trkpt lat="46.31845100" lon="6.44158300"><ele>495.996002</ele><time>2010-05-30T10:24:46Z</time></trkpt>
<trkpt lat="46.31802500" lon="6.44154100"><ele>495.682007</ele><time>2010-05-30T10:24:55Z</time></trkpt>
<trkpt lat="46.31754900" lon="6.44149900"><ele>497.156006</ele><time>2010-05-30T10:25:06Z</time></trkpt>
<trkpt lat="46.31719800" lon="6.44147200"><ele>497.772003</ele><time>2010-05-30T10:25:15Z</time></trkpt>
<trkpt lat="46.31693500" lon="6.44144800"><ele>499.220001</ele><time>2010-05-30T10:25:22Z</time></trkpt>
<trkpt lat="46.31657800" lon="6.44141900"><ele>500.067993</ele><time>2010-05-30T10:25:32Z</time></trkpt>
<trkpt lat="46.31620800" lon="6.44139100"><ele>500.985992</ele><time>2010-05-30T10:25:42Z</time></trkpt>
<trkpt lat="46.31604500" lon="6.44138100"><ele>500.878998</ele><time>2010-05-30T10:25:46Z</time></trkpt>
<trkpt lat="46.31561600" lon="6.44133200"><ele>500.536987</ele><time>2010-05-30T10:25:55Z</time></trkpt>
<trkpt lat="46.31520600" lon="6.44122200"><ele>499.06601</ele><time>2010-05-30T10:26:02Z</time></trkpt>
<trkpt lat="46.31480100" lon="6.44101300"><ele>498.140991</ele><time>2010-05-30T10:26:08Z</time></trkpt>
<trkpt lat="46.31420100" lon="6.44064500"><ele>497.761993</ele><time>2010-05-30T10:26:17Z</time></trkpt>
<trkpt lat="46.31387000" lon="6.44047500"><ele>497.553009</ele><time>2010-05-30T10:26:23Z</time></trkpt>
<trkpt lat="46.31347700" lon="6.44036000"><ele>498.352997</ele><time>2010-05-30T10:26:31Z</time></trkpt>
<trkpt lat="46.31305400" lon="6.44034400"><ele>499.342987</ele><time>2010-05-30T10:26:40Z</time></trkpt>
<trkpt lat="46.31292600" lon="6.44034300"><ele>499.77301</ele><time>2010-05-30T10:26:43Z</time></trkpt>
<trkpt lat="46.31284400" lon="6.44035200"><ele>500.285004</ele><time>2010-05-30T10:26:45Z</time></trkpt>
<trkpt lat="46.31247900" lon="6.44039400"><ele>501.028992</ele><time>2010-05-30T10:26:54Z</time></trkpt>
<trkpt lat="46.31208000" lon="6.44044900"><ele>502.433014</ele><time>2010-05-30T10:27:04Z</time></trkpt>
<trkpt lat="46.31180100" lon="6.44048600"><ele>503.279999</ele><time>2010-05-30T10:27:11Z</time></trkpt>
<trkpt lat="46.31143100" lon="6.44054100"><ele>504.261993</ele><time>2010-05-30T10:27:20Z</time></trkpt>
<trkpt lat="46.31107400" lon="6.44059100"><ele>505.738007</ele><time>2010-05-30T10:27:29Z</time></trkpt>
<trkpt lat="46.31078200" lon="6.44063000"><ele>507.785004</ele><time>2010-05-30T10:27:38Z</time></trkpt>
<trkpt lat="46.31053600" lon="6.44064200"><ele>509.549011</ele><time>2010-05-30T10:27:46Z</time></trkpt>
<trkpt lat="46.31033500" lon="6.44060700"><ele>511.312988</ele><time>2010-05-30T10:27:53Z</time></trkpt>
<trkpt lat="46.31011800" lon="6.44054900"><ele>513.414978</ele><time>2010-05-30T10:28:01Z</time></trkpt>
<trkpt lat="46.30990400" lon="6.44039000"><ele>515.312988</ele><time>2010-05-30T10:28:10Z</time></trkpt>
<trkpt lat="46.30968800" lon="6.44022100"><ele>517.22998</ele><time>2010-05-30T10:28:19Z</time></trkpt>
<trkpt lat="46.30949300" lon="6.44008700"><ele>518.768982</ele><time>2010-05-30T10:28:28Z</time></trkpt>
<trkpt lat="46.30931100" lon="6.43998200"><ele>519.322998</ele><time>2010-05-30T10:28:36Z</time></trkpt>
<trkpt lat="46.30921500" lon="6.43993800"><ele>521.51001</ele><time>2010-05-30T10:28:40Z</time></trkpt>
<trkpt lat="46.30904500" lon="6.43986700"><ele>522.973022</ele><time>2010-05-30T10:28:47Z</time></trkpt>
<trkpt lat="46.30886800" lon="6.43980900"><ele>523.919006</ele><time>2010-05-30T10:28:54Z</time></trkpt>
<trkpt lat="46.30873700" lon="6.43978100"><ele>524.849976</ele><time>2010-05-30T10:28:59Z</time></trkpt>
<trkpt lat="46.30854200" lon="6.43971900"><ele>526.302002</ele><time>2010-05-30T10:29:07Z</time></trkpt>
<trkpt lat="46.30837000" lon="6.43965700"><ele>527.388977</ele><time>2010-05-30T10:29:14Z</time></trkpt>
<trkpt lat="46.30816300" lon="6.43959900"><ele>528.534973</ele><time>2010-05-30T10:29:22Z</time></trkpt>
<trkpt lat="46.30785700" lon="6.43949900"><ele>530.26001</ele><time>2010-05-30T10:29:33Z</time></trkpt>
<trkpt lat="46.30756800" lon="6.43941800"><ele>531.713013</ele><time>2010-05-30T10:29:42Z</time></trkpt>
<trkpt lat="46.30730500" lon="6.43933600"><ele>532.612</ele><time>2010-05-30T10:29:50Z</time></trkpt>
<trkpt lat="46.30707300" lon="6.43925400"><ele>532.888</ele><time>2010-05-30T10:29:57Z</time></trkpt>
<trkpt lat="46.30677800" lon="6.43914700"><ele>534.179993</ele><time>2010-05-30T10:30:06Z</time></trkpt>
<trkpt lat="46.30646200" lon="6.43900000"><ele>535.940002</ele><time>2010-05-30T10:30:16Z</time></trkpt>
<trkpt lat="46.30611700" lon="6.43884400"><ele>537.934021</ele><time>2010-05-30T10:30:27Z</time></trkpt>
<trkpt lat="46.30580600" lon="6.43871400"><ele>539.536011</ele><time>2010-05-30T10:30:37Z</time></trkpt>
<trkpt lat="46.30557000" lon="6.43860700"><ele>540.028015</ele><time>2010-05-30T10:30:45Z</time></trkpt>
<trkpt lat="46.30536100" lon="6.43849700"><ele>541.382996</ele><time>2010-05-30T10:30:52Z</time></trkpt>
<trkpt lat="46.30509600" lon="6.43830300"><ele>542.56897</ele><time>2010-05-30T10:31:01Z</time></trkpt>
<trkpt lat="46.30482900" lon="6.43803100"><ele>542.895996</ele><time>2010-05-30T10:31:10Z</time></trkpt>
<trkpt lat="46.30465000" lon="6.43782500"><ele>542.963013</ele><time>2010-05-30T10:31:16Z</time></trkpt>
<trkpt lat="46.30438100" lon="6.43751400"><ele>542.585999</ele><time>2010-05-30T10:31:24Z</time></trkpt>
<trkpt lat="46.30413400" lon="6.43720500"><ele>541.541016</ele><time>2010-05-30T10:31:32Z</time></trkpt>
<trkpt lat="46.30404100" lon="6.43708800"><ele>541.656006</ele><time>2010-05-30T10:31:35Z</time></trkpt>
<trkpt lat="46.30380100" lon="6.43681200"><ele>541.718018</ele><time>2010-05-30T10:31:42Z</time></trkpt>
<trkpt lat="46.30362500" lon="6.43660400"><ele>541.705017</ele><time>2010-05-30T10:31:48Z</time></trkpt>
<trkpt lat="46.30356200" lon="6.43650700"><ele>541.567017</ele><time>2010-05-30T10:31:52Z</time></trkpt>
<trkpt lat="46.30341400" lon="6.43635100"><ele>542.073975</ele><time>2010-05-30T10:31:57Z</time></trkpt>
<trkpt lat="46.30310000" lon="6.43601600"><ele>542.41803</ele><time>2010-05-30T10:32:06Z</time></trkpt>
<trkpt lat="46.30275200" lon="6.43574100"><ele>542.994995</ele><time>2010-05-30T10:32:15Z</time></trkpt>
<trkpt lat="46.30248600" lon="6.43556900"><ele>542.971008</ele><time>2010-05-30T10:32:21Z</time></trkpt>
<trkpt lat="46.30203100" lon="6.43534600"><ele>543.169006</ele><time>2010-05-30T10:32:30Z</time></trkpt>
<trkpt lat="46.30165100" lon="6.43518100"><ele>543.309021</ele><time>2010-05-30T10:32:37Z</time></trkpt>
<trkpt lat="46.30123900" lon="6.43501300"><ele>543</ele><time>2010-05-30T10:32:45Z</time></trkpt>
<trkpt lat="46.30077000" lon="6.43483100"><ele>543.565979</ele><time>2010-05-30T10:32:55Z</time></trkpt>
<trkpt lat="46.30037400" lon="6.43467700"><ele>543.916992</ele><time>2010-05-30T10:33:04Z</time></trkpt>
<trkpt lat="46.30004400" lon="6.43454200"><ele>545.565002</ele><time>2010-05-30T10:33:12Z</time></trkpt>
<trkpt lat="46.29962800" lon="6.43435100"><ele>545.650024</ele><time>2010-05-30T10:33:22Z</time></trkpt>
<trkpt lat="46.29921900" lon="6.43406600"><ele>546.695984</ele><time>2010-05-30T10:33:32Z</time></trkpt>
<trkpt lat="46.29886500" lon="6.43369500"><ele>547.536987</ele><time>2010-05-30T10:33:42Z</time></trkpt>
<trkpt lat="46.29856000" lon="6.43325600"><ele>548.603027</ele><time>2010-05-30T10:33:52Z</time></trkpt>
<trkpt lat="46.29826500" lon="6.43281000"><ele>549.138</ele><time>2010-05-30T10:34:02Z</time></trkpt>
<trkpt lat="46.29790200" lon="6.43227500"><ele>551.39502</ele><time>2010-05-30T10:34:14Z</time></trkpt>
<trkpt lat="46.29775200" lon="6.43204900"><ele>551.536011</ele><time>2010-05-30T10:34:19Z</time></trkpt>
<trkpt lat="46.29753300" lon="6.43171400"><ele>552.348999</ele><time>2010-05-30T10:34:27Z</time></trkpt>
<trkpt lat="46.29730000" lon="6.43134100"><ele>552.947998</ele><time>2010-05-30T10:34:36Z</time></trkpt>
<trkpt lat="46.29722300" lon="6.43120000"><ele>553.166016</ele><time>2010-05-30T10:34:41Z</time></trkpt>
<trkpt lat="46.29720800" lon="6.43117200"><ele>553.039001</ele><time>2010-05-30T10:34:44Z</time></trkpt>
<trkpt lat="46.29717500" lon="6.43115600"><ele>553.585022</ele><time>2010-05-30T10:35:21Z</time></trkpt>
<trkpt lat="46.29706900" lon="6.43099500"><ele>553.088989</ele><time>2010-05-30T10:35:26Z</time></trkpt>
<trkpt lat="46.29685600" lon="6.43066200"><ele>552.645996</ele><time>2010-05-30T10:35:33Z</time></trkpt>
<trkpt lat="46.29651800" lon="6.43014500"><ele>553.432983</ele><time>2010-05-30T10:35:42Z</time></trkpt>
<trkpt lat="46.29616700" lon="6.42961700"><ele>552.010986</ele><time>2010-05-30T10:35:51Z</time></trkpt>
<trkpt lat="46.29582500" lon="6.42915900"><ele>551.859985</ele><time>2010-05-30T10:35:59Z</time></trkpt>
<trkpt lat="46.29548900" lon="6.42890200"><ele>551.437988</ele><time>2010-05-30T10:36:05Z</time></trkpt>
<trkpt lat="46.29492200" lon="6.42859300"><ele>550.728027</ele><time>2010-05-30T10:36:14Z</time></trkpt>
<trkpt lat="46.29439800" lon="6.42831200"><ele>550.534973</ele><time>2010-05-30T10:36:23Z</time></trkpt>
<trkpt lat="46.29394000" lon="6.42807200"><ele>551.854004</ele><time>2010-05-30T10:36:32Z</time></trkpt>
<trkpt lat="46.29359300" lon="6.42789100"><ele>552.901001</ele><time>2010-05-30T10:36:40Z</time></trkpt>
<trkpt lat="46.29355300" lon="6.42786800"><ele>552.940979</ele><time>2010-05-30T10:36:41Z</time></trkpt>
<trkpt lat="46.29311800" lon="6.42764400"><ele>553.994995</ele><time>2010-05-30T10:36:51Z</time></trkpt>
<trkpt lat="46.29275400" lon="6.42745800"><ele>554.094971</ele><time>2010-05-30T10:36:59Z</time></trkpt>
<trkpt lat="46.29242900" lon="6.42726600"><ele>554.640015</ele><time>2010-05-30T10:37:06Z</time></trkpt>
<trkpt lat="46.29205000" lon="6.42698500"><ele>555.317993</ele><time>2010-05-30T10:37:14Z</time></trkpt>
<trkpt lat="46.29170200" lon="6.42661300"><ele>555.643005</ele><time>2010-05-30T10:37:22Z</time></trkpt>
<trkpt lat="46.29140000" lon="6.42619800"><ele>555.85498</ele><time>2010-05-30T10:37:30Z</time></trkpt>
<trkpt lat="46.29104400" lon="6.42566800"><ele>555.442993</ele><time>2010-05-30T10:37:40Z</time></trkpt>
<trkpt lat="46.29068100" lon="6.42508600"><ele>554.981018</ele><time>2010-05-30T10:37:50Z</time></trkpt>
<trkpt lat="46.29034300" lon="6.42454500"><ele>553.773987</ele><time>2010-05-30T10:37:59Z</time></trkpt>
<trkpt lat="46.29001800" lon="6.42408000"><ele>553.078979</ele><time>2010-05-30T10:38:06Z</time></trkpt>
<trkpt lat="46.28968700" lon="6.42362700"><ele>552.060974</ele><time>2010-05-30T10:38:13Z</time></trkpt>
<trkpt lat="46.28926100" lon="6.42300100"><ele>551.060974</ele><time>2010-05-30T10:38:23Z</time></trkpt>
<trkpt lat="46.28894300" lon="6.42251400"><ele>551.445007</ele><time>2010-05-30T10:38:31Z</time></trkpt>
<trkpt lat="46.28871000" lon="6.42211300"><ele>550.892029</ele><time>2010-05-30T10:38:38Z</time></trkpt>
<trkpt lat="46.28846200" lon="6.42169200"><ele>552.065979</ele><time>2010-05-30T10:38:46Z</time></trkpt>
<trkpt lat="46.28817100" lon="6.42126800"><ele>551.541016</ele><time>2010-05-30T10:38:54Z</time></trkpt>
<trkpt lat="46.28780000" lon="6.42087500"><ele>551.502014</ele><time>2010-05-30T10:39:02Z</time></trkpt>
<trkpt lat="46.28745800" lon="6.42058500"><ele>551.570984</ele><time>2010-05-30T10:39:09Z</time></trkpt>
<trkpt lat="46.28701600" lon="6.42021100"><ele>550.78302</ele><time>2010-05-30T10:39:18Z</time></trkpt>
<trkpt lat="46.28662700" lon="6.41980600"><ele>549.093018</ele><time>2010-05-30T10:39:26Z</time></trkpt>
<trkpt lat="46.28653400" lon="6.41967600"><ele>548.380981</ele><time>2010-05-30T10:39:28Z</time></trkpt>
<trkpt lat="46.28648800" lon="6.41960200"><ele>547.690979</ele><time>2010-05-30T10:39:29Z</time></trkpt>
<trkpt lat="46.28623900" lon="6.41903500"><ele>544.544006</ele><time>2010-05-30T10:39:35Z</time></trkpt>
<trkpt lat="46.28617800" lon="6.41880200"><ele>543.594971</ele><time>2010-05-30T10:39:37Z</time></trkpt>
<trkpt lat="46.28606500" lon="6.41831200"><ele>542.155029</ele><time>2010-05-30T10:39:41Z</time></trkpt>
<trkpt lat="46.28591300" lon="6.41768000"><ele>540.281006</ele><time>2010-05-30T10:39:46Z</time></trkpt>
<trkpt lat="46.28579000" lon="6.41717600"><ele>537.211975</ele><time>2010-05-30T10:39:50Z</time></trkpt>
<trkpt lat="46.28575600" lon="6.41705200"><ele>537.018005</ele><time>2010-05-30T10:39:51Z</time></trkpt>
<trkpt lat="46.28558000" lon="6.41646100"><ele>536.551025</ele><time>2010-05-30T10:39:56Z</time></trkpt>
<trkpt lat="46.28535300" lon="6.41550500"><ele>533.15802</ele><time>2010-05-30T10:40:04Z</time></trkpt>
<trkpt lat="46.28511200" lon="6.41469500"><ele>533.833984</ele><time>2010-05-30T10:40:11Z</time></trkpt>
<trkpt lat="46.28487000" lon="6.41423500"><ele>534.356995</ele><time>2010-05-30T10:40:16Z</time></trkpt>
<trkpt lat="46.28445600" lon="6.41359500"><ele>534.426025</ele><time>2010-05-30T10:40:24Z</time></trkpt>
<trkpt lat="46.28403200" lon="6.41293100"><ele>533.594971</ele><time>2010-05-30T10:40:33Z</time></trkpt>
<trkpt lat="46.28374000" lon="6.41246900"><ele>534.174011</ele><time>2010-05-30T10:40:40Z</time></trkpt>
<trkpt lat="46.28347300" lon="6.41203200"><ele>534.637024</ele><time>2010-05-30T10:40:47Z</time></trkpt>
<trkpt lat="46.28308200" lon="6.41141400"><ele>534.440002</ele><time>2010-05-30T10:40:57Z</time></trkpt>
<trkpt lat="46.28263300" lon="6.41069800"><ele>533.905029</ele><time>2010-05-30T10:41:08Z</time></trkpt>
<trkpt lat="46.28235700" lon="6.41016700"><ele>533.380981</ele><time>2010-05-30T10:41:16Z</time></trkpt>
<trkpt lat="46.28216200" lon="6.40968500"><ele>533.882019</ele><time>2010-05-30T10:41:23Z</time></trkpt>
<trkpt lat="46.28202400" lon="6.40924800"><ele>534.85199</ele><time>2010-05-30T10:41:30Z</time></trkpt>
<trkpt lat="46.28187200" lon="6.40875200"><ele>536.484985</ele><time>2010-05-30T10:41:39Z</time></trkpt>
<trkpt lat="46.28172500" lon="6.40827700"><ele>538.924988</ele><time>2010-05-30T10:41:48Z</time></trkpt>
<trkpt lat="46.28161600" lon="6.40792300"><ele>539.89502</ele><time>2010-05-30T10:41:55Z</time></trkpt>
<trkpt lat="46.28147400" lon="6.40750000"><ele>540.91803</ele><time>2010-05-30T10:42:03Z</time></trkpt>
<trkpt lat="46.28125300" lon="6.40700900"><ele>540.929016</ele><time>2010-05-30T10:42:12Z</time></trkpt>
<trkpt lat="46.28094600" lon="6.40654900"><ele>541.268982</ele><time>2010-05-30T10:42:21Z</time></trkpt>
<trkpt lat="46.28061600" lon="6.40614400"><ele>542.034973</ele><time>2010-05-30T10:42:30Z</time></trkpt>
<trkpt lat="46.28022000" lon="6.40563900"><ele>541.45697</ele><time>2010-05-30T10:42:41Z</time></trkpt>
<trkpt lat="46.27997300" lon="6.40523500"><ele>541.604004</ele><time>2010-05-30T10:42:49Z</time></trkpt>
<trkpt lat="46.27977900" lon="6.40477800"><ele>541.963013</ele><time>2010-05-30T10:42:57Z</time></trkpt>
<trkpt lat="46.27956000" lon="6.40414300"><ele>541.39502</ele><time>2010-05-30T10:43:07Z</time></trkpt>
<trkpt lat="46.27933800" lon="6.40347600"><ele>541.895996</ele><time>2010-05-30T10:43:17Z</time></trkpt>
<trkpt lat="46.27915200" lon="6.40292400"><ele>543.176025</ele><time>2010-05-30T10:43:26Z</time></trkpt>
<trkpt lat="46.27896500" lon="6.40248300"><ele>544.468994</ele><time>2010-05-30T10:43:34Z</time></trkpt>
<trkpt lat="46.27871400" lon="6.40203400"><ele>545.174988</ele><time>2010-05-30T10:43:43Z</time></trkpt>
<trkpt lat="46.27846100" lon="6.40163600"><ele>545.554993</ele><time>2010-05-30T10:43:52Z</time></trkpt>
<trkpt lat="46.27817600" lon="6.40119200"><ele>546.547974</ele><time>2010-05-30T10:44:02Z</time></trkpt>
<trkpt lat="46.27789500" lon="6.40075100"><ele>547.432983</ele><time>2010-05-30T10:44:12Z</time></trkpt>
<trkpt lat="46.27758400" lon="6.40025900"><ele>547.848022</ele><time>2010-05-30T10:44:23Z</time></trkpt>
<trkpt lat="46.27730700" lon="6.39982400"><ele>548.971985</ele><time>2010-05-30T10:44:32Z</time></trkpt>
<trkpt lat="46.27710600" lon="6.39950100"><ele>548.616028</ele><time>2010-05-30T10:44:39Z</time></trkpt>
<trkpt lat="46.27686000" lon="6.39912500"><ele>547.731018</ele><time>2010-05-30T10:44:46Z</time></trkpt>
<trkpt lat="46.27656000" lon="6.39869300"><ele>547.495972</ele><time>2010-05-30T10:44:53Z</time></trkpt>
<trkpt lat="46.27611200" lon="6.39816700"><ele>547.344971</ele><time>2010-05-30T10:45:01Z</time></trkpt>
<trkpt lat="46.27582100" lon="6.39786200"><ele>548.414001</ele><time>2010-05-30T10:45:07Z</time></trkpt>
<trkpt lat="46.27556000" lon="6.39759300"><ele>547.432983</ele><time>2010-05-30T10:45:14Z</time></trkpt>
<trkpt lat="46.27525300" lon="6.39727100"><ele>549.213013</ele><time>2010-05-30T10:45:23Z</time></trkpt>
<trkpt lat="46.27497800" lon="6.39698400"><ele>550.028992</ele><time>2010-05-30T10:45:31Z</time></trkpt>
<trkpt lat="46.27468000" lon="6.39663000"><ele>551.465027</ele><time>2010-05-30T10:45:41Z</time></trkpt>
<trkpt lat="46.27443700" lon="6.39625400"><ele>552.96698</ele><time>2010-05-30T10:45:51Z</time></trkpt>
<trkpt lat="46.27418400" lon="6.39582400"><ele>553.880005</ele><time>2010-05-30T10:46:01Z</time></trkpt>
<trkpt lat="46.27395300" lon="6.39543400"><ele>553.786011</ele><time>2010-05-30T10:46:09Z</time></trkpt>
<trkpt lat="46.27372700" lon="6.39503500"><ele>553.156006</ele><time>2010-05-30T10:46:17Z</time></trkpt>
<trkpt lat="46.27359300" lon="6.39475800"><ele>552.77301</ele><time>2010-05-30T10:46:22Z</time></trkpt>
<trkpt lat="46.27336400" lon="6.39410200"><ele>552.822021</ele><time>2010-05-30T10:46:32Z</time></trkpt>
<trkpt lat="46.27323000" lon="6.39356000"><ele>553.632019</ele><time>2010-05-30T10:46:40Z</time></trkpt>
<trkpt lat="46.27310100" lon="6.39300600"><ele>554.594971</ele><time>2010-05-30T10:46:48Z</time></trkpt>
<trkpt lat="46.27293400" lon="6.39238000"><ele>554.643982</ele><time>2010-05-30T10:46:57Z</time></trkpt>
<trkpt lat="46.27273300" lon="6.39181200"><ele>553.593994</ele><time>2010-05-30T10:47:05Z</time></trkpt>
<trkpt lat="46.27253400" lon="6.39126400"><ele>552.440002</ele><time>2010-05-30T10:47:13Z</time></trkpt>
<trkpt lat="46.27227400" lon="6.39056800"><ele>552.455994</ele><time>2010-05-30T10:47:22Z</time></trkpt>
<trkpt lat="46.27203400" lon="6.38990700"><ele>551.401978</ele><time>2010-05-30T10:47:30Z</time></trkpt>
<trkpt lat="46.27176700" lon="6.38917400"><ele>551.39801</ele><time>2010-05-30T10:47:39Z</time></trkpt>
<trkpt lat="46.27141300" lon="6.38819600"><ele>551.169006</ele><time>2010-05-30T10:47:51Z</time></trkpt>
<trkpt lat="46.27110200" lon="6.38735200"><ele>550.651001</ele><time>2010-05-30T10:48:01Z</time></trkpt>
<trkpt lat="46.27078100" lon="6.38650400"><ele>548.786011</ele><time>2010-05-30T10:48:10Z</time></trkpt>
<trkpt lat="46.27047600" lon="6.38573100"><ele>548.455994</ele><time>2010-05-30T10:48:17Z</time></trkpt>
<trkpt lat="46.27006800" lon="6.38465400"><ele>546.674988</ele><time>2010-05-30T10:48:26Z</time></trkpt>
<trkpt lat="46.26958000" lon="6.38335300"><ele>544.348999</ele><time>2010-05-30T10:48:37Z</time></trkpt>
<trkpt lat="46.26920800" lon="6.38236600"><ele>543.872986</ele><time>2010-05-30T10:48:46Z</time></trkpt>
<trkpt lat="46.26891300" lon="6.38158100"><ele>544.190979</ele><time>2010-05-30T10:48:54Z</time></trkpt>
<trkpt lat="46.26870900" lon="6.38103200"><ele>545.241028</ele><time>2010-05-30T10:49:01Z</time></trkpt>
<trkpt lat="46.26854300" lon="6.38058500"><ele>546.492981</ele><time>2010-05-30T10:49:08Z</time></trkpt>
<trkpt lat="46.26839500" lon="6.38017800"><ele>547.458984</ele><time>2010-05-30T10:49:15Z</time></trkpt>
<trkpt lat="46.26823300" lon="6.37974000"><ele>548.348999</ele><time>2010-05-30T10:49:23Z</time></trkpt>
<trkpt lat="46.26810000" lon="6.37937700"><ele>550.302002</ele><time>2010-05-30T10:49:30Z</time></trkpt>
<trkpt lat="46.26791700" lon="6.37889500"><ele>551.791016</ele><time>2010-05-30T10:49:40Z</time></trkpt>
<trkpt lat="46.26773100" lon="6.37839300"><ele>553.16803</ele><time>2010-05-30T10:49:50Z</time></trkpt>
<trkpt lat="46.26755900" lon="6.37793800"><ele>554.119019</ele><time>2010-05-30T10:49:59Z</time></trkpt>
<trkpt lat="46.26740200" lon="6.37751800"><ele>553.791016</ele><time>2010-05-30T10:50:08Z</time></trkpt>
<trkpt lat="46.26728800" lon="6.37720400"><ele>554.226013</ele><time>2010-05-30T10:50:15Z</time></trkpt>
<trkpt lat="46.26711600" lon="6.37672900"><ele>555.801025</ele><time>2010-05-30T10:50:24Z</time></trkpt>
<trkpt lat="46.26689300" lon="6.37615300"><ele>556.091003</ele><time>2010-05-30T10:50:35Z</time></trkpt>
<trkpt lat="46.26674000" lon="6.37574800"><ele>557.255005</ele><time>2010-05-30T10:50:43Z</time></trkpt>
<trkpt lat="46.26658200" lon="6.37531100"><ele>557.098022</ele><time>2010-05-30T10:50:52Z</time></trkpt>
<trkpt lat="46.26640800" lon="6.37484200"><ele>558.263</ele><time>2010-05-30T10:51:02Z</time></trkpt>
<trkpt lat="46.26629500" lon="6.37453600"><ele>558.43103</ele><time>2010-05-30T10:51:09Z</time></trkpt>
<trkpt lat="46.26617000" lon="6.37421800"><ele>559.296997</ele><time>2010-05-30T10:51:16Z</time></trkpt>
<trkpt lat="46.26603700" lon="6.37387600"><ele>559.416016</ele><time>2010-05-30T10:51:23Z</time></trkpt>
<trkpt lat="46.26587400" lon="6.37343900"><ele>560.205017</ele><time>2010-05-30T10:51:32Z</time></trkpt>
<trkpt lat="46.26573200" lon="6.37303600"><ele>560.249023</ele><time>2010-05-30T10:51:40Z</time></trkpt>
<trkpt lat="46.26559100" lon="6.37265300"><ele>561.51001</ele><time>2010-05-30T10:51:48Z</time></trkpt>
<trkpt lat="46.26546600" lon="6.37233300"><ele>561.046997</ele><time>2010-05-30T10:51:56Z</time></trkpt>
<trkpt lat="46.26532200" lon="6.37199800"><ele>560.427979</ele><time>2010-05-30T10:52:06Z</time></trkpt>
<trkpt lat="46.26522400" lon="6.37176000"><ele>560.312988</ele><time>2010-05-30T10:52:14Z</time></trkpt>
<trkpt lat="46.26512900" lon="6.37149500"><ele>560.390991</ele><time>2010-05-30T10:52:22Z</time></trkpt>
<trkpt lat="46.26501800" lon="6.37119000"><ele>560.14801</ele><time>2010-05-30T10:52:31Z</time></trkpt>
<trkpt lat="46.26495500" lon="6.37102100"><ele>560.427002</ele><time>2010-05-30T10:52:38Z</time></trkpt>
<trkpt lat="46.26492400" lon="6.37091600"><ele>560.557983</ele><time>2010-05-30T10:52:45Z</time></trkpt>
<trkpt lat="46.26489600" lon="6.37083600"><ele>560.049011</ele><time>2010-05-30T10:52:56Z</time></trkpt>
<trkpt lat="46.26482700" lon="6.37060900"><ele>559.945984</ele><time>2010-05-30T10:53:02Z</time></trkpt>
<trkpt lat="46.26472000" lon="6.37038200"><ele>559.929016</ele><time>2010-05-30T10:53:09Z</time></trkpt>
<trkpt lat="46.26461000" lon="6.37011100"><ele>559.882996</ele><time>2010-05-30T10:53:17Z</time></trkpt>
<trkpt lat="46.26445900" lon="6.36970300"><ele>560.929016</ele><time>2010-05-30T10:53:28Z</time></trkpt>
<trkpt lat="46.26429600" lon="6.36924100"><ele>561.213013</ele><time>2010-05-30T10:53:39Z</time></trkpt>
<trkpt lat="46.26417300" lon="6.36888800"><ele>560.963013</ele><time>2010-05-30T10:53:47Z</time></trkpt>
<trkpt lat="46.26407500" lon="6.36862300"><ele>561.559021</ele><time>2010-05-30T10:53:55Z</time></trkpt>
<trkpt lat="46.26398900" lon="6.36834500"><ele>561.205017</ele><time>2010-05-30T10:54:02Z</time></trkpt>
<trkpt lat="46.26391300" lon="6.36807600"><ele>561.161011</ele><time>2010-05-30T10:54:09Z</time></trkpt>
<trkpt lat="46.26380000" lon="6.36784800"><ele>561.122986</ele><time>2010-05-30T10:54:17Z</time></trkpt>
<trkpt lat="46.26370000" lon="6.36756000"><ele>560.383972</ele><time>2010-05-30T10:54:25Z</time></trkpt>
<trkpt lat="46.26360100" lon="6.36716000"><ele>560.328003</ele><time>2010-05-30T10:54:33Z</time></trkpt>
<trkpt lat="46.26355700" lon="6.36690900"><ele>559.638</ele><time>2010-05-30T10:54:38Z</time></trkpt>
<trkpt lat="46.26346200" lon="6.36668900"><ele>559.562012</ele><time>2010-05-30T10:54:44Z</time></trkpt>
<trkpt lat="46.26340800" lon="6.36656400"><ele>559.609985</ele><time>2010-05-30T10:54:50Z</time></trkpt>
<trkpt lat="46.26340800" lon="6.36656300"><ele>559.620972</ele><time>2010-05-30T10:54:51Z</time></trkpt>
<trkpt lat="46.26344600" lon="6.36652200"><ele>559.252014</ele><time>2010-05-30T10:55:02Z</time></trkpt>
<trkpt lat="46.26348800" lon="6.36627800"><ele>559.395996</ele><time>2010-05-30T10:55:10Z</time></trkpt>
<trkpt lat="46.26345100" lon="6.36587800"><ele>559.669006</ele><time>2010-05-30T10:55:17Z</time></trkpt>
<trkpt lat="46.26341100" lon="6.36532200"><ele>559.86499</ele><time>2010-05-30T10:55:26Z</time></trkpt>
<trkpt lat="46.26335000" lon="6.36466500"><ele>560.909973</ele><time>2010-05-30T10:55:37Z</time></trkpt>
<trkpt lat="46.26329400" lon="6.36406600"><ele>561.723022</ele><time>2010-05-30T10:55:47Z</time></trkpt>
<trkpt lat="46.26324500" lon="6.36361000"><ele>562.580017</ele><time>2010-05-30T10:55:54Z</time></trkpt>
<trkpt lat="46.26320700" lon="6.36328300"><ele>562.822998</ele><time>2010-05-30T10:55:59Z</time></trkpt>
<trkpt lat="46.26312500" lon="6.36270500"><ele>563.593018</ele><time>2010-05-30T10:56:08Z</time></trkpt>
<trkpt lat="46.26305200" lon="6.36206700"><ele>564.182007</ele><time>2010-05-30T10:56:18Z</time></trkpt>
<trkpt lat="46.26296100" lon="6.36121100"><ele>565.523987</ele><time>2010-05-30T10:56:31Z</time></trkpt>
<trkpt lat="46.26288500" lon="6.36056200"><ele>566.171997</ele><time>2010-05-30T10:56:41Z</time></trkpt>
<trkpt lat="46.26278400" lon="6.35991700"><ele>566.307983</ele><time>2010-05-30T10:56:51Z</time></trkpt>
<trkpt lat="46.26266400" lon="6.35936800"><ele>567.129028</ele><time>2010-05-30T10:57:00Z</time></trkpt>
<trkpt lat="46.26250100" lon="6.35881800"><ele>567.854004</ele><time>2010-05-30T10:57:09Z</time></trkpt>
<trkpt lat="46.26230700" lon="6.35819500"><ele>567.432983</ele><time>2010-05-30T10:57:19Z</time></trkpt>
<trkpt lat="46.26211500" lon="6.35756100"><ele>567.713013</ele><time>2010-05-30T10:57:29Z</time></trkpt>
<trkpt lat="46.26192500" lon="6.35698600"><ele>568.400024</ele><time>2010-05-30T10:57:38Z</time></trkpt>
<trkpt lat="46.26178300" lon="6.35656700"><ele>568.403015</ele><time>2010-05-30T10:57:45Z</time></trkpt>
<trkpt lat="46.26173600" lon="6.35646000"><ele>568.408997</ele><time>2010-05-30T10:57:47Z</time></trkpt>
<trkpt lat="46.26155700" lon="6.35617600"><ele>569.01001</ele><time>2010-05-30T10:57:53Z</time></trkpt>
<trkpt lat="46.26127900" lon="6.35585200"><ele>570.382996</ele><time>2010-05-30T10:58:02Z</time></trkpt>
<trkpt lat="46.26099400" lon="6.35560200"><ele>572.01001</ele><time>2010-05-30T10:58:11Z</time></trkpt>
<trkpt lat="46.26075400" lon="6.35538200"><ele>573.60498</ele><time>2010-05-30T10:58:19Z</time></trkpt>
<trkpt lat="46.26051100" lon="6.35504900"><ele>574.950989</ele><time>2010-05-30T10:58:29Z</time></trkpt>
<trkpt lat="46.26043800" lon="6.35478800"><ele>575.58197</ele><time>2010-05-30T10:58:35Z</time></trkpt>
<trkpt lat="46.26044200" lon="6.35439700"><ele>577.427002</ele><time>2010-05-30T10:58:42Z</time></trkpt>
<trkpt lat="46.26057500" lon="6.35407100"><ele>578.690002</ele><time>2010-05-30T10:58:49Z</time></trkpt>
<trkpt lat="46.26078200" lon="6.35380200"><ele>580.327026</ele><time>2010-05-30T10:58:57Z</time></trkpt>
<trkpt lat="46.26093500" lon="6.35348800"><ele>581.771973</ele><time>2010-05-30T10:59:05Z</time></trkpt>
<trkpt lat="46.26100400" lon="6.35309400"><ele>582.997009</ele><time>2010-05-30T10:59:13Z</time></trkpt>
<trkpt lat="46.26095300" lon="6.35277700"><ele>583.828979</ele><time>2010-05-30T10:59:19Z</time></trkpt>
<trkpt lat="46.26095100" lon="6.35246600"><ele>584.458008</ele><time>2010-05-30T10:59:25Z</time></trkpt>
<trkpt lat="46.26098900" lon="6.35203600"><ele>585.463013</ele><time>2010-05-30T10:59:33Z</time></trkpt>
<trkpt lat="46.26098300" lon="6.35197700"><ele>585.453003</ele><time>2010-05-30T10:59:34Z</time></trkpt>
<trkpt lat="46.26088300" lon="6.35139500"><ele>585.416992</ele><time>2010-05-30T10:59:43Z</time></trkpt>
<trkpt lat="46.26082100" lon="6.35098100"><ele>585.132996</ele><time>2010-05-30T10:59:50Z</time></trkpt>
<trkpt lat="46.26076300" lon="6.35069400"><ele>584.674988</ele><time>2010-05-30T10:59:55Z</time></trkpt>
<trkpt lat="46.26067800" lon="6.35025500"><ele>583.992981</ele><time>2010-05-30T11:00:01Z</time></trkpt>
<trkpt lat="46.26061100" lon="6.34985200"><ele>583.52301</ele><time>2010-05-30T11:00:06Z</time></trkpt>
<trkpt lat="46.26058000" lon="6.34959100"><ele>583.200989</ele><time>2010-05-30T11:00:09Z</time></trkpt>
<trkpt lat="46.26050400" lon="6.34892900"><ele>581.870972</ele><time>2010-05-30T11:00:16Z</time></trkpt>
<trkpt lat="46.26037600" lon="6.34824800"><ele>581.364014</ele><time>2010-05-30T11:00:23Z</time></trkpt>
<trkpt lat="46.26031000" lon="6.34796600"><ele>579.546997</ele><time>2010-05-30T11:00:26Z</time></trkpt>
<trkpt lat="46.26016200" lon="6.34750900"><ele>579.565979</ele><time>2010-05-30T11:00:31Z</time></trkpt>
<trkpt lat="46.25983800" lon="6.34670000"><ele>577.216003</ele><time>2010-05-30T11:00:40Z</time></trkpt>
<trkpt lat="46.25956900" lon="6.34595900"><ele>576.419983</ele><time>2010-05-30T11:00:49Z</time></trkpt>
<trkpt lat="46.25940800" lon="6.34532600"><ele>575.836975</ele><time>2010-05-30T11:00:57Z</time></trkpt>
<trkpt lat="46.25930300" lon="6.34476600"><ele>576.419006</ele><time>2010-05-30T11:01:04Z</time></trkpt>
<trkpt lat="46.25918600" lon="6.34413500"><ele>576.481018</ele><time>2010-05-30T11:01:12Z</time></trkpt>
<trkpt lat="46.25909500" lon="6.34360900"><ele>576.487976</ele><time>2010-05-30T11:01:19Z</time></trkpt>
<trkpt lat="46.25899900" lon="6.34305200"><ele>576.429993</ele><time>2010-05-30T11:01:27Z</time></trkpt>
<trkpt lat="46.25892200" lon="6.34249600"><ele>576.841003</ele><time>2010-05-30T11:01:36Z</time></trkpt>
<trkpt lat="46.25886300" lon="6.34215400"><ele>576.39801</ele><time>2010-05-30T11:01:43Z</time></trkpt>
<trkpt lat="46.25882000" lon="6.34196600"><ele>576.630981</ele><time>2010-05-30T11:01:48Z</time></trkpt>
<trkpt lat="46.25881200" lon="6.34189400"><ele>576.432007</ele><time>2010-05-30T11:01:52Z</time></trkpt>
<trkpt lat="46.25881400" lon="6.34189500"><ele>576.247009</ele><time>2010-05-30T11:01:53Z</time></trkpt>
<trkpt lat="46.25886100" lon="6.34182100"><ele>576.263</ele><time>2010-05-30T11:03:59Z</time></trkpt>
<trkpt lat="46.25885000" lon="6.34179400"><ele>576.133972</ele><time>2010-05-30T11:04:00Z</time></trkpt>
<trkpt lat="46.25877500" lon="6.34165400"><ele>575.856018</ele><time>2010-05-30T11:04:04Z</time></trkpt>
<trkpt lat="46.25860600" lon="6.34117400"><ele>577.062988</ele><time>2010-05-30T11:04:12Z</time></trkpt>
<trkpt lat="46.25840300" lon="6.34072500"><ele>577.164001</ele><time>2010-05-30T11:04:19Z</time></trkpt>
<trkpt lat="46.25811500" lon="6.34012000"><ele>577.494019</ele><time>2010-05-30T11:04:28Z</time></trkpt>
<trkpt lat="46.25779100" lon="6.33945100"><ele>575.434998</ele><time>2010-05-30T11:04:37Z</time></trkpt>
<trkpt lat="46.25745000" lon="6.33874600"><ele>573.802979</ele><time>2010-05-30T11:04:46Z</time></trkpt>
<trkpt lat="46.25702000" lon="6.33787400"><ele>572.70697</ele><time>2010-05-30T11:04:57Z</time></trkpt>
<trkpt lat="46.25657800" lon="6.33715600"><ele>571.731995</ele><time>2010-05-30T11:05:07Z</time></trkpt>
<trkpt lat="46.25620000" lon="6.33660800"><ele>570.89502</ele><time>2010-05-30T11:05:15Z</time></trkpt>
<trkpt lat="46.25584300" lon="6.33612300"><ele>570.502014</ele><time>2010-05-30T11:05:23Z</time></trkpt>
<trkpt lat="46.25550800" lon="6.33577100"><ele>570.195984</ele><time>2010-05-30T11:05:30Z</time></trkpt>
<trkpt lat="46.25508000" lon="6.33546600"><ele>569.473999</ele><time>2010-05-30T11:05:38Z</time></trkpt>
<trkpt lat="46.25464900" lon="6.33529100"><ele>569.422974</ele><time>2010-05-30T11:05:46Z</time></trkpt>
<trkpt lat="46.25413300" lon="6.33514500"><ele>569.528015</ele><time>2010-05-30T11:05:55Z</time></trkpt>
<trkpt lat="46.25368400" lon="6.33502800"><ele>569.020996</ele><time>2010-05-30T11:06:03Z</time></trkpt>
<trkpt lat="46.25321500" lon="6.33491100"><ele>568.669006</ele><time>2010-05-30T11:06:11Z</time></trkpt>
<trkpt lat="46.25268900" lon="6.33477500"><ele>567.257019</ele><time>2010-05-30T11:06:20Z</time></trkpt>
<trkpt lat="46.25223300" lon="6.33464700"><ele>567.466003</ele><time>2010-05-30T11:06:28Z</time></trkpt>
<trkpt lat="46.25159200" lon="6.33447100"><ele>566.203003</ele><time>2010-05-30T11:06:39Z</time></trkpt>
<trkpt lat="46.25096400" lon="6.33429400"><ele>565.075012</ele><time>2010-05-30T11:06:49Z</time></trkpt>
<trkpt lat="46.25043200" lon="6.33404300"><ele>562.666992</ele><time>2010-05-30T11:06:57Z</time></trkpt>
<trkpt lat="46.25002900" lon="6.33372000"><ele>560.844971</ele><time>2010-05-30T11:07:03Z</time></trkpt>
<trkpt lat="46.24961900" lon="6.33324200"><ele>560.059021</ele><time>2010-05-30T11:07:10Z</time></trkpt>
<trkpt lat="46.24936000" lon="6.33289000"><ele>559.028992</ele><time>2010-05-30T11:07:15Z</time></trkpt>
<trkpt lat="46.24900500" lon="6.33241400"><ele>558.367004</ele><time>2010-05-30T11:07:22Z</time></trkpt>
<trkpt lat="46.24858800" lon="6.33202000"><ele>556.721985</ele><time>2010-05-30T11:07:29Z</time></trkpt>
<trkpt lat="46.24830900" lon="6.33183200"><ele>555.244995</ele><time>2010-05-30T11:07:33Z</time></trkpt>
<trkpt lat="46.24776800" lon="6.33154800"><ele>553.22998</ele><time>2010-05-30T11:07:40Z</time></trkpt>
<trkpt lat="46.24723900" lon="6.33118800"><ele>551.354004</ele><time>2010-05-30T11:07:47Z</time></trkpt>
<trkpt lat="46.24692100" lon="6.33085800"><ele>550.921997</ele><time>2010-05-30T11:07:52Z</time></trkpt>
<trkpt lat="46.24671400" lon="6.33057800"><ele>549.116028</ele><time>2010-05-30T11:07:56Z</time></trkpt>
<trkpt lat="46.24645500" lon="6.33011600"><ele>548.830017</ele><time>2010-05-30T11:08:02Z</time></trkpt>
<trkpt lat="46.24615800" lon="6.32950400"><ele>548.034973</ele><time>2010-05-30T11:08:10Z</time></trkpt>
<trkpt lat="46.24581400" lon="6.32879800"><ele>547.434021</ele><time>2010-05-30T11:08:19Z</time></trkpt>
<trkpt lat="46.24555400" lon="6.32828300"><ele>546.299988</ele><time>2010-05-30T11:08:26Z</time></trkpt>
<trkpt lat="46.24529700" lon="6.32781300"><ele>545.653992</ele><time>2010-05-30T11:08:33Z</time></trkpt>
<trkpt lat="46.24505600" lon="6.32753600"><ele>543.528992</ele><time>2010-05-30T11:08:38Z</time></trkpt>
<trkpt lat="46.24475500" lon="6.32740600"><ele>542.468994</ele><time>2010-05-30T11:08:43Z</time></trkpt>
<trkpt lat="46.24462300" lon="6.32739400"><ele>541.950012</ele><time>2010-05-30T11:08:45Z</time></trkpt>
<trkpt lat="46.24446300" lon="6.32726100"><ele>541.5</ele><time>2010-05-30T11:08:48Z</time></trkpt>
<trkpt lat="46.24446300" lon="6.32701900"><ele>541.202026</ele><time>2010-05-30T11:08:51Z</time></trkpt>
<trkpt lat="46.24445200" lon="6.32676500"><ele>541.104004</ele><time>2010-05-30T11:08:54Z</time></trkpt>
<trkpt lat="46.24429700" lon="6.32662300"><ele>541.51001</ele><time>2010-05-30T11:08:57Z</time></trkpt>
<trkpt lat="46.24412900" lon="6.32671300"><ele>541.22699</ele><time>2010-05-30T11:09:00Z</time></trkpt>
<trkpt lat="46.24406700" lon="6.32685700"><ele>540.869019</ele><time>2010-05-30T11:09:02Z</time></trkpt>
<trkpt lat="46.24391400" lon="6.32709600"><ele>541.093994</ele><time>2010-05-30T11:09:06Z</time></trkpt>
<trkpt lat="46.24375200" lon="6.32699400"><ele>541.531006</ele><time>2010-05-30T11:09:09Z</time></trkpt>
<trkpt lat="46.24371200" lon="6.32693100"><ele>541.732971</ele><time>2010-05-30T11:09:10Z</time></trkpt>
<trkpt lat="46.24347400" lon="6.32656700"><ele>543.155029</ele><time>2010-05-30T11:09:17Z</time></trkpt>
<trkpt lat="46.24334000" lon="6.32643900"><ele>543.919006</ele><time>2010-05-30T11:09:21Z</time></trkpt>
<trkpt lat="46.24308200" lon="6.32628100"><ele>544.921997</ele><time>2010-05-30T11:09:28Z</time></trkpt>
<trkpt lat="46.24277600" lon="6.32612400"><ele>545.625</ele><time>2010-05-30T11:09:36Z</time></trkpt>
<trkpt lat="46.24259200" lon="6.32602400"><ele>546.075989</ele><time>2010-05-30T11:09:41Z</time></trkpt>
<trkpt lat="46.24234300" lon="6.32584800"><ele>546.570984</ele><time>2010-05-30T11:09:48Z</time></trkpt>
<trkpt lat="46.24209500" lon="6.32568100"><ele>547.471008</ele><time>2010-05-30T11:09:55Z</time></trkpt>
<trkpt lat="46.24175300" lon="6.32549300"><ele>548.137024</ele><time>2010-05-30T11:10:04Z</time></trkpt>
<trkpt lat="46.24139400" lon="6.32536300"><ele>549.669006</ele><time>2010-05-30T11:10:13Z</time></trkpt>
<trkpt lat="46.24116300" lon="6.32531100"><ele>550.30603</ele><time>2010-05-30T11:10:19Z</time></trkpt>
<trkpt lat="46.24096600" lon="6.32524100"><ele>551.452026</ele><time>2010-05-30T11:10:25Z</time></trkpt>
<trkpt lat="46.24070700" lon="6.32508900"><ele>553.187988</ele><time>2010-05-30T11:10:34Z</time></trkpt>
<trkpt lat="46.24055600" lon="6.32501000"><ele>554.096985</ele><time>2010-05-30T11:10:39Z</time></trkpt>
<trkpt lat="46.24034400" lon="6.32492600"><ele>554.911987</ele><time>2010-05-30T11:10:46Z</time></trkpt>
<trkpt lat="46.24014400" lon="6.32483400"><ele>554.913025</ele><time>2010-05-30T11:10:53Z</time></trkpt>
<trkpt lat="46.23992800" lon="6.32477200"><ele>556.888977</ele><time>2010-05-30T11:11:01Z</time></trkpt>
<trkpt lat="46.23971100" lon="6.32468700"><ele>557.125977</ele><time>2010-05-30T11:11:08Z</time></trkpt>
<trkpt lat="46.23941500" lon="6.32450800"><ele>556.513</ele><time>2010-05-30T11:11:17Z</time></trkpt>
<trkpt lat="46.23915200" lon="6.32431400"><ele>556.229004</ele><time>2010-05-30T11:11:24Z</time></trkpt>
<trkpt lat="46.23890300" lon="6.32413900"><ele>556.09198</ele><time>2010-05-30T11:11:30Z</time></trkpt>
<trkpt lat="46.23857800" lon="6.32390600"><ele>554.328979</ele><time>2010-05-30T11:11:37Z</time></trkpt>
<trkpt lat="46.23822900" lon="6.32361300"><ele>553.323975</ele><time>2010-05-30T11:11:44Z</time></trkpt>
<trkpt lat="46.23808600" lon="6.32348400"><ele>553.099976</ele><time>2010-05-30T11:11:47Z</time></trkpt>
<trkpt lat="46.23795500" lon="6.32335700"><ele>553.174011</ele><time>2010-05-30T11:11:50Z</time></trkpt>
<trkpt lat="46.23791100" lon="6.32331500"><ele>553.237976</ele><time>2010-05-30T11:11:51Z</time></trkpt>
<trkpt lat="46.23752600" lon="6.32293900"><ele>552.017029</ele><time>2010-05-30T11:12:00Z</time></trkpt>
<trkpt lat="46.23716700" lon="6.32259100"><ele>551.388</ele><time>2010-05-30T11:12:09Z</time></trkpt>
<trkpt lat="46.23683000" lon="6.32226800"><ele>550.719971</ele><time>2010-05-30T11:12:18Z</time></trkpt>
<trkpt lat="46.23663200" lon="6.32208300"><ele>550.421021</ele><time>2010-05-30T11:12:24Z</time></trkpt>
<trkpt lat="46.23636100" lon="6.32184900"><ele>550.015015</ele><time>2010-05-30T11:12:32Z</time></trkpt>
<trkpt lat="46.23606400" lon="6.32158900"><ele>550.218994</ele><time>2010-05-30T11:12:41Z</time></trkpt>
<trkpt lat="46.23576500" lon="6.32133300"><ele>549.840027</ele><time>2010-05-30T11:12:51Z</time></trkpt>
<trkpt lat="46.23565400" lon="6.32122800"><ele>548.41803</ele><time>2010-05-30T11:12:55Z</time></trkpt>
<trkpt lat="46.23543000" lon="6.32105500"><ele>547.924011</ele><time>2010-05-30T11:13:02Z</time></trkpt>
<trkpt lat="46.23534600" lon="6.32100200"><ele>548.031982</ele><time>2010-05-30T11:13:04Z</time></trkpt>
<trkpt lat="46.23493300" lon="6.32073400"><ele>547.409973</ele><time>2010-05-30T11:13:13Z</time></trkpt>
<trkpt lat="46.23478800" lon="6.32066600"><ele>546.619019</ele><time>2010-05-30T11:13:16Z</time></trkpt>
<trkpt lat="46.23434500" lon="6.32048800"><ele>544.895996</ele><time>2010-05-30T11:13:25Z</time></trkpt>
<trkpt lat="46.23398700" lon="6.32031700"><ele>543.953003</ele><time>2010-05-30T11:13:32Z</time></trkpt>
<trkpt lat="46.23367700" lon="6.32006700"><ele>543.812988</ele><time>2010-05-30T11:13:39Z</time></trkpt>
<trkpt lat="46.23334700" lon="6.31972800"><ele>543.515015</ele><time>2010-05-30T11:13:47Z</time></trkpt>
<trkpt lat="46.23294400" lon="6.31939000"><ele>542.749023</ele><time>2010-05-30T11:13:56Z</time></trkpt>
<trkpt lat="46.23260400" lon="6.31921500"><ele>542.296997</ele><time>2010-05-30T11:14:03Z</time></trkpt>
<trkpt lat="46.23226700" lon="6.31902000"><ele>541.866028</ele><time>2010-05-30T11:14:10Z</time></trkpt>
<trkpt lat="46.23199400" lon="6.31881000"><ele>541.874023</ele><time>2010-05-30T11:14:17Z</time></trkpt>
<trkpt lat="46.23170000" lon="6.31862800"><ele>542.341003</ele><time>2010-05-30T11:14:25Z</time></trkpt>
<trkpt lat="46.23148800" lon="6.31851100"><ele>542.828003</ele><time>2010-05-30T11:14:32Z</time></trkpt>
<trkpt lat="46.23133800" lon="6.31838200"><ele>543.260986</ele><time>2010-05-30T11:14:38Z</time></trkpt>
<trkpt lat="46.23127000" lon="6.31836300"><ele>543.382996</ele><time>2010-05-30T11:14:40Z</time></trkpt>
<trkpt lat="46.23100400" lon="6.31816200"><ele>543.124023</ele><time>2010-05-30T11:14:47Z</time></trkpt>
<trkpt lat="46.23067900" lon="6.31788600"><ele>542.973999</ele><time>2010-05-30T11:14:55Z</time></trkpt>
<trkpt lat="46.23060200" lon="6.31782900"><ele>543.203003</ele><time>2010-05-30T11:14:57Z</time></trkpt>
<trkpt lat="46.23035300" lon="6.31755800"><ele>541.521973</ele><time>2010-05-30T11:15:04Z</time></trkpt>
<trkpt lat="46.23006800" lon="6.31728800"><ele>539.953003</ele><time>2010-05-30T11:15:10Z</time></trkpt>
<trkpt lat="46.22973100" lon="6.31700900"><ele>538.507996</ele><time>2010-05-30T11:15:16Z</time></trkpt>
<trkpt lat="46.22954300" lon="6.31686500"><ele>537.513</ele><time>2010-05-30T11:15:20Z</time></trkpt>
<trkpt lat="46.22936200" lon="6.31668100"><ele>535.963013</ele><time>2010-05-30T11:15:25Z</time></trkpt>
<trkpt lat="46.22928500" lon="6.31657200"><ele>535.14801</ele><time>2010-05-30T11:15:27Z</time></trkpt>
<trkpt lat="46.22903100" lon="6.31619000"><ele>534.906006</ele><time>2010-05-30T11:15:34Z</time></trkpt>
<trkpt lat="46.22894100" lon="6.31604000"><ele>535.370972</ele><time>2010-05-30T11:15:37Z</time></trkpt>
<trkpt lat="46.22869200" lon="6.31575700"><ele>537.182983</ele><time>2010-05-30T11:15:45Z</time></trkpt>
<trkpt lat="46.22854300" lon="6.31563600"><ele>537.609009</ele><time>2010-05-30T11:15:50Z</time></trkpt>
<trkpt lat="46.22830500" lon="6.31545300"><ele>538.294006</ele><time>2010-05-30T11:15:57Z</time></trkpt>
<trkpt lat="46.22814000" lon="6.31533100"><ele>538.353027</ele><time>2010-05-30T11:16:01Z</time></trkpt>
<trkpt lat="46.22777300" lon="6.31511000"><ele>538.825012</ele><time>2010-05-30T11:16:09Z</time></trkpt>
<trkpt lat="46.22754300" lon="6.31499400"><ele>539.263</ele><time>2010-05-30T11:16:14Z</time></trkpt>
<trkpt lat="46.22721000" lon="6.31486700"><ele>538.435974</ele><time>2010-05-30T11:16:21Z</time></trkpt>
<trkpt lat="46.22682600" lon="6.31478200"><ele>537.900024</ele><time>2010-05-30T11:16:29Z</time></trkpt>
<trkpt lat="46.22644300" lon="6.31471400"><ele>538.116028</ele><time>2010-05-30T11:16:37Z</time></trkpt>
<trkpt lat="46.22605200" lon="6.31465400"><ele>537.669983</ele><time>2010-05-30T11:16:45Z</time></trkpt>
<trkpt lat="46.22571500" lon="6.31461000"><ele>537.197998</ele><time>2010-05-30T11:16:52Z</time></trkpt>
<trkpt lat="46.22516500" lon="6.31453400"><ele>536.89502</ele><time>2010-05-30T11:17:03Z</time></trkpt>
<trkpt lat="46.22477900" lon="6.31449000"><ele>537.481018</ele><time>2010-05-30T11:17:11Z</time></trkpt>
<trkpt lat="46.22435300" lon="6.31446100"><ele>537.177979</ele><time>2010-05-30T11:17:20Z</time></trkpt>
<trkpt lat="46.22402400" lon="6.31445400"><ele>537.406982</ele><time>2010-05-30T11:17:27Z</time></trkpt>
<trkpt lat="46.22354500" lon="6.31448300"><ele>535.89801</ele><time>2010-05-30T11:17:36Z</time></trkpt>
<trkpt lat="46.22317300" lon="6.31444000"><ele>536.291016</ele><time>2010-05-30T11:17:43Z</time></trkpt>
<trkpt lat="46.22277300" lon="6.31426200"><ele>535.515015</ele><time>2010-05-30T11:17:51Z</time></trkpt>
<trkpt lat="46.22246000" lon="6.31399900"><ele>535.630981</ele><time>2010-05-30T11:17:58Z</time></trkpt>
<trkpt lat="46.22218000" lon="6.31367000"><ele>534.29303</ele><time>2010-05-30T11:18:04Z</time></trkpt>
<trkpt lat="46.22176900" lon="6.31316300"><ele>532.708008</ele><time>2010-05-30T11:18:12Z</time></trkpt>
<trkpt lat="46.22139400" lon="6.31266200"><ele>531.549988</ele><time>2010-05-30T11:18:20Z</time></trkpt>
<trkpt lat="46.22105100" lon="6.31216400"><ele>531.327026</ele><time>2010-05-30T11:18:28Z</time></trkpt>
<trkpt lat="46.22092400" lon="6.31187600"><ele>531.857971</ele><time>2010-05-30T11:18:32Z</time></trkpt>
<trkpt lat="46.22075800" lon="6.31117200"><ele>530.617981</ele><time>2010-05-30T11:18:40Z</time></trkpt>
<trkpt lat="46.22056400" lon="6.31061000"><ele>530.450989</ele><time>2010-05-30T11:18:47Z</time></trkpt>
<trkpt lat="46.22041800" lon="6.31014800"><ele>530.286987</ele><time>2010-05-30T11:18:53Z</time></trkpt>
<trkpt lat="46.22037400" lon="6.30994000"><ele>528.843994</ele><time>2010-05-30T11:18:57Z</time></trkpt>
<trkpt lat="46.22034500" lon="6.30982200"><ele>528.278015</ele><time>2010-05-30T11:19:02Z</time></trkpt>
<trkpt lat="46.22033700" lon="6.30978900"><ele>528.312988</ele><time>2010-05-30T11:19:03Z</time></trkpt>
<trkpt lat="46.22021700" lon="6.30970900"><ele>528.364014</ele><time>2010-05-30T11:19:08Z</time></trkpt>
<trkpt lat="46.21996300" lon="6.30950200"><ele>528.609009</ele><time>2010-05-30T11:19:15Z</time></trkpt>
<trkpt lat="46.21967300" lon="6.30926700"><ele>529.234985</ele><time>2010-05-30T11:19:23Z</time></trkpt>
<trkpt lat="46.21934700" lon="6.30893500"><ele>529.257019</ele><time>2010-05-30T11:19:32Z</time></trkpt>
<trkpt lat="46.21910800" lon="6.30862800"><ele>529.737976</ele><time>2010-05-30T11:19:39Z</time></trkpt>
<trkpt lat="46.21867800" lon="6.30809600"><ele>528.465027</ele><time>2010-05-30T11:19:51Z</time></trkpt>
<trkpt lat="46.21836000" lon="6.30771000"><ele>527.492004</ele><time>2010-05-30T11:19:58Z</time></trkpt>
<trkpt lat="46.21820800" lon="6.30752600"><ele>526.25</ele><time>2010-05-30T11:20:01Z</time></trkpt>
<trkpt lat="46.21790400" lon="6.30711500"><ele>524.820007</ele><time>2010-05-30T11:20:07Z</time></trkpt>
<trkpt lat="46.21767500" lon="6.30683500"><ele>523.919006</ele><time>2010-05-30T11:20:11Z</time></trkpt>
<trkpt lat="46.21731600" lon="6.30637200"><ele>523.265991</ele><time>2010-05-30T11:20:18Z</time></trkpt>
<trkpt lat="46.21727200" lon="6.30631200"><ele>523.200989</ele><time>2010-05-30T11:20:19Z</time></trkpt>
<trkpt lat="46.21701300" lon="6.30592600"><ele>523.018982</ele><time>2010-05-30T11:20:26Z</time></trkpt>
<trkpt lat="46.21666400" lon="6.30561000"><ele>523.635986</ele><time>2010-05-30T11:20:34Z</time></trkpt>
<trkpt lat="46.21658300" lon="6.30552800"><ele>523.760986</ele><time>2010-05-30T11:20:36Z</time></trkpt>
<trkpt lat="46.21634300" lon="6.30522900"><ele>523.695007</ele><time>2010-05-30T11:20:42Z</time></trkpt>
<trkpt lat="46.21610000" lon="6.30493300"><ele>523.60498</ele><time>2010-05-30T11:20:48Z</time></trkpt>
<trkpt lat="46.21577900" lon="6.30452500"><ele>524.89502</ele><time>2010-05-30T11:20:56Z</time></trkpt>
<trkpt lat="46.21552500" lon="6.30417500"><ele>525.526978</ele><time>2010-05-30T11:21:03Z</time></trkpt>
<trkpt lat="46.21544900" lon="6.30408100"><ele>525.749023</ele><time>2010-05-30T11:21:05Z</time></trkpt>
<trkpt lat="46.21524100" lon="6.30377100"><ele>526.129028</ele><time>2010-05-30T11:21:11Z</time></trkpt>
<trkpt lat="46.21520900" lon="6.30372000"><ele>526.432983</ele><time>2010-05-30T11:21:12Z</time></trkpt>
<trkpt lat="46.21514100" lon="6.30362900"><ele>526.755981</ele><time>2010-05-30T11:21:14Z</time></trkpt>
<trkpt lat="46.21481600" lon="6.30313300"><ele>527.846008</ele><time>2010-05-30T11:21:25Z</time></trkpt>
<trkpt lat="46.21462600" lon="6.30282400"><ele>528.302979</ele><time>2010-05-30T11:21:32Z</time></trkpt>
<trkpt lat="46.21447400" lon="6.30253500"><ele>528.627014</ele><time>2010-05-30T11:21:39Z</time></trkpt>
<trkpt lat="46.21443000" lon="6.30248300"><ele>528.43103</ele><time>2010-05-30T11:21:41Z</time></trkpt>
<trkpt lat="46.21431700" lon="6.30256000"><ele>529.112976</ele><time>2010-05-30T11:21:46Z</time></trkpt>
<trkpt lat="46.21429700" lon="6.30259700"><ele>529.007019</ele><time>2010-05-30T11:21:47Z</time></trkpt>
<trkpt lat="46.21411500" lon="6.30290000"><ele>529.413025</ele><time>2010-05-30T11:21:55Z</time></trkpt>
<trkpt lat="46.21394600" lon="6.30302500"><ele>529.810974</ele><time>2010-05-30T11:22:01Z</time></trkpt>
<trkpt lat="46.21372100" lon="6.30297500"><ele>530.309998</ele><time>2010-05-30T11:22:07Z</time></trkpt>
<trkpt lat="46.21342900" lon="6.30276300"><ele>530.385986</ele><time>2010-05-30T11:22:14Z</time></trkpt>
<trkpt lat="46.21328900" lon="6.30265100"><ele>530.533997</ele><time>2010-05-30T11:22:17Z</time></trkpt>
<trkpt lat="46.21296300" lon="6.30220600"><ele>529.841003</ele><time>2010-05-30T11:22:25Z</time></trkpt>
<trkpt lat="46.21267800" lon="6.30174400"><ele>528.83197</ele><time>2010-05-30T11:22:33Z</time></trkpt>
<trkpt lat="46.21237000" lon="6.30125700"><ele>528.333984</ele><time>2010-05-30T11:22:41Z</time></trkpt>
<trkpt lat="46.21198600" lon="6.30064800"><ele>526.94397</ele><time>2010-05-30T11:22:50Z</time></trkpt>
<trkpt lat="46.21166600" lon="6.30030600"><ele>526.534973</ele><time>2010-05-30T11:22:56Z</time></trkpt>
<trkpt lat="46.21129500" lon="6.29993400"><ele>526.414978</ele><time>2010-05-30T11:23:03Z</time></trkpt>
<trkpt lat="46.21081300" lon="6.29946600"><ele>526.145996</ele><time>2010-05-30T11:23:12Z</time></trkpt>
<trkpt lat="46.21066000" lon="6.29929700"><ele>525.965027</ele><time>2010-05-30T11:23:15Z</time></trkpt>
<trkpt lat="46.21033600" lon="6.29885800"><ele>526.400024</ele><time>2010-05-30T11:23:22Z</time></trkpt>
<trkpt lat="46.20989400" lon="6.29835800"><ele>526.104004</ele><time>2010-05-30T11:23:31Z</time></trkpt>
<trkpt lat="46.20946400" lon="6.29800100"><ele>526.015015</ele><time>2010-05-30T11:23:39Z</time></trkpt>
<trkpt lat="46.20941200" lon="6.29794300"><ele>526.052002</ele><time>2010-05-30T11:23:40Z</time></trkpt>
<trkpt lat="46.20927500" lon="6.29776600"><ele>525.880981</ele><time>2010-05-30T11:23:43Z</time></trkpt>
<trkpt lat="46.20906500" lon="6.29758100"><ele>525.642029</ele><time>2010-05-30T11:23:47Z</time></trkpt>
<trkpt lat="46.20859700" lon="6.29738700"><ele>525.41803</ele><time>2010-05-30T11:23:55Z</time></trkpt>
<trkpt lat="46.20823900" lon="6.29725000"><ele>525.250977</ele><time>2010-05-30T11:24:01Z</time></trkpt>
<trkpt lat="46.20786300" lon="6.29721600"><ele>524.692993</ele><time>2010-05-30T11:24:07Z</time></trkpt>
<trkpt lat="46.20738000" lon="6.29719900"><ele>524.710999</ele><time>2010-05-30T11:24:15Z</time></trkpt>
<trkpt lat="46.20697400" lon="6.29715900"><ele>525.335999</ele><time>2010-05-30T11:24:22Z</time></trkpt>
<trkpt lat="46.20648900" lon="6.29713800"><ele>526.607971</ele><time>2010-05-30T11:24:31Z</time></trkpt>
<trkpt lat="46.20639800" lon="6.29713600"><ele>527.427979</ele><time>2010-05-30T11:24:33Z</time></trkpt>
<trkpt lat="46.20621300" lon="6.29712800"><ele>528.049011</ele><time>2010-05-30T11:24:38Z</time></trkpt>
<trkpt lat="46.20590200" lon="6.29710800"><ele>531.176025</ele><time>2010-05-30T11:24:48Z</time></trkpt>
<trkpt lat="46.20572300" lon="6.29709100"><ele>532.968018</ele><time>2010-05-30T11:24:55Z</time></trkpt>
<trkpt lat="46.20552000" lon="6.29709300"><ele>534.810974</ele><time>2010-05-30T11:25:04Z</time></trkpt>
<trkpt lat="46.20537000" lon="6.29709700"><ele>535.333984</ele><time>2010-05-30T11:25:11Z</time></trkpt>
<trkpt lat="46.20528500" lon="6.29711200"><ele>537.221985</ele><time>2010-05-30T11:25:15Z</time></trkpt>
<trkpt lat="46.20516700" lon="6.29714300"><ele>538.21698</ele><time>2010-05-30T11:25:21Z</time></trkpt>
<trkpt lat="46.20501200" lon="6.29717200"><ele>539.521973</ele><time>2010-05-30T11:25:29Z</time></trkpt>
<trkpt lat="46.20489400" lon="6.29719300"><ele>540.622986</ele><time>2010-05-30T11:25:35Z</time></trkpt>
<trkpt lat="46.20475400" lon="6.29722000"><ele>541.880981</ele><time>2010-05-30T11:25:42Z</time></trkpt>
<trkpt lat="46.20463800" lon="6.29723500"><ele>543</ele><time>2010-05-30T11:25:48Z</time></trkpt>
<trkpt lat="46.20444900" lon="6.29722900"><ele>545.06897</ele><time>2010-05-30T11:25:57Z</time></trkpt>
<trkpt lat="46.20427600" lon="6.29722900"><ele>546.112976</ele><time>2010-05-30T11:26:05Z</time></trkpt>
<trkpt lat="46.20405100" lon="6.29721100"><ele>548.06897</ele><time>2010-05-30T11:26:15Z</time></trkpt>
<trkpt lat="46.20388300" lon="6.29721900"><ele>549.773987</ele><time>2010-05-30T11:26:23Z</time></trkpt>
<trkpt lat="46.20375100" lon="6.29719500"><ele>550.840027</ele><time>2010-05-30T11:26:30Z</time></trkpt>
<trkpt lat="46.20367400" lon="6.29724200"><ele>551.914001</ele><time>2010-05-30T11:26:37Z</time></trkpt>
<trkpt lat="46.20366300" lon="6.29726300"><ele>551.90802</ele><time>2010-05-30T11:26:47Z</time></trkpt>
<trkpt lat="46.20366200" lon="6.29719000"><ele>555.52002</ele><time>2010-05-30T11:33:46Z</time></trkpt>
<trkpt lat="46.20358900" lon="6.29716700"><ele>556</ele><time>2010-05-30T11:33:51Z</time></trkpt>
<trkpt lat="46.20355600" lon="6.29715500"><ele>556.179993</ele><time>2010-05-30T11:33:53Z</time></trkpt>
<trkpt lat="46.20334100" lon="6.29714300"><ele>558.414001</ele><time>2010-05-30T11:34:03Z</time></trkpt>
<trkpt lat="46.20320400" lon="6.29713500"><ele>559.565002</ele><time>2010-05-30T11:34:09Z</time></trkpt>
<trkpt lat="46.20312200" lon="6.29714700"><ele>560.622986</ele><time>2010-05-30T11:34:13Z</time></trkpt>
<trkpt lat="46.20295100" lon="6.29710500"><ele>562.163025</ele><time>2010-05-30T11:34:20Z</time></trkpt>
<trkpt lat="46.20282400" lon="6.29708300"><ele>563.211975</ele><time>2010-05-30T11:34:25Z</time></trkpt>
<trkpt lat="46.20269100" lon="6.29704800"><ele>564.578979</ele><time>2010-05-30T11:34:31Z</time></trkpt>
<trkpt lat="46.20253500" lon="6.29706200"><ele>566.383972</ele><time>2010-05-30T11:34:38Z</time></trkpt>
<trkpt lat="46.20234200" lon="6.29714600"><ele>568.263</ele><time>2010-05-30T11:34:46Z</time></trkpt>
<trkpt lat="46.20221900" lon="6.29721600"><ele>569.663025</ele><time>2010-05-30T11:34:52Z</time></trkpt>
<trkpt lat="46.20209500" lon="6.29724900"><ele>571.271973</ele><time>2010-05-30T11:34:58Z</time></trkpt>
<trkpt lat="46.20196400" lon="6.29718300"><ele>572.887024</ele><time>2010-05-30T11:35:04Z</time></trkpt>
<trkpt lat="46.20176500" lon="6.29710100"><ele>574.65802</ele><time>2010-05-30T11:35:13Z</time></trkpt>
<trkpt lat="46.20162100" lon="6.29706800"><ele>575.780029</ele><time>2010-05-30T11:35:20Z</time></trkpt>
<trkpt lat="46.20142100" lon="6.29703000"><ele>577.403992</ele><time>2010-05-30T11:35:28Z</time></trkpt>
<trkpt lat="46.20123700" lon="6.29700300"><ele>578.250977</ele><time>2010-05-30T11:35:35Z</time></trkpt>
<trkpt lat="46.20099800" lon="6.29696000"><ele>579.419006</ele><time>2010-05-30T11:35:44Z</time></trkpt>
<trkpt lat="46.20080700" lon="6.29692400"><ele>580.31897</ele><time>2010-05-30T11:35:51Z</time></trkpt>
<trkpt lat="46.20056600" lon="6.29687400"><ele>581.176025</ele><time>2010-05-30T11:36:00Z</time></trkpt>
<trkpt lat="46.20031500" lon="6.29681900"><ele>582.460022</ele><time>2010-05-30T11:36:09Z</time></trkpt>
<trkpt lat="46.20009800" lon="6.29678300"><ele>583.424988</ele><time>2010-05-30T11:36:17Z</time></trkpt>
<trkpt lat="46.19986900" lon="6.29676900"><ele>584.171997</ele><time>2010-05-30T11:36:25Z</time></trkpt>
<trkpt lat="46.19963300" lon="6.29681400"><ele>585.127014</ele><time>2010-05-30T11:36:32Z</time></trkpt>
<trkpt lat="46.19942600" lon="6.29687200"><ele>586.112976</ele><time>2010-05-30T11:36:38Z</time></trkpt>
<trkpt lat="46.19917800" lon="6.29691500"><ele>586.88501</ele><time>2010-05-30T11:36:45Z</time></trkpt>
<trkpt lat="46.19885700" lon="6.29693400"><ele>588.052002</ele><time>2010-05-30T11:36:54Z</time></trkpt>
<trkpt lat="46.19858400" lon="6.29697200"><ele>589.16803</ele><time>2010-05-30T11:37:02Z</time></trkpt>
<trkpt lat="46.19833200" lon="6.29698400"><ele>590.580017</ele><time>2010-05-30T11:37:10Z</time></trkpt>
<trkpt lat="46.19814300" lon="6.29700300"><ele>591.244019</ele><time>2010-05-30T11:37:16Z</time></trkpt>
<trkpt lat="46.19792400" lon="6.29701600"><ele>592.192017</ele><time>2010-05-30T11:37:23Z</time></trkpt>
<trkpt lat="46.19768900" lon="6.29699000"><ele>592.551025</ele><time>2010-05-30T11:37:30Z</time></trkpt>
<trkpt lat="46.19741200" lon="6.29699000"><ele>592.554016</ele><time>2010-05-30T11:37:38Z</time></trkpt>
<trkpt lat="46.19718500" lon="6.29706600"><ele>592.260986</ele><time>2010-05-30T11:37:43Z</time></trkpt>
<trkpt lat="46.19695300" lon="6.29718900"><ele>589.315002</ele><time>2010-05-30T11:37:49Z</time></trkpt>
<trkpt lat="46.19683200" lon="6.29719400"><ele>588.109985</ele><time>2010-05-30T11:37:53Z</time></trkpt>
<trkpt lat="46.19680800" lon="6.29739200"><ele>587.53302</ele><time>2010-05-30T11:37:59Z</time></trkpt>
<trkpt lat="46.19683200" lon="6.29766400"><ele>588.112976</ele><time>2010-05-30T11:38:06Z</time></trkpt>
<trkpt lat="46.19676300" lon="6.29791700"><ele>589.258972</ele><time>2010-05-30T11:38:13Z</time></trkpt>
<trkpt lat="46.19658700" lon="6.29812300"><ele>590.130981</ele><time>2010-05-30T11:38:20Z</time></trkpt>
<trkpt lat="46.19644600" lon="6.29827900"><ele>589.424011</ele><time>2010-05-30T11:38:25Z</time></trkpt>
<trkpt lat="46.19634200" lon="6.29838300"><ele>588.70697</ele><time>2010-05-30T11:38:28Z</time></trkpt>
<trkpt lat="46.19613000" lon="6.29856500"><ele>588.013977</ele><time>2010-05-30T11:38:33Z</time></trkpt>
<trkpt lat="46.19581600" lon="6.29867300"><ele>586.278992</ele><time>2010-05-30T11:38:39Z</time></trkpt>
<trkpt lat="46.19530600" lon="6.29873800"><ele>584.564026</ele><time>2010-05-30T11:38:47Z</time></trkpt>
<trkpt lat="46.19499900" lon="6.29885500"><ele>583.56897</ele><time>2010-05-30T11:38:52Z</time></trkpt>
<trkpt lat="46.19455000" lon="6.29913400"><ele>581.719971</ele><time>2010-05-30T11:39:00Z</time></trkpt>
<trkpt lat="46.19397500" lon="6.29953600"><ele>579.398987</ele><time>2010-05-30T11:39:10Z</time></trkpt>
<trkpt lat="46.19379900" lon="6.29965200"><ele>578.947021</ele><time>2010-05-30T11:39:13Z</time></trkpt>
<trkpt lat="46.19320000" lon="6.29989900"><ele>576.763</ele><time>2010-05-30T11:39:23Z</time></trkpt>
<trkpt lat="46.19281100" lon="6.29993600"><ele>576.213013</ele><time>2010-05-30T11:39:29Z</time></trkpt>
<trkpt lat="46.19229200" lon="6.30000100"><ele>573.580017</ele><time>2010-05-30T11:39:37Z</time></trkpt>
<trkpt lat="46.19222800" lon="6.30001800"><ele>573.43103</ele><time>2010-05-30T11:39:38Z</time></trkpt>
<trkpt lat="46.19186400" lon="6.30027500"><ele>571.913025</ele><time>2010-05-30T11:39:44Z</time></trkpt>
<trkpt lat="46.19157800" lon="6.30038700"><ele>570.268982</ele><time>2010-05-30T11:39:48Z</time></trkpt>
<trkpt lat="46.19137000" lon="6.30029900"><ele>569.439026</ele><time>2010-05-30T11:39:51Z</time></trkpt>
<trkpt lat="46.19125600" lon="6.30019700"><ele>569.442017</ele><time>2010-05-30T11:39:53Z</time></trkpt>
<trkpt lat="46.19083200" lon="6.30000000"><ele>568.973999</ele><time>2010-05-30T11:40:00Z</time></trkpt>
<trkpt lat="46.19070100" lon="6.30004300"><ele>568.557983</ele><time>2010-05-30T11:40:02Z</time></trkpt>
<trkpt lat="46.19017500" lon="6.30027900"><ele>566.651978</ele><time>2010-05-30T11:40:10Z</time></trkpt>
<trkpt lat="46.18966600" lon="6.30051200"><ele>564.242004</ele><time>2010-05-30T11:40:17Z</time></trkpt>
<trkpt lat="46.18927900" lon="6.30069200"><ele>562.169006</ele><time>2010-05-30T11:40:22Z</time></trkpt>
<trkpt lat="46.18913000" lon="6.30080900"><ele>561.489014</ele><time>2010-05-30T11:40:24Z</time></trkpt>
<trkpt lat="46.18878200" lon="6.30120000"><ele>559.140015</ele><time>2010-05-30T11:40:29Z</time></trkpt>
<trkpt lat="46.18843900" lon="6.30163700"><ele>556.77301</ele><time>2010-05-30T11:40:34Z</time></trkpt>
<trkpt lat="46.18788400" lon="6.30216700"><ele>552.888</ele><time>2010-05-30T11:40:41Z</time></trkpt>
<trkpt lat="46.18754300" lon="6.30244600"><ele>550.971008</ele><time>2010-05-30T11:40:45Z</time></trkpt>
<trkpt lat="46.18745400" lon="6.30250700"><ele>550.336975</ele><time>2010-05-30T11:40:46Z</time></trkpt>
<trkpt lat="46.18680400" lon="6.30288900"><ele>546.408997</ele><time>2010-05-30T11:40:53Z</time></trkpt>
<trkpt lat="46.18650100" lon="6.30300600"><ele>545.005005</ele><time>2010-05-30T11:40:56Z</time></trkpt>
<trkpt lat="46.18619000" lon="6.30311600"><ele>543.638</ele><time>2010-05-30T11:40:59Z</time></trkpt>
<trkpt lat="46.18569200" lon="6.30340500"><ele>540.521973</ele><time>2010-05-30T11:41:04Z</time></trkpt>
<trkpt lat="46.18549800" lon="6.30354700"><ele>539.682983</ele><time>2010-05-30T11:41:06Z</time></trkpt>
<trkpt lat="46.18492300" lon="6.30399900"><ele>536.565002</ele><time>2010-05-30T11:41:12Z</time></trkpt>
<trkpt lat="46.18420200" lon="6.30465300"><ele>531.835999</ele><time>2010-05-30T11:41:20Z</time></trkpt>
<trkpt lat="46.18400100" lon="6.30478700"><ele>530.705017</ele><time>2010-05-30T11:41:22Z</time></trkpt>
<trkpt lat="46.18380400" lon="6.30484700"><ele>529.78302</ele><time>2010-05-30T11:41:24Z</time></trkpt>
<trkpt lat="46.18360500" lon="6.30486000"><ele>528.218994</ele><time>2010-05-30T11:41:26Z</time></trkpt>
<trkpt lat="46.18309700" lon="6.30485900"><ele>524.117981</ele><time>2010-05-30T11:41:31Z</time></trkpt>
<trkpt lat="46.18290800" lon="6.30491100"><ele>523.258972</ele><time>2010-05-30T11:41:33Z</time></trkpt>
<trkpt lat="46.18267900" lon="6.30510300"><ele>522.325989</ele><time>2010-05-30T11:41:36Z</time></trkpt>
<trkpt lat="46.18237900" lon="6.30552600"><ele>522.14502</ele><time>2010-05-30T11:41:42Z</time></trkpt>
<trkpt lat="46.18226300" lon="6.30566600"><ele>522.83197</ele><time>2010-05-30T11:41:45Z</time></trkpt>
<trkpt lat="46.18211700" lon="6.30570400"><ele>522.39502</ele><time>2010-05-30T11:41:49Z</time></trkpt>
<trkpt lat="46.18201400" lon="6.30554500"><ele>521.866028</ele><time>2010-05-30T11:41:53Z</time></trkpt>
<trkpt lat="46.18197600" lon="6.30543000"><ele>521.664978</ele><time>2010-05-30T11:41:55Z</time></trkpt>
<trkpt lat="46.18184300" lon="6.30498500"><ele>520.372986</ele><time>2010-05-30T11:42:02Z</time></trkpt>
<trkpt lat="46.18170900" lon="6.30465700"><ele>518.262024</ele><time>2010-05-30T11:42:09Z</time></trkpt>
<trkpt lat="46.18158300" lon="6.30446000"><ele>517.348022</ele><time>2010-05-30T11:42:15Z</time></trkpt>
<trkpt lat="46.18139600" lon="6.30418000"><ele>515.914978</ele><time>2010-05-30T11:42:21Z</time></trkpt>
<trkpt lat="46.18112500" lon="6.30378400"><ele>515.320007</ele><time>2010-05-30T11:42:29Z</time></trkpt>
<trkpt lat="46.18077700" lon="6.30331900"><ele>513.867004</ele><time>2010-05-30T11:42:39Z</time></trkpt>
<trkpt lat="46.18054300" lon="6.30291500"><ele>512.773987</ele><time>2010-05-30T11:42:45Z</time></trkpt>
<trkpt lat="46.18034200" lon="6.30259500"><ele>511.51001</ele><time>2010-05-30T11:42:49Z</time></trkpt>
<trkpt lat="46.18003800" lon="6.30225400"><ele>510.019989</ele><time>2010-05-30T11:42:54Z</time></trkpt>
<trkpt lat="46.17984400" lon="6.30213700"><ele>508.830994</ele><time>2010-05-30T11:42:57Z</time></trkpt>
<trkpt lat="46.17967500" lon="6.30188000"><ele>507.38501</ele><time>2010-05-30T11:43:01Z</time></trkpt>
<trkpt lat="46.17961400" lon="6.30152700"><ele>506.554993</ele><time>2010-05-30T11:43:06Z</time></trkpt>
<trkpt lat="46.17956400" lon="6.30138400"><ele>505.872009</ele><time>2010-05-30T11:43:11Z</time></trkpt>
<trkpt lat="46.17954100" lon="6.30126600"><ele>505.998993</ele><time>2010-05-30T11:43:17Z</time></trkpt>
<trkpt lat="46.17954200" lon="6.30126700"><ele>506</ele><time>2010-05-30T11:43:18Z</time></trkpt>
<trkpt lat="46.17957200" lon="6.30136900"><ele>506.204987</ele><time>2010-05-30T11:45:14Z</time></trkpt>
<trkpt lat="46.17949000" lon="6.30143800"><ele>506.634003</ele><time>2010-05-30T11:45:19Z</time></trkpt>
<trkpt lat="46.17927100" lon="6.30146200"><ele>506.006989</ele><time>2010-05-30T11:45:26Z</time></trkpt>
<trkpt lat="46.17901000" lon="6.30147100"><ele>505.408997</ele><time>2010-05-30T11:45:32Z</time></trkpt>
<trkpt lat="46.17895900" lon="6.30147400"><ele>505.200012</ele><time>2010-05-30T11:45:33Z</time></trkpt>
<trkpt lat="46.17885200" lon="6.30147100"><ele>504.911011</ele><time>2010-05-30T11:45:35Z</time></trkpt>
<trkpt lat="46.17841600" lon="6.30142400"><ele>503.299988</ele><time>2010-05-30T11:45:42Z</time></trkpt>
<trkpt lat="46.17800400" lon="6.30139700"><ele>500.869995</ele><time>2010-05-30T11:45:47Z</time></trkpt>
<trkpt lat="46.17751200" lon="6.30139000"><ele>497.867004</ele><time>2010-05-30T11:45:52Z</time></trkpt>
<trkpt lat="46.17723000" lon="6.30146900"><ele>495.257996</ele><time>2010-05-30T11:45:55Z</time></trkpt>
<trkpt lat="46.17695900" lon="6.30173100"><ele>493.128998</ele><time>2010-05-30T11:45:58Z</time></trkpt>
<trkpt lat="46.17677800" lon="6.30206800"><ele>491.946991</ele><time>2010-05-30T11:46:01Z</time></trkpt>
<trkpt lat="46.17655400" lon="6.30270800"><ele>491.162994</ele><time>2010-05-30T11:46:07Z</time></trkpt>
<trkpt lat="46.17635300" lon="6.30327000"><ele>490.746002</ele><time>2010-05-30T11:46:14Z</time></trkpt>
<trkpt lat="46.17612800" lon="6.30388000"><ele>489.785004</ele><time>2010-05-30T11:46:21Z</time></trkpt>
<trkpt lat="46.17584100" lon="6.30457800"><ele>487.309998</ele><time>2010-05-30T11:46:28Z</time></trkpt>
<trkpt lat="46.17565800" lon="6.30499200"><ele>485.747009</ele><time>2010-05-30T11:46:32Z</time></trkpt>
<trkpt lat="46.17531000" lon="6.30570400"><ele>483.559998</ele><time>2010-05-30T11:46:39Z</time></trkpt>
<trkpt lat="46.17496100" lon="6.30633200"><ele>482.781006</ele><time>2010-05-30T11:46:46Z</time></trkpt>
<trkpt lat="46.17468700" lon="6.30690100"><ele>481.765015</ele><time>2010-05-30T11:46:53Z</time></trkpt>
<trkpt lat="46.17457000" lon="6.30712700"><ele>481.364014</ele><time>2010-05-30T11:46:57Z</time></trkpt>
<trkpt lat="46.17452400" lon="6.30720400"><ele>480.806</ele><time>2010-05-30T11:47:01Z</time></trkpt>
<trkpt lat="46.17452600" lon="6.30720200"><ele>480.597992</ele><time>2010-05-30T11:47:02Z</time></trkpt>
<trkpt lat="46.17457800" lon="6.30709100"><ele>480.471008</ele><time>2010-05-30T11:47:12Z</time></trkpt>
<trkpt lat="46.17458000" lon="6.30708600"><ele>480.480011</ele><time>2010-05-30T11:47:14Z</time></trkpt>
<trkpt lat="46.17456300" lon="6.30706200"><ele>480.725006</ele><time>2010-05-30T11:47:24Z</time></trkpt>
<trkpt lat="46.17455700" lon="6.30705800"><ele>480.794006</ele><time>2010-05-30T11:47:27Z</time></trkpt>
<trkpt lat="46.17444800" lon="6.30716800"><ele>480.959015</ele><time>2010-05-30T11:47:34Z</time></trkpt>
<trkpt lat="46.17421700" lon="6.30736700"><ele>480.868988</ele><time>2010-05-30T11:47:41Z</time></trkpt>
<trkpt lat="46.17389100" lon="6.30757600"><ele>480.458008</ele><time>2010-05-30T11:47:48Z</time></trkpt>
<trkpt lat="46.17378100" lon="6.30761400"><ele>480.437012</ele><time>2010-05-30T11:47:50Z</time></trkpt>
<trkpt lat="46.17350000" lon="6.30760700"><ele>479.544006</ele><time>2010-05-30T11:47:55Z</time></trkpt>
<trkpt lat="46.17311400" lon="6.30773300"><ele>479.265015</ele><time>2010-05-30T11:48:02Z</time></trkpt>
<trkpt lat="46.17286500" lon="6.30793000"><ele>479.691986</ele><time>2010-05-30T11:48:07Z</time></trkpt>
<trkpt lat="46.17262300" lon="6.30826500"><ele>480.039001</ele><time>2010-05-30T11:48:13Z</time></trkpt>
<trkpt lat="46.17241700" lon="6.30882400"><ele>479.910004</ele><time>2010-05-30T11:48:21Z</time></trkpt>
<trkpt lat="46.17228500" lon="6.30945800"><ele>480.368988</ele><time>2010-05-30T11:48:29Z</time></trkpt>
<trkpt lat="46.17213900" lon="6.30989000"><ele>480.445007</ele><time>2010-05-30T11:48:35Z</time></trkpt>
<trkpt lat="46.17190300" lon="6.31020900"><ele>480.420013</ele><time>2010-05-30T11:48:41Z</time></trkpt>
<trkpt lat="46.17156100" lon="6.31049000"><ele>480.944</ele><time>2010-05-30T11:48:48Z</time></trkpt>
<trkpt lat="46.17107900" lon="6.31089900"><ele>481.127991</ele><time>2010-05-30T11:48:58Z</time></trkpt>
<trkpt lat="46.17071400" lon="6.31122700"><ele>482.042999</ele><time>2010-05-30T11:49:06Z</time></trkpt>
<trkpt lat="46.17042100" lon="6.31150400"><ele>482.950012</ele><time>2010-05-30T11:49:13Z</time></trkpt>
<trkpt lat="46.17015000" lon="6.31181700"><ele>482.984009</ele><time>2010-05-30T11:49:20Z</time></trkpt>
<trkpt lat="46.16988500" lon="6.31216200"><ele>483.127014</ele><time>2010-05-30T11:49:27Z</time></trkpt>
<trkpt lat="46.16954700" lon="6.31261400"><ele>483.151001</ele><time>2010-05-30T11:49:36Z</time></trkpt>
<trkpt lat="46.16934100" lon="6.31287300"><ele>483.087006</ele><time>2010-05-30T11:49:41Z</time></trkpt>
<trkpt lat="46.16928200" lon="6.31316500"><ele>483.300995</ele><time>2010-05-30T11:49:45Z</time></trkpt>
<trkpt lat="46.16936400" lon="6.31336900"><ele>483.085999</ele><time>2010-05-30T11:49:48Z</time></trkpt>
<trkpt lat="46.16940100" lon="6.31342400"><ele>483.070007</ele><time>2010-05-30T11:49:49Z</time></trkpt>
<trkpt lat="46.16967200" lon="6.31382500"><ele>483.720001</ele><time>2010-05-30T11:49:56Z</time></trkpt>
<trkpt lat="46.16990200" lon="6.31413600"><ele>484.778992</ele><time>2010-05-30T11:50:03Z</time></trkpt>
<trkpt lat="46.17020900" lon="6.31455900"><ele>484.79599</ele><time>2010-05-30T11:50:12Z</time></trkpt>
<trkpt lat="46.17044100" lon="6.31486500"><ele>485.244995</ele><time>2010-05-30T11:50:19Z</time></trkpt>
<trkpt lat="46.17067500" lon="6.31512300"><ele>485.687988</ele><time>2010-05-30T11:50:26Z</time></trkpt>
<trkpt lat="46.17075800" lon="6.31533900"><ele>486.601013</ele><time>2010-05-30T11:50:30Z</time></trkpt>
<trkpt lat="46.17076600" lon="6.31540100"><ele>486.601013</ele><time>2010-05-30T11:50:31Z</time></trkpt>
<trkpt lat="46.17073800" lon="6.31577700"><ele>487.619995</ele><time>2010-05-30T11:50:37Z</time></trkpt>
<trkpt lat="46.17063000" lon="6.31624100"><ele>488.64801</ele><time>2010-05-30T11:50:45Z</time></trkpt>
<trkpt lat="46.17044100" lon="6.31663700"><ele>489.622986</ele><time>2010-05-30T11:50:53Z</time></trkpt>
<trkpt lat="46.17022600" lon="6.31696200"><ele>490.352997</ele><time>2010-05-30T11:51:01Z</time></trkpt>
<trkpt lat="46.16992800" lon="6.31726700"><ele>490.574005</ele><time>2010-05-30T11:51:10Z</time></trkpt>
<trkpt lat="46.16959600" lon="6.31757900"><ele>490.369995</ele><time>2010-05-30T11:51:19Z</time></trkpt>
<trkpt lat="46.16928400" lon="6.31790200"><ele>490.046997</ele><time>2010-05-30T11:51:27Z</time></trkpt>
<trkpt lat="46.16894800" lon="6.31834900"><ele>489.524994</ele><time>2010-05-30T11:51:36Z</time></trkpt>
<trkpt lat="46.16864600" lon="6.31885200"><ele>488.830994</ele><time>2010-05-30T11:51:45Z</time></trkpt>
<trkpt lat="46.16838200" lon="6.31932000"><ele>488.957001</ele><time>2010-05-30T11:51:53Z</time></trkpt>
<trkpt lat="46.16831600" lon="6.31943100"><ele>488.819</ele><time>2010-05-30T11:51:56Z</time></trkpt>
<trkpt lat="46.16827900" lon="6.31936800"><ele>488.446991</ele><time>2010-05-30T11:52:01Z</time></trkpt>
<trkpt lat="46.16828000" lon="6.31935100"><ele>488.446991</ele><time>2010-05-30T11:52:02Z</time></trkpt>
<trkpt lat="46.16828200" lon="6.31932200"><ele>488.359009</ele><time>2010-05-30T11:52:04Z</time></trkpt>
<trkpt lat="46.16827400" lon="6.31929500"><ele>488.269989</ele><time>2010-05-30T11:52:08Z</time></trkpt>
<trkpt lat="46.16825400" lon="6.31933200"><ele>488.34201</ele><time>2010-05-30T11:52:15Z</time></trkpt>
<trkpt lat="46.16833300" lon="6.31940400"><ele>488.722992</ele><time>2010-05-30T11:55:22Z</time></trkpt>
<trkpt lat="46.16834000" lon="6.31940500"><ele>488.697998</ele><time>2010-05-30T11:55:23Z</time></trkpt>
<trkpt lat="46.16834000" lon="6.31940600"><ele>488.756989</ele><time>2010-05-30T11:55:25Z</time></trkpt>
<trkpt lat="46.16829500" lon="6.31940400"><ele>488.674011</ele><time>2010-05-30T11:55:53Z</time></trkpt>
<trkpt lat="46.16830000" lon="6.31939600"><ele>488.761993</ele><time>2010-05-30T11:55:57Z</time></trkpt>
<trkpt lat="46.16827600" lon="6.31948800"><ele>489.197998</ele><time>2010-05-30T11:56:08Z</time></trkpt>
<trkpt lat="46.16818800" lon="6.31967200"><ele>489.368011</ele><time>2010-05-30T11:56:15Z</time></trkpt>
<trkpt lat="46.16805500" lon="6.31986100"><ele>489.501007</ele><time>2010-05-30T11:56:22Z</time></trkpt>
<trkpt lat="46.16794700" lon="6.32010300"><ele>489.782013</ele><time>2010-05-30T11:56:29Z</time></trkpt>
<trkpt lat="46.16785300" lon="6.32033600"><ele>490.278992</ele><time>2010-05-30T11:56:35Z</time></trkpt>
<trkpt lat="46.16769900" lon="6.32063300"><ele>490.937988</ele><time>2010-05-30T11:56:43Z</time></trkpt>
<trkpt lat="46.16754500" lon="6.32099600"><ele>491.76001</ele><time>2010-05-30T11:56:51Z</time></trkpt>
<trkpt lat="46.16734100" lon="6.32140900"><ele>492.536987</ele><time>2010-05-30T11:57:00Z</time></trkpt>
<trkpt lat="46.16714200" lon="6.32158500"><ele>492.703003</ele><time>2010-05-30T11:57:08Z</time></trkpt>
<trkpt lat="46.16700400" lon="6.32151900"><ele>492.640991</ele><time>2010-05-30T11:57:13Z</time></trkpt>
<trkpt lat="46.16684000" lon="6.32142800"><ele>492.707001</ele><time>2010-05-30T11:57:18Z</time></trkpt>
<trkpt lat="46.16675300" lon="6.32139100"><ele>492.589996</ele><time>2010-05-30T11:57:20Z</time></trkpt>
<trkpt lat="46.16632100" lon="6.32116600"><ele>493.375</ele><time>2010-05-30T11:57:30Z</time></trkpt>
<trkpt lat="46.16594400" lon="6.32095300"><ele>494.917999</ele><time>2010-05-30T11:57:40Z</time></trkpt>
<trkpt lat="46.16557900" lon="6.32076800"><ele>496.661987</ele><time>2010-05-30T11:57:50Z</time></trkpt>
<trkpt lat="46.16535700" lon="6.32070600"><ele>497.72699</ele><time>2010-05-30T11:57:56Z</time></trkpt>
<trkpt lat="46.16502400" lon="6.32069000"><ele>499.144012</ele><time>2010-05-30T11:58:04Z</time></trkpt>
<trkpt lat="46.16477400" lon="6.32068900"><ele>500.119995</ele><time>2010-05-30T11:58:10Z</time></trkpt>
<trkpt lat="46.16444500" lon="6.32059900"><ele>501.171997</ele><time>2010-05-30T11:58:18Z</time></trkpt>
<trkpt lat="46.16422300" lon="6.32044600"><ele>502.394989</ele><time>2010-05-30T11:58:24Z</time></trkpt>
<trkpt lat="46.16401300" lon="6.32019100"><ele>503.269012</ele><time>2010-05-30T11:58:31Z</time></trkpt>
<trkpt lat="46.16386200" lon="6.31998900"><ele>503.60199</ele><time>2010-05-30T11:58:36Z</time></trkpt>
<trkpt lat="46.16366600" lon="6.31966500"><ele>504.372986</ele><time>2010-05-30T11:58:43Z</time></trkpt>
<trkpt lat="46.16352700" lon="6.31936800"><ele>505.509003</ele><time>2010-05-30T11:58:49Z</time></trkpt>
<trkpt lat="46.16334300" lon="6.31881700"><ele>506.721008</ele><time>2010-05-30T11:59:00Z</time></trkpt>
<trkpt lat="46.16322100" lon="6.31846300"><ele>507.315002</ele><time>2010-05-30T11:59:07Z</time></trkpt>
<trkpt lat="46.16302200" lon="6.31801100"><ele>508.997986</ele><time>2010-05-30T11:59:17Z</time></trkpt>
<trkpt lat="46.16281200" lon="6.31766600"><ele>510.431</ele><time>2010-05-30T11:59:25Z</time></trkpt>
<trkpt lat="46.16260300" lon="6.31741200"><ele>511.362</ele><time>2010-05-30T11:59:32Z</time></trkpt>
<trkpt lat="46.16227200" lon="6.31708300"><ele>512.799988</ele><time>2010-05-30T11:59:43Z</time></trkpt>
<trkpt lat="46.16198400" lon="6.31682200"><ele>514.242981</ele><time>2010-05-30T11:59:53Z</time></trkpt>
<trkpt lat="46.16177600" lon="6.31665300"><ele>515.080994</ele><time>2010-05-30T12:00:00Z</time></trkpt>
<trkpt lat="46.16151600" lon="6.31645600"><ele>515.898987</ele><time>2010-05-30T12:00:09Z</time></trkpt>
<trkpt lat="46.16142800" lon="6.31624100"><ele>516.406006</ele><time>2010-05-30T12:00:14Z</time></trkpt>
<trkpt lat="46.16142500" lon="6.31601300"><ele>516.736023</ele><time>2010-05-30T12:00:18Z</time></trkpt>
<trkpt lat="46.16147500" lon="6.31562400"><ele>517.04303</ele><time>2010-05-30T12:00:25Z</time></trkpt>
<trkpt lat="46.16138600" lon="6.31545500"><ele>517.734985</ele><time>2010-05-30T12:00:29Z</time></trkpt>
<trkpt lat="46.16120600" lon="6.31540200"><ele>519.14502</ele><time>2010-05-30T12:00:34Z</time></trkpt>
<trkpt lat="46.16116800" lon="6.31540900"><ele>519.197998</ele><time>2010-05-30T12:00:35Z</time></trkpt>
<trkpt lat="46.16096700" lon="6.31548700"><ele>519.64502</ele><time>2010-05-30T12:00:40Z</time></trkpt>
<trkpt lat="46.16055000" lon="6.31559200"><ele>519.35498</ele><time>2010-05-30T12:00:49Z</time></trkpt>
<trkpt lat="46.16029500" lon="6.31562300"><ele>519.549011</ele><time>2010-05-30T12:00:54Z</time></trkpt>
<trkpt lat="46.15987500" lon="6.31565500"><ele>519.239014</ele><time>2010-05-30T12:01:02Z</time></trkpt>
<trkpt lat="46.15961800" lon="6.31567300"><ele>518.728027</ele><time>2010-05-30T12:01:07Z</time></trkpt>
<trkpt lat="46.15953500" lon="6.31567600"><ele>518.588013</ele><time>2010-05-30T12:01:09Z</time></trkpt>
<trkpt lat="46.15938300" lon="6.31552500"><ele>517.65802</ele><time>2010-05-30T12:01:14Z</time></trkpt>
<trkpt lat="46.15924700" lon="6.31557600"><ele>516.815979</ele><time>2010-05-30T12:01:17Z</time></trkpt>
<trkpt lat="46.15884000" lon="6.31584200"><ele>515.205994</ele><time>2010-05-30T12:01:24Z</time></trkpt>
<trkpt lat="46.15857700" lon="6.31590200"><ele>513.314026</ele><time>2010-05-30T12:01:28Z</time></trkpt>
<trkpt lat="46.15849800" lon="6.31576700"><ele>512.34198</ele><time>2010-05-30T12:01:30Z</time></trkpt>
<trkpt lat="46.15850200" lon="6.31557600"><ele>511.27301</ele><time>2010-05-30T12:01:32Z</time></trkpt>
<trkpt lat="46.15857600" lon="6.31539500"><ele>510.223999</ele><time>2010-05-30T12:01:34Z</time></trkpt>
<trkpt lat="46.15894800" lon="6.31471800"><ele>507.743988</ele><time>2010-05-30T12:01:41Z</time></trkpt>
<trkpt lat="46.15906400" lon="6.31452100"><ele>507.091003</ele><time>2010-05-30T12:01:43Z</time></trkpt>
<trkpt lat="46.15913100" lon="6.31421300"><ele>505.118011</ele><time>2010-05-30T12:01:46Z</time></trkpt>
<trkpt lat="46.15905100" lon="6.31405900"><ele>504.037994</ele><time>2010-05-30T12:01:48Z</time></trkpt>
<trkpt lat="46.15898700" lon="6.31401600"><ele>503.862</ele><time>2010-05-30T12:01:49Z</time></trkpt>
<trkpt lat="46.15884300" lon="6.31402200"><ele>502.962006</ele><time>2010-05-30T12:01:51Z</time></trkpt>
<trkpt lat="46.15869200" lon="6.31408500"><ele>502.263</ele><time>2010-05-30T12:01:53Z</time></trkpt>
<trkpt lat="46.15836900" lon="6.31402200"><ele>499.904999</ele><time>2010-05-30T12:01:57Z</time></trkpt>
<trkpt lat="46.15824600" lon="6.31384700"><ele>499.119995</ele><time>2010-05-30T12:01:59Z</time></trkpt>
<trkpt lat="46.15798000" lon="6.31326700"><ele>496.915009</ele><time>2010-05-30T12:02:04Z</time></trkpt>
<trkpt lat="46.15789800" lon="6.31271300"><ele>495.192993</ele><time>2010-05-30T12:02:08Z</time></trkpt>
<trkpt lat="46.15789600" lon="6.31243300"><ele>494.434998</ele><time>2010-05-30T12:02:10Z</time></trkpt>
<trkpt lat="46.15773700" lon="6.31194900"><ele>493.63501</ele><time>2010-05-30T12:02:14Z</time></trkpt>
<trkpt lat="46.15766100" lon="6.31185900"><ele>493.307007</ele><time>2010-05-30T12:02:15Z</time></trkpt>
<trkpt lat="46.15710700" lon="6.31127100"><ele>490.174988</ele><time>2010-05-30T12:02:22Z</time></trkpt>
<trkpt lat="46.15703800" lon="6.31117300"><ele>489.675995</ele><time>2010-05-30T12:02:23Z</time></trkpt>
<trkpt lat="46.15685400" lon="6.31068900"><ele>487.230988</ele><time>2010-05-30T12:02:27Z</time></trkpt>
<trkpt lat="46.15676100" lon="6.31044200"><ele>486.506012</ele><time>2010-05-30T12:02:29Z</time></trkpt>
<trkpt lat="46.15664500" lon="6.31022800"><ele>486.256989</ele><time>2010-05-30T12:02:31Z</time></trkpt>
<trkpt lat="46.15641200" lon="6.30984900"><ele>484.911011</ele><time>2010-05-30T12:02:35Z</time></trkpt>
<trkpt lat="46.15602000" lon="6.30911500"><ele>481.953003</ele><time>2010-05-30T12:02:43Z</time></trkpt>
<trkpt lat="46.15590700" lon="6.30883500"><ele>481.622986</ele><time>2010-05-30T12:02:46Z</time></trkpt>
<trkpt lat="46.15588000" lon="6.30873700"><ele>481.627991</ele><time>2010-05-30T12:02:47Z</time></trkpt>
<trkpt lat="46.15571300" lon="6.30802200"><ele>479.990997</ele><time>2010-05-30T12:02:54Z</time></trkpt>
<trkpt lat="46.15553800" lon="6.30767500"><ele>479.696014</ele><time>2010-05-30T12:02:58Z</time></trkpt>
<trkpt lat="46.15514100" lon="6.30713400"><ele>477.648987</ele><time>2010-05-30T12:03:05Z</time></trkpt>
<trkpt lat="46.15508600" lon="6.30705600"><ele>477.453003</ele><time>2010-05-30T12:03:06Z</time></trkpt>
<trkpt lat="46.15494500" lon="6.30683600"><ele>475.987</ele><time>2010-05-30T12:03:10Z</time></trkpt>
<trkpt lat="46.15492200" lon="6.30679800"><ele>475.708008</ele><time>2010-05-30T12:03:11Z</time></trkpt>
<trkpt lat="46.15485500" lon="6.30670200"><ele>475.481995</ele><time>2010-05-30T12:03:14Z</time></trkpt>
<trkpt lat="46.15489800" lon="6.30652200"><ele>475.102997</ele><time>2010-05-30T12:03:19Z</time></trkpt>
<trkpt lat="46.15495600" lon="6.30624600"><ele>474.981995</ele><time>2010-05-30T12:03:25Z</time></trkpt>
<trkpt lat="46.15487000" lon="6.30603000"><ele>474.695007</ele><time>2010-05-30T12:03:30Z</time></trkpt>
<trkpt lat="46.15468100" lon="6.30577500"><ele>474.277008</ele><time>2010-05-30T12:03:38Z</time></trkpt>
<trkpt lat="46.15453500" lon="6.30563300"><ele>473.966003</ele><time>2010-05-30T12:03:43Z</time></trkpt>
<trkpt lat="46.15447900" lon="6.30559700"><ele>473.934998</ele><time>2010-05-30T12:03:45Z</time></trkpt>
<trkpt lat="46.15435700" lon="6.30556900"><ele>473.575012</ele><time>2010-05-30T12:03:52Z</time></trkpt>
<trkpt lat="46.15430800" lon="6.30557100"><ele>472.77301</ele><time>2010-05-30T12:03:57Z</time></trkpt>
<trkpt lat="46.15431100" lon="6.30556600"><ele>472.878998</ele><time>2010-05-30T12:04:11Z</time></trkpt>
<trkpt lat="46.15431100" lon="6.30556400"><ele>472.842987</ele><time>2010-05-30T12:04:12Z</time></trkpt>
<trkpt lat="46.15433700" lon="6.30545300"><ele>472.636993</ele><time>2010-05-30T12:04:18Z</time></trkpt>
<trkpt lat="46.15434200" lon="6.30542300"><ele>472.359985</ele><time>2010-05-30T12:04:22Z</time></trkpt>
<trkpt lat="46.15423000" lon="6.30543500"><ele>477.713989</ele><time>2010-05-30T12:24:43Z</time></trkpt>
<trkpt lat="46.15419200" lon="6.30547000"><ele>477.709991</ele><time>2010-05-30T12:24:47Z</time></trkpt>
<trkpt lat="46.15413600" lon="6.30559400"><ele>477.794006</ele><time>2010-05-30T12:24:52Z</time></trkpt>
<trkpt lat="46.15409300" lon="6.30580100"><ele>477.997009</ele><time>2010-05-30T12:24:57Z</time></trkpt>
<trkpt lat="46.15401000" lon="6.30613800"><ele>478.320007</ele><time>2010-05-30T12:25:04Z</time></trkpt>
<trkpt lat="46.15397400" lon="6.30622600"><ele>477.617004</ele><time>2010-05-30T12:25:08Z</time></trkpt>
<trkpt lat="46.15397500" lon="6.30622700"><ele>477.52301</ele><time>2010-05-30T12:25:09Z</time></trkpt>
<trkpt lat="46.15401300" lon="6.30626000"><ele>477.647003</ele><time>2010-05-30T12:25:45Z</time></trkpt>
<trkpt lat="46.15401800" lon="6.30626200"><ele>477.781006</ele><time>2010-05-30T12:25:46Z</time></trkpt>
<trkpt lat="46.15401200" lon="6.30636900"><ele>478.972992</ele><time>2010-05-30T12:29:14Z</time></trkpt>
<trkpt lat="46.15396100" lon="6.30651700"><ele>479.036011</ele><time>2010-05-30T12:29:18Z</time></trkpt>
<trkpt lat="46.15377700" lon="6.30682500"><ele>478.743011</ele><time>2010-05-30T12:29:25Z</time></trkpt>
<trkpt lat="46.15359500" lon="6.30702600"><ele>478.367004</ele><time>2010-05-30T12:29:30Z</time></trkpt>
<trkpt lat="46.15339800" lon="6.30717500"><ele>478.119995</ele><time>2010-05-30T12:29:35Z</time></trkpt>
<trkpt lat="46.15330400" lon="6.30715600"><ele>477.759003</ele><time>2010-05-30T12:29:37Z</time></trkpt>
<trkpt lat="46.15308000" lon="6.30709800"><ele>477.339996</ele><time>2010-05-30T12:29:41Z</time></trkpt>
<trkpt lat="46.15269800" lon="6.30719600"><ele>475.983002</ele><time>2010-05-30T12:29:47Z</time></trkpt>
<trkpt lat="46.15232500" lon="6.30730000"><ele>475.259003</ele><time>2010-05-30T12:29:52Z</time></trkpt>
<trkpt lat="46.15203900" lon="6.30735100"><ele>474.989014</ele><time>2010-05-30T12:29:56Z</time></trkpt>
<trkpt lat="46.15175900" lon="6.30721700"><ele>473.315002</ele><time>2010-05-30T12:30:00Z</time></trkpt>
<trkpt lat="46.15169300" lon="6.30715100"><ele>472.699005</ele><time>2010-05-30T12:30:01Z</time></trkpt>
<trkpt lat="46.15149600" lon="6.30692700"><ele>471.257996</ele><time>2010-05-30T12:30:04Z</time></trkpt>
<trkpt lat="46.15143000" lon="6.30686400"><ele>470.779999</ele><time>2010-05-30T12:30:05Z</time></trkpt>
<trkpt lat="46.15112600" lon="6.30673700"><ele>468.833008</ele><time>2010-05-30T12:30:09Z</time></trkpt>
<trkpt lat="46.15094900" lon="6.30676800"><ele>467.80899</ele><time>2010-05-30T12:30:11Z</time></trkpt>
<trkpt lat="46.15077000" lon="6.30683100"><ele>466.93399</ele><time>2010-05-30T12:30:13Z</time></trkpt>
<trkpt lat="46.15039100" lon="6.30695200"><ele>464.75</ele><time>2010-05-30T12:30:17Z</time></trkpt>
<trkpt lat="46.14990900" lon="6.30686100"><ele>462.565002</ele><time>2010-05-30T12:30:22Z</time></trkpt>
<trkpt lat="46.14973900" lon="6.30673600"><ele>461.695007</ele><time>2010-05-30T12:30:24Z</time></trkpt>
<trkpt lat="46.14923800" lon="6.30620000"><ele>461.368011</ele><time>2010-05-30T12:30:30Z</time></trkpt>
<trkpt lat="46.14916900" lon="6.30616800"><ele>461.36499</ele><time>2010-05-30T12:30:31Z</time></trkpt>
<trkpt lat="46.14882300" lon="6.30596700"><ele>461.436005</ele><time>2010-05-30T12:30:37Z</time></trkpt>
<trkpt lat="46.14863400" lon="6.30586400"><ele>461.807007</ele><time>2010-05-30T12:30:40Z</time></trkpt>
<trkpt lat="46.14825800" lon="6.30566700"><ele>462.01001</ele><time>2010-05-30T12:30:46Z</time></trkpt>
<trkpt lat="46.14801200" lon="6.30554300"><ele>462.299988</ele><time>2010-05-30T12:30:50Z</time></trkpt>
<trkpt lat="46.14766600" lon="6.30541000"><ele>462.350006</ele><time>2010-05-30T12:30:56Z</time></trkpt>
<trkpt lat="46.14715200" lon="6.30528500"><ele>461.484009</ele><time>2010-05-30T12:31:04Z</time></trkpt>
<trkpt lat="46.14663000" lon="6.30512200"><ele>458.843994</ele><time>2010-05-30T12:31:11Z</time></trkpt>
<trkpt lat="46.14622300" lon="6.30499400"><ele>456.795013</ele><time>2010-05-30T12:31:16Z</time></trkpt>
<trkpt lat="46.14606900" lon="6.30499400"><ele>455.980011</ele><time>2010-05-30T12:31:18Z</time></trkpt>
<trkpt lat="46.14585400" lon="6.30517300"><ele>454.619995</ele><time>2010-05-30T12:31:21Z</time></trkpt>
<trkpt lat="46.14579200" lon="6.30526100"><ele>454.302002</ele><time>2010-05-30T12:31:22Z</time></trkpt>
<trkpt lat="46.14560800" lon="6.30554900"><ele>451.678009</ele><time>2010-05-30T12:31:26Z</time></trkpt>
<trkpt lat="46.14554900" lon="6.30565300"><ele>450.716003</ele><time>2010-05-30T12:31:29Z</time></trkpt>
<trkpt lat="46.14553400" lon="6.30570200"><ele>450.513</ele><time>2010-05-30T12:31:33Z</time></trkpt>
<trkpt lat="46.14553500" lon="6.30572800"><ele>450.269012</ele><time>2010-05-30T12:31:38Z</time></trkpt>
<trkpt lat="46.14552000" lon="6.30572700"><ele>449.841003</ele><time>2010-05-30T12:32:57Z</time></trkpt>
<trkpt lat="46.14552200" lon="6.30572500"><ele>449.884003</ele><time>2010-05-30T12:32:58Z</time></trkpt>
<trkpt lat="46.14538100" lon="6.30583600"><ele>450.011993</ele><time>2010-05-30T12:33:13Z</time></trkpt>
<trkpt lat="46.14531100" lon="6.30588900"><ele>450.079987</ele><time>2010-05-30T12:33:15Z</time></trkpt>
<trkpt lat="46.14514600" lon="6.30595500"><ele>450.665009</ele><time>2010-05-30T12:33:19Z</time></trkpt>
<trkpt lat="46.14491700" lon="6.30593700"><ele>451.302002</ele><time>2010-05-30T12:33:24Z</time></trkpt>
<trkpt lat="46.14470500" lon="6.30579500"><ele>452.488007</ele><time>2010-05-30T12:33:30Z</time></trkpt>
<trkpt lat="46.14465700" lon="6.30573900"><ele>452.873993</ele><time>2010-05-30T12:33:34Z</time></trkpt>
<trkpt lat="46.14466000" lon="6.30573900"><ele>452.851013</ele><time>2010-05-30T12:33:35Z</time></trkpt>
<trkpt lat="46.14462200" lon="6.30568600"><ele>453.140991</ele><time>2010-05-30T12:34:13Z</time></trkpt>
<trkpt lat="46.14458700" lon="6.30565600"><ele>453.363007</ele><time>2010-05-30T12:34:15Z</time></trkpt>
<trkpt lat="46.14445400" lon="6.30553700"><ele>454.556</ele><time>2010-05-30T12:34:22Z</time></trkpt>
<trkpt lat="46.14431600" lon="6.30541300"><ele>455.602997</ele><time>2010-05-30T12:34:27Z</time></trkpt>
<trkpt lat="46.14411400" lon="6.30531300"><ele>457.171997</ele><time>2010-05-30T12:34:33Z</time></trkpt>
<trkpt lat="46.14393100" lon="6.30536200"><ele>458.002991</ele><time>2010-05-30T12:34:38Z</time></trkpt>
<trkpt lat="46.14366000" lon="6.30558900"><ele>459.188995</ele><time>2010-05-30T12:34:46Z</time></trkpt>
<trkpt lat="46.14358500" lon="6.30565500"><ele>459.550995</ele><time>2010-05-30T12:34:48Z</time></trkpt>
<trkpt lat="46.14318700" lon="6.30598600"><ele>460.674011</ele><time>2010-05-30T12:34:58Z</time></trkpt>
<trkpt lat="46.14296600" lon="6.30622800"><ele>461.212006</ele><time>2010-05-30T12:35:04Z</time></trkpt>
<trkpt lat="46.14264800" lon="6.30662000"><ele>462.56601</ele><time>2010-05-30T12:35:13Z</time></trkpt>
<trkpt lat="46.14237700" lon="6.30691100"><ele>463.074005</ele><time>2010-05-30T12:35:20Z</time></trkpt>
<trkpt lat="46.14206100" lon="6.30711400"><ele>463.790985</ele><time>2010-05-30T12:35:27Z</time></trkpt>
<trkpt lat="46.14172400" lon="6.30724100"><ele>465.083008</ele><time>2010-05-30T12:35:35Z</time></trkpt>
<trkpt lat="46.14151700" lon="6.30730900"><ele>465.497986</ele><time>2010-05-30T12:35:40Z</time></trkpt>
<trkpt lat="46.14132000" lon="6.30745400"><ele>465.787994</ele><time>2010-05-30T12:35:45Z</time></trkpt>
<trkpt lat="46.14110500" lon="6.30771100"><ele>465.852997</ele><time>2010-05-30T12:35:51Z</time></trkpt>
<trkpt lat="46.14092700" lon="6.30811600"><ele>465.752014</ele><time>2010-05-30T12:35:59Z</time></trkpt>
<trkpt lat="46.14079300" lon="6.30815500"><ele>465.794006</ele><time>2010-05-30T12:36:03Z</time></trkpt>
<trkpt lat="46.14059300" lon="6.30807400"><ele>466</ele><time>2010-05-30T12:36:08Z</time></trkpt>
<trkpt lat="46.14029500" lon="6.30785500"><ele>467.039001</ele><time>2010-05-30T12:36:16Z</time></trkpt>
<trkpt lat="46.14012700" lon="6.30776500"><ele>467.109009</ele><time>2010-05-30T12:36:21Z</time></trkpt>
<trkpt lat="46.14003900" lon="6.30787400"><ele>467.343994</ele><time>2010-05-30T12:36:24Z</time></trkpt>
<trkpt lat="46.13984600" lon="6.30835000"><ele>467.402008</ele><time>2010-05-30T12:36:32Z</time></trkpt>
<trkpt lat="46.13981700" lon="6.30840500"><ele>467.511993</ele><time>2010-05-30T12:36:33Z</time></trkpt>
<trkpt lat="46.13962000" lon="6.30855100"><ele>467.598999</ele><time>2010-05-30T12:36:38Z</time></trkpt>
<trkpt lat="46.13950200" lon="6.30858200"><ele>467.763</ele><time>2010-05-30T12:36:41Z</time></trkpt>
<trkpt lat="46.13935500" lon="6.30869800"><ele>467.959991</ele><time>2010-05-30T12:36:45Z</time></trkpt>
<trkpt lat="46.13909100" lon="6.30911200"><ele>467.987</ele><time>2010-05-30T12:36:53Z</time></trkpt>
<trkpt lat="46.13877500" lon="6.30956900"><ele>467.789001</ele><time>2010-05-30T12:37:02Z</time></trkpt>
<trkpt lat="46.13840700" lon="6.31003000"><ele>467.95401</ele><time>2010-05-30T12:37:11Z</time></trkpt>
<trkpt lat="46.13818800" lon="6.31044100"><ele>467.790985</ele><time>2010-05-30T12:37:17Z</time></trkpt>
<trkpt lat="46.13799500" lon="6.31095600"><ele>465.856995</ele><time>2010-05-30T12:37:23Z</time></trkpt>
<trkpt lat="46.13779500" lon="6.31155300"><ele>463.459015</ele><time>2010-05-30T12:37:29Z</time></trkpt>
<trkpt lat="46.13761700" lon="6.31196400"><ele>461.332001</ele><time>2010-05-30T12:37:34Z</time></trkpt>
<trkpt lat="46.13735300" lon="6.31245100"><ele>456.609985</ele><time>2010-05-30T12:37:39Z</time></trkpt>
<trkpt lat="46.13718000" lon="6.31270800"><ele>454.765991</ele><time>2010-05-30T12:37:42Z</time></trkpt>
<trkpt lat="46.13696600" lon="6.31303300"><ele>451.988007</ele><time>2010-05-30T12:37:47Z</time></trkpt>
<trkpt lat="46.13690400" lon="6.31311300"><ele>450.798004</ele><time>2010-05-30T12:37:50Z</time></trkpt>
<trkpt lat="46.13690300" lon="6.31311400"><ele>450.450989</ele><time>2010-05-30T12:37:52Z</time></trkpt>
<trkpt lat="46.13688900" lon="6.31316900"><ele>450.510986</ele><time>2010-05-30T12:38:18Z</time></trkpt>
<trkpt lat="46.13681800" lon="6.31324800"><ele>450.355988</ele><time>2010-05-30T12:38:21Z</time></trkpt>
<trkpt lat="46.13668500" lon="6.31318000"><ele>449.880005</ele><time>2010-05-30T12:38:25Z</time></trkpt>
<trkpt lat="46.13637400" lon="6.31280800"><ele>449.115997</ele><time>2010-05-30T12:38:32Z</time></trkpt>
<trkpt lat="46.13621500" lon="6.31262700"><ele>448.748993</ele><time>2010-05-30T12:38:35Z</time></trkpt>
<trkpt lat="46.13570100" lon="6.31204700"><ele>447.269989</ele><time>2010-05-30T12:38:44Z</time></trkpt>
<trkpt lat="46.13549900" lon="6.31190900"><ele>446.251007</ele><time>2010-05-30T12:38:47Z</time></trkpt>
<trkpt lat="46.13510800" lon="6.31186900"><ele>444.751007</ele><time>2010-05-30T12:38:52Z</time></trkpt>
<trkpt lat="46.13502900" lon="6.31189100"><ele>444.510986</ele><time>2010-05-30T12:38:53Z</time></trkpt>
<trkpt lat="46.13453800" lon="6.31210700"><ele>441.958008</ele><time>2010-05-30T12:38:59Z</time></trkpt>
<trkpt lat="46.13378900" lon="6.31244900"><ele>440.931</ele><time>2010-05-30T12:39:08Z</time></trkpt>
<trkpt lat="46.13344000" lon="6.31260400"><ele>442.269989</ele><time>2010-05-30T12:39:13Z</time></trkpt>
<trkpt lat="46.13326300" lon="6.31268000"><ele>442.838013</ele><time>2010-05-30T12:39:16Z</time></trkpt>
<trkpt lat="46.13315300" lon="6.31270900"><ele>443.411011</ele><time>2010-05-30T12:39:18Z</time></trkpt>
<trkpt lat="46.13287500" lon="6.31269200"><ele>445.173004</ele><time>2010-05-30T12:39:24Z</time></trkpt>
<trkpt lat="46.13268100" lon="6.31264000"><ele>446.618988</ele><time>2010-05-30T12:39:29Z</time></trkpt>
<trkpt lat="46.13244300" lon="6.31257400"><ele>448.233002</ele><time>2010-05-30T12:39:35Z</time></trkpt>
<trkpt lat="46.13224100" lon="6.31256300"><ele>449.286011</ele><time>2010-05-30T12:39:40Z</time></trkpt>
<trkpt lat="46.13184800" lon="6.31261100"><ele>450.640015</ele><time>2010-05-30T12:39:49Z</time></trkpt>
<trkpt lat="46.13139200" lon="6.31268300"><ele>450.592987</ele><time>2010-05-30T12:39:58Z</time></trkpt>
<trkpt lat="46.13082700" lon="6.31277300"><ele>450.782013</ele><time>2010-05-30T12:40:08Z</time></trkpt>
<trkpt lat="46.13010400" lon="6.31289000"><ele>450.899994</ele><time>2010-05-30T12:40:20Z</time></trkpt>
<trkpt lat="46.12945100" lon="6.31299100"><ele>451.615997</ele><time>2010-05-30T12:40:31Z</time></trkpt>
<trkpt lat="46.12895100" lon="6.31306600"><ele>451.884003</ele><time>2010-05-30T12:40:40Z</time></trkpt>
<trkpt lat="46.12850300" lon="6.31314000"><ele>452.562988</ele><time>2010-05-30T12:40:48Z</time></trkpt>
<trkpt lat="46.12794400" lon="6.31321700"><ele>452.703003</ele><time>2010-05-30T12:40:58Z</time></trkpt>
<trkpt lat="46.12737900" lon="6.31330900"><ele>453.816986</ele><time>2010-05-30T12:41:08Z</time></trkpt>
<trkpt lat="46.12681400" lon="6.31339700"><ele>455.071014</ele><time>2010-05-30T12:41:19Z</time></trkpt>
<trkpt lat="46.12645400" lon="6.31345200"><ele>456.020996</ele><time>2010-05-30T12:41:27Z</time></trkpt>
<trkpt lat="46.12602900" lon="6.31352100"><ele>457.412994</ele><time>2010-05-30T12:41:37Z</time></trkpt>
<trkpt lat="46.12566900" lon="6.31358200"><ele>459.056</ele><time>2010-05-30T12:41:46Z</time></trkpt>
<trkpt lat="46.12550800" lon="6.31361300"><ele>459.743011</ele><time>2010-05-30T12:41:50Z</time></trkpt>
<trkpt lat="46.12510300" lon="6.31367100"><ele>461.170013</ele><time>2010-05-30T12:42:00Z</time></trkpt>
<trkpt lat="46.12478600" lon="6.31371300"><ele>462.494995</ele><time>2010-05-30T12:42:08Z</time></trkpt>
<trkpt lat="46.12446200" lon="6.31372600"><ele>463.203003</ele><time>2010-05-30T12:42:16Z</time></trkpt>
<trkpt lat="46.12409500" lon="6.31371700"><ele>464.028015</ele><time>2010-05-30T12:42:25Z</time></trkpt>
<trkpt lat="46.12361300" lon="6.31371000"><ele>465.226013</ele><time>2010-05-30T12:42:36Z</time></trkpt>
<trkpt lat="46.12314000" lon="6.31370300"><ele>465.447998</ele><time>2010-05-30T12:42:46Z</time></trkpt>
<trkpt lat="46.12272600" lon="6.31370500"><ele>465.737</ele><time>2010-05-30T12:42:55Z</time></trkpt>
<trkpt lat="46.12231100" lon="6.31370100"><ele>466.447998</ele><time>2010-05-30T12:43:04Z</time></trkpt>
<trkpt lat="46.12187100" lon="6.31369200"><ele>466.377991</ele><time>2010-05-30T12:43:13Z</time></trkpt>
<trkpt lat="46.12167700" lon="6.31367500"><ele>466.315002</ele><time>2010-05-30T12:43:17Z</time></trkpt>
<trkpt lat="46.12145200" lon="6.31357500"><ele>466.701996</ele><time>2010-05-30T12:43:22Z</time></trkpt>
<trkpt lat="46.12134000" lon="6.31367700"><ele>466.596008</ele><time>2010-05-30T12:43:25Z</time></trkpt>
<trkpt lat="46.12133300" lon="6.31389100"><ele>466.192993</ele><time>2010-05-30T12:43:28Z</time></trkpt>
<trkpt lat="46.12129600" lon="6.31410900"><ele>466.10199</ele><time>2010-05-30T12:43:31Z</time></trkpt>
<trkpt lat="46.12120800" lon="6.31418000"><ele>466.394989</ele><time>2010-05-30T12:43:33Z</time></trkpt>
<trkpt lat="46.12066600" lon="6.31441400"><ele>465.903992</ele><time>2010-05-30T12:43:44Z</time></trkpt>
<trkpt lat="46.12039000" lon="6.31471400"><ele>465.737</ele><time>2010-05-30T12:43:51Z</time></trkpt>
<trkpt lat="46.12008000" lon="6.31506200"><ele>465.561005</ele><time>2010-05-30T12:43:58Z</time></trkpt>
<trkpt lat="46.11991000" lon="6.31525200"><ele>465.20401</ele><time>2010-05-30T12:44:02Z</time></trkpt>
<trkpt lat="46.11952000" lon="6.31568300"><ele>465.098999</ele><time>2010-05-30T12:44:11Z</time></trkpt>
<trkpt lat="46.11919900" lon="6.31605500"><ele>464.59201</ele><time>2010-05-30T12:44:18Z</time></trkpt>
<trkpt lat="46.11883900" lon="6.31645400"><ele>462.868988</ele><time>2010-05-30T12:44:25Z</time></trkpt>
<trkpt lat="46.11848400" lon="6.31678100"><ele>460.973999</ele><time>2010-05-30T12:44:31Z</time></trkpt>
<trkpt lat="46.11805100" lon="6.31718300"><ele>459.382996</ele><time>2010-05-30T12:44:38Z</time></trkpt>
<trkpt lat="46.11751200" lon="6.31766900"><ele>458.240997</ele><time>2010-05-30T12:44:46Z</time></trkpt>
<trkpt lat="46.11695600" lon="6.31808500"><ele>457.487</ele><time>2010-05-30T12:44:54Z</time></trkpt>
<trkpt lat="46.11654700" lon="6.31840100"><ele>457.605988</ele><time>2010-05-30T12:45:01Z</time></trkpt>
<trkpt lat="46.11614500" lon="6.31877500"><ele>457.852997</ele><time>2010-05-30T12:45:09Z</time></trkpt>
<trkpt lat="46.11573700" lon="6.31926500"><ele>457.97699</ele><time>2010-05-30T12:45:19Z</time></trkpt>
<trkpt lat="46.11540800" lon="6.31973000"><ele>457.450989</ele><time>2010-05-30T12:45:27Z</time></trkpt>
<trkpt lat="46.11517600" lon="6.32007900"><ele>456.85199</ele><time>2010-05-30T12:45:32Z</time></trkpt>
<trkpt lat="46.11491000" lon="6.32045300"><ele>456.037994</ele><time>2010-05-30T12:45:37Z</time></trkpt>
<trkpt lat="46.11442000" lon="6.32113800"><ele>454.553986</ele><time>2010-05-30T12:45:46Z</time></trkpt>
<trkpt lat="46.11414700" lon="6.32151900"><ele>455.549011</ele><time>2010-05-30T12:45:52Z</time></trkpt>
<trkpt lat="46.11382500" lon="6.32194500"><ele>455.800995</ele><time>2010-05-30T12:46:00Z</time></trkpt>
<trkpt lat="46.11345300" lon="6.32242100"><ele>455.112</ele><time>2010-05-30T12:46:08Z</time></trkpt>
<trkpt lat="46.11305000" lon="6.32294500"><ele>452.851013</ele><time>2010-05-30T12:46:15Z</time></trkpt>
<trkpt lat="46.11247500" lon="6.32369500"><ele>449.709015</ele><time>2010-05-30T12:46:24Z</time></trkpt>
<trkpt lat="46.11219300" lon="6.32406300"><ele>449.187988</ele><time>2010-05-30T12:46:29Z</time></trkpt>
<trkpt lat="46.11177800" lon="6.32459200"><ele>448.54599</ele><time>2010-05-30T12:46:37Z</time></trkpt>
<trkpt lat="46.11135400" lon="6.32514100"><ele>448.936005</ele><time>2010-05-30T12:46:46Z</time></trkpt>
<trkpt lat="46.11096000" lon="6.32564100"><ele>448.153015</ele><time>2010-05-30T12:46:55Z</time></trkpt>
<trkpt lat="46.11056400" lon="6.32617300"><ele>447.868988</ele><time>2010-05-30T12:47:04Z</time></trkpt>
<trkpt lat="46.11023100" lon="6.32663600"><ele>447.376007</ele><time>2010-05-30T12:47:12Z</time></trkpt>
<trkpt lat="46.10998400" lon="6.32703200"><ele>447.045013</ele><time>2010-05-30T12:47:19Z</time></trkpt>
<trkpt lat="46.10995300" lon="6.32708600"><ele>446.902008</ele><time>2010-05-30T12:47:20Z</time></trkpt>
<trkpt lat="46.10959500" lon="6.32752900"><ele>447.21701</ele><time>2010-05-30T12:47:30Z</time></trkpt>
<trkpt lat="46.10931300" lon="6.32786100"><ele>447.733002</ele><time>2010-05-30T12:47:38Z</time></trkpt>
<trkpt lat="46.10920300" lon="6.32798700"><ele>448.023987</ele><time>2010-05-30T12:47:41Z</time></trkpt>
<trkpt lat="46.10899500" lon="6.32821800"><ele>448.433014</ele><time>2010-05-30T12:47:47Z</time></trkpt>
<trkpt lat="46.10866800" lon="6.32860600"><ele>448.686005</ele><time>2010-05-30T12:47:56Z</time></trkpt>
<trkpt lat="46.10831700" lon="6.32900800"><ele>448.622009</ele><time>2010-05-30T12:48:05Z</time></trkpt>
<trkpt lat="46.10801300" lon="6.32935100"><ele>448.265991</ele><time>2010-05-30T12:48:12Z</time></trkpt>
<trkpt lat="46.10796900" lon="6.32940700"><ele>448.184998</ele><time>2010-05-30T12:48:13Z</time></trkpt>
<trkpt lat="46.10753900" lon="6.32990300"><ele>447.278992</ele><time>2010-05-30T12:48:22Z</time></trkpt>
<trkpt lat="46.10722500" lon="6.33033400"><ele>447.016998</ele><time>2010-05-30T12:48:29Z</time></trkpt>
<trkpt lat="46.10701700" lon="6.33075700"><ele>447.041992</ele><time>2010-05-30T12:48:35Z</time></trkpt>
<trkpt lat="46.10677600" lon="6.33132500"><ele>447.105011</ele><time>2010-05-30T12:48:43Z</time></trkpt>
<trkpt lat="46.10658700" lon="6.33190000"><ele>447.335999</ele><time>2010-05-30T12:48:51Z</time></trkpt>
<trkpt lat="46.10626800" lon="6.33256300"><ele>447.825012</ele><time>2010-05-30T12:49:01Z</time></trkpt>
<trkpt lat="46.10600000" lon="6.33299700"><ele>448.135986</ele><time>2010-05-30T12:49:08Z</time></trkpt>
<trkpt lat="46.10569000" lon="6.33346500"><ele>446.955994</ele><time>2010-05-30T12:49:15Z</time></trkpt>
<trkpt lat="46.10537900" lon="6.33386000"><ele>446.497009</ele><time>2010-05-30T12:49:21Z</time></trkpt>
<trkpt lat="46.10513300" lon="6.33406800"><ele>446.308014</ele><time>2010-05-30T12:49:25Z</time></trkpt>
<trkpt lat="46.10481300" lon="6.33445500"><ele>445.927002</ele><time>2010-05-30T12:49:31Z</time></trkpt>
<trkpt lat="46.10444200" lon="6.33494500"><ele>445.79599</ele><time>2010-05-30T12:49:39Z</time></trkpt>
<trkpt lat="46.10403500" lon="6.33549600"><ele>444.942993</ele><time>2010-05-30T12:49:48Z</time></trkpt>
<trkpt lat="46.10374600" lon="6.33588400"><ele>444.71701</ele><time>2010-05-30T12:49:55Z</time></trkpt>
<trkpt lat="46.10349500" lon="6.33620000"><ele>444.708008</ele><time>2010-05-30T12:50:01Z</time></trkpt>
<trkpt lat="46.10309800" lon="6.33670400"><ele>444.274994</ele><time>2010-05-30T12:50:10Z</time></trkpt>
<trkpt lat="46.10268400" lon="6.33708300"><ele>443.964996</ele><time>2010-05-30T12:50:18Z</time></trkpt>
<trkpt lat="46.10216200" lon="6.33741500"><ele>444.220001</ele><time>2010-05-30T12:50:27Z</time></trkpt>
<trkpt lat="46.10166300" lon="6.33769800"><ele>444.247009</ele><time>2010-05-30T12:50:36Z</time></trkpt>
<trkpt lat="46.10111500" lon="6.33801600"><ele>444.776001</ele><time>2010-05-30T12:50:46Z</time></trkpt>
<trkpt lat="46.10069300" lon="6.33826300"><ele>445.019012</ele><time>2010-05-30T12:50:54Z</time></trkpt>
<trkpt lat="46.10033800" lon="6.33849000"><ele>445.567993</ele><time>2010-05-30T12:51:01Z</time></trkpt>
<trkpt lat="46.09993300" lon="6.33877700"><ele>445.644012</ele><time>2010-05-30T12:51:09Z</time></trkpt>
<trkpt lat="46.09957300" lon="6.33904500"><ele>445.503998</ele><time>2010-05-30T12:51:16Z</time></trkpt>
<trkpt lat="46.09914300" lon="6.33935700"><ele>445.108002</ele><time>2010-05-30T12:51:24Z</time></trkpt>
<trkpt lat="46.09871100" lon="6.33968500"><ele>444.816986</ele><time>2010-05-30T12:51:32Z</time></trkpt>
<trkpt lat="46.09815700" lon="6.34010700"><ele>444.298004</ele><time>2010-05-30T12:51:42Z</time></trkpt>
<trkpt lat="46.09766300" lon="6.34047700"><ele>444.566986</ele><time>2010-05-30T12:51:51Z</time></trkpt>
<trkpt lat="46.09718200" lon="6.34082200"><ele>445.014008</ele><time>2010-05-30T12:52:00Z</time></trkpt>
<trkpt lat="46.09685000" lon="6.34107700"><ele>444.830994</ele><time>2010-05-30T12:52:06Z</time></trkpt>
<trkpt lat="46.09637400" lon="6.34144800"><ele>444.440002</ele><time>2010-05-30T12:52:14Z</time></trkpt>
<trkpt lat="46.09590600" lon="6.34180800"><ele>444.52301</ele><time>2010-05-30T12:52:22Z</time></trkpt>
<trkpt lat="46.09569700" lon="6.34200300"><ele>444.492004</ele><time>2010-05-30T12:52:26Z</time></trkpt>
<trkpt lat="46.09531200" lon="6.34239800"><ele>445.080994</ele><time>2010-05-30T12:52:34Z</time></trkpt>
<trkpt lat="46.09496600" lon="6.34282000"><ele>445.524994</ele><time>2010-05-30T12:52:42Z</time></trkpt>
<trkpt lat="46.09458200" lon="6.34339000"><ele>445.886993</ele><time>2010-05-30T12:52:52Z</time></trkpt>
<trkpt lat="46.09418300" lon="6.34405000"><ele>446.332001</ele><time>2010-05-30T12:53:03Z</time></trkpt>
<trkpt lat="46.09385100" lon="6.34460700"><ele>446.697998</ele><time>2010-05-30T12:53:12Z</time></trkpt>
<trkpt lat="46.09343300" lon="6.34529400"><ele>446.936005</ele><time>2010-05-30T12:53:23Z</time></trkpt>
<trkpt lat="46.09305900" lon="6.34592000"><ele>447.264008</ele><time>2010-05-30T12:53:33Z</time></trkpt>
<trkpt lat="46.09263100" lon="6.34663100"><ele>447.368988</ele><time>2010-05-30T12:53:44Z</time></trkpt>
<trkpt lat="46.09227900" lon="6.34721100"><ele>447.613007</ele><time>2010-05-30T12:53:53Z</time></trkpt>
<trkpt lat="46.09190400" lon="6.34784100"><ele>447.653015</ele><time>2010-05-30T12:54:03Z</time></trkpt>
<trkpt lat="46.09157100" lon="6.34838600"><ele>447.434998</ele><time>2010-05-30T12:54:12Z</time></trkpt>
<trkpt lat="46.09125100" lon="6.34891000"><ele>447.377991</ele><time>2010-05-30T12:54:21Z</time></trkpt>
<trkpt lat="46.09095200" lon="6.34941000"><ele>447.140015</ele><time>2010-05-30T12:54:30Z</time></trkpt>
<trkpt lat="46.09064200" lon="6.34991100"><ele>446.769989</ele><time>2010-05-30T12:54:39Z</time></trkpt>
<trkpt lat="46.09036500" lon="6.35038000"><ele>447.195007</ele><time>2010-05-30T12:54:47Z</time></trkpt>
<trkpt lat="46.09007800" lon="6.35086600"><ele>447.325012</ele><time>2010-05-30T12:54:55Z</time></trkpt>
<trkpt lat="46.08979200" lon="6.35134900"><ele>447.380005</ele><time>2010-05-30T12:55:03Z</time></trkpt>
<trkpt lat="46.08963400" lon="6.35141700"><ele>447.06601</ele><time>2010-05-30T12:55:07Z</time></trkpt>
<trkpt lat="46.08957200" lon="6.35135200"><ele>447.388</ele><time>2010-05-30T12:55:09Z</time></trkpt>
<trkpt lat="46.08931100" lon="6.35114400"><ele>448.367004</ele><time>2010-05-30T12:55:17Z</time></trkpt>
<trkpt lat="46.08892100" lon="6.35100500"><ele>449.071014</ele><time>2010-05-30T12:55:27Z</time></trkpt>
<trkpt lat="46.08860700" lon="6.35087400"><ele>449.200989</ele><time>2010-05-30T12:55:35Z</time></trkpt>
<trkpt lat="46.08826900" lon="6.35064500"><ele>449.42099</ele><time>2010-05-30T12:55:43Z</time></trkpt>
<trkpt lat="46.08795700" lon="6.35037300"><ele>449.535004</ele><time>2010-05-30T12:55:50Z</time></trkpt>
<trkpt lat="46.08758400" lon="6.35004500"><ele>449.971008</ele><time>2010-05-30T12:55:58Z</time></trkpt>
<trkpt lat="46.08711800" lon="6.34963300"><ele>450.303986</ele><time>2010-05-30T12:56:08Z</time></trkpt>
<trkpt lat="46.08663900" lon="6.34920500"><ele>450.869995</ele><time>2010-05-30T12:56:18Z</time></trkpt>
<trkpt lat="46.08614700" lon="6.34879800"><ele>451.684998</ele><time>2010-05-30T12:56:28Z</time></trkpt>
<trkpt lat="46.08575300" lon="6.34845900"><ele>451.955994</ele><time>2010-05-30T12:56:36Z</time></trkpt>
<trkpt lat="46.08519700" lon="6.34793700"><ele>452.529999</ele><time>2010-05-30T12:56:48Z</time></trkpt>
<trkpt lat="46.08500200" lon="6.34753800"><ele>452.644012</ele><time>2010-05-30T12:56:54Z</time></trkpt>
<trkpt lat="46.08482700" lon="6.34724100"><ele>452.826996</ele><time>2010-05-30T12:56:59Z</time></trkpt>
<trkpt lat="46.08473700" lon="6.34715500"><ele>453.147003</ele><time>2010-05-30T12:57:01Z</time></trkpt>
<trkpt lat="46.08432400" lon="6.34697400"><ele>453.351013</ele><time>2010-05-30T12:57:09Z</time></trkpt>
<trkpt lat="46.08385000" lon="6.34688900"><ele>453.709991</ele><time>2010-05-30T12:57:18Z</time></trkpt>
<trkpt lat="46.08360200" lon="6.34683100"><ele>453.97699</ele><time>2010-05-30T12:57:23Z</time></trkpt>
<trkpt lat="46.08342200" lon="6.34679700"><ele>453.838013</ele><time>2010-05-30T12:57:27Z</time></trkpt>
<trkpt lat="46.08317300" lon="6.34665100"><ele>453.899994</ele><time>2010-05-30T12:57:34Z</time></trkpt>
<trkpt lat="46.08295100" lon="6.34641800"><ele>453.772003</ele><time>2010-05-30T12:57:41Z</time></trkpt>
<trkpt lat="46.08279400" lon="6.34639800"><ele>454.121002</ele><time>2010-05-30T12:57:45Z</time></trkpt>
<trkpt lat="46.08275600" lon="6.34643100"><ele>454.128998</ele><time>2010-05-30T12:57:46Z</time></trkpt>
<trkpt lat="46.08245200" lon="6.34681400"><ele>454.501007</ele><time>2010-05-30T12:57:54Z</time></trkpt>
<trkpt lat="46.08216000" lon="6.34716500"><ele>454.643005</ele><time>2010-05-30T12:58:01Z</time></trkpt>
<trkpt lat="46.08198900" lon="6.34737600"><ele>455.105988</ele><time>2010-05-30T12:58:05Z</time></trkpt>
<trkpt lat="46.08183100" lon="6.34758700"><ele>455.98999</ele><time>2010-05-30T12:58:10Z</time></trkpt>
<trkpt lat="46.08166800" lon="6.34778100"><ele>455.460999</ele><time>2010-05-30T12:58:15Z</time></trkpt>
<trkpt lat="46.08157300" lon="6.34791800"><ele>455.56601</ele><time>2010-05-30T12:58:18Z</time></trkpt>
<trkpt lat="46.08149700" lon="6.34827000"><ele>454.803009</ele><time>2010-05-30T12:58:22Z</time></trkpt>
<trkpt lat="46.08146600" lon="6.34857500"><ele>454.684998</ele><time>2010-05-30T12:58:25Z</time></trkpt>
<trkpt lat="46.08132000" lon="6.34890900"><ele>454.141998</ele><time>2010-05-30T12:58:29Z</time></trkpt>
<trkpt lat="46.08119300" lon="6.34900000"><ele>453.79599</ele><time>2010-05-30T12:58:31Z</time></trkpt>
<trkpt lat="46.08078700" lon="6.34907400"><ele>453.544006</ele><time>2010-05-30T12:58:37Z</time></trkpt>
<trkpt lat="46.08059100" lon="6.34905700"><ele>453.632996</ele><time>2010-05-30T12:58:40Z</time></trkpt>
<trkpt lat="46.08030800" lon="6.34896000"><ele>454.261993</ele><time>2010-05-30T12:58:45Z</time></trkpt>
<trkpt lat="46.08010400" lon="6.34898300"><ele>455.002014</ele><time>2010-05-30T12:58:49Z</time></trkpt>
<trkpt lat="46.08000100" lon="6.34917800"><ele>454.713013</ele><time>2010-05-30T12:58:52Z</time></trkpt>
<trkpt lat="46.07997900" lon="6.34925500"><ele>454.614014</ele><time>2010-05-30T12:58:53Z</time></trkpt>
<trkpt lat="46.07982300" lon="6.34997300"><ele>454.43399</ele><time>2010-05-30T12:59:02Z</time></trkpt>
<trkpt lat="46.07974500" lon="6.35049400"><ele>454.438995</ele><time>2010-05-30T12:59:08Z</time></trkpt>
<trkpt lat="46.07964700" lon="6.35126100"><ele>454.352997</ele><time>2010-05-30T12:59:17Z</time></trkpt>
<trkpt lat="46.07952800" lon="6.35188900"><ele>453.946991</ele><time>2010-05-30T12:59:24Z</time></trkpt>
<trkpt lat="46.07941300" lon="6.35253300"><ele>454.182007</ele><time>2010-05-30T12:59:32Z</time></trkpt>
<trkpt lat="46.07933300" lon="6.35313300"><ele>455.240997</ele><time>2010-05-30T12:59:40Z</time></trkpt>
<trkpt lat="46.07925800" lon="6.35375800"><ele>456.209991</ele><time>2010-05-30T12:59:49Z</time></trkpt>
<trkpt lat="46.07918100" lon="6.35427900"><ele>455.994995</ele><time>2010-05-30T12:59:57Z</time></trkpt>
<trkpt lat="46.07907100" lon="6.35497800"><ele>456.03299</ele><time>2010-05-30T13:00:08Z</time></trkpt>
<trkpt lat="46.07899400" lon="6.35549500"><ele>456.070007</ele><time>2010-05-30T13:00:16Z</time></trkpt>
<trkpt lat="46.07896600" lon="6.35561900"><ele>456.09201</ele><time>2010-05-30T13:00:18Z</time></trkpt>
<trkpt lat="46.07878000" lon="6.35615600"><ele>455.679993</ele><time>2010-05-30T13:00:27Z</time></trkpt>
<trkpt lat="46.07856500" lon="6.35651900"><ele>455.837006</ele><time>2010-05-30T13:00:34Z</time></trkpt>
<trkpt lat="46.07821800" lon="6.35691700"><ele>456.18399</ele><time>2010-05-30T13:00:43Z</time></trkpt>
<trkpt lat="46.07812500" lon="6.35698500"><ele>455.946014</ele><time>2010-05-30T13:00:45Z</time></trkpt>
<trkpt lat="46.07792500" lon="6.35703600"><ele>456.024994</ele><time>2010-05-30T13:00:49Z</time></trkpt>
<trkpt lat="46.07751700" lon="6.35703700"><ele>456.338989</ele><time>2010-05-30T13:00:57Z</time></trkpt>
<trkpt lat="46.07706700" lon="6.35703200"><ele>457.156006</ele><time>2010-05-30T13:01:06Z</time></trkpt>
<trkpt lat="46.07667700" lon="6.35705000"><ele>457.118988</ele><time>2010-05-30T13:01:14Z</time></trkpt>
<trkpt lat="46.07623600" lon="6.35711000"><ele>457.523987</ele><time>2010-05-30T13:01:23Z</time></trkpt>
<trkpt lat="46.07582400" lon="6.35719200"><ele>458.015015</ele><time>2010-05-30T13:01:32Z</time></trkpt>
<trkpt lat="46.07548900" lon="6.35725400"><ele>458.626007</ele><time>2010-05-30T13:01:39Z</time></trkpt>
<trkpt lat="46.07534800" lon="6.35726900"><ele>458.67099</ele><time>2010-05-30T13:01:42Z</time></trkpt>
<trkpt lat="46.07491700" lon="6.35727900"><ele>459.347992</ele><time>2010-05-30T13:01:51Z</time></trkpt>
<trkpt lat="46.07456600" lon="6.35725000"><ele>459.826996</ele><time>2010-05-30T13:01:58Z</time></trkpt>
<trkpt lat="46.07399400" lon="6.35720400"><ele>460.606995</ele><time>2010-05-30T13:02:09Z</time></trkpt>
<trkpt lat="46.07353600" lon="6.35717100"><ele>461.362</ele><time>2010-05-30T13:02:18Z</time></trkpt>
<trkpt lat="46.07323100" lon="6.35716600"><ele>461.511993</ele><time>2010-05-30T13:02:24Z</time></trkpt>
<trkpt lat="46.07277200" lon="6.35716600"><ele>461.722992</ele><time>2010-05-30T13:02:33Z</time></trkpt>
<trkpt lat="46.07230500" lon="6.35713500"><ele>461.684998</ele><time>2010-05-30T13:02:42Z</time></trkpt>
<trkpt lat="46.07194800" lon="6.35698800"><ele>462.062988</ele><time>2010-05-30T13:02:49Z</time></trkpt>
<trkpt lat="46.07149600" lon="6.35678700"><ele>462.080994</ele><time>2010-05-30T13:02:58Z</time></trkpt>
<trkpt lat="46.07140000" lon="6.35677200"><ele>462.14801</ele><time>2010-05-30T13:03:00Z</time></trkpt>
<trkpt lat="46.07112100" lon="6.35676100"><ele>462.200989</ele><time>2010-05-30T13:03:07Z</time></trkpt>
<trkpt lat="46.07100100" lon="6.35679200"><ele>462.171997</ele><time>2010-05-30T13:03:11Z</time></trkpt>
<trkpt lat="46.07083500" lon="6.35678600"><ele>462.515015</ele><time>2010-05-30T13:03:17Z</time></trkpt>
<trkpt lat="46.07078000" lon="6.35661000"><ele>462.576996</ele><time>2010-05-30T13:03:22Z</time></trkpt>
<trkpt lat="46.07077500" lon="6.35650800"><ele>462.669006</ele><time>2010-05-30T13:03:24Z</time></trkpt>
<trkpt lat="46.07071000" lon="6.35649000"><ele>462.602997</ele><time>2010-05-30T13:03:28Z</time></trkpt>
<trkpt lat="46.07066900" lon="6.35666200"><ele>462.40799</ele><time>2010-05-30T13:03:32Z</time></trkpt>
<trkpt lat="46.07058900" lon="6.35672600"><ele>462.675995</ele><time>2010-05-30T13:03:35Z</time></trkpt>
<trkpt lat="46.07031000" lon="6.35679300"><ele>462.381012</ele><time>2010-05-30T13:03:44Z</time></trkpt>
<trkpt lat="46.07007600" lon="6.35684500"><ele>462.464996</ele><time>2010-05-30T13:03:51Z</time></trkpt>
<trkpt lat="46.06996000" lon="6.35684700"><ele>462.269012</ele><time>2010-05-30T13:03:54Z</time></trkpt>
<trkpt lat="46.06988000" lon="6.35686600"><ele>462.190002</ele><time>2010-05-30T13:03:56Z</time></trkpt>
<trkpt lat="46.06953900" lon="6.35691600"><ele>462.5</ele><time>2010-05-30T13:04:04Z</time></trkpt>
<trkpt lat="46.06936400" lon="6.35696400"><ele>462.785004</ele><time>2010-05-30T13:04:08Z</time></trkpt>
<trkpt lat="46.06927400" lon="6.35697900"><ele>462.653992</ele><time>2010-05-30T13:04:10Z</time></trkpt>
<trkpt lat="46.06890000" lon="6.35714400"><ele>462.61499</ele><time>2010-05-30T13:04:18Z</time></trkpt>
<trkpt lat="46.06861700" lon="6.35724400"><ele>462.843994</ele><time>2010-05-30T13:04:24Z</time></trkpt>
<trkpt lat="46.06852700" lon="6.35729000"><ele>462.923004</ele><time>2010-05-30T13:04:26Z</time></trkpt>
<trkpt lat="46.06836300" lon="6.35753600"><ele>463.093994</ele><time>2010-05-30T13:04:31Z</time></trkpt>
<trkpt lat="46.06833300" lon="6.35767300"><ele>463.243988</ele><time>2010-05-30T13:04:33Z</time></trkpt>
<trkpt lat="46.06825800" lon="6.35808600"><ele>463.881012</ele><time>2010-05-30T13:04:39Z</time></trkpt>
<trkpt lat="46.06810900" lon="6.35835000"><ele>464.540009</ele><time>2010-05-30T13:04:44Z</time></trkpt>
<trkpt lat="46.06798300" lon="6.35843500"><ele>464.907013</ele><time>2010-05-30T13:04:47Z</time></trkpt>
<trkpt lat="46.06751800" lon="6.35866900"><ele>465.265015</ele><time>2010-05-30T13:04:57Z</time></trkpt>
<trkpt lat="46.06722000" lon="6.35891600"><ele>465.845001</ele><time>2010-05-30T13:05:04Z</time></trkpt>
<trkpt lat="46.06671400" lon="6.35946700"><ele>466.716003</ele><time>2010-05-30T13:05:17Z</time></trkpt>
<trkpt lat="46.06642100" lon="6.35986600"><ele>467.061005</ele><time>2010-05-30T13:05:25Z</time></trkpt>
<trkpt lat="46.06609900" lon="6.36031300"><ele>467.446014</ele><time>2010-05-30T13:05:34Z</time></trkpt>
<trkpt lat="46.06576500" lon="6.36078700"><ele>468.597992</ele><time>2010-05-30T13:05:44Z</time></trkpt>
<trkpt lat="46.06545900" lon="6.36111800"><ele>469.71701</ele><time>2010-05-30T13:05:52Z</time></trkpt>
<trkpt lat="46.06513800" lon="6.36150100"><ele>470.337006</ele><time>2010-05-30T13:06:00Z</time></trkpt>
<trkpt lat="46.06483600" lon="6.36188100"><ele>470.583008</ele><time>2010-05-30T13:06:07Z</time></trkpt>
<trkpt lat="46.06446900" lon="6.36229200"><ele>471.233002</ele><time>2010-05-30T13:06:15Z</time></trkpt>
<trkpt lat="46.06443900" lon="6.36233300"><ele>471.347992</ele><time>2010-05-30T13:06:16Z</time></trkpt>
<trkpt lat="46.06447800" lon="6.36247400"><ele>471.493988</ele><time>2010-05-30T13:06:20Z</time></trkpt>
<trkpt lat="46.06450400" lon="6.36250000"><ele>471.834991</ele><time>2010-05-30T13:06:23Z</time></trkpt>
<trkpt lat="46.06452000" lon="6.36251400"><ele>472.001007</ele><time>2010-05-30T13:06:31Z</time></trkpt>
<trkpt lat="46.06452200" lon="6.36251900"><ele>471.871002</ele><time>2010-05-30T13:06:33Z</time></trkpt>
<trkpt lat="46.06450100" lon="6.36248300"><ele>470.882996</ele><time>2010-05-30T13:11:37Z</time></trkpt>
<trkpt lat="46.06445700" lon="6.36242300"><ele>470.726013</ele><time>2010-05-30T13:11:40Z</time></trkpt>
<trkpt lat="46.06431100" lon="6.36243300"><ele>470.915009</ele><time>2010-05-30T13:11:45Z</time></trkpt>
<trkpt lat="46.06409600" lon="6.36277200"><ele>471.660004</ele><time>2010-05-30T13:11:54Z</time></trkpt>
<trkpt lat="46.06404000" lon="6.36292200"><ele>471.921997</ele><time>2010-05-30T13:11:57Z</time></trkpt>
<trkpt lat="46.06395400" lon="6.36338700"><ele>472.256989</ele><time>2010-05-30T13:12:05Z</time></trkpt>
<trkpt lat="46.06387300" lon="6.36381400"><ele>472.748993</ele><time>2010-05-30T13:12:12Z</time></trkpt>
<trkpt lat="46.06378600" lon="6.36406000"><ele>473.015015</ele><time>2010-05-30T13:12:17Z</time></trkpt>
<trkpt lat="46.06363600" lon="6.36408400"><ele>473.181</ele><time>2010-05-30T13:12:21Z</time></trkpt>
<trkpt lat="46.06326800" lon="6.36402800"><ele>473.492004</ele><time>2010-05-30T13:12:29Z</time></trkpt>
<trkpt lat="46.06277800" lon="6.36392000"><ele>474.079987</ele><time>2010-05-30T13:12:39Z</time></trkpt>
<trkpt lat="46.06212800" lon="6.36377600"><ele>474.850006</ele><time>2010-05-30T13:12:52Z</time></trkpt>
<trkpt lat="46.06187600" lon="6.36370300"><ele>474.962006</ele><time>2010-05-30T13:12:57Z</time></trkpt>
<trkpt lat="46.06167000" lon="6.36371100"><ele>475.171997</ele><time>2010-05-30T13:13:01Z</time></trkpt>
<trkpt lat="46.06131100" lon="6.36373900"><ele>475.563995</ele><time>2010-05-30T13:13:08Z</time></trkpt>
<trkpt lat="46.06085600" lon="6.36370300"><ele>476.289001</ele><time>2010-05-30T13:13:17Z</time></trkpt>
<trkpt lat="46.06045400" lon="6.36362700"><ele>476.541992</ele><time>2010-05-30T13:13:25Z</time></trkpt>
<trkpt lat="46.06040400" lon="6.36361700"><ele>476.528992</ele><time>2010-05-30T13:13:26Z</time></trkpt>
<trkpt lat="46.06002400" lon="6.36355200"><ele>476.921997</ele><time>2010-05-30T13:13:34Z</time></trkpt>
<trkpt lat="46.05988900" lon="6.36352700"><ele>476.951996</ele><time>2010-05-30T13:13:37Z</time></trkpt>
<trkpt lat="46.05962400" lon="6.36360200"><ele>477.264008</ele><time>2010-05-30T13:13:43Z</time></trkpt>
<trkpt lat="46.05955600" lon="6.36376600"><ele>477.432007</ele><time>2010-05-30T13:13:46Z</time></trkpt>
<trkpt lat="46.05954500" lon="6.36423500"><ele>477.651001</ele><time>2010-05-30T13:13:53Z</time></trkpt>
<trkpt lat="46.05964800" lon="6.36469200"><ele>477.993011</ele><time>2010-05-30T13:14:00Z</time></trkpt>
<trkpt lat="46.05969900" lon="6.36534800"><ele>479.329987</ele><time>2010-05-30T13:14:10Z</time></trkpt>
<trkpt lat="46.05973100" lon="6.36588400"><ele>479.947998</ele><time>2010-05-30T13:14:18Z</time></trkpt>
<trkpt lat="46.05971600" lon="6.36645700"><ele>480.123993</ele><time>2010-05-30T13:14:26Z</time></trkpt>
<trkpt lat="46.05968600" lon="6.36698600"><ele>480.425995</ele><time>2010-05-30T13:14:33Z</time></trkpt>
<trkpt lat="46.05965000" lon="6.36744300"><ele>480.546997</ele><time>2010-05-30T13:14:39Z</time></trkpt>
<trkpt lat="46.05962200" lon="6.36802100"><ele>480.488007</ele><time>2010-05-30T13:14:47Z</time></trkpt>
<trkpt lat="46.05959600" lon="6.36858900"><ele>480.714996</ele><time>2010-05-30T13:14:55Z</time></trkpt>
<trkpt lat="46.05950600" lon="6.36911200"><ele>480.963013</ele><time>2010-05-30T13:15:03Z</time></trkpt>
<trkpt lat="46.05938100" lon="6.36956800"><ele>481.263</ele><time>2010-05-30T13:15:10Z</time></trkpt>
<trkpt lat="46.05933900" lon="6.36976600"><ele>481.364014</ele><time>2010-05-30T13:15:13Z</time></trkpt>
<trkpt lat="46.05932000" lon="6.37004200"><ele>481.641998</ele><time>2010-05-30T13:15:17Z</time></trkpt>
<trkpt lat="46.05930800" lon="6.37018000"><ele>481.81601</ele><time>2010-05-30T13:15:19Z</time></trkpt>
<trkpt lat="46.05934600" lon="6.37073400"><ele>482.052002</ele><time>2010-05-30T13:15:27Z</time></trkpt>
<trkpt lat="46.05944400" lon="6.37147800"><ele>483.020996</ele><time>2010-05-30T13:15:38Z</time></trkpt>
<trkpt lat="46.05946900" lon="6.37206700"><ele>482.826996</ele><time>2010-05-30T13:15:46Z</time></trkpt>
<trkpt lat="46.05944000" lon="6.37259000"><ele>482.895996</ele><time>2010-05-30T13:15:53Z</time></trkpt>
<trkpt lat="46.05938500" lon="6.37309700"><ele>483.084015</ele><time>2010-05-30T13:16:00Z</time></trkpt>
<trkpt lat="46.05929500" lon="6.37335500"><ele>483.131012</ele><time>2010-05-30T13:16:04Z</time></trkpt>
<trkpt lat="46.05905000" lon="6.37377000"><ele>483.005005</ele><time>2010-05-30T13:16:13Z</time></trkpt>
<trkpt lat="46.05902700" lon="6.37382200"><ele>482.927002</ele><time>2010-05-30T13:16:14Z</time></trkpt>
<trkpt lat="46.05891200" lon="6.37403400"><ele>482.890015</ele><time>2010-05-30T13:16:18Z</time></trkpt>
<trkpt lat="46.05875600" lon="6.37422500"><ele>482.665985</ele><time>2010-05-30T13:16:22Z</time></trkpt>
<trkpt lat="46.05840400" lon="6.37453500"><ele>482.640015</ele><time>2010-05-30T13:16:30Z</time></trkpt>
<trkpt lat="46.05810900" lon="6.37476700"><ele>483.225006</ele><time>2010-05-30T13:16:37Z</time></trkpt>
<trkpt lat="46.05767500" lon="6.37494200"><ele>483.860992</ele><time>2010-05-30T13:16:46Z</time></trkpt>
<trkpt lat="46.05738300" lon="6.37505300"><ele>484.121002</ele><time>2010-05-30T13:16:52Z</time></trkpt>
<trkpt lat="46.05720000" lon="6.37501900"><ele>484.292999</ele><time>2010-05-30T13:16:56Z</time></trkpt>
<trkpt lat="46.05710500" lon="6.37484500"><ele>484.471008</ele><time>2010-05-30T13:16:59Z</time></trkpt>
<trkpt lat="46.05685000" lon="6.37417200"><ele>484.954987</ele><time>2010-05-30T13:17:09Z</time></trkpt>
<trkpt lat="46.05672900" lon="6.37377700"><ele>485.463989</ele><time>2010-05-30T13:17:15Z</time></trkpt>
<trkpt lat="46.05660400" lon="6.37356600"><ele>486.053009</ele><time>2010-05-30T13:17:19Z</time></trkpt>
<trkpt lat="46.05617700" lon="6.37309600"><ele>486.950012</ele><time>2010-05-30T13:17:30Z</time></trkpt>
<trkpt lat="46.05580600" lon="6.37269300"><ele>487.682007</ele><time>2010-05-30T13:17:39Z</time></trkpt>
<trkpt lat="46.05552200" lon="6.37235400"><ele>489.484985</ele><time>2010-05-30T13:17:47Z</time></trkpt>
<trkpt lat="46.05522100" lon="6.37201600"><ele>491.546997</ele><time>2010-05-30T13:17:57Z</time></trkpt>
<trkpt lat="46.05505700" lon="6.37186100"><ele>492.984009</ele><time>2010-05-30T13:18:03Z</time></trkpt>
<trkpt lat="46.05498200" lon="6.37179200"><ele>494.115997</ele><time>2010-05-30T13:18:08Z</time></trkpt>
<trkpt lat="46.05497400" lon="6.37178800"><ele>494.39801</ele><time>2010-05-30T13:18:11Z</time></trkpt>
<trkpt lat="46.05496400" lon="6.37186900"><ele>494.869995</ele><time>2010-05-30T13:19:43Z</time></trkpt>
<trkpt lat="46.05479900" lon="6.37186900"><ele>495.614014</ele><time>2010-05-30T13:19:48Z</time></trkpt>
<trkpt lat="46.05464500" lon="6.37190300"><ele>496.411987</ele><time>2010-05-30T13:19:53Z</time></trkpt>
<trkpt lat="46.05453600" lon="6.37200800"><ele>497.040985</ele><time>2010-05-30T13:19:57Z</time></trkpt>
<trkpt lat="46.05440400" lon="6.37209900"><ele>497.723999</ele><time>2010-05-30T13:20:01Z</time></trkpt>
<trkpt lat="46.05417300" lon="6.37222500"><ele>498.47699</ele><time>2010-05-30T13:20:06Z</time></trkpt>
<trkpt lat="46.05400000" lon="6.37237100"><ele>499.393005</ele><time>2010-05-30T13:20:11Z</time></trkpt>
<trkpt lat="46.05375800" lon="6.37266700"><ele>500.542999</ele><time>2010-05-30T13:20:19Z</time></trkpt>
<trkpt lat="46.05359800" lon="6.37291800"><ele>501.763</ele><time>2010-05-30T13:20:26Z</time></trkpt>
<trkpt lat="46.05358500" lon="6.37313900"><ele>502.075989</ele><time>2010-05-30T13:20:30Z</time></trkpt>
<trkpt lat="46.05369000" lon="6.37339600"><ele>502.25</ele><time>2010-05-30T13:20:35Z</time></trkpt>
<trkpt lat="46.05376100" lon="6.37346100"><ele>502.438995</ele><time>2010-05-30T13:20:37Z</time></trkpt>
<trkpt lat="46.05390000" lon="6.37370100"><ele>503.373993</ele><time>2010-05-30T13:20:43Z</time></trkpt>
<trkpt lat="46.05387900" lon="6.37391900"><ele>504.053986</ele><time>2010-05-30T13:20:47Z</time></trkpt>
<trkpt lat="46.05380200" lon="6.37404800"><ele>504.576996</ele><time>2010-05-30T13:20:50Z</time></trkpt>
<trkpt lat="46.05366900" lon="6.37416500"><ele>505.438995</ele><time>2010-05-30T13:20:54Z</time></trkpt>
<trkpt lat="46.05344500" lon="6.37424600"><ele>506.403992</ele><time>2010-05-30T13:21:00Z</time></trkpt>
<trkpt lat="46.05314100" lon="6.37436100"><ele>508.35199</ele><time>2010-05-30T13:21:09Z</time></trkpt>
<trkpt lat="46.05287900" lon="6.37447900"><ele>509.825012</ele><time>2010-05-30T13:21:17Z</time></trkpt>
<trkpt lat="46.05267500" lon="6.37449200"><ele>510.170013</ele><time>2010-05-30T13:21:23Z</time></trkpt>
<trkpt lat="46.05258000" lon="6.37450400"><ele>511.677002</ele><time>2010-05-30T13:21:26Z</time></trkpt>
<trkpt lat="46.05255200" lon="6.37455200"><ele>512.413025</ele><time>2010-05-30T13:21:30Z</time></trkpt>
<trkpt lat="46.05238500" lon="6.37472400"><ele>513.252991</ele><time>2010-05-30T13:21:36Z</time></trkpt>
<trkpt lat="46.05230700" lon="6.37482100"><ele>513.893982</ele><time>2010-05-30T13:21:39Z</time></trkpt>
<trkpt lat="46.05211300" lon="6.37504300"><ele>515.078003</ele><time>2010-05-30T13:21:46Z</time></trkpt>
<trkpt lat="46.05206500" lon="6.37516000"><ele>516.072021</ele><time>2010-05-30T13:21:51Z</time></trkpt>
<trkpt lat="46.05196600" lon="6.37528800"><ele>516.922974</ele><time>2010-05-30T13:21:56Z</time></trkpt>
<trkpt lat="46.05187000" lon="6.37550300"><ele>517.643005</ele><time>2010-05-30T13:22:00Z</time></trkpt>
<trkpt lat="46.05174500" lon="6.37579400"><ele>519.06897</ele><time>2010-05-30T13:22:06Z</time></trkpt>
<trkpt lat="46.05156200" lon="6.37595300"><ele>520.265991</ele><time>2010-05-30T13:22:12Z</time></trkpt>
<trkpt lat="46.05133700" lon="6.37617200"><ele>521.877014</ele><time>2010-05-30T13:22:20Z</time></trkpt>
<trkpt lat="46.05120300" lon="6.37641600"><ele>522.992004</ele><time>2010-05-30T13:22:27Z</time></trkpt>
<trkpt lat="46.05105100" lon="6.37663500"><ele>524.416992</ele><time>2010-05-30T13:22:34Z</time></trkpt>
<trkpt lat="46.05088500" lon="6.37676000"><ele>525.393005</ele><time>2010-05-30T13:22:40Z</time></trkpt>
<trkpt lat="46.05076300" lon="6.37673800"><ele>526.052002</ele><time>2010-05-30T13:22:44Z</time></trkpt>
<trkpt lat="46.05059500" lon="6.37665600"><ele>527.017029</ele><time>2010-05-30T13:22:50Z</time></trkpt>
<trkpt lat="46.05045400" lon="6.37648700"><ele>527.952026</ele><time>2010-05-30T13:22:56Z</time></trkpt>
<trkpt lat="46.05024500" lon="6.37625600"><ele>529.205994</ele><time>2010-05-30T13:23:04Z</time></trkpt>
<trkpt lat="46.05010400" lon="6.37620800"><ele>530.177002</ele><time>2010-05-30T13:23:09Z</time></trkpt>
<trkpt lat="46.04993700" lon="6.37631700"><ele>531.213989</ele><time>2010-05-30T13:23:15Z</time></trkpt>
<trkpt lat="46.04975500" lon="6.37639700"><ele>532.073975</ele><time>2010-05-30T13:23:21Z</time></trkpt>
<trkpt lat="46.04962000" lon="6.37629900"><ele>533.130005</ele><time>2010-05-30T13:23:26Z</time></trkpt>
<trkpt lat="46.04942600" lon="6.37619000"><ele>534.401978</ele><time>2010-05-30T13:23:33Z</time></trkpt>
<trkpt lat="46.04918000" lon="6.37610900"><ele>535.513</ele><time>2010-05-30T13:23:41Z</time></trkpt>
<trkpt lat="46.04890400" lon="6.37595000"><ele>537.067993</ele><time>2010-05-30T13:23:50Z</time></trkpt>
<trkpt lat="46.04866100" lon="6.37581600"><ele>538.424988</ele><time>2010-05-30T13:23:58Z</time></trkpt>
<trkpt lat="46.04851800" lon="6.37577000"><ele>539.30603</ele><time>2010-05-30T13:24:03Z</time></trkpt>
<trkpt lat="46.04838600" lon="6.37585700"><ele>539.893005</ele><time>2010-05-30T13:24:08Z</time></trkpt>
<trkpt lat="46.04827200" lon="6.37609000"><ele>540.765991</ele><time>2010-05-30T13:24:14Z</time></trkpt>
<trkpt lat="46.04811800" lon="6.37616400"><ele>541.453979</ele><time>2010-05-30T13:24:19Z</time></trkpt>
<trkpt lat="46.04797900" lon="6.37606800"><ele>542.484985</ele><time>2010-05-30T13:24:24Z</time></trkpt>
<trkpt lat="46.04786900" lon="6.37592200"><ele>543.653992</ele><time>2010-05-30T13:24:30Z</time></trkpt>
<trkpt lat="46.04770100" lon="6.37584900"><ele>544.736023</ele><time>2010-05-30T13:24:36Z</time></trkpt>
<trkpt lat="46.04757500" lon="6.37576600"><ele>545.393005</ele><time>2010-05-30T13:24:41Z</time></trkpt>
<trkpt lat="46.04740700" lon="6.37568400"><ele>546.453003</ele><time>2010-05-30T13:24:47Z</time></trkpt>
<trkpt lat="46.04723200" lon="6.37575400"><ele>547.237976</ele><time>2010-05-30T13:24:53Z</time></trkpt>
<trkpt lat="46.04704700" lon="6.37579200"><ele>548.210999</ele><time>2010-05-30T13:24:59Z</time></trkpt>
<trkpt lat="46.04686600" lon="6.37580100"><ele>549.08197</ele><time>2010-05-30T13:25:05Z</time></trkpt>
<trkpt lat="46.04671000" lon="6.37574400"><ele>550.104004</ele><time>2010-05-30T13:25:11Z</time></trkpt>
<trkpt lat="46.04655300" lon="6.37582800"><ele>551.073975</ele><time>2010-05-30T13:25:17Z</time></trkpt>
<trkpt lat="46.04647200" lon="6.37599500"><ele>551.622009</ele><time>2010-05-30T13:25:22Z</time></trkpt>
<trkpt lat="46.04644200" lon="6.37620800"><ele>552.510986</ele><time>2010-05-30T13:25:28Z</time></trkpt>
<trkpt lat="46.04638900" lon="6.37637800"><ele>553.299988</ele><time>2010-05-30T13:25:33Z</time></trkpt>
<trkpt lat="46.04625600" lon="6.37654700"><ele>554.190979</ele><time>2010-05-30T13:25:39Z</time></trkpt>
<trkpt lat="46.04612600" lon="6.37657200"><ele>554.968018</ele><time>2010-05-30T13:25:44Z</time></trkpt>
<trkpt lat="46.04595500" lon="6.37661600"><ele>555.971008</ele><time>2010-05-30T13:25:50Z</time></trkpt>
<trkpt lat="46.04579800" lon="6.37670000"><ele>556.955017</ele><time>2010-05-30T13:25:56Z</time></trkpt>
<trkpt lat="46.04568600" lon="6.37674100"><ele>557.807983</ele><time>2010-05-30T13:26:00Z</time></trkpt>
<trkpt lat="46.04560900" lon="6.37685000"><ele>558.362</ele><time>2010-05-30T13:26:04Z</time></trkpt>
<trkpt lat="46.04551700" lon="6.37712700"><ele>558.940002</ele><time>2010-05-30T13:26:10Z</time></trkpt>
<trkpt lat="46.04547100" lon="6.37752900"><ele>559.070984</ele><time>2010-05-30T13:26:17Z</time></trkpt>
<trkpt lat="46.04550600" lon="6.37785000"><ele>559.163025</ele><time>2010-05-30T13:26:23Z</time></trkpt>
<trkpt lat="46.04541900" lon="6.37808900"><ele>559.335022</ele><time>2010-05-30T13:26:27Z</time></trkpt>
<trkpt lat="46.04524400" lon="6.37818900"><ele>559.551025</ele><time>2010-05-30T13:26:31Z</time></trkpt>
<trkpt lat="46.04500800" lon="6.37820400"><ele>560.002014</ele><time>2010-05-30T13:26:36Z</time></trkpt>
<trkpt lat="46.04492200" lon="6.37823400"><ele>560.192017</ele><time>2010-05-30T13:26:38Z</time></trkpt>
<trkpt lat="46.04474500" lon="6.37824200"><ele>560.388</ele><time>2010-05-30T13:26:42Z</time></trkpt>
<trkpt lat="46.04448600" lon="6.37836900"><ele>561.752014</ele><time>2010-05-30T13:26:49Z</time></trkpt>
<trkpt lat="46.04430900" lon="6.37847400"><ele>562.690002</ele><time>2010-05-30T13:26:55Z</time></trkpt>
<trkpt lat="46.04414500" lon="6.37858200"><ele>563.237976</ele><time>2010-05-30T13:27:01Z</time></trkpt>
<trkpt lat="46.04398500" lon="6.37878700"><ele>564.067017</ele><time>2010-05-30T13:27:08Z</time></trkpt>
<trkpt lat="46.04380100" lon="6.37899600"><ele>565.625</ele><time>2010-05-30T13:27:16Z</time></trkpt>
<trkpt lat="46.04362900" lon="6.37922900"><ele>566.86499</ele><time>2010-05-30T13:27:24Z</time></trkpt>
<trkpt lat="46.04348900" lon="6.37937900"><ele>568.028992</ele><time>2010-05-30T13:27:30Z</time></trkpt>
<trkpt lat="46.04337800" lon="6.37945400"><ele>568.484009</ele><time>2010-05-30T13:27:34Z</time></trkpt>
<trkpt lat="46.04319900" lon="6.37948600"><ele>568.882996</ele><time>2010-05-30T13:27:39Z</time></trkpt>
<trkpt lat="46.04301100" lon="6.37947100"><ele>569.320984</ele><time>2010-05-30T13:27:44Z</time></trkpt>
<trkpt lat="46.04275400" lon="6.37935900"><ele>569.908997</ele><time>2010-05-30T13:27:51Z</time></trkpt>
<trkpt lat="46.04251900" lon="6.37934200"><ele>570.523987</ele><time>2010-05-30T13:27:57Z</time></trkpt>
<trkpt lat="46.04232500" lon="6.37944500"><ele>570.883972</ele><time>2010-05-30T13:28:02Z</time></trkpt>
<trkpt lat="46.04219300" lon="6.37967200"><ele>571.187988</ele><time>2010-05-30T13:28:07Z</time></trkpt>
<trkpt lat="46.04200000" lon="6.37989700"><ele>571.401978</ele><time>2010-05-30T13:28:13Z</time></trkpt>
<trkpt lat="46.04176300" lon="6.38000400"><ele>571.85498</ele><time>2010-05-30T13:28:19Z</time></trkpt>
<trkpt lat="46.04160100" lon="6.38009400"><ele>572.156982</ele><time>2010-05-30T13:28:23Z</time></trkpt>
<trkpt lat="46.04137800" lon="6.38019700"><ele>572.588989</ele><time>2010-05-30T13:28:28Z</time></trkpt>
<trkpt lat="46.04114200" lon="6.38023800"><ele>572.958984</ele><time>2010-05-30T13:28:33Z</time></trkpt>
<trkpt lat="46.04085400" lon="6.38020300"><ele>573.544006</ele><time>2010-05-30T13:28:39Z</time></trkpt>
<trkpt lat="46.04075900" lon="6.38020800"><ele>573.784973</ele><time>2010-05-30T13:28:41Z</time></trkpt>
<trkpt lat="46.04060100" lon="6.38029100"><ele>574.255005</ele><time>2010-05-30T13:28:45Z</time></trkpt>
<trkpt lat="46.04035700" lon="6.38050000"><ele>574.557007</ele><time>2010-05-30T13:28:51Z</time></trkpt>
<trkpt lat="46.04026800" lon="6.38055100"><ele>574.859009</ele><time>2010-05-30T13:28:53Z</time></trkpt>
<trkpt lat="46.03996700" lon="6.38074400"><ele>575.406982</ele><time>2010-05-30T13:29:00Z</time></trkpt>
<trkpt lat="46.03960400" lon="6.38098000"><ele>576.030029</ele><time>2010-05-30T13:29:08Z</time></trkpt>
<trkpt lat="46.03956400" lon="6.38101400"><ele>576.099976</ele><time>2010-05-30T13:29:09Z</time></trkpt>
<trkpt lat="46.03948900" lon="6.38109500"><ele>576.158997</ele><time>2010-05-30T13:29:11Z</time></trkpt>
<trkpt lat="46.03931200" lon="6.38149700"><ele>576.828979</ele><time>2010-05-30T13:29:18Z</time></trkpt>
<trkpt lat="46.03926500" lon="6.38162000"><ele>576.953979</ele><time>2010-05-30T13:29:20Z</time></trkpt>
<trkpt lat="46.03909200" lon="6.38197400"><ele>577.437012</ele><time>2010-05-30T13:29:26Z</time></trkpt>
<trkpt lat="46.03893600" lon="6.38215700"><ele>577.513977</ele><time>2010-05-30T13:29:30Z</time></trkpt>
<trkpt lat="46.03881400" lon="6.38225600"><ele>578.065002</ele><time>2010-05-30T13:29:33Z</time></trkpt>
<trkpt lat="46.03860200" lon="6.38233900"><ele>579.125</ele><time>2010-05-30T13:29:38Z</time></trkpt>
<trkpt lat="46.03839100" lon="6.38238200"><ele>580.111023</ele><time>2010-05-30T13:29:44Z</time></trkpt>
<trkpt lat="46.03825500" lon="6.38249700"><ele>581.254028</ele><time>2010-05-30T13:29:49Z</time></trkpt>
<trkpt lat="46.03803700" lon="6.38268400"><ele>582.651001</ele><time>2010-05-30T13:29:57Z</time></trkpt>
<trkpt lat="46.03781400" lon="6.38292500"><ele>584.197998</ele><time>2010-05-30T13:30:06Z</time></trkpt>
<trkpt lat="46.03763200" lon="6.38302300"><ele>585.221985</ele><time>2010-05-30T13:30:13Z</time></trkpt>
<trkpt lat="46.03751100" lon="6.38303400"><ele>586.098999</ele><time>2010-05-30T13:30:18Z</time></trkpt>
<trkpt lat="46.03736500" lon="6.38292200"><ele>586.830017</ele><time>2010-05-30T13:30:23Z</time></trkpt>
<trkpt lat="46.03731000" lon="6.38288300"><ele>587.484009</ele><time>2010-05-30T13:30:27Z</time></trkpt>
<trkpt lat="46.03715200" lon="6.38296700"><ele>588.242004</ele><time>2010-05-30T13:30:33Z</time></trkpt>
<trkpt lat="46.03702500" lon="6.38303400"><ele>589.098022</ele><time>2010-05-30T13:30:38Z</time></trkpt>
<trkpt lat="46.03685100" lon="6.38314300"><ele>590.047974</ele><time>2010-05-30T13:30:45Z</time></trkpt>
<trkpt lat="46.03671100" lon="6.38322600"><ele>590.812012</ele><time>2010-05-30T13:30:50Z</time></trkpt>
<trkpt lat="46.03657500" lon="6.38340800"><ele>591.934998</ele><time>2010-05-30T13:30:55Z</time></trkpt>
<trkpt lat="46.03640500" lon="6.38349700"><ele>592.598999</ele><time>2010-05-30T13:31:00Z</time></trkpt>
<trkpt lat="46.03618900" lon="6.38357600"><ele>593.810974</ele><time>2010-05-30T13:31:06Z</time></trkpt>
<trkpt lat="46.03604200" lon="6.38364300"><ele>594.651978</ele><time>2010-05-30T13:31:11Z</time></trkpt>
<trkpt lat="46.03583600" lon="6.38378900"><ele>595.416992</ele><time>2010-05-30T13:31:18Z</time></trkpt>
<trkpt lat="46.03567700" lon="6.38381700"><ele>595.645996</ele><time>2010-05-30T13:31:23Z</time></trkpt>
<trkpt lat="46.03545700" lon="6.38380600"><ele>596.127014</ele><time>2010-05-30T13:31:30Z</time></trkpt>
<trkpt lat="46.03524000" lon="6.38386300"><ele>596.487976</ele><time>2010-05-30T13:31:36Z</time></trkpt>
<trkpt lat="46.03519100" lon="6.38388000"><ele>596.617981</ele><time>2010-05-30T13:31:37Z</time></trkpt>
<trkpt lat="46.03502800" lon="6.38406000"><ele>597.077026</ele><time>2010-05-30T13:31:43Z</time></trkpt>
<trkpt lat="46.03497000" lon="6.38418800"><ele>597.692017</ele><time>2010-05-30T13:31:48Z</time></trkpt>
<trkpt lat="46.03487100" lon="6.38427800"><ele>598.504028</ele><time>2010-05-30T13:31:53Z</time></trkpt>
<trkpt lat="46.03474200" lon="6.38437600"><ele>599.41803</ele><time>2010-05-30T13:31:59Z</time></trkpt>
<trkpt lat="46.03464300" lon="6.38449900"><ele>600.434021</ele><time>2010-05-30T13:32:04Z</time></trkpt>
<trkpt lat="46.03455300" lon="6.38461100"><ele>601.47998</ele><time>2010-05-30T13:32:09Z</time></trkpt>
<trkpt lat="46.03445200" lon="6.38476900"><ele>602.439026</ele><time>2010-05-30T13:32:15Z</time></trkpt>
<trkpt lat="46.03437500" lon="6.38494600"><ele>603.416016</ele><time>2010-05-30T13:32:21Z</time></trkpt>
<trkpt lat="46.03423100" lon="6.38535600"><ele>604.565002</ele><time>2010-05-30T13:32:27Z</time></trkpt>
<trkpt lat="46.03412700" lon="6.38556700"><ele>605.148987</ele><time>2010-05-30T13:32:30Z</time></trkpt>
<trkpt lat="46.03383800" lon="6.38582600"><ele>605.950989</ele><time>2010-05-30T13:32:34Z</time></trkpt>
<trkpt lat="46.03343300" lon="6.38621200"><ele>606.679016</ele><time>2010-05-30T13:32:40Z</time></trkpt>
<trkpt lat="46.03343300" lon="6.38632800"><ele>607.372009</ele><time>2010-05-30T13:32:44Z</time></trkpt>
<trkpt lat="46.03365400" lon="6.38628200"><ele>608.124023</ele><time>2010-05-30T13:32:48Z</time></trkpt>
<trkpt lat="46.03375700" lon="6.38625600"><ele>609.289001</ele><time>2010-05-30T13:32:54Z</time></trkpt>
<trkpt lat="46.03376800" lon="6.38628500"><ele>610.060974</ele><time>2010-05-30T13:32:58Z</time></trkpt>
<trkpt lat="46.03366700" lon="6.38639600"><ele>611.130981</ele><time>2010-05-30T13:33:03Z</time></trkpt>
<trkpt lat="46.03356000" lon="6.38662000"><ele>612.117981</ele><time>2010-05-30T13:33:08Z</time></trkpt>
<trkpt lat="46.03349900" lon="6.38688900"><ele>613.27002</ele><time>2010-05-30T13:33:14Z</time></trkpt>
<trkpt lat="46.03346200" lon="6.38716900"><ele>614.471985</ele><time>2010-05-30T13:33:20Z</time></trkpt>
<trkpt lat="46.03338400" lon="6.38746600"><ele>615.35498</ele><time>2010-05-30T13:33:26Z</time></trkpt>
<trkpt lat="46.03331100" lon="6.38768100"><ele>616.190979</ele><time>2010-05-30T13:33:30Z</time></trkpt>
<trkpt lat="46.03324300" lon="6.38790600"><ele>616.921021</ele><time>2010-05-30T13:33:35Z</time></trkpt>
<trkpt lat="46.03316800" lon="6.38799700"><ele>617.505981</ele><time>2010-05-30T13:33:39Z</time></trkpt>
<trkpt lat="46.03303300" lon="6.38816100"><ele>618.330994</ele><time>2010-05-30T13:33:46Z</time></trkpt>
<trkpt lat="46.03291900" lon="6.38827000"><ele>619.005005</ele><time>2010-05-30T13:33:52Z</time></trkpt>
<trkpt lat="46.03280600" lon="6.38844500"><ele>619.880005</ele><time>2010-05-30T13:33:59Z</time></trkpt>
<trkpt lat="46.03273500" lon="6.38856200"><ele>620.633972</ele><time>2010-05-30T13:34:05Z</time></trkpt>
<trkpt lat="46.03260600" lon="6.38873100"><ele>621.921997</ele><time>2010-05-30T13:34:12Z</time></trkpt>
<trkpt lat="46.03242700" lon="6.38893500"><ele>623.107971</ele><time>2010-05-30T13:34:19Z</time></trkpt>
<trkpt lat="46.03225800" lon="6.38915400"><ele>624.651001</ele><time>2010-05-30T13:34:27Z</time></trkpt>
<trkpt lat="46.03205600" lon="6.38931800"><ele>625.502014</ele><time>2010-05-30T13:34:36Z</time></trkpt>
<trkpt lat="46.03186200" lon="6.38951200"><ele>626.916992</ele><time>2010-05-30T13:34:45Z</time></trkpt>
<trkpt lat="46.03169600" lon="6.38967600"><ele>627.976013</ele><time>2010-05-30T13:34:53Z</time></trkpt>
<trkpt lat="46.03152600" lon="6.38980600"><ele>629.203979</ele><time>2010-05-30T13:35:01Z</time></trkpt>
<trkpt lat="46.03142800" lon="6.38987100"><ele>629.017029</ele><time>2010-05-30T13:35:06Z</time></trkpt>
<trkpt lat="46.03123300" lon="6.38992200"><ele>629.588013</ele><time>2010-05-30T13:35:14Z</time></trkpt>
<trkpt lat="46.03103300" lon="6.38984800"><ele>630.489014</ele><time>2010-05-30T13:35:21Z</time></trkpt>
<trkpt lat="46.03093300" lon="6.38996000"><ele>631.507019</ele><time>2010-05-30T13:35:28Z</time></trkpt>
<trkpt lat="46.03092800" lon="6.38997800"><ele>631.598999</ele><time>2010-05-30T13:35:31Z</time></trkpt>
<trkpt lat="46.03119800" lon="6.39001000"><ele>631.096985</ele><time>2010-05-30T13:37:21Z</time></trkpt>
<trkpt lat="46.03119900" lon="6.39001200"><ele>631.099976</ele><time>2010-05-30T13:37:22Z</time></trkpt>
<trkpt lat="46.03120200" lon="6.39001200"><ele>631.104004</ele><time>2010-05-30T13:37:23Z</time></trkpt>
<trkpt lat="46.03091800" lon="6.39021400"><ele>632.10498</ele><time>2010-05-30T13:38:18Z</time></trkpt>
<trkpt lat="46.03079400" lon="6.39047000"><ele>632.994019</ele><time>2010-05-30T13:38:26Z</time></trkpt>
<trkpt lat="46.03062800" lon="6.39069500"><ele>634.645996</ele><time>2010-05-30T13:38:34Z</time></trkpt>
<trkpt lat="46.03052100" lon="6.39076500"><ele>635.388977</ele><time>2010-05-30T13:38:38Z</time></trkpt>
<trkpt lat="46.03036200" lon="6.39086200"><ele>636.184998</ele><time>2010-05-30T13:38:44Z</time></trkpt>
<trkpt lat="46.03023500" lon="6.39090600"><ele>636.919006</ele><time>2010-05-30T13:38:49Z</time></trkpt>
<trkpt lat="46.03015600" lon="6.39090100"><ele>637.471008</ele><time>2010-05-30T13:38:52Z</time></trkpt>
<trkpt lat="46.02994400" lon="6.39099200"><ele>638.530029</ele><time>2010-05-30T13:38:59Z</time></trkpt>
<trkpt lat="46.02978700" lon="6.39105300"><ele>639.372009</ele><time>2010-05-30T13:39:04Z</time></trkpt>
<trkpt lat="46.02962100" lon="6.39116200"><ele>640.39502</ele><time>2010-05-30T13:39:09Z</time></trkpt>
<trkpt lat="46.02946400" lon="6.39127200"><ele>641.437988</ele><time>2010-05-30T13:39:15Z</time></trkpt>
<trkpt lat="46.02932500" lon="6.39127300"><ele>642.478027</ele><time>2010-05-30T13:39:20Z</time></trkpt>
<trkpt lat="46.02917600" lon="6.39119300"><ele>643.439026</ele><time>2010-05-30T13:39:25Z</time></trkpt>
<trkpt lat="46.02900900" lon="6.39106000"><ele>644.427002</ele><time>2010-05-30T13:39:30Z</time></trkpt>
<trkpt lat="46.02897600" lon="6.39106100"><ele>644.624023</ele><time>2010-05-30T13:39:31Z</time></trkpt>
<trkpt lat="46.02882800" lon="6.39113500"><ele>645.60199</ele><time>2010-05-30T13:39:37Z</time></trkpt>
<trkpt lat="46.02874500" lon="6.39138800"><ele>646.463989</ele><time>2010-05-30T13:39:43Z</time></trkpt>
<trkpt lat="46.02871300" lon="6.39172700"><ele>647.695007</ele><time>2010-05-30T13:39:51Z</time></trkpt>
<trkpt lat="46.02871800" lon="6.39200300"><ele>648.502991</ele><time>2010-05-30T13:39:57Z</time></trkpt>
<trkpt lat="46.02869400" lon="6.39244500"><ele>649.72998</ele><time>2010-05-30T13:40:06Z</time></trkpt>
<trkpt lat="46.02869700" lon="6.39278000"><ele>650.947998</ele><time>2010-05-30T13:40:14Z</time></trkpt>
<trkpt lat="46.02860800" lon="6.39308100"><ele>652.132996</ele><time>2010-05-30T13:40:21Z</time></trkpt>
<trkpt lat="46.02845800" lon="6.39323400"><ele>653.208008</ele><time>2010-05-30T13:40:28Z</time></trkpt>
<trkpt lat="46.02831800" lon="6.39320700"><ele>654.138</ele><time>2010-05-30T13:40:33Z</time></trkpt>
<trkpt lat="46.02815200" lon="6.39307900"><ele>655.023987</ele><time>2010-05-30T13:40:39Z</time></trkpt>
<trkpt lat="46.02798100" lon="6.39285700"><ele>656.359985</ele><time>2010-05-30T13:40:46Z</time></trkpt>
<trkpt lat="46.02789900" lon="6.39263500"><ele>657.398987</ele><time>2010-05-30T13:40:52Z</time></trkpt>
<trkpt lat="46.02782400" lon="6.39239300"><ele>658.575012</ele><time>2010-05-30T13:40:59Z</time></trkpt>
<trkpt lat="46.02775400" lon="6.39218900"><ele>659.901978</ele><time>2010-05-30T13:41:06Z</time></trkpt>
<trkpt lat="46.02765500" lon="6.39197100"><ele>660.914978</ele><time>2010-05-30T13:41:13Z</time></trkpt>
<trkpt lat="46.02753900" lon="6.39184300"><ele>661.924011</ele><time>2010-05-30T13:41:18Z</time></trkpt>
<trkpt lat="46.02732300" lon="6.39170800"><ele>663.304993</ele><time>2010-05-30T13:41:26Z</time></trkpt>
<trkpt lat="46.02717100" lon="6.39173000"><ele>663.945984</ele><time>2010-05-30T13:41:32Z</time></trkpt>
<trkpt lat="46.02703600" lon="6.39178700"><ele>664.937988</ele><time>2010-05-30T13:41:38Z</time></trkpt>
<trkpt lat="46.02682500" lon="6.39187600"><ele>666.091003</ele><time>2010-05-30T13:41:46Z</time></trkpt>
<trkpt lat="46.02665200" lon="6.39196900"><ele>666.916016</ele><time>2010-05-30T13:41:53Z</time></trkpt>
<trkpt lat="46.02650700" lon="6.39208300"><ele>667.909973</ele><time>2010-05-30T13:41:59Z</time></trkpt>
<trkpt lat="46.02631700" lon="6.39226300"><ele>668.749023</ele><time>2010-05-30T13:42:07Z</time></trkpt>
<trkpt lat="46.02608600" lon="6.39247700"><ele>670.296021</ele><time>2010-05-30T13:42:16Z</time></trkpt>
<trkpt lat="46.02591900" lon="6.39264200"><ele>671.267029</ele><time>2010-05-30T13:42:23Z</time></trkpt>
<trkpt lat="46.02572800" lon="6.39280900"><ele>672.273987</ele><time>2010-05-30T13:42:31Z</time></trkpt>
<trkpt lat="46.02555500" lon="6.39298400"><ele>673.846008</ele><time>2010-05-30T13:42:39Z</time></trkpt>
<trkpt lat="46.02542300" lon="6.39313500"><ele>675.073975</ele><time>2010-05-30T13:42:46Z</time></trkpt>
<trkpt lat="46.02527500" lon="6.39335800"><ele>675.83197</ele><time>2010-05-30T13:42:53Z</time></trkpt>
<trkpt lat="46.02511200" lon="6.39360200"><ele>676.848999</ele><time>2010-05-30T13:43:00Z</time></trkpt>
<trkpt lat="46.02493300" lon="6.39380100"><ele>678.161987</ele><time>2010-05-30T13:43:08Z</time></trkpt>
<trkpt lat="46.02483200" lon="6.39391100"><ele>679.018982</ele><time>2010-05-30T13:43:13Z</time></trkpt>
<trkpt lat="46.02474400" lon="6.39401100"><ele>679.757019</ele><time>2010-05-30T13:43:18Z</time></trkpt>
<trkpt lat="46.02466700" lon="6.39413100"><ele>680.465027</ele><time>2010-05-30T13:43:23Z</time></trkpt>
<trkpt lat="46.02460100" lon="6.39431700"><ele>681.255005</ele><time>2010-05-30T13:43:29Z</time></trkpt>
<trkpt lat="46.02458100" lon="6.39450400"><ele>681.809021</ele><time>2010-05-30T13:43:34Z</time></trkpt>
<trkpt lat="46.02451600" lon="6.39477400"><ele>682.69397</ele><time>2010-05-30T13:43:41Z</time></trkpt>
<trkpt lat="46.02443500" lon="6.39488400"><ele>683.513</ele><time>2010-05-30T13:43:45Z</time></trkpt>
<trkpt lat="46.02426700" lon="6.39494400"><ele>684.521973</ele><time>2010-05-30T13:43:51Z</time></trkpt>
<trkpt lat="46.02408200" lon="6.39491900"><ele>685.838989</ele><time>2010-05-30T13:43:58Z</time></trkpt>
<trkpt lat="46.02384200" lon="6.39492500"><ele>687.164001</ele><time>2010-05-30T13:44:07Z</time></trkpt>
<trkpt lat="46.02362700" lon="6.39501200"><ele>688.406006</ele><time>2010-05-30T13:44:16Z</time></trkpt>
<trkpt lat="46.02349500" lon="6.39517200"><ele>689.690002</ele><time>2010-05-30T13:44:23Z</time></trkpt>
<trkpt lat="46.02334600" lon="6.39533500"><ele>690.588013</ele><time>2010-05-30T13:44:30Z</time></trkpt>
<trkpt lat="46.02319100" lon="6.39534500"><ele>691.536011</ele><time>2010-05-30T13:44:36Z</time></trkpt>
<trkpt lat="46.02298700" lon="6.39529900"><ele>692.770996</ele><time>2010-05-30T13:44:44Z</time></trkpt>
<trkpt lat="46.02281200" lon="6.39534800"><ele>693.690979</ele><time>2010-05-30T13:44:51Z</time></trkpt>
<trkpt lat="46.02268800" lon="6.39541500"><ele>694.390991</ele><time>2010-05-30T13:44:57Z</time></trkpt>
<trkpt lat="46.02258400" lon="6.39553100"><ele>695.099976</ele><time>2010-05-30T13:45:02Z</time></trkpt>
<trkpt lat="46.02246400" lon="6.39576400"><ele>696.052002</ele><time>2010-05-30T13:45:09Z</time></trkpt>
<trkpt lat="46.02233100" lon="6.39601800"><ele>696.867004</ele><time>2010-05-30T13:45:17Z</time></trkpt>
<trkpt lat="46.02220900" lon="6.39627500"><ele>697.916016</ele><time>2010-05-30T13:45:25Z</time></trkpt>
<trkpt lat="46.02205400" lon="6.39645400"><ele>699.455994</ele><time>2010-05-30T13:45:33Z</time></trkpt>
<trkpt lat="46.02188900" lon="6.39666200"><ele>700.55603</ele><time>2010-05-30T13:45:41Z</time></trkpt>
<trkpt lat="46.02166800" lon="6.39691500"><ele>701.914978</ele><time>2010-05-30T13:45:51Z</time></trkpt>
<trkpt lat="46.02144900" lon="6.39707800"><ele>702.812012</ele><time>2010-05-30T13:46:00Z</time></trkpt>
<trkpt lat="46.02126300" lon="6.39710800"><ele>703.776001</ele><time>2010-05-30T13:46:07Z</time></trkpt>
<trkpt lat="46.02107500" lon="6.39702700"><ele>705.004028</ele><time>2010-05-30T13:46:15Z</time></trkpt>
<trkpt lat="46.02088700" lon="6.39688600"><ele>706.143005</ele><time>2010-05-30T13:46:23Z</time></trkpt>
<trkpt lat="46.02072500" lon="6.39675400"><ele>706.778015</ele><time>2010-05-30T13:46:29Z</time></trkpt>
<trkpt lat="46.02048100" lon="6.39653600"><ele>707.317993</ele><time>2010-05-30T13:46:37Z</time></trkpt>
<trkpt lat="46.02023800" lon="6.39634400"><ele>708.135986</ele><time>2010-05-30T13:46:45Z</time></trkpt>
<trkpt lat="46.02004800" lon="6.39624100"><ele>708.75</ele><time>2010-05-30T13:46:53Z</time></trkpt>
<trkpt lat="46.01988500" lon="6.39620400"><ele>709.21698</ele><time>2010-05-30T13:47:02Z</time></trkpt>
<trkpt lat="46.01987700" lon="6.39620300"><ele>709.036987</ele><time>2010-05-30T13:47:04Z</time></trkpt>
<trkpt lat="46.01983500" lon="6.39621300"><ele>709.460999</ele><time>2010-05-30T13:47:43Z</time></trkpt>
<trkpt lat="46.01981400" lon="6.39621200"><ele>709.61499</ele><time>2010-05-30T13:47:44Z</time></trkpt>
<trkpt lat="46.01966900" lon="6.39622600"><ele>710.04303</ele><time>2010-05-30T13:47:49Z</time></trkpt>
<trkpt lat="46.01948000" lon="6.39632200"><ele>710.452026</ele><time>2010-05-30T13:47:55Z</time></trkpt>
<trkpt lat="46.01944400" lon="6.39635300"><ele>710.333984</ele><time>2010-05-30T13:47:56Z</time></trkpt>
<trkpt lat="46.01932800" lon="6.39653800"><ele>710.484985</ele><time>2010-05-30T13:48:00Z</time></trkpt>
<trkpt lat="46.01922400" lon="6.39685000"><ele>710.34198</ele><time>2010-05-30T13:48:05Z</time></trkpt>
<trkpt lat="46.01903800" lon="6.39708300"><ele>710.622986</ele><time>2010-05-30T13:48:10Z</time></trkpt>
<trkpt lat="46.01884400" lon="6.39710100"><ele>710.804993</ele><time>2010-05-30T13:48:14Z</time></trkpt>
<trkpt lat="46.01870600" lon="6.39703100"><ele>711.195007</ele><time>2010-05-30T13:48:17Z</time></trkpt>
<trkpt lat="46.01852500" lon="6.39690700"><ele>711.802979</ele><time>2010-05-30T13:48:21Z</time></trkpt>
<trkpt lat="46.01839200" lon="6.39677300"><ele>712.23999</ele><time>2010-05-30T13:48:24Z</time></trkpt>
<trkpt lat="46.01822000" lon="6.39666400"><ele>712.60199</ele><time>2010-05-30T13:48:28Z</time></trkpt>
<trkpt lat="46.01782200" lon="6.39653300"><ele>713.46698</ele><time>2010-05-30T13:48:37Z</time></trkpt>
<trkpt lat="46.01737700" lon="6.39645800"><ele>714.219971</ele><time>2010-05-30T13:48:47Z</time></trkpt>
<trkpt lat="46.01701600" lon="6.39636300"><ele>715.119019</ele><time>2010-05-30T13:48:55Z</time></trkpt>
<trkpt lat="46.01667600" lon="6.39621700"><ele>715.963013</ele><time>2010-05-30T13:49:03Z</time></trkpt>
<trkpt lat="46.01641700" lon="6.39610100"><ele>716.622009</ele><time>2010-05-30T13:49:09Z</time></trkpt>
<trkpt lat="46.01624800" lon="6.39602700"><ele>717.062012</ele><time>2010-05-30T13:49:13Z</time></trkpt>
<trkpt lat="46.01586500" lon="6.39597400"><ele>718.323975</ele><time>2010-05-30T13:49:22Z</time></trkpt>
<trkpt lat="46.01557000" lon="6.39602300"><ele>718.674988</ele><time>2010-05-30T13:49:29Z</time></trkpt>
<trkpt lat="46.01517300" lon="6.39615400"><ele>718.869019</ele><time>2010-05-30T13:49:38Z</time></trkpt>
<trkpt lat="46.01484400" lon="6.39624900"><ele>718.296997</ele><time>2010-05-30T13:49:44Z</time></trkpt>
<trkpt lat="46.01454300" lon="6.39631400"><ele>717.890991</ele><time>2010-05-30T13:49:49Z</time></trkpt>
<trkpt lat="46.01441700" lon="6.39637100"><ele>717.671997</ele><time>2010-05-30T13:49:51Z</time></trkpt>
<trkpt lat="46.01390100" lon="6.39648300"><ele>716.507019</ele><time>2010-05-30T13:49:59Z</time></trkpt>
<trkpt lat="46.01343300" lon="6.39654100"><ele>715.359985</ele><time>2010-05-30T13:50:06Z</time></trkpt>
<trkpt lat="46.01307800" lon="6.39641400"><ele>715.994019</ele><time>2010-05-30T13:50:12Z</time></trkpt>
<trkpt lat="46.01267200" lon="6.39623200"><ele>717.012024</ele><time>2010-05-30T13:50:20Z</time></trkpt>
<trkpt lat="46.01223100" lon="6.39602600"><ele>718.166992</ele><time>2010-05-30T13:50:30Z</time></trkpt>
<trkpt lat="46.01187300" lon="6.39587400"><ele>718.973022</ele><time>2010-05-30T13:50:39Z</time></trkpt>
<trkpt lat="46.01150900" lon="6.39583100"><ele>719.755981</ele><time>2010-05-30T13:50:48Z</time></trkpt>
<trkpt lat="46.01126000" lon="6.39599700"><ele>719.713013</ele><time>2010-05-30T13:50:54Z</time></trkpt>
<trkpt lat="46.01094700" lon="6.39634400"><ele>718.794983</ele><time>2010-05-30T13:51:01Z</time></trkpt>
<trkpt lat="46.01050200" lon="6.39674900"><ele>717.987</ele><time>2010-05-30T13:51:09Z</time></trkpt>
<trkpt lat="46.01038700" lon="6.39682400"><ele>717.698975</ele><time>2010-05-30T13:51:11Z</time></trkpt>
<trkpt lat="46.01026500" lon="6.39687400"><ele>717.273987</ele><time>2010-05-30T13:51:13Z</time></trkpt>
<trkpt lat="46.00998200" lon="6.39690100"><ele>716.640991</ele><time>2010-05-30T13:51:17Z</time></trkpt>
<trkpt lat="46.00951500" lon="6.39688100"><ele>717.184021</ele><time>2010-05-30T13:51:24Z</time></trkpt>
<trkpt lat="46.00907000" lon="6.39684700"><ele>717.796997</ele><time>2010-05-30T13:51:32Z</time></trkpt>
<trkpt lat="46.00865000" lon="6.39679100"><ele>718.359985</ele><time>2010-05-30T13:51:41Z</time></trkpt>
<trkpt lat="46.00830700" lon="6.39675100"><ele>719.484009</ele><time>2010-05-30T13:51:49Z</time></trkpt>
<trkpt lat="46.00780600" lon="6.39672400"><ele>720.463013</ele><time>2010-05-30T13:52:01Z</time></trkpt>
<trkpt lat="46.00757500" lon="6.39676100"><ele>720.586975</ele><time>2010-05-30T13:52:06Z</time></trkpt>
<trkpt lat="46.00711600" lon="6.39681600"><ele>720.653992</ele><time>2010-05-30T13:52:15Z</time></trkpt>
<trkpt lat="46.00662500" lon="6.39686900"><ele>720.015015</ele><time>2010-05-30T13:52:24Z</time></trkpt>
<trkpt lat="46.00594600" lon="6.39694900"><ele>719.732971</ele><time>2010-05-30T13:52:36Z</time></trkpt>
<trkpt lat="46.00548100" lon="6.39703900"><ele>719.586975</ele><time>2010-05-30T13:52:44Z</time></trkpt>
<trkpt lat="46.00536500" lon="6.39710000"><ele>719.309021</ele><time>2010-05-30T13:52:46Z</time></trkpt>
<trkpt lat="46.00504400" lon="6.39741900"><ele>718.669983</ele><time>2010-05-30T13:52:52Z</time></trkpt>
<trkpt lat="46.00498600" lon="6.39747500"><ele>718.442993</ele><time>2010-05-30T13:52:53Z</time></trkpt>
<trkpt lat="46.00472500" lon="6.39758100"><ele>717.638977</ele><time>2010-05-30T13:52:57Z</time></trkpt>
<trkpt lat="46.00466000" lon="6.39757500"><ele>717.578003</ele><time>2010-05-30T13:52:58Z</time></trkpt>
<trkpt lat="46.00422900" lon="6.39742000"><ele>718.034973</ele><time>2010-05-30T13:53:05Z</time></trkpt>
<trkpt lat="46.00389700" lon="6.39722500"><ele>718.828979</ele><time>2010-05-30T13:53:12Z</time></trkpt>
<trkpt lat="46.00358100" lon="6.39704600"><ele>719.45697</ele><time>2010-05-30T13:53:20Z</time></trkpt>
<trkpt lat="46.00320100" lon="6.39687000"><ele>720.367981</ele><time>2010-05-30T13:53:30Z</time></trkpt>
<trkpt lat="46.00294400" lon="6.39666900"><ele>721.085999</ele><time>2010-05-30T13:53:38Z</time></trkpt>
<trkpt lat="46.00272600" lon="6.39656800"><ele>721.76001</ele><time>2010-05-30T13:53:44Z</time></trkpt>
<trkpt lat="46.00247700" lon="6.39648800"><ele>722.367981</ele><time>2010-05-30T13:53:51Z</time></trkpt>
<trkpt lat="46.00224400" lon="6.39635100"><ele>723.336975</ele><time>2010-05-30T13:53:58Z</time></trkpt>
<trkpt lat="46.00194300" lon="6.39624700"><ele>724.275024</ele><time>2010-05-30T13:54:07Z</time></trkpt>
<trkpt lat="46.00164500" lon="6.39621200"><ele>724.960022</ele><time>2010-05-30T13:54:15Z</time></trkpt>
<trkpt lat="46.00151700" lon="6.39620300"><ele>725.343994</ele><time>2010-05-30T13:54:19Z</time></trkpt>
<trkpt lat="46.00150600" lon="6.39618500"><ele>725.130005</ele><time>2010-05-30T13:54:22Z</time></trkpt>
<trkpt lat="46.00157400" lon="6.39613500"><ele>725.044983</ele><time>2010-05-30T13:54:27Z</time></trkpt>
<trkpt lat="46.00165200" lon="6.39613700"><ele>724.833008</ele><time>2010-05-30T13:54:33Z</time></trkpt>
<trkpt lat="46.00165400" lon="6.39613800"><ele>724.76001</ele><time>2010-05-30T13:54:34Z</time></trkpt>
<trkpt lat="46.00166800" lon="6.39619800"><ele>724.906006</ele><time>2010-05-30T13:55:38Z</time></trkpt>
<trkpt lat="46.00166500" lon="6.39619700"><ele>724.927002</ele><time>2010-05-30T13:55:39Z</time></trkpt>
<trkpt lat="46.00155300" lon="6.39619600"><ele>725.085999</ele><time>2010-05-30T13:55:48Z</time></trkpt>
<trkpt lat="46.00149600" lon="6.39622300"><ele>725.439026</ele><time>2010-05-30T13:55:52Z</time></trkpt>
<trkpt lat="46.00134500" lon="6.39621500"><ele>726.018005</ele><time>2010-05-30T13:55:59Z</time></trkpt>
<trkpt lat="46.00115500" lon="6.39622800"><ele>726.719971</ele><time>2010-05-30T13:56:06Z</time></trkpt>
<trkpt lat="46.00098600" lon="6.39620500"><ele>726.78302</ele><time>2010-05-30T13:56:11Z</time></trkpt>
<trkpt lat="46.00066800" lon="6.39607800"><ele>727.947021</ele><time>2010-05-30T13:56:20Z</time></trkpt>
<trkpt lat="46.00048000" lon="6.39594000"><ele>728.848999</ele><time>2010-05-30T13:56:26Z</time></trkpt>
<trkpt lat="46.00032900" lon="6.39577700"><ele>729.69397</ele><time>2010-05-30T13:56:31Z</time></trkpt>
<trkpt lat="46.00008600" lon="6.39543000"><ele>730.958008</ele><time>2010-05-30T13:56:40Z</time></trkpt>
<trkpt lat="45.99991100" lon="6.39514400"><ele>732.122986</ele><time>2010-05-30T13:56:48Z</time></trkpt>
<trkpt lat="45.99973600" lon="6.39487300"><ele>733.049011</ele><time>2010-05-30T13:56:56Z</time></trkpt>
<trkpt lat="45.99947900" lon="6.39465800"><ele>734.211975</ele><time>2010-05-30T13:57:04Z</time></trkpt>
<trkpt lat="45.99919300" lon="6.39451200"><ele>735.325012</ele><time>2010-05-30T13:57:12Z</time></trkpt>
<trkpt lat="45.99897500" lon="6.39450200"><ele>735.638</ele><time>2010-05-30T13:57:18Z</time></trkpt>
<trkpt lat="45.99869000" lon="6.39450200"><ele>737.125977</ele><time>2010-05-30T13:57:26Z</time></trkpt>
<trkpt lat="45.99838600" lon="6.39451500"><ele>738.223999</ele><time>2010-05-30T13:57:34Z</time></trkpt>
<trkpt lat="45.99808400" lon="6.39451900"><ele>739.276001</ele><time>2010-05-30T13:57:42Z</time></trkpt>
<trkpt lat="45.99776300" lon="6.39452300"><ele>739.830017</ele><time>2010-05-30T13:57:50Z</time></trkpt>
<trkpt lat="45.99744100" lon="6.39448800"><ele>740.617981</ele><time>2010-05-30T13:57:58Z</time></trkpt>
<trkpt lat="45.99707000" lon="6.39443900"><ele>741.495972</ele><time>2010-05-30T13:58:07Z</time></trkpt>
<trkpt lat="45.99658300" lon="6.39436100"><ele>742.117981</ele><time>2010-05-30T13:58:19Z</time></trkpt>
<trkpt lat="45.99622300" lon="6.39432000"><ele>742.594971</ele><time>2010-05-30T13:58:28Z</time></trkpt>
<trkpt lat="45.99595000" lon="6.39432900"><ele>743.270996</ele><time>2010-05-30T13:58:35Z</time></trkpt>
<trkpt lat="45.99566700" lon="6.39436000"><ele>743.981018</ele><time>2010-05-30T13:58:42Z</time></trkpt>
<trkpt lat="45.99534200" lon="6.39443000"><ele>744.73999</ele><time>2010-05-30T13:58:50Z</time></trkpt>
<trkpt lat="45.99496200" lon="6.39450000"><ele>745.307983</ele><time>2010-05-30T13:58:59Z</time></trkpt>
<trkpt lat="45.99460300" lon="6.39447500"><ele>746.432007</ele><time>2010-05-30T13:59:07Z</time></trkpt>
<trkpt lat="45.99423700" lon="6.39439200"><ele>746.849976</ele><time>2010-05-30T13:59:15Z</time></trkpt>
<trkpt lat="45.99381400" lon="6.39419800"><ele>747.192993</ele><time>2010-05-30T13:59:24Z</time></trkpt>
<trkpt lat="45.99341300" lon="6.39393900"><ele>747.692017</ele><time>2010-05-30T13:59:33Z</time></trkpt>
<trkpt lat="45.99304400" lon="6.39372900"><ele>747.991028</ele><time>2010-05-30T13:59:41Z</time></trkpt>
<trkpt lat="45.99253200" lon="6.39344800"><ele>749.182983</ele><time>2010-05-30T13:59:52Z</time></trkpt>
<trkpt lat="45.99202300" lon="6.39318900"><ele>749.361023</ele><time>2010-05-30T14:00:03Z</time></trkpt>
<trkpt lat="45.99177200" lon="6.39320000"><ele>749.026001</ele><time>2010-05-30T14:00:08Z</time></trkpt>
<trkpt lat="45.99159300" lon="6.39345900"><ele>748.304016</ele><time>2010-05-30T14:00:12Z</time></trkpt>
<trkpt lat="45.99137500" lon="6.39388400"><ele>746.575989</ele><time>2010-05-30T14:00:17Z</time></trkpt>
<trkpt lat="45.99103300" lon="6.39380200"><ele>745.104004</ele><time>2010-05-30T14:00:21Z</time></trkpt>
<trkpt lat="45.99068800" lon="6.39370600"><ele>743.984009</ele><time>2010-05-30T14:00:25Z</time></trkpt>
<trkpt lat="45.99059900" lon="6.39373500"><ele>743.721008</ele><time>2010-05-30T14:00:26Z</time></trkpt>
<trkpt lat="45.99042600" lon="6.39381000"><ele>743.245972</ele><time>2010-05-30T14:00:28Z</time></trkpt>
<trkpt lat="45.99010500" lon="6.39371400"><ele>741.539001</ele><time>2010-05-30T14:00:32Z</time></trkpt>
<trkpt lat="45.99003100" lon="6.39361900"><ele>741.031982</ele><time>2010-05-30T14:00:33Z</time></trkpt>
<trkpt lat="45.98961400" lon="6.39337400"><ele>739.901001</ele><time>2010-05-30T14:00:38Z</time></trkpt>
<trkpt lat="45.98952400" lon="6.39340300"><ele>739.484009</ele><time>2010-05-30T14:00:39Z</time></trkpt>
<trkpt lat="45.98932800" lon="6.39347200"><ele>738.56897</ele><time>2010-05-30T14:00:41Z</time></trkpt>
<trkpt lat="45.98895200" lon="6.39335900"><ele>736.335022</ele><time>2010-05-30T14:00:45Z</time></trkpt>
<trkpt lat="45.98886500" lon="6.39328600"><ele>736.054993</ele><time>2010-05-30T14:00:46Z</time></trkpt>
<trkpt lat="45.98803800" lon="6.39238900"><ele>731.846985</ele><time>2010-05-30T14:00:56Z</time></trkpt>
<trkpt lat="45.98782300" lon="6.39204700"><ele>730.552002</ele><time>2010-05-30T14:00:59Z</time></trkpt>
<trkpt lat="45.98762600" lon="6.39168700"><ele>729.268982</ele><time>2010-05-30T14:01:02Z</time></trkpt>
<trkpt lat="45.98747400" lon="6.39148800"><ele>728.554016</ele><time>2010-05-30T14:01:04Z</time></trkpt>
<trkpt lat="45.98730600" lon="6.39132500"><ele>727.666992</ele><time>2010-05-30T14:01:06Z</time></trkpt>
<trkpt lat="45.98661300" lon="6.39078700"><ele>723.833008</ele><time>2010-05-30T14:01:14Z</time></trkpt>
<trkpt lat="45.98617600" lon="6.39032000"><ele>721.245972</ele><time>2010-05-30T14:01:19Z</time></trkpt>
<trkpt lat="45.98601900" lon="6.39011300"><ele>720.495972</ele><time>2010-05-30T14:01:21Z</time></trkpt>
<trkpt lat="45.98557500" lon="6.38952700"><ele>719.89801</ele><time>2010-05-30T14:01:27Z</time></trkpt>
<trkpt lat="45.98520800" lon="6.38910900"><ele>719.903992</ele><time>2010-05-30T14:01:32Z</time></trkpt>
<trkpt lat="45.98488300" lon="6.38864500"><ele>720.304993</ele><time>2010-05-30T14:01:38Z</time></trkpt>
<trkpt lat="45.98468500" lon="6.38828700"><ele>720.953003</ele><time>2010-05-30T14:01:43Z</time></trkpt>
<trkpt lat="45.98455600" lon="6.38800500"><ele>721.684021</ele><time>2010-05-30T14:01:48Z</time></trkpt>
<trkpt lat="45.98432400" lon="6.38776900"><ele>722.604004</ele><time>2010-05-30T14:01:54Z</time></trkpt>
<trkpt lat="45.98424700" lon="6.38771200"><ele>722.940979</ele><time>2010-05-30T14:01:56Z</time></trkpt>
<trkpt lat="45.98400800" lon="6.38760300"><ele>723.754028</ele><time>2010-05-30T14:02:03Z</time></trkpt>
<trkpt lat="45.98381700" lon="6.38756400"><ele>724.461975</ele><time>2010-05-30T14:02:09Z</time></trkpt>
<trkpt lat="45.98365500" lon="6.38756200"><ele>724.953003</ele><time>2010-05-30T14:02:14Z</time></trkpt>
<trkpt lat="45.98335400" lon="6.38751100"><ele>725.646973</ele><time>2010-05-30T14:02:22Z</time></trkpt>
<trkpt lat="45.98302500" lon="6.38743300"><ele>726.437012</ele><time>2010-05-30T14:02:30Z</time></trkpt>
<trkpt lat="45.98265400" lon="6.38730100"><ele>726.416016</ele><time>2010-05-30T14:02:38Z</time></trkpt>
<trkpt lat="45.98250100" lon="6.38726400"><ele>725.96698</ele><time>2010-05-30T14:02:41Z</time></trkpt>
<trkpt lat="45.98234800" lon="6.38725400"><ele>726.216003</ele><time>2010-05-30T14:02:44Z</time></trkpt>
<trkpt lat="45.98205800" lon="6.38726600"><ele>725.929993</ele><time>2010-05-30T14:02:49Z</time></trkpt>
<trkpt lat="45.98154100" lon="6.38737000"><ele>726.080994</ele><time>2010-05-30T14:02:58Z</time></trkpt>
<trkpt lat="45.98099900" lon="6.38740900"><ele>726.492004</ele><time>2010-05-30T14:03:08Z</time></trkpt>
<trkpt lat="45.98052500" lon="6.38739100"><ele>727.174988</ele><time>2010-05-30T14:03:17Z</time></trkpt>
<trkpt lat="45.98003200" lon="6.38738700"><ele>728.356995</ele><time>2010-05-30T14:03:27Z</time></trkpt>
<trkpt lat="45.97966200" lon="6.38734900"><ele>729.403992</ele><time>2010-05-30T14:03:36Z</time></trkpt>
<trkpt lat="45.97935600" lon="6.38731600"><ele>730.252014</ele><time>2010-05-30T14:03:44Z</time></trkpt>
<trkpt lat="45.97913400" lon="6.38727700"><ele>731.369995</ele><time>2010-05-30T14:03:51Z</time></trkpt>
<trkpt lat="45.97885400" lon="6.38722500"><ele>732.247009</ele><time>2010-05-30T14:03:59Z</time></trkpt>
<trkpt lat="45.97876800" lon="6.38719500"><ele>732.526978</ele><time>2010-05-30T14:04:01Z</time></trkpt>
<trkpt lat="45.97862700" lon="6.38716100"><ele>733.013</ele><time>2010-05-30T14:04:05Z</time></trkpt>
<trkpt lat="45.97843700" lon="6.38718900"><ele>733.66803</ele><time>2010-05-30T14:04:11Z</time></trkpt>
<trkpt lat="45.97826300" lon="6.38714100"><ele>734.383972</ele><time>2010-05-30T14:04:15Z</time></trkpt>
<trkpt lat="45.97811300" lon="6.38711800"><ele>734.79303</ele><time>2010-05-30T14:04:19Z</time></trkpt>
<trkpt lat="45.97799600" lon="6.38711100"><ele>735.250977</ele><time>2010-05-30T14:04:22Z</time></trkpt>
<trkpt lat="45.97775200" lon="6.38716400"><ele>735.934998</ele><time>2010-05-30T14:04:28Z</time></trkpt>
<trkpt lat="45.97749100" lon="6.38713900"><ele>737.01001</ele><time>2010-05-30T14:04:35Z</time></trkpt>
<trkpt lat="45.97732200" lon="6.38713300"><ele>737.90802</ele><time>2010-05-30T14:04:42Z</time></trkpt>
<trkpt lat="45.97719100" lon="6.38706800"><ele>738.870972</ele><time>2010-05-30T14:04:48Z</time></trkpt>
<trkpt lat="45.97700500" lon="6.38705900"><ele>739.716003</ele><time>2010-05-30T14:04:54Z</time></trkpt>
<trkpt lat="45.97681300" lon="6.38701800"><ele>740.338989</ele><time>2010-05-30T14:04:59Z</time></trkpt>
<trkpt lat="45.97663600" lon="6.38699600"><ele>740.731018</ele><time>2010-05-30T14:05:03Z</time></trkpt>
<trkpt lat="45.97645500" lon="6.38698000"><ele>741.294006</ele><time>2010-05-30T14:05:07Z</time></trkpt>
<trkpt lat="45.97600400" lon="6.38691300"><ele>742.507996</ele><time>2010-05-30T14:05:16Z</time></trkpt>
<trkpt lat="45.97576300" lon="6.38685500"><ele>743.19397</ele><time>2010-05-30T14:05:22Z</time></trkpt>
<trkpt lat="45.97554000" lon="6.38681400"><ele>743.755005</ele><time>2010-05-30T14:05:28Z</time></trkpt>
<trkpt lat="45.97537200" lon="6.38679200"><ele>744.346985</ele><time>2010-05-30T14:05:33Z</time></trkpt>
<trkpt lat="45.97521500" lon="6.38676000"><ele>744.992004</ele><time>2010-05-30T14:05:38Z</time></trkpt>
<trkpt lat="45.97495400" lon="6.38669700"><ele>745.961975</ele><time>2010-05-30T14:05:46Z</time></trkpt>
<trkpt lat="45.97481300" lon="6.38655100"><ele>746.609985</ele><time>2010-05-30T14:05:54Z</time></trkpt>
<trkpt lat="45.97454500" lon="6.38630500"><ele>746.90802</ele><time>2010-05-30T14:06:02Z</time></trkpt>
<trkpt lat="45.97436000" lon="6.38592700"><ele>747.512024</ele><time>2010-05-30T14:06:10Z</time></trkpt>
<trkpt lat="45.97417800" lon="6.38564900"><ele>747.677002</ele><time>2010-05-30T14:06:16Z</time></trkpt>
<trkpt lat="45.97404500" lon="6.38539700"><ele>747.867981</ele><time>2010-05-30T14:06:21Z</time></trkpt>
<trkpt lat="45.97383200" lon="6.38510600"><ele>748.038025</ele><time>2010-05-30T14:06:27Z</time></trkpt>
<trkpt lat="45.97369900" lon="6.38487700"><ele>748.169006</ele><time>2010-05-30T14:06:32Z</time></trkpt>
<trkpt lat="45.97359000" lon="6.38473500"><ele>748.432007</ele><time>2010-05-30T14:06:36Z</time></trkpt>
<trkpt lat="45.97346600" lon="6.38455200"><ele>748.690979</ele><time>2010-05-30T14:06:41Z</time></trkpt>
<trkpt lat="45.97331700" lon="6.38438900"><ele>749.065002</ele><time>2010-05-30T14:06:46Z</time></trkpt>
<trkpt lat="45.97327400" lon="6.38436800"><ele>749.140015</ele><time>2010-05-30T14:06:47Z</time></trkpt>
<trkpt lat="45.97301500" lon="6.38429000"><ele>749.242981</ele><time>2010-05-30T14:06:51Z</time></trkpt>
<trkpt lat="45.97269600" lon="6.38438900"><ele>749.330017</ele><time>2010-05-30T14:06:57Z</time></trkpt>
<trkpt lat="45.97232200" lon="6.38454700"><ele>749.47998</ele><time>2010-05-30T14:07:05Z</time></trkpt>
<trkpt lat="45.97194400" lon="6.38465800"><ele>750.330994</ele><time>2010-05-30T14:07:14Z</time></trkpt>
<trkpt lat="45.97171200" lon="6.38466500"><ele>750.66803</ele><time>2010-05-30T14:07:19Z</time></trkpt>
<trkpt lat="45.97155600" lon="6.38470800"><ele>750.874023</ele><time>2010-05-30T14:07:23Z</time></trkpt>
<trkpt lat="45.97131500" lon="6.38477200"><ele>751.265991</ele><time>2010-05-30T14:07:29Z</time></trkpt>
<trkpt lat="45.97103200" lon="6.38483100"><ele>752.044983</ele><time>2010-05-30T14:07:36Z</time></trkpt>
<trkpt lat="45.97068100" lon="6.38484700"><ele>752.544006</ele><time>2010-05-30T14:07:43Z</time></trkpt>
<trkpt lat="45.97034100" lon="6.38470400"><ele>753.012024</ele><time>2010-05-30T14:07:50Z</time></trkpt>
<trkpt lat="45.97002800" lon="6.38454300"><ele>753.546997</ele><time>2010-05-30T14:07:57Z</time></trkpt>
<trkpt lat="45.96978700" lon="6.38441600"><ele>754.015015</ele><time>2010-05-30T14:08:03Z</time></trkpt>
<trkpt lat="45.96947300" lon="6.38439900"><ele>754.682983</ele><time>2010-05-30T14:08:10Z</time></trkpt>
<trkpt lat="45.96911600" lon="6.38455600"><ele>755.408997</ele><time>2010-05-30T14:08:18Z</time></trkpt>
<trkpt lat="45.96869300" lon="6.38476400"><ele>755.911011</ele><time>2010-05-30T14:08:27Z</time></trkpt>
<trkpt lat="45.96819700" lon="6.38501200"><ele>756.963989</ele><time>2010-05-30T14:08:38Z</time></trkpt>
<trkpt lat="45.96770300" lon="6.38525200"><ele>757.890991</ele><time>2010-05-30T14:08:49Z</time></trkpt>
<trkpt lat="45.96734600" lon="6.38536100"><ele>758.640991</ele><time>2010-05-30T14:08:57Z</time></trkpt>
<trkpt lat="45.96697600" lon="6.38535000"><ele>759.054993</ele><time>2010-05-30T14:09:05Z</time></trkpt>
<trkpt lat="45.96667200" lon="6.38532500"><ele>759.924988</ele><time>2010-05-30T14:09:12Z</time></trkpt>
<trkpt lat="45.96634400" lon="6.38530900"><ele>760.497009</ele><time>2010-05-30T14:09:20Z</time></trkpt>
<trkpt lat="45.96604600" lon="6.38533900"><ele>761.111023</ele><time>2010-05-30T14:09:27Z</time></trkpt>
<trkpt lat="45.96565800" lon="6.38545200"><ele>761.713013</ele><time>2010-05-30T14:09:36Z</time></trkpt>
<trkpt lat="45.96522100" lon="6.38569000"><ele>762.302979</ele><time>2010-05-30T14:09:46Z</time></trkpt>
<trkpt lat="45.96491900" lon="6.38584400"><ele>763.036987</ele><time>2010-05-30T14:09:53Z</time></trkpt>
<trkpt lat="45.96455800" lon="6.38605600"><ele>763.70697</ele><time>2010-05-30T14:10:02Z</time></trkpt>
<trkpt lat="45.96416600" lon="6.38618400"><ele>764.23999</ele><time>2010-05-30T14:10:10Z</time></trkpt>
<trkpt lat="45.96403300" lon="6.38618600"><ele>764.583008</ele><time>2010-05-30T14:10:13Z</time></trkpt>
<trkpt lat="45.96367400" lon="6.38607400"><ele>765.120972</ele><time>2010-05-30T14:10:21Z</time></trkpt>
<trkpt lat="45.96327200" lon="6.38591400"><ele>765.90802</ele><time>2010-05-30T14:10:30Z</time></trkpt>
<trkpt lat="45.96297400" lon="6.38587400"><ele>766.504028</ele><time>2010-05-30T14:10:37Z</time></trkpt>
<trkpt lat="45.96255200" lon="6.38584500"><ele>767.049011</ele><time>2010-05-30T14:10:47Z</time></trkpt>
<trkpt lat="45.96231200" lon="6.38585500"><ele>767.596985</ele><time>2010-05-30T14:10:53Z</time></trkpt>
<trkpt lat="45.96197700" lon="6.38603600"><ele>768.156982</ele><time>2010-05-30T14:11:01Z</time></trkpt>
<trkpt lat="45.96159100" lon="6.38628700"><ele>768.656006</ele><time>2010-05-30T14:11:10Z</time></trkpt>
<trkpt lat="45.96127600" lon="6.38649200"><ele>769.203979</ele><time>2010-05-30T14:11:18Z</time></trkpt>
<trkpt lat="45.96086600" lon="6.38673300"><ele>769.80603</ele><time>2010-05-30T14:11:28Z</time></trkpt>
<trkpt lat="45.96045200" lon="6.38699300"><ele>770.533997</ele><time>2010-05-30T14:11:38Z</time></trkpt>
<trkpt lat="45.96011100" lon="6.38720500"><ele>771.085999</ele><time>2010-05-30T14:11:47Z</time></trkpt>
<trkpt lat="45.95992100" lon="6.38730900"><ele>771.745972</ele><time>2010-05-30T14:11:53Z</time></trkpt>
<trkpt lat="45.95970900" lon="6.38739800"><ele>772.112976</ele><time>2010-05-30T14:11:59Z</time></trkpt>
<trkpt lat="45.95948500" lon="6.38752100"><ele>772.429016</ele><time>2010-05-30T14:12:05Z</time></trkpt>
<trkpt lat="45.95935500" lon="6.38755900"><ele>772.599976</ele><time>2010-05-30T14:12:08Z</time></trkpt>
<trkpt lat="45.95892500" lon="6.38768100"><ele>773.338989</ele><time>2010-05-30T14:12:18Z</time></trkpt>
<trkpt lat="45.95853300" lon="6.38778800"><ele>774.021973</ele><time>2010-05-30T14:12:27Z</time></trkpt>
<trkpt lat="45.95823800" lon="6.38788600"><ele>774.448975</ele><time>2010-05-30T14:12:34Z</time></trkpt>
<trkpt lat="45.95790600" lon="6.38797200"><ele>775.109985</ele><time>2010-05-30T14:12:42Z</time></trkpt>
<trkpt lat="45.95764800" lon="6.38799300"><ele>775.578003</ele><time>2010-05-30T14:12:49Z</time></trkpt>
<trkpt lat="45.95736200" lon="6.38803800"><ele>776.052979</ele><time>2010-05-30T14:12:56Z</time></trkpt>
<trkpt lat="45.95707500" lon="6.38811400"><ele>776.554993</ele><time>2010-05-30T14:13:04Z</time></trkpt>
<trkpt lat="45.95692100" lon="6.38814000"><ele>776.52301</ele><time>2010-05-30T14:13:10Z</time></trkpt>
<trkpt lat="45.95687200" lon="6.38809900"><ele>776.567993</ele><time>2010-05-30T14:13:15Z</time></trkpt>
<trkpt lat="45.95683500" lon="6.38810100"><ele>776.374023</ele><time>2010-05-30T14:14:49Z</time></trkpt>
<trkpt lat="45.95683900" lon="6.38810500"><ele>776.411987</ele><time>2010-05-30T14:14:50Z</time></trkpt>
<trkpt lat="45.95687300" lon="6.38821500"><ele>776.557983</ele><time>2010-05-30T14:15:25Z</time></trkpt>
<trkpt lat="45.95680300" lon="6.38829600"><ele>776.974976</ele><time>2010-05-30T14:15:31Z</time></trkpt>
<trkpt lat="45.95655700" lon="6.38838300"><ele>777.791992</ele><time>2010-05-30T14:15:39Z</time></trkpt>
<trkpt lat="45.95622200" lon="6.38852700"><ele>778.22998</ele><time>2010-05-30T14:15:48Z</time></trkpt>
<trkpt lat="45.95587700" lon="6.38869800"><ele>779.22998</ele><time>2010-05-30T14:15:57Z</time></trkpt>
<trkpt lat="45.95558400" lon="6.38892800"><ele>780.085999</ele><time>2010-05-30T14:16:05Z</time></trkpt>
<trkpt lat="45.95523500" lon="6.38936900"><ele>780.898987</ele><time>2010-05-30T14:16:16Z</time></trkpt>
<trkpt lat="45.95494300" lon="6.38974500"><ele>782.017029</ele><time>2010-05-30T14:16:25Z</time></trkpt>
<trkpt lat="45.95462600" lon="6.39002100"><ele>782.702026</ele><time>2010-05-30T14:16:33Z</time></trkpt>
<trkpt lat="45.95426500" lon="6.39015100"><ele>783.348022</ele><time>2010-05-30T14:16:41Z</time></trkpt>
<trkpt lat="45.95413000" lon="6.39016200"><ele>783.984985</ele><time>2010-05-30T14:16:44Z</time></trkpt>
<trkpt lat="45.95379800" lon="6.39016500"><ele>785.174011</ele><time>2010-05-30T14:16:52Z</time></trkpt>
<trkpt lat="45.95345300" lon="6.39018200"><ele>786.40802</ele><time>2010-05-30T14:17:01Z</time></trkpt>
<trkpt lat="45.95319600" lon="6.39026300"><ele>787.465027</ele><time>2010-05-30T14:17:08Z</time></trkpt>
<trkpt lat="45.95293700" lon="6.39047900"><ele>788.408997</ele><time>2010-05-30T14:17:16Z</time></trkpt>
<trkpt lat="45.95276800" lon="6.39073900"><ele>789.143982</ele><time>2010-05-30T14:17:23Z</time></trkpt>
<trkpt lat="45.95258800" lon="6.39108600"><ele>789.757019</ele><time>2010-05-30T14:17:31Z</time></trkpt>
<trkpt lat="45.95239700" lon="6.39146400"><ele>790.166992</ele><time>2010-05-30T14:17:39Z</time></trkpt>
<trkpt lat="45.95216900" lon="6.39191500"><ele>791.018982</ele><time>2010-05-30T14:17:49Z</time></trkpt>
<trkpt lat="45.95193200" lon="6.39236800"><ele>791.72998</ele><time>2010-05-30T14:17:59Z</time></trkpt>
<trkpt lat="45.95175100" lon="6.39274500"><ele>792.15802</ele><time>2010-05-30T14:18:07Z</time></trkpt>
<trkpt lat="45.95149700" lon="6.39322400"><ele>792.815002</ele><time>2010-05-30T14:18:17Z</time></trkpt>
<trkpt lat="45.95126400" lon="6.39366200"><ele>793.429993</ele><time>2010-05-30T14:18:26Z</time></trkpt>
<trkpt lat="45.95106300" lon="6.39407100"><ele>793.98999</ele><time>2010-05-30T14:18:34Z</time></trkpt>
<trkpt lat="45.95091500" lon="6.39430400"><ele>794.538025</ele><time>2010-05-30T14:18:39Z</time></trkpt>
<trkpt lat="45.95074300" lon="6.39463900"><ele>794.911987</ele><time>2010-05-30T14:18:46Z</time></trkpt>
<trkpt lat="45.95067500" lon="6.39477700"><ele>794.879028</ele><time>2010-05-30T14:18:49Z</time></trkpt>
<trkpt lat="45.95051800" lon="6.39511600"><ele>795.515015</ele><time>2010-05-30T14:18:56Z</time></trkpt>
<trkpt lat="45.95037200" lon="6.39543800"><ele>796.104004</ele><time>2010-05-30T14:19:03Z</time></trkpt>
<trkpt lat="45.95024400" lon="6.39575100"><ele>796.705017</ele><time>2010-05-30T14:19:09Z</time></trkpt>
<trkpt lat="45.95014600" lon="6.39617400"><ele>796.97998</ele><time>2010-05-30T14:19:17Z</time></trkpt>
<trkpt lat="45.95007800" lon="6.39638800"><ele>797.335022</ele><time>2010-05-30T14:19:21Z</time></trkpt>
<trkpt lat="45.95002000" lon="6.39655400"><ele>797.370972</ele><time>2010-05-30T14:19:24Z</time></trkpt>
<trkpt lat="45.94997300" lon="6.39663700"><ele>797.387024</ele><time>2010-05-30T14:19:26Z</time></trkpt>
<trkpt lat="45.94969900" lon="6.39687600"><ele>798.328003</ele><time>2010-05-30T14:19:34Z</time></trkpt>
<trkpt lat="45.94945900" lon="6.39707500"><ele>798.630981</ele><time>2010-05-30T14:19:40Z</time></trkpt>
<trkpt lat="45.94924400" lon="6.39721700"><ele>799.129028</ele><time>2010-05-30T14:19:47Z</time></trkpt>
<trkpt lat="45.94923900" lon="6.39721700"><ele>798.874023</ele><time>2010-05-30T14:19:49Z</time></trkpt>
<trkpt lat="45.94916600" lon="6.39716400"><ele>798.481995</ele><time>2010-05-30T14:20:20Z</time></trkpt>
<trkpt lat="45.94897800" lon="6.39731000"><ele>799.192993</ele><time>2010-05-30T14:20:36Z</time></trkpt>
<trkpt lat="45.94876800" lon="6.39749800"><ele>799.637024</ele><time>2010-05-30T14:20:43Z</time></trkpt>
<trkpt lat="45.94855700" lon="6.39773600"><ele>800.491028</ele><time>2010-05-30T14:20:50Z</time></trkpt>
<trkpt lat="45.94828800" lon="6.39803500"><ele>801.325989</ele><time>2010-05-30T14:20:58Z</time></trkpt>
<trkpt lat="45.94814800" lon="6.39825600"><ele>801.677979</ele><time>2010-05-30T14:21:03Z</time></trkpt>
<trkpt lat="45.94786900" lon="6.39869300"><ele>802.632996</ele><time>2010-05-30T14:21:13Z</time></trkpt>
<trkpt lat="45.94765500" lon="6.39908300"><ele>803.791992</ele><time>2010-05-30T14:21:22Z</time></trkpt>
<trkpt lat="45.94741300" lon="6.39948800"><ele>804.567993</ele><time>2010-05-30T14:21:32Z</time></trkpt>
<trkpt lat="45.94734800" lon="6.39956600"><ele>804.708984</ele><time>2010-05-30T14:21:34Z</time></trkpt>
<trkpt lat="45.94713700" lon="6.39985100"><ele>805.52002</ele><time>2010-05-30T14:21:41Z</time></trkpt>
<trkpt lat="45.94711300" lon="6.39989600"><ele>805.672974</ele><time>2010-05-30T14:21:42Z</time></trkpt>
<trkpt lat="45.94685400" lon="6.40020700"><ele>806.29303</ele><time>2010-05-30T14:21:50Z</time></trkpt>
<trkpt lat="45.94661100" lon="6.40054700"><ele>806.906006</ele><time>2010-05-30T14:21:58Z</time></trkpt>
<trkpt lat="45.94650600" lon="6.40065100"><ele>807.408997</ele><time>2010-05-30T14:22:01Z</time></trkpt>
<trkpt lat="45.94614100" lon="6.40096400"><ele>808.513</ele><time>2010-05-30T14:22:11Z</time></trkpt>
<trkpt lat="45.94610600" lon="6.40099900"><ele>808.570984</ele><time>2010-05-30T14:22:12Z</time></trkpt>
<trkpt lat="45.94594900" lon="6.40111000"><ele>808.916016</ele><time>2010-05-30T14:22:16Z</time></trkpt>
<trkpt lat="45.94561900" lon="6.40136800"><ele>810.124023</ele><time>2010-05-30T14:22:25Z</time></trkpt>
<trkpt lat="45.94539500" lon="6.40149000"><ele>810.775024</ele><time>2010-05-30T14:22:31Z</time></trkpt>
<trkpt lat="45.94516700" lon="6.40161200"><ele>811.366028</ele><time>2010-05-30T14:22:37Z</time></trkpt>
<trkpt lat="45.94478600" lon="6.40172800"><ele>812.677002</ele><time>2010-05-30T14:22:46Z</time></trkpt>
<trkpt lat="45.94468500" lon="6.40191100"><ele>813.177979</ele><time>2010-05-30T14:22:50Z</time></trkpt>
<trkpt lat="45.94458800" lon="6.40225500"><ele>813.892029</ele><time>2010-05-30T14:22:55Z</time></trkpt>
<trkpt lat="45.94454900" lon="6.40228300"><ele>814.143982</ele><time>2010-05-30T14:22:56Z</time></trkpt>
<trkpt lat="45.94428700" lon="6.40243900"><ele>814.98999</ele><time>2010-05-30T14:23:03Z</time></trkpt>
<trkpt lat="45.94402200" lon="6.40265800"><ele>816.302002</ele><time>2010-05-30T14:23:11Z</time></trkpt>
<trkpt lat="45.94382400" lon="6.40279700"><ele>816.903992</ele><time>2010-05-30T14:23:17Z</time></trkpt>
<trkpt lat="45.94364400" lon="6.40288900"><ele>817.422974</ele><time>2010-05-30T14:23:22Z</time></trkpt>
<trkpt lat="45.94335500" lon="6.40303400"><ele>818.544006</ele><time>2010-05-30T14:23:30Z</time></trkpt>
<trkpt lat="45.94301400" lon="6.40312600"><ele>819.508972</ele><time>2010-05-30T14:23:39Z</time></trkpt>
<trkpt lat="45.94266000" lon="6.40311400"><ele>820.499023</ele><time>2010-05-30T14:23:48Z</time></trkpt>
<trkpt lat="45.94235600" lon="6.40307400"><ele>821.495972</ele><time>2010-05-30T14:23:56Z</time></trkpt>
<trkpt lat="45.94203000" lon="6.40298100"><ele>822.380005</ele><time>2010-05-30T14:24:04Z</time></trkpt>
<trkpt lat="45.94181200" lon="6.40291300"><ele>822.823975</ele><time>2010-05-30T14:24:10Z</time></trkpt>
<trkpt lat="45.94172700" lon="6.40292500"><ele>823.44397</ele><time>2010-05-30T14:24:14Z</time></trkpt>
<trkpt lat="45.94145800" lon="6.40285700"><ele>824.473999</ele><time>2010-05-30T14:24:22Z</time></trkpt>
<trkpt lat="45.94110600" lon="6.40271300"><ele>825.234985</ele><time>2010-05-30T14:24:32Z</time></trkpt>
<trkpt lat="45.94088600" lon="6.40249100"><ele>825.804993</ele><time>2010-05-30T14:24:38Z</time></trkpt>
<trkpt lat="45.94064900" lon="6.40221100"><ele>826.898987</ele><time>2010-05-30T14:24:47Z</time></trkpt>
<trkpt lat="45.94040800" lon="6.40201100"><ele>827.598022</ele><time>2010-05-30T14:24:53Z</time></trkpt>
<trkpt lat="45.94008300" lon="6.40183100"><ele>828.552002</ele><time>2010-05-30T14:25:01Z</time></trkpt>
<trkpt lat="45.93975600" lon="6.40170200"><ele>829.633972</ele><time>2010-05-30T14:25:10Z</time></trkpt>
<trkpt lat="45.93962900" lon="6.40164200"><ele>830.328979</ele><time>2010-05-30T14:25:13Z</time></trkpt>
<trkpt lat="45.93948100" lon="6.40146400"><ele>830.437012</ele><time>2010-05-30T14:25:15Z</time></trkpt>
<trkpt lat="45.93925300" lon="6.40141400"><ele>831.174011</ele><time>2010-05-30T14:25:20Z</time></trkpt>
<trkpt lat="45.93917700" lon="6.40142300"><ele>831.461975</ele><time>2010-05-30T14:25:22Z</time></trkpt>
<trkpt lat="45.93893900" lon="6.40136500"><ele>832.309021</ele><time>2010-05-30T14:25:28Z</time></trkpt>
<trkpt lat="45.93893600" lon="6.40136300"><ele>832.655029</ele><time>2010-05-30T14:25:31Z</time></trkpt>
<trkpt lat="45.93891700" lon="6.40137700"><ele>832.789978</ele><time>2010-05-30T14:25:32Z</time></trkpt>
<trkpt lat="45.93884500" lon="6.40146800"><ele>833.375977</ele><time>2010-05-30T14:25:36Z</time></trkpt>
<trkpt lat="45.93871700" lon="6.40148400"><ele>834.508972</ele><time>2010-05-30T14:25:43Z</time></trkpt>
<trkpt lat="45.93854700" lon="6.40139000"><ele>835.382019</ele><time>2010-05-30T14:25:49Z</time></trkpt>
<trkpt lat="45.93835100" lon="6.40128200"><ele>835.929016</ele><time>2010-05-30T14:25:54Z</time></trkpt>
<trkpt lat="45.93826200" lon="6.40128500"><ele>836.414001</ele><time>2010-05-30T14:25:58Z</time></trkpt>
<trkpt lat="45.93810400" lon="6.40124400"><ele>837.166992</ele><time>2010-05-30T14:26:04Z</time></trkpt>
<trkpt lat="45.93792600" lon="6.40100900"><ele>838.145996</ele><time>2010-05-30T14:26:12Z</time></trkpt>
<trkpt lat="45.93782400" lon="6.40091100"><ele>838.663025</ele><time>2010-05-30T14:26:18Z</time></trkpt>
<trkpt lat="45.93763100" lon="6.40080200"><ele>839.468994</ele><time>2010-05-30T14:26:25Z</time></trkpt>
<trkpt lat="45.93742600" lon="6.40077500"><ele>840.312012</ele><time>2010-05-30T14:26:33Z</time></trkpt>
<trkpt lat="45.93719400" lon="6.40075100"><ele>840.91803</ele><time>2010-05-30T14:26:40Z</time></trkpt>
<trkpt lat="45.93697700" lon="6.40068700"><ele>841.570984</ele><time>2010-05-30T14:26:47Z</time></trkpt>
<trkpt lat="45.93675700" lon="6.40057400"><ele>841.952026</ele><time>2010-05-30T14:26:55Z</time></trkpt>
<trkpt lat="45.93650200" lon="6.40042200"><ele>842.335022</ele><time>2010-05-30T14:27:02Z</time></trkpt>
<trkpt lat="45.93626200" lon="6.40034800"><ele>842.781006</ele><time>2010-05-30T14:27:08Z</time></trkpt>
<trkpt lat="45.93583600" lon="6.40033300"><ele>843.504028</ele><time>2010-05-30T14:27:18Z</time></trkpt>
<trkpt lat="45.93544500" lon="6.40028400"><ele>844.179016</ele><time>2010-05-30T14:27:27Z</time></trkpt>
<trkpt lat="45.93510100" lon="6.40014500"><ele>845.075012</ele><time>2010-05-30T14:27:35Z</time></trkpt>
<trkpt lat="45.93465100" lon="6.39994400"><ele>846.026978</ele><time>2010-05-30T14:27:45Z</time></trkpt>
<trkpt lat="45.93436400" lon="6.39988900"><ele>846.703979</ele><time>2010-05-30T14:27:52Z</time></trkpt>
<trkpt lat="45.93415600" lon="6.39999900"><ele>847.36499</ele><time>2010-05-30T14:27:58Z</time></trkpt>
<trkpt lat="45.93397100" lon="6.40013900"><ele>847.684021</ele><time>2010-05-30T14:28:04Z</time></trkpt>
<trkpt lat="45.93382500" lon="6.40025400"><ele>848.098999</ele><time>2010-05-30T14:28:09Z</time></trkpt>
<trkpt lat="45.93355900" lon="6.40040500"><ele>849.138977</ele><time>2010-05-30T14:28:17Z</time></trkpt>
<trkpt lat="45.93330800" lon="6.40040100"><ele>849.783997</ele><time>2010-05-30T14:28:23Z</time></trkpt>
<trkpt lat="45.93305000" lon="6.40068400"><ele>850.734009</ele><time>2010-05-30T14:28:31Z</time></trkpt>
<trkpt lat="45.93280000" lon="6.40105700"><ele>851.661011</ele><time>2010-05-30T14:28:39Z</time></trkpt>
<trkpt lat="45.93276800" lon="6.40111100"><ele>851.635986</ele><time>2010-05-30T14:28:40Z</time></trkpt>
<trkpt lat="45.93248100" lon="6.40154000"><ele>852.710022</ele><time>2010-05-30T14:28:50Z</time></trkpt>
<trkpt lat="45.93236700" lon="6.40179800"><ele>853.226013</ele><time>2010-05-30T14:28:55Z</time></trkpt>
<trkpt lat="45.93224900" lon="6.40203600"><ele>853.690979</ele><time>2010-05-30T14:29:00Z</time></trkpt>
<trkpt lat="45.93200800" lon="6.40251900"><ele>854.711975</ele><time>2010-05-30T14:29:10Z</time></trkpt>
<trkpt lat="45.93180600" lon="6.40278600"><ele>855.961975</ele><time>2010-05-30T14:29:18Z</time></trkpt>
<trkpt lat="45.93149600" lon="6.40304600"><ele>857.078979</ele><time>2010-05-30T14:29:27Z</time></trkpt>
<trkpt lat="45.93128700" lon="6.40337400"><ele>858.278992</ele><time>2010-05-30T14:29:36Z</time></trkpt>
<trkpt lat="45.93118100" lon="6.40376900"><ele>859.575989</ele><time>2010-05-30T14:29:46Z</time></trkpt>
<trkpt lat="45.93113500" lon="6.40415500"><ele>861.013</ele><time>2010-05-30T14:29:55Z</time></trkpt>
<trkpt lat="45.93122200" lon="6.40453200"><ele>862.028992</ele><time>2010-05-30T14:30:02Z</time></trkpt>
<trkpt lat="45.93118500" lon="6.40484400"><ele>863.046021</ele><time>2010-05-30T14:30:10Z</time></trkpt>
<trkpt lat="45.93108500" lon="6.40499100"><ele>863.872986</ele><time>2010-05-30T14:30:16Z</time></trkpt>
<trkpt lat="45.93098000" lon="6.40504500"><ele>864.857971</ele><time>2010-05-30T14:30:21Z</time></trkpt>
<trkpt lat="45.93085700" lon="6.40505100"><ele>865.758972</ele><time>2010-05-30T14:30:29Z</time></trkpt>
<trkpt lat="45.93085400" lon="6.40504100"><ele>865.763</ele><time>2010-05-30T14:30:32Z</time></trkpt>
<trkpt lat="45.93088900" lon="6.40498700"><ele>867.239014</ele><time>2010-05-30T14:33:53Z</time></trkpt>
<trkpt lat="45.93088800" lon="6.40499100"><ele>867.176025</ele><time>2010-05-30T14:33:54Z</time></trkpt>
<trkpt lat="45.93091000" lon="6.40508100"><ele>866.958008</ele><time>2010-05-30T14:43:48Z</time></trkpt>
<trkpt lat="45.93082900" lon="6.40507600"><ele>867.320007</ele><time>2010-05-30T14:43:53Z</time></trkpt>
<trkpt lat="45.93065000" lon="6.40509600"><ele>868.531982</ele><time>2010-05-30T14:44:00Z</time></trkpt>
<trkpt lat="45.93049800" lon="6.40510700"><ele>869.379028</ele><time>2010-05-30T14:44:06Z</time></trkpt>
<trkpt lat="45.93036000" lon="6.40511200"><ele>870.112</ele><time>2010-05-30T14:44:11Z</time></trkpt>
<trkpt lat="45.93021600" lon="6.40512700"><ele>870.814026</ele><time>2010-05-30T14:44:16Z</time></trkpt>
<trkpt lat="45.92996900" lon="6.40515700"><ele>872.291016</ele><time>2010-05-30T14:44:24Z</time></trkpt>
<trkpt lat="45.92971400" lon="6.40517000"><ele>873.875</ele><time>2010-05-30T14:44:32Z</time></trkpt>
<trkpt lat="45.92940400" lon="6.40519900"><ele>875.663025</ele><time>2010-05-30T14:44:42Z</time></trkpt>
<trkpt lat="45.92910100" lon="6.40530700"><ele>877.156006</ele><time>2010-05-30T14:44:52Z</time></trkpt>
<trkpt lat="45.92881000" lon="6.40552700"><ele>879.296997</ele><time>2010-05-30T14:45:03Z</time></trkpt>
<trkpt lat="45.92863000" lon="6.40574700"><ele>880.642029</ele><time>2010-05-30T14:45:11Z</time></trkpt>
<trkpt lat="45.92846200" lon="6.40605100"><ele>881.830994</ele><time>2010-05-30T14:45:20Z</time></trkpt>
<trkpt lat="45.92830200" lon="6.40642600"><ele>883.572021</ele><time>2010-05-30T14:45:30Z</time></trkpt>
<trkpt lat="45.92817700" lon="6.40671200"><ele>884.994995</ele><time>2010-05-30T14:45:38Z</time></trkpt>
<trkpt lat="45.92801100" lon="6.40712400"><ele>887.052002</ele><time>2010-05-30T14:45:49Z</time></trkpt>
<trkpt lat="45.92788000" lon="6.40744700"><ele>888.554016</ele><time>2010-05-30T14:45:58Z</time></trkpt>
<trkpt lat="45.92774000" lon="6.40779700"><ele>890.174988</ele><time>2010-05-30T14:46:08Z</time></trkpt>
<trkpt lat="45.92760000" lon="6.40816100"><ele>891.935974</ele><time>2010-05-30T14:46:18Z</time></trkpt>
<trkpt lat="45.92752000" lon="6.40839500"><ele>892.976013</ele><time>2010-05-30T14:46:24Z</time></trkpt>
<trkpt lat="45.92738500" lon="6.40877900"><ele>894.575989</ele><time>2010-05-30T14:46:34Z</time></trkpt>
<trkpt lat="45.92727500" lon="6.40908500"><ele>896.359985</ele><time>2010-05-30T14:46:43Z</time></trkpt>
<trkpt lat="45.92715600" lon="6.40943700"><ele>898.072021</ele><time>2010-05-30T14:46:53Z</time></trkpt>
<trkpt lat="45.92713400" lon="6.40977500"><ele>899.036011</ele><time>2010-05-30T14:47:01Z</time></trkpt>
<trkpt lat="45.92720200" lon="6.41009700"><ele>900.054993</ele><time>2010-05-30T14:47:08Z</time></trkpt>
<trkpt lat="45.92732400" lon="6.41034900"><ele>900.958008</ele><time>2010-05-30T14:47:15Z</time></trkpt>
<trkpt lat="45.92753400" lon="6.41071400"><ele>902.888977</ele><time>2010-05-30T14:47:26Z</time></trkpt>
<trkpt lat="45.92772400" lon="6.41103700"><ele>904.629028</ele><time>2010-05-30T14:47:36Z</time></trkpt>
<trkpt lat="45.92789400" lon="6.41131000"><ele>906.367981</ele><time>2010-05-30T14:47:45Z</time></trkpt>
<trkpt lat="45.92804700" lon="6.41148500"><ele>907.599976</ele><time>2010-05-30T14:47:52Z</time></trkpt>
<trkpt lat="45.92822200" lon="6.41160800"><ele>908.719971</ele><time>2010-05-30T14:47:59Z</time></trkpt>
<trkpt lat="45.92844300" lon="6.41167700"><ele>909.84198</ele><time>2010-05-30T14:48:07Z</time></trkpt>
<trkpt lat="45.92866100" lon="6.41167500"><ele>911.182007</ele><time>2010-05-30T14:48:14Z</time></trkpt>
<trkpt lat="45.92897100" lon="6.41156800"><ele>912.440979</ele><time>2010-05-30T14:48:24Z</time></trkpt>
<trkpt lat="45.92921800" lon="6.41151600"><ele>913.487976</ele><time>2010-05-30T14:48:32Z</time></trkpt>
<trkpt lat="45.92934500" lon="6.41162400"><ele>914.481018</ele><time>2010-05-30T14:48:37Z</time></trkpt>
<trkpt lat="45.92939700" lon="6.41183400"><ele>915.700012</ele><time>2010-05-30T14:48:43Z</time></trkpt>
<trkpt lat="45.92934900" lon="6.41202800"><ele>917.013</ele><time>2010-05-30T14:48:49Z</time></trkpt>
<trkpt lat="45.92920000" lon="6.41215200"><ele>918.669006</ele><time>2010-05-30T14:48:56Z</time></trkpt>
<trkpt lat="45.92905800" lon="6.41221000"><ele>919.669006</ele><time>2010-05-30T14:49:02Z</time></trkpt>
<trkpt lat="45.92883200" lon="6.41222600"><ele>921.174011</ele><time>2010-05-30T14:49:11Z</time></trkpt>
<trkpt lat="45.92859100" lon="6.41218900"><ele>922.695984</ele><time>2010-05-30T14:49:20Z</time></trkpt>
<trkpt lat="45.92834400" lon="6.41219300"><ele>924.007019</ele><time>2010-05-30T14:49:29Z</time></trkpt>
<trkpt lat="45.92807200" lon="6.41219000"><ele>925.664001</ele><time>2010-05-30T14:49:39Z</time></trkpt>
<trkpt lat="45.92779500" lon="6.41212600"><ele>927.247009</ele><time>2010-05-30T14:49:49Z</time></trkpt>
<trkpt lat="45.92755100" lon="6.41209500"><ele>928.723022</ele><time>2010-05-30T14:49:58Z</time></trkpt>
<trkpt lat="45.92734500" lon="6.41205600"><ele>929.916992</ele><time>2010-05-30T14:50:06Z</time></trkpt>
<trkpt lat="45.92710600" lon="6.41196300"><ele>931.546021</ele><time>2010-05-30T14:50:15Z</time></trkpt>
<trkpt lat="45.92686200" lon="6.41184600"><ele>933.216003</ele><time>2010-05-30T14:50:25Z</time></trkpt>
<trkpt lat="45.92659300" lon="6.41172800"><ele>934.869019</ele><time>2010-05-30T14:50:37Z</time></trkpt>
<trkpt lat="45.92638900" lon="6.41162500"><ele>936.023987</ele><time>2010-05-30T14:50:46Z</time></trkpt>
<trkpt lat="45.92615900" lon="6.41144600"><ele>937.296997</ele><time>2010-05-30T14:50:56Z</time></trkpt>
<trkpt lat="45.92600800" lon="6.41120600"><ele>938.919006</ele><time>2010-05-30T14:51:05Z</time></trkpt>
<trkpt lat="45.92588000" lon="6.41093400"><ele>940.445007</ele><time>2010-05-30T14:51:14Z</time></trkpt>
<trkpt lat="45.92578700" lon="6.41071400"><ele>941.421997</ele><time>2010-05-30T14:51:21Z</time></trkpt>
<trkpt lat="45.92565500" lon="6.41042400"><ele>942.950989</ele><time>2010-05-30T14:51:30Z</time></trkpt>
<trkpt lat="45.92543700" lon="6.41004700"><ele>944.830994</ele><time>2010-05-30T14:51:43Z</time></trkpt>
<trkpt lat="45.92526500" lon="6.40976400"><ele>946.439026</ele><time>2010-05-30T14:51:53Z</time></trkpt>
<trkpt lat="45.92511800" lon="6.40956000"><ele>947.705017</ele><time>2010-05-30T14:52:01Z</time></trkpt>
<trkpt lat="45.92491400" lon="6.40939500"><ele>949.04303</ele><time>2010-05-30T14:52:10Z</time></trkpt>
<trkpt lat="45.92473100" lon="6.40932300"><ele>950.166016</ele><time>2010-05-30T14:52:18Z</time></trkpt>
<trkpt lat="45.92453000" lon="6.40933500"><ele>951.521973</ele><time>2010-05-30T14:52:26Z</time></trkpt>
<trkpt lat="45.92436300" lon="6.40940200"><ele>952.210999</ele><time>2010-05-30T14:52:33Z</time></trkpt>
<trkpt lat="45.92418200" lon="6.40954800"><ele>953.18103</ele><time>2010-05-30T14:52:41Z</time></trkpt>
<trkpt lat="45.92402400" lon="6.40968100"><ele>953.867004</ele><time>2010-05-30T14:52:48Z</time></trkpt>
<trkpt lat="45.92379200" lon="6.40984900"><ele>955.010986</ele><time>2010-05-30T14:52:58Z</time></trkpt>
<trkpt lat="45.92351500" lon="6.41002800"><ele>955.651978</ele><time>2010-05-30T14:53:08Z</time></trkpt>
<trkpt lat="45.92323900" lon="6.41016300"><ele>955.867004</ele><time>2010-05-30T14:53:16Z</time></trkpt>
<trkpt lat="45.92303400" lon="6.41026400"><ele>956.359009</ele><time>2010-05-30T14:53:22Z</time></trkpt>
<trkpt lat="45.92280100" lon="6.41037500"><ele>956.966003</ele><time>2010-05-30T14:53:29Z</time></trkpt>
<trkpt lat="45.92262400" lon="6.41036100"><ele>956.807983</ele><time>2010-05-30T14:53:35Z</time></trkpt>
<trkpt lat="45.92251700" lon="6.41022100"><ele>956.697021</ele><time>2010-05-30T14:53:39Z</time></trkpt>
<trkpt lat="45.92241500" lon="6.40984900"><ele>955.695007</ele><time>2010-05-30T14:53:45Z</time></trkpt>
<trkpt lat="45.92233400" lon="6.40947100"><ele>955.414978</ele><time>2010-05-30T14:53:50Z</time></trkpt>
<trkpt lat="45.92220900" lon="6.40889600"><ele>954.971985</ele><time>2010-05-30T14:53:58Z</time></trkpt>
<trkpt lat="45.92212700" lon="6.40849900"><ele>954.780029</ele><time>2010-05-30T14:54:04Z</time></trkpt>
<trkpt lat="45.92206700" lon="6.40818700"><ele>954.478027</ele><time>2010-05-30T14:54:10Z</time></trkpt>
<trkpt lat="45.92201700" lon="6.40788700"><ele>954.401001</ele><time>2010-05-30T14:54:17Z</time></trkpt>
<trkpt lat="45.92197400" lon="6.40765300"><ele>954.195984</ele><time>2010-05-30T14:54:23Z</time></trkpt>
<trkpt lat="45.92191100" lon="6.40736100"><ele>954.197998</ele><time>2010-05-30T14:54:30Z</time></trkpt>
<trkpt lat="45.92185400" lon="6.40707100"><ele>953.728027</ele><time>2010-05-30T14:54:35Z</time></trkpt>
<trkpt lat="45.92180100" lon="6.40660600"><ele>952.85498</ele><time>2010-05-30T14:54:41Z</time></trkpt>
<trkpt lat="45.92175600" lon="6.40602800"><ele>951.400024</ele><time>2010-05-30T14:54:47Z</time></trkpt>
<trkpt lat="45.92164600" lon="6.40507000"><ele>949.596985</ele><time>2010-05-30T14:54:56Z</time></trkpt>
<trkpt lat="45.92144200" lon="6.40405500"><ele>947.379028</ele><time>2010-05-30T14:55:05Z</time></trkpt>
<trkpt lat="45.92133200" lon="6.40325200"><ele>945.56897</ele><time>2010-05-30T14:55:12Z</time></trkpt>
<trkpt lat="45.92131500" lon="6.40255900"><ele>944.416992</ele><time>2010-05-30T14:55:18Z</time></trkpt>
<trkpt lat="45.92126000" lon="6.40155900"><ele>942.479004</ele><time>2010-05-30T14:55:27Z</time></trkpt>
<trkpt lat="45.92127800" lon="6.40133500"><ele>942.094971</ele><time>2010-05-30T14:55:29Z</time></trkpt>
<trkpt lat="45.92146200" lon="6.40048000"><ele>940.656006</ele><time>2010-05-30T14:55:37Z</time></trkpt>
<trkpt lat="45.92148400" lon="6.40003300"><ele>940.091003</ele><time>2010-05-30T14:55:41Z</time></trkpt>
<trkpt lat="45.92135300" lon="6.39936000"><ele>938.791992</ele><time>2010-05-30T14:55:47Z</time></trkpt>
<trkpt lat="45.92118500" lon="6.39855300"><ele>937.323975</ele><time>2010-05-30T14:55:54Z</time></trkpt>
<trkpt lat="45.92103900" lon="6.39761400"><ele>935.672974</ele><time>2010-05-30T14:56:02Z</time></trkpt>
<trkpt lat="45.92103500" lon="6.39726500"><ele>934.971985</ele><time>2010-05-30T14:56:05Z</time></trkpt>
<trkpt lat="45.92114800" lon="6.39645500"><ele>933.624023</ele><time>2010-05-30T14:56:12Z</time></trkpt>
<trkpt lat="45.92120900" lon="6.39609500"><ele>933.301025</ele><time>2010-05-30T14:56:15Z</time></trkpt>
<trkpt lat="45.92134500" lon="6.39553200"><ele>932.119995</ele><time>2010-05-30T14:56:20Z</time></trkpt>
<trkpt lat="45.92130300" lon="6.39516300"><ele>931.039978</ele><time>2010-05-30T14:56:23Z</time></trkpt>
<trkpt lat="45.92123200" lon="6.39477200"><ele>929.633972</ele><time>2010-05-30T14:56:26Z</time></trkpt>
<trkpt lat="45.92121500" lon="6.39434700"><ele>927.945007</ele><time>2010-05-30T14:56:29Z</time></trkpt>
<trkpt lat="45.92108900" lon="6.39362700"><ele>925.359009</ele><time>2010-05-30T14:56:34Z</time></trkpt>
<trkpt lat="45.92095200" lon="6.39286100"><ele>922.093994</ele><time>2010-05-30T14:56:39Z</time></trkpt>
<trkpt lat="45.92072600" lon="6.39199500"><ele>919.413025</ele><time>2010-05-30T14:56:45Z</time></trkpt>
<trkpt lat="45.92061200" lon="6.39127400"><ele>916.450012</ele><time>2010-05-30T14:56:50Z</time></trkpt>
<trkpt lat="45.92053100" lon="6.39083100"><ele>915.036011</ele><time>2010-05-30T14:56:53Z</time></trkpt>
<trkpt lat="45.92036300" lon="6.38990800"><ele>911.184021</ele><time>2010-05-30T14:56:59Z</time></trkpt>
<trkpt lat="45.92030600" lon="6.38926100"><ele>908.958008</ele><time>2010-05-30T14:57:03Z</time></trkpt>
<trkpt lat="45.92027100" lon="6.38851900"><ele>905.906006</ele><time>2010-05-30T14:57:08Z</time></trkpt>
<trkpt lat="45.92011600" lon="6.38798900"><ele>903.749023</ele><time>2010-05-30T14:57:12Z</time></trkpt>
<trkpt lat="45.91992900" lon="6.38753400"><ele>900.862976</ele><time>2010-05-30T14:57:16Z</time></trkpt>
<trkpt lat="45.91986000" lon="6.38699900"><ele>898.961975</ele><time>2010-05-30T14:57:20Z</time></trkpt>
<trkpt lat="45.91985800" lon="6.38672000"><ele>897.968994</ele><time>2010-05-30T14:57:22Z</time></trkpt>
<trkpt lat="45.91981400" lon="6.38617800"><ele>895.575012</ele><time>2010-05-30T14:57:26Z</time></trkpt>
<trkpt lat="45.91962800" lon="6.38555200"><ele>892.903015</ele><time>2010-05-30T14:57:31Z</time></trkpt>
<trkpt lat="45.91934100" lon="6.38496300"><ele>889.817993</ele><time>2010-05-30T14:57:36Z</time></trkpt>
<trkpt lat="45.91911300" lon="6.38454300"><ele>887.338013</ele><time>2010-05-30T14:57:40Z</time></trkpt>
<trkpt lat="45.91880900" lon="6.38395100"><ele>883.780029</ele><time>2010-05-30T14:57:46Z</time></trkpt>
<trkpt lat="45.91867400" lon="6.38337500"><ele>881.117004</ele><time>2010-05-30T14:57:51Z</time></trkpt>
<trkpt lat="45.91857900" lon="6.38265000"><ele>878.252991</ele><time>2010-05-30T14:57:57Z</time></trkpt>
<trkpt lat="45.91852500" lon="6.38241300"><ele>877.40802</ele><time>2010-05-30T14:57:59Z</time></trkpt>
<trkpt lat="45.91838700" lon="6.38209100"><ele>875.700012</ele><time>2010-05-30T14:58:02Z</time></trkpt>
<trkpt lat="45.91827000" lon="6.38189300"><ele>874.992981</ele><time>2010-05-30T14:58:04Z</time></trkpt>
<trkpt lat="45.91807900" lon="6.38160400"><ele>873.112976</ele><time>2010-05-30T14:58:07Z</time></trkpt>
<trkpt lat="45.91785000" lon="6.38100100"><ele>870.221985</ele><time>2010-05-30T14:58:12Z</time></trkpt>
<trkpt lat="45.91781400" lon="6.38087700"><ele>869.947021</ele><time>2010-05-30T14:58:13Z</time></trkpt>
<trkpt lat="45.91761000" lon="6.38033300"><ele>866.939026</ele><time>2010-05-30T14:58:18Z</time></trkpt>
<trkpt lat="45.91729200" lon="6.37975600"><ele>863.713989</ele><time>2010-05-30T14:58:24Z</time></trkpt>
<trkpt lat="45.91692400" lon="6.37904800"><ele>860.242981</ele><time>2010-05-30T14:58:31Z</time></trkpt>
<trkpt lat="45.91668200" lon="6.37862600"><ele>856.867981</ele><time>2010-05-30T14:58:36Z</time></trkpt>
<trkpt lat="45.91657800" lon="6.37848200"><ele>854.77002</ele><time>2010-05-30T14:58:40Z</time></trkpt>
<trkpt lat="45.91656400" lon="6.37846400"><ele>854.432983</ele><time>2010-05-30T14:58:43Z</time></trkpt>
<trkpt lat="45.91656000" lon="6.37849200"><ele>854.411011</ele><time>2010-05-30T14:59:43Z</time></trkpt>
<trkpt lat="45.91642900" lon="6.37834500"><ele>853.611023</ele><time>2010-05-30T14:59:48Z</time></trkpt>
<trkpt lat="45.91620000" lon="6.37806700"><ele>852.374023</ele><time>2010-05-30T14:59:53Z</time></trkpt>
<trkpt lat="45.91584500" lon="6.37762200"><ele>850.228027</ele><time>2010-05-30T14:59:59Z</time></trkpt>
<trkpt lat="45.91545300" lon="6.37711800"><ele>847.619019</ele><time>2010-05-30T15:00:05Z</time></trkpt>
<trkpt lat="45.91517700" lon="6.37665400"><ele>844.835022</ele><time>2010-05-30T15:00:10Z</time></trkpt>
<trkpt lat="45.91484900" lon="6.37609000"><ele>841.857971</ele><time>2010-05-30T15:00:16Z</time></trkpt>
<trkpt lat="45.91439000" lon="6.37556200"><ele>837.687012</ele><time>2010-05-30T15:00:23Z</time></trkpt>
<trkpt lat="45.91406700" lon="6.37495300"><ele>834.674988</ele><time>2010-05-30T15:00:29Z</time></trkpt>
<trkpt lat="45.91387000" lon="6.37456900"><ele>832.528992</ele><time>2010-05-30T15:00:33Z</time></trkpt>
<trkpt lat="45.91365100" lon="6.37417700"><ele>829.867004</ele><time>2010-05-30T15:00:38Z</time></trkpt>
<trkpt lat="45.91351100" lon="6.37405600"><ele>827.856018</ele><time>2010-05-30T15:00:42Z</time></trkpt>
<trkpt lat="45.91346800" lon="6.37412300"><ele>826.814026</ele><time>2010-05-30T15:00:45Z</time></trkpt>
<trkpt lat="45.91351800" lon="6.37424300"><ele>826.369019</ele><time>2010-05-30T15:00:48Z</time></trkpt>
<trkpt lat="45.91357800" lon="6.37447800"><ele>823.955994</ele><time>2010-05-30T15:00:53Z</time></trkpt>
<trkpt lat="45.91354800" lon="6.37458800"><ele>822.877014</ele><time>2010-05-30T15:00:55Z</time></trkpt>
<trkpt lat="45.91347900" lon="6.37503100"><ele>820.164001</ele><time>2010-05-30T15:01:01Z</time></trkpt>
<trkpt lat="45.91343500" lon="6.37532400"><ele>816.823975</ele><time>2010-05-30T15:01:06Z</time></trkpt>
<trkpt lat="45.91344500" lon="6.37555700"><ele>813.47699</ele><time>2010-05-30T15:01:11Z</time></trkpt>
<trkpt lat="45.91344000" lon="6.37569000"><ele>811.270996</ele><time>2010-05-30T15:01:15Z</time></trkpt>
<trkpt lat="45.91337700" lon="6.37569400"><ele>809.463013</ele><time>2010-05-30T15:01:19Z</time></trkpt>
<trkpt lat="45.91334200" lon="6.37564700"><ele>809.208984</ele><time>2010-05-30T15:01:21Z</time></trkpt>
<trkpt lat="45.91329400" lon="6.37556100"><ele>809.85199</ele><time>2010-05-30T15:01:26Z</time></trkpt>
<trkpt lat="45.91326800" lon="6.37551200"><ele>810.596985</ele><time>2010-05-30T15:01:30Z</time></trkpt>
<trkpt lat="45.91332000" lon="6.37556700"><ele>810.463989</ele><time>2010-05-30T15:01:34Z</time></trkpt>
<trkpt lat="45.91337600" lon="6.37565900"><ele>809.859985</ele><time>2010-05-30T15:01:37Z</time></trkpt>
<trkpt lat="45.91336300" lon="6.37579700"><ele>808.919983</ele><time>2010-05-30T15:01:41Z</time></trkpt>
<trkpt lat="45.91331600" lon="6.37583400"><ele>807.585022</ele><time>2010-05-30T15:01:43Z</time></trkpt>
<trkpt lat="45.91322800" lon="6.37589300"><ele>805.632019</ele><time>2010-05-30T15:01:47Z</time></trkpt>
<trkpt lat="45.91305300" lon="6.37577600"><ele>803.864014</ele><time>2010-05-30T15:01:52Z</time></trkpt>
<trkpt lat="45.91288000" lon="6.37556000"><ele>802.521973</ele><time>2010-05-30T15:01:56Z</time></trkpt>
<trkpt lat="45.91272700" lon="6.37532400"><ele>801.650024</ele><time>2010-05-30T15:01:59Z</time></trkpt>
<trkpt lat="45.91240400" lon="6.37500700"><ele>799.76001</ele><time>2010-05-30T15:02:04Z</time></trkpt>
<trkpt lat="45.91209200" lon="6.37462300"><ele>797.955017</ele><time>2010-05-30T15:02:09Z</time></trkpt>
<trkpt lat="45.91196100" lon="6.37445200"><ele>797.232971</ele><time>2010-05-30T15:02:11Z</time></trkpt>
<trkpt lat="45.91155500" lon="6.37382200"><ele>796.320984</ele><time>2010-05-30T15:02:18Z</time></trkpt>
<trkpt lat="45.91128100" lon="6.37338100"><ele>796.557983</ele><time>2010-05-30T15:02:24Z</time></trkpt>
<trkpt lat="45.91100900" lon="6.37295400"><ele>797.182983</ele><time>2010-05-30T15:02:31Z</time></trkpt>
<trkpt lat="45.91078700" lon="6.37260400"><ele>797.411987</ele><time>2010-05-30T15:02:38Z</time></trkpt>
<trkpt lat="45.91056900" lon="6.37227700"><ele>796.538025</ele><time>2010-05-30T15:02:44Z</time></trkpt>
<trkpt lat="45.91029400" lon="6.37185000"><ele>794.111023</ele><time>2010-05-30T15:02:50Z</time></trkpt>
<trkpt lat="45.90991200" lon="6.37134000"><ele>789.098999</ele><time>2010-05-30T15:02:57Z</time></trkpt>
<trkpt lat="45.90952100" lon="6.37080900"><ele>784.419983</ele><time>2010-05-30T15:03:04Z</time></trkpt>
<trkpt lat="45.90946500" lon="6.37074000"><ele>783.564026</ele><time>2010-05-30T15:03:05Z</time></trkpt>
<trkpt lat="45.90930700" lon="6.37038300"><ele>780.822998</ele><time>2010-05-30T15:03:09Z</time></trkpt>
<trkpt lat="45.90921800" lon="6.36989500"><ele>777.059998</ele><time>2010-05-30T15:03:14Z</time></trkpt>
<trkpt lat="45.90921100" lon="6.36973000"><ele>776.026001</ele><time>2010-05-30T15:03:16Z</time></trkpt>
<trkpt lat="45.90916600" lon="6.36951400"><ele>774.19397</ele><time>2010-05-30T15:03:19Z</time></trkpt>
<trkpt lat="45.90907900" lon="6.36938100"><ele>773.577026</ele><time>2010-05-30T15:03:21Z</time></trkpt>
<trkpt lat="45.90874200" lon="6.36892700"><ele>771.885986</ele><time>2010-05-30T15:03:29Z</time></trkpt>
<trkpt lat="45.90847700" lon="6.36841100"><ele>769.658997</ele><time>2010-05-30T15:03:37Z</time></trkpt>
<trkpt lat="45.90835700" lon="6.36824800"><ele>768.70697</ele><time>2010-05-30T15:03:42Z</time></trkpt>
<trkpt lat="45.90825000" lon="6.36812600"><ele>768.343994</ele><time>2010-05-30T15:03:47Z</time></trkpt>
<trkpt lat="45.90808400" lon="6.36779400"><ele>767.958008</ele><time>2010-05-30T15:03:54Z</time></trkpt>
<trkpt lat="45.90788200" lon="6.36730600"><ele>766.671021</ele><time>2010-05-30T15:04:01Z</time></trkpt>
<trkpt lat="45.90764300" lon="6.36665100"><ele>764.411011</ele><time>2010-05-30T15:04:09Z</time></trkpt>
<trkpt lat="45.90742900" lon="6.36611800"><ele>762.375977</ele><time>2010-05-30T15:04:17Z</time></trkpt>
<trkpt lat="45.90722600" lon="6.36557800"><ele>760.411011</ele><time>2010-05-30T15:04:24Z</time></trkpt>
<trkpt lat="45.90705100" lon="6.36513200"><ele>759.023987</ele><time>2010-05-30T15:04:30Z</time></trkpt>
<trkpt lat="45.90688200" lon="6.36464200"><ele>757.479004</ele><time>2010-05-30T15:04:37Z</time></trkpt>
<trkpt lat="45.90675600" lon="6.36426100"><ele>756.828979</ele><time>2010-05-30T15:04:43Z</time></trkpt>
<trkpt lat="45.90665700" lon="6.36381100"><ele>756.437988</ele><time>2010-05-30T15:04:50Z</time></trkpt>
<trkpt lat="45.90655900" lon="6.36348500"><ele>755.596008</ele><time>2010-05-30T15:04:56Z</time></trkpt>
<trkpt lat="45.90646900" lon="6.36338700"><ele>755.125</ele><time>2010-05-30T15:04:59Z</time></trkpt>
<trkpt lat="45.90624100" lon="6.36314200"><ele>753.679993</ele><time>2010-05-30T15:05:05Z</time></trkpt>
<trkpt lat="45.90615900" lon="6.36306300"><ele>752.833008</ele><time>2010-05-30T15:05:07Z</time></trkpt>
<trkpt lat="45.90591200" lon="6.36276800"><ele>750.458984</ele><time>2010-05-30T15:05:13Z</time></trkpt>
<trkpt lat="45.90567800" lon="6.36223200"><ele>748.79303</ele><time>2010-05-30T15:05:20Z</time></trkpt>
<trkpt lat="45.90551700" lon="6.36186900"><ele>748.487</ele><time>2010-05-30T15:05:25Z</time></trkpt>
<trkpt lat="45.90541400" lon="6.36177300"><ele>748.267029</ele><time>2010-05-30T15:05:29Z</time></trkpt>
<trkpt lat="45.90540600" lon="6.36177100"><ele>748.117004</ele><time>2010-05-30T15:05:32Z</time></trkpt>
<trkpt lat="45.90538700" lon="6.36174000"><ele>748.26001</ele><time>2010-05-30T15:06:04Z</time></trkpt>
<trkpt lat="45.90538000" lon="6.36169200"><ele>748.435974</ele><time>2010-05-30T15:06:07Z</time></trkpt>
<trkpt lat="45.90532200" lon="6.36159600"><ele>748.528015</ele><time>2010-05-30T15:06:11Z</time></trkpt>
<trkpt lat="45.90516000" lon="6.36132300"><ele>749.288025</ele><time>2010-05-30T15:06:20Z</time></trkpt>
<trkpt lat="45.90508600" lon="6.36108900"><ele>750.880005</ele><time>2010-05-30T15:06:26Z</time></trkpt>
<trkpt lat="45.90506100" lon="6.36089600"><ele>751.232971</ele><time>2010-05-30T15:06:31Z</time></trkpt>
<trkpt lat="45.90490200" lon="6.36053400"><ele>750.97699</ele><time>2010-05-30T15:06:37Z</time></trkpt>
<trkpt lat="45.90467900" lon="6.36009800"><ele>750.109009</ele><time>2010-05-30T15:06:44Z</time></trkpt>
<trkpt lat="45.90443400" lon="6.35962200"><ele>748.177002</ele><time>2010-05-30T15:06:50Z</time></trkpt>
<trkpt lat="45.90422400" lon="6.35909100"><ele>746.72699</ele><time>2010-05-30T15:06:56Z</time></trkpt>
<trkpt lat="45.90405300" lon="6.35866900"><ele>746.656982</ele><time>2010-05-30T15:07:01Z</time></trkpt>
<trkpt lat="45.90387500" lon="6.35826500"><ele>746.642029</ele><time>2010-05-30T15:07:06Z</time></trkpt>
<trkpt lat="45.90365700" lon="6.35777100"><ele>746.632996</ele><time>2010-05-30T15:07:12Z</time></trkpt>
<trkpt lat="45.90345600" lon="6.35733100"><ele>746.632996</ele><time>2010-05-30T15:07:17Z</time></trkpt>
<trkpt lat="45.90175800" lon="6.35388800"><ele>746.632996</ele><time>2010-05-30T15:07:47Z</time></trkpt>
<trkpt lat="45.90169800" lon="6.35377900"><ele>746.632996</ele><time>2010-05-30T15:07:48Z</time></trkpt>
<trkpt lat="45.90158100" lon="6.35356500"><ele>726.43103</ele><time>2010-05-30T15:07:50Z</time></trkpt>
<trkpt lat="45.90128600" lon="6.35300400"><ele>717.189026</ele><time>2010-05-30T15:07:56Z</time></trkpt>
<trkpt lat="45.90115200" lon="6.35275400"><ele>715.656006</ele><time>2010-05-30T15:07:59Z</time></trkpt>
<trkpt lat="45.90066500" lon="6.35183300"><ele>715.572998</ele><time>2010-05-30T15:08:10Z</time></trkpt>
<trkpt lat="45.90031400" lon="6.35117700"><ele>715.500977</ele><time>2010-05-30T15:08:18Z</time></trkpt>
<trkpt lat="45.89990900" lon="6.35040700"><ele>703.841003</ele><time>2010-05-30T15:08:27Z</time></trkpt>
<trkpt lat="45.89959400" lon="6.34979900"><ele>695.788025</ele><time>2010-05-30T15:08:33Z</time></trkpt>
<trkpt lat="45.89929600" lon="6.34912800"><ele>690.810974</ele><time>2010-05-30T15:08:39Z</time></trkpt>
<trkpt lat="45.89907500" lon="6.34853000"><ele>686.453979</ele><time>2010-05-30T15:08:45Z</time></trkpt>
<trkpt lat="45.89886300" lon="6.34795700"><ele>682.729004</ele><time>2010-05-30T15:08:51Z</time></trkpt>
<trkpt lat="45.89857600" lon="6.34713600"><ele>677.687988</ele><time>2010-05-30T15:09:00Z</time></trkpt>
<trkpt lat="45.89819400" lon="6.34612000"><ele>672.192017</ele><time>2010-05-30T15:09:10Z</time></trkpt>
<trkpt lat="45.89792800" lon="6.34552200"><ele>668.999023</ele><time>2010-05-30T15:09:16Z</time></trkpt>
<trkpt lat="45.89743700" lon="6.34453200"><ele>665.171997</ele><time>2010-05-30T15:09:25Z</time></trkpt>
<trkpt lat="45.89691900" lon="6.34351800"><ele>662.219971</ele><time>2010-05-30T15:09:35Z</time></trkpt>
<trkpt lat="45.89646500" lon="6.34265000"><ele>660.437988</ele><time>2010-05-30T15:09:44Z</time></trkpt>
<trkpt lat="45.89577500" lon="6.34132200"><ele>659.763</ele><time>2010-05-30T15:09:58Z</time></trkpt>
<trkpt lat="45.89531700" lon="6.34044300"><ele>659.721985</ele><time>2010-05-30T15:10:07Z</time></trkpt>
<trkpt lat="45.89495300" lon="6.33974000"><ele>654.549011</ele><time>2010-05-30T15:10:14Z</time></trkpt>
<trkpt lat="45.89449000" lon="6.33884000"><ele>652.695984</ele><time>2010-05-30T15:10:23Z</time></trkpt>
<trkpt lat="45.89400400" lon="6.33784500"><ele>650.940979</ele><time>2010-05-30T15:10:33Z</time></trkpt>
<trkpt lat="45.89362500" lon="6.33710400"><ele>649.593018</ele><time>2010-05-30T15:10:41Z</time></trkpt>
<trkpt lat="45.89314600" lon="6.33623400"><ele>647.784973</ele><time>2010-05-30T15:10:51Z</time></trkpt>
<trkpt lat="45.89276900" lon="6.33554300"><ele>646.835022</ele><time>2010-05-30T15:10:59Z</time></trkpt>
<trkpt lat="45.89239400" lon="6.33485100"><ele>645.72699</ele><time>2010-05-30T15:11:07Z</time></trkpt>
<trkpt lat="45.89204400" lon="6.33415000"><ele>644.697998</ele><time>2010-05-30T15:11:15Z</time></trkpt>
<trkpt lat="45.89171200" lon="6.33347000"><ele>643.91803</ele><time>2010-05-30T15:11:23Z</time></trkpt>
<trkpt lat="45.89153400" lon="6.33312000"><ele>642.97998</ele><time>2010-05-30T15:11:28Z</time></trkpt>
<trkpt lat="45.89140600" lon="6.33295700"><ele>642.655029</ele><time>2010-05-30T15:11:33Z</time></trkpt>
<trkpt lat="45.89125600" lon="6.33277900"><ele>642.783997</ele><time>2010-05-30T15:11:38Z</time></trkpt>
<trkpt lat="45.89121700" lon="6.33274300"><ele>642.643982</ele><time>2010-05-30T15:11:39Z</time></trkpt>
<trkpt lat="45.89099900" lon="6.33271100"><ele>642.812988</ele><time>2010-05-30T15:11:44Z</time></trkpt>
<trkpt lat="45.89095700" lon="6.33273700"><ele>643.007019</ele><time>2010-05-30T15:11:45Z</time></trkpt>
<trkpt lat="45.89079200" lon="6.33284700"><ele>643.187012</ele><time>2010-05-30T15:11:49Z</time></trkpt>
<trkpt lat="45.89053500" lon="6.33288000"><ele>643.781006</ele><time>2010-05-30T15:11:55Z</time></trkpt>
<trkpt lat="45.89041200" lon="6.33281900"><ele>643.843994</ele><time>2010-05-30T15:11:58Z</time></trkpt>
<trkpt lat="45.89001500" lon="6.33250200"><ele>644.064026</ele><time>2010-05-30T15:12:08Z</time></trkpt>
<trkpt lat="45.88961700" lon="6.33216600"><ele>643.937988</ele><time>2010-05-30T15:12:17Z</time></trkpt>
<trkpt lat="45.88925100" lon="6.33185000"><ele>643.70697</ele><time>2010-05-30T15:12:25Z</time></trkpt>
<trkpt lat="45.88886900" lon="6.33152800"><ele>643.057983</ele><time>2010-05-30T15:12:34Z</time></trkpt>
<trkpt lat="45.88870200" lon="6.33138200"><ele>642.590027</ele><time>2010-05-30T15:12:38Z</time></trkpt>
<trkpt lat="45.88837000" lon="6.33110200"><ele>641.448975</ele><time>2010-05-30T15:12:45Z</time></trkpt>
<trkpt lat="45.88816100" lon="6.33091100"><ele>640.747009</ele><time>2010-05-30T15:12:49Z</time></trkpt>
<trkpt lat="45.88768200" lon="6.33050500"><ele>639.343994</ele><time>2010-05-30T15:12:57Z</time></trkpt>
<trkpt lat="45.88723300" lon="6.33012900"><ele>638.054016</ele><time>2010-05-30T15:13:04Z</time></trkpt>
<trkpt lat="45.88680500" lon="6.32976700"><ele>636.10199</ele><time>2010-05-30T15:13:11Z</time></trkpt>
<trkpt lat="45.88641200" lon="6.32943100"><ele>633.747986</ele><time>2010-05-30T15:13:18Z</time></trkpt>
<trkpt lat="45.88592500" lon="6.32902200"><ele>632.083984</ele><time>2010-05-30T15:13:27Z</time></trkpt>
<trkpt lat="45.88542500" lon="6.32857700"><ele>630.580017</ele><time>2010-05-30T15:13:37Z</time></trkpt>
<trkpt lat="45.88494800" lon="6.32817500"><ele>629.517029</ele><time>2010-05-30T15:13:46Z</time></trkpt>
<trkpt lat="45.88456900" lon="6.32786500"><ele>628.723999</ele><time>2010-05-30T15:13:53Z</time></trkpt>
<trkpt lat="45.88441200" lon="6.32762700"><ele>628.401001</ele><time>2010-05-30T15:13:57Z</time></trkpt>
<trkpt lat="45.88424200" lon="6.32729800"><ele>627.815002</ele><time>2010-05-30T15:14:02Z</time></trkpt>
<trkpt lat="45.88403200" lon="6.32713000"><ele>627.120972</ele><time>2010-05-30T15:14:07Z</time></trkpt>
<trkpt lat="45.88389400" lon="6.32708000"><ele>626.741028</ele><time>2010-05-30T15:14:10Z</time></trkpt>
<trkpt lat="45.88354400" lon="6.32697900"><ele>626.754028</ele><time>2010-05-30T15:14:19Z</time></trkpt>
<trkpt lat="45.88331400" lon="6.32681200"><ele>626.536011</ele><time>2010-05-30T15:14:26Z</time></trkpt>
<trkpt lat="45.88307800" lon="6.32656800"><ele>625.856995</ele><time>2010-05-30T15:14:33Z</time></trkpt>
<trkpt lat="45.88283700" lon="6.32628600"><ele>624.997009</ele><time>2010-05-30T15:14:40Z</time></trkpt>
<trkpt lat="45.88272600" lon="6.32598100"><ele>624.47699</ele><time>2010-05-30T15:14:45Z</time></trkpt>
<trkpt lat="45.88261100" lon="6.32559500"><ele>623.906982</ele><time>2010-05-30T15:14:51Z</time></trkpt>
<trkpt lat="45.88243800" lon="6.32515000"><ele>623.434998</ele><time>2010-05-30T15:14:59Z</time></trkpt>
<trkpt lat="45.88232000" lon="6.32491100"><ele>623.28302</ele><time>2010-05-30T15:15:05Z</time></trkpt>
<trkpt lat="45.88218600" lon="6.32471400"><ele>622.960022</ele><time>2010-05-30T15:15:12Z</time></trkpt>
<trkpt lat="45.88202800" lon="6.32456000"><ele>622.994019</ele><time>2010-05-30T15:15:19Z</time></trkpt>
<trkpt lat="45.88182600" lon="6.32442600"><ele>622.723022</ele><time>2010-05-30T15:15:25Z</time></trkpt>
<trkpt lat="45.88177100" lon="6.32430300"><ele>622.276001</ele><time>2010-05-30T15:15:29Z</time></trkpt>
<trkpt lat="45.88177100" lon="6.32428000"><ele>622.195984</ele><time>2010-05-30T15:15:32Z</time></trkpt>
<trkpt lat="45.88182500" lon="6.32404800"><ele>621.914978</ele><time>2010-05-30T15:15:45Z</time></trkpt>
<trkpt lat="45.88187400" lon="6.32385200"><ele>621.90802</ele><time>2010-05-30T15:15:50Z</time></trkpt>
<trkpt lat="45.88194500" lon="6.32368100"><ele>622.130005</ele><time>2010-05-30T15:15:56Z</time></trkpt>
<trkpt lat="45.88190200" lon="6.32353500"><ele>622.127014</ele><time>2010-05-30T15:16:01Z</time></trkpt>
<trkpt lat="45.88180800" lon="6.32359000"><ele>621.887024</ele><time>2010-05-30T15:16:06Z</time></trkpt>
<trkpt lat="45.88183200" lon="6.32370200"><ele>621.757996</ele><time>2010-05-30T15:16:10Z</time></trkpt>
<trkpt lat="45.88194200" lon="6.32371600"><ele>621.921997</ele><time>2010-05-30T15:16:14Z</time></trkpt>
<trkpt lat="45.88206700" lon="6.32360000"><ele>622.255981</ele><time>2010-05-30T15:16:19Z</time></trkpt>
<trkpt lat="45.88220700" lon="6.32338600"><ele>622.763</ele><time>2010-05-30T15:16:27Z</time></trkpt>
<trkpt lat="45.88237000" lon="6.32313900"><ele>622.932007</ele><time>2010-05-30T15:16:35Z</time></trkpt>
<trkpt lat="45.88253200" lon="6.32288000"><ele>622.773987</ele><time>2010-05-30T15:16:42Z</time></trkpt>
<trkpt lat="45.88267500" lon="6.32274400"><ele>622.58197</ele><time>2010-05-30T15:16:48Z</time></trkpt>
<trkpt lat="45.88282300" lon="6.32276700"><ele>622.262024</ele><time>2010-05-30T15:16:53Z</time></trkpt>
<trkpt lat="45.88291100" lon="6.32261500"><ele>621.999023</ele><time>2010-05-30T15:16:57Z</time></trkpt>
<trkpt lat="45.88288100" lon="6.32246900"><ele>621.948975</ele><time>2010-05-30T15:17:00Z</time></trkpt>
<trkpt lat="45.88279000" lon="6.32242600"><ele>622.104004</ele><time>2010-05-30T15:17:03Z</time></trkpt>
<trkpt lat="45.88268100" lon="6.32251200"><ele>622.20697</ele><time>2010-05-30T15:17:07Z</time></trkpt>
<trkpt lat="45.88253300" lon="6.32276500"><ele>622.143005</ele><time>2010-05-30T15:17:15Z</time></trkpt>
<trkpt lat="45.88236600" lon="6.32301300"><ele>622.52002</ele><time>2010-05-30T15:17:22Z</time></trkpt>
<trkpt lat="45.88212700" lon="6.32339700"><ele>621.916992</ele><time>2010-05-30T15:17:32Z</time></trkpt>
<trkpt lat="45.88192500" lon="6.32372200"><ele>621.492981</ele><time>2010-05-30T15:17:41Z</time></trkpt>
<trkpt lat="45.88178300" lon="6.32406500"><ele>621.116028</ele><time>2010-05-30T15:17:48Z</time></trkpt>
<trkpt lat="45.88171500" lon="6.32424700"><ele>621.130981</ele><time>2010-05-30T15:17:53Z</time></trkpt>
<trkpt lat="45.88158800" lon="6.32439700"><ele>621.528992</ele><time>2010-05-30T15:18:01Z</time></trkpt>
<trkpt lat="45.88147700" lon="6.32451900"><ele>621.901001</ele><time>2010-05-30T15:18:08Z</time></trkpt>
<trkpt lat="45.88132900" lon="6.32476100"><ele>622.633972</ele><time>2010-05-30T15:18:17Z</time></trkpt>
<trkpt lat="45.88129700" lon="6.32493700"><ele>622.926025</ele><time>2010-05-30T15:18:24Z</time></trkpt>
<trkpt lat="45.88137500" lon="6.32497600"><ele>623.01001</ele><time>2010-05-30T15:18:29Z</time></trkpt>
<trkpt lat="45.88143800" lon="6.32498300"><ele>622.848999</ele><time>2010-05-30T15:18:32Z</time></trkpt>
<trkpt lat="45.88162100" lon="6.32501800"><ele>622.698975</ele><time>2010-05-30T15:18:39Z</time></trkpt>
<trkpt lat="45.88185900" lon="6.32481200"><ele>622.245972</ele><time>2010-05-30T15:18:47Z</time></trkpt>
<trkpt lat="45.88194600" lon="6.32459100"><ele>621.900024</ele><time>2010-05-30T15:18:54Z</time></trkpt>
<trkpt lat="45.88194500" lon="6.32457300"><ele>621.703003</ele><time>2010-05-30T15:18:56Z</time></trkpt>
<trkpt lat="45.88190500" lon="6.32443100"><ele>621.658997</ele><time>2010-05-30T15:19:09Z</time></trkpt>
<trkpt lat="45.88180700" lon="6.32425000"><ele>621.5</ele><time>2010-05-30T15:19:15Z</time></trkpt>
<trkpt lat="45.88183000" lon="6.32405000"><ele>621.463989</ele><time>2010-05-30T15:19:20Z</time></trkpt>
<trkpt lat="45.88190100" lon="6.32388200"><ele>621.271973</ele><time>2010-05-30T15:19:26Z</time></trkpt>
<trkpt lat="45.88190500" lon="6.32387900"><ele>621.146973</ele><time>2010-05-30T15:19:28Z</time></trkpt>
<trkpt lat="45.88187400" lon="6.32369200"><ele>621.138</ele><time>2010-05-30T15:20:36Z</time></trkpt>
<trkpt lat="45.88184700" lon="6.32363100"><ele>621.317993</ele><time>2010-05-30T15:20:38Z</time></trkpt>
<trkpt lat="45.88181800" lon="6.32342000"><ele>621.36499</ele><time>2010-05-30T15:20:46Z</time></trkpt>
<trkpt lat="45.88180100" lon="6.32340800"><ele>621.29303</ele><time>2010-05-30T15:20:50Z</time></trkpt>
<trkpt lat="45.88177400" lon="6.32328700"><ele>621.435974</ele><time>2010-05-30T15:21:05Z</time></trkpt>
<trkpt lat="45.88172900" lon="6.32313100"><ele>621.620972</ele><time>2010-05-30T15:21:11Z</time></trkpt>
<trkpt lat="45.88170400" lon="6.32303400"><ele>621.788025</ele><time>2010-05-30T15:21:17Z</time></trkpt>
<trkpt lat="45.88170200" lon="6.32302700"><ele>621.79303</ele><time>2010-05-30T15:21:18Z</time></trkpt>
<trkpt lat="45.88172300" lon="6.32316900"><ele>621.413025</ele><time>2010-05-30T15:21:56Z</time></trkpt>
<trkpt lat="45.88180400" lon="6.32335500"><ele>621.184021</ele><time>2010-05-30T15:22:01Z</time></trkpt>
<trkpt lat="45.88182400" lon="6.32348300"><ele>621.137024</ele><time>2010-05-30T15:22:04Z</time></trkpt>
<trkpt lat="45.88183300" lon="6.32364800"><ele>621.02002</ele><time>2010-05-30T15:22:08Z</time></trkpt>
<trkpt lat="45.88187100" lon="6.32371400"><ele>621.085022</ele><time>2010-05-30T15:22:13Z</time></trkpt>
<trkpt lat="45.88200100" lon="6.32370200"><ele>621.140991</ele><time>2010-05-30T15:22:21Z</time></trkpt>
<trkpt lat="45.88218500" lon="6.32342700"><ele>621.937012</ele><time>2010-05-30T15:22:29Z</time></trkpt>
<trkpt lat="45.88242100" lon="6.32305300"><ele>622.229004</ele><time>2010-05-30T15:22:39Z</time></trkpt>
<trkpt lat="45.88260800" lon="6.32276800"><ele>621.710022</ele><time>2010-05-30T15:22:47Z</time></trkpt>
<trkpt lat="45.88272700" lon="6.32277300"><ele>621.705994</ele><time>2010-05-30T15:22:51Z</time></trkpt>
<trkpt lat="45.88280100" lon="6.32294800"><ele>621.327026</ele><time>2010-05-30T15:22:56Z</time></trkpt>
<trkpt lat="45.88283400" lon="6.32338600"><ele>621.982971</ele><time>2010-05-30T15:23:05Z</time></trkpt>
<trkpt lat="45.88286300" lon="6.32376900"><ele>622.604004</ele><time>2010-05-30T15:23:13Z</time></trkpt>
<trkpt lat="45.88294800" lon="6.32406500"><ele>623.221008</ele><time>2010-05-30T15:23:21Z</time></trkpt>
<trkpt lat="45.88305900" lon="6.32407300"><ele>623.143005</ele><time>2010-05-30T15:23:26Z</time></trkpt>
<trkpt lat="45.88304200" lon="6.32397100"><ele>623.005005</ele><time>2010-05-30T15:23:29Z</time></trkpt>
<trkpt lat="45.88302400" lon="6.32393500"><ele>623.041016</ele><time>2010-05-30T15:23:30Z</time></trkpt>
<trkpt lat="45.88294000" lon="6.32360600"><ele>622.491028</ele><time>2010-05-30T15:23:37Z</time></trkpt>
<trkpt lat="45.88291300" lon="6.32331700"><ele>621.687012</ele><time>2010-05-30T15:23:43Z</time></trkpt>
<trkpt lat="45.88291900" lon="6.32328600"><ele>621.301025</ele><time>2010-05-30T15:23:45Z</time></trkpt>
<trkpt lat="45.88299900" lon="6.32328300"><ele>620.950989</ele><time>2010-05-30T15:23:49Z</time></trkpt>
<trkpt lat="45.88306800" lon="6.32328600"><ele>620.69397</ele><time>2010-05-30T15:23:51Z</time></trkpt>
<trkpt lat="45.88325400" lon="6.32317100"><ele>619.815979</ele><time>2010-05-30T15:23:56Z</time></trkpt>
<trkpt lat="45.88339700" lon="6.32302500"><ele>619.179016</ele><time>2010-05-30T15:24:01Z</time></trkpt>
<trkpt lat="45.88353300" lon="6.32290800"><ele>618.434021</ele><time>2010-05-30T15:24:07Z</time></trkpt>
<trkpt lat="45.88357200" lon="6.32290500"><ele>618.518982</ele><time>2010-05-30T15:24:11Z</time></trkpt>
</trkseg></trk></gpx>